<?xml version='1.0' encoding='UTF-8'?><gpx version="1.1" creator="JPX - https://github.com/jenetics/jpx" xmlns="http://www.topografix.com/GPX/1/1"><trk><trkseg><trkpt lat="44.4376858" lon="8.8923982"><ele>28.000000000000004</ele><time>2026-03-22T08:46:07.656Z</time></trkpt><trkpt lat="44.4377823" lon="8.8923414"><ele>28.0</ele><time>2026-03-22T08:46:09.657Z</time></trkpt><trkpt lat="44.437896" lon="8.8923061"><ele>28.0</ele><time>2026-03-22T08:46:11.656Z</time></trkpt><trkpt lat="44.4379587" lon="8.8922949"><ele>28.0</ele><time>2026-03-22T08:46:12.657Z</time></trkpt><trkpt lat="44.4380239" lon="8.8922843"><ele>28.000000000000004</ele><time>2026-03-22T08:46:13.657Z</time></trkpt><trkpt lat="44.4380888" lon="8.8922745"><ele>28.0</ele><time>2026-03-22T08:46:14.657Z</time></trkpt><trkpt lat="44.4381536" lon="8.8922629"><ele>28.666666666666668</ele><time>2026-03-22T08:46:15.656Z</time></trkpt><trkpt lat="44.4382763" lon="8.8922403"><ele>29.333333333333336</ele><time>2026-03-22T08:46:17.656Z</time></trkpt><trkpt lat="44.4383402" lon="8.8922288"><ele>30.0</ele><time>2026-03-22T08:46:18.657Z</time></trkpt><trkpt lat="44.4384038" lon="8.8922151"><ele>30.666666666666664</ele><time>2026-03-22T08:46:19.656Z</time></trkpt><trkpt lat="44.4384705" lon="8.8922009"><ele>31.333333333333332</ele><time>2026-03-22T08:46:20.656Z</time></trkpt><trkpt lat="44.4385363" lon="8.8921876"><ele>32.0</ele><time>2026-03-22T08:46:21.657Z</time></trkpt><trkpt lat="44.4386029" lon="8.8921752"><ele>32.0</ele><time>2026-03-22T08:46:22.657Z</time></trkpt><trkpt lat="44.4386683" lon="8.8921562"><ele>31.999999999999996</ele><time>2026-03-22T08:46:23.656Z</time></trkpt><trkpt lat="44.4387322" lon="8.8921389"><ele>32.0</ele><time>2026-03-22T08:46:24.657Z</time></trkpt><trkpt lat="44.4387974" lon="8.8921192"><ele>32.0</ele><time>2026-03-22T08:46:25.656Z</time></trkpt><trkpt lat="44.4388638" lon="8.8920975"><ele>31.999999999999996</ele><time>2026-03-22T08:46:26.656Z</time></trkpt><trkpt lat="44.4389304" lon="8.8920757"><ele>32.0</ele><time>2026-03-22T08:46:27.657Z</time></trkpt><trkpt lat="44.438997" lon="8.8920567"><ele>32.0</ele><time>2026-03-22T08:46:28.657Z</time></trkpt><trkpt lat="44.439064" lon="8.8920389"><ele>33.0</ele><time>2026-03-22T08:46:29.656Z</time></trkpt><trkpt lat="44.4391305" lon="8.8920202"><ele>34.0</ele><time>2026-03-22T08:46:30.657Z</time></trkpt><trkpt lat="44.4392004" lon="8.8920006"><ele>35.0</ele><time>2026-03-22T08:46:31.658Z</time></trkpt><trkpt lat="44.4392722" lon="8.8919842"><ele>36.0</ele><time>2026-03-22T08:46:32.657Z</time></trkpt><trkpt lat="44.4393414" lon="8.8919585"><ele>37.0</ele><time>2026-03-22T08:46:33.657Z</time></trkpt><trkpt lat="44.4394098" lon="8.8919362"><ele>38.0</ele><time>2026-03-22T08:46:34.656Z</time></trkpt><trkpt lat="44.4394792" lon="8.8919072"><ele>39.0</ele><time>2026-03-22T08:46:35.657Z</time></trkpt><trkpt lat="44.4395474" lon="8.8918837"><ele>39.0</ele><time>2026-03-22T08:46:36.656Z</time></trkpt><trkpt lat="44.4396181" lon="8.8918595"><ele>39.0</ele><time>2026-03-22T08:46:37.656Z</time></trkpt><trkpt lat="44.4396834" lon="8.8918276"><ele>39.0</ele><time>2026-03-22T08:46:38.657Z</time></trkpt><trkpt lat="44.4397495" lon="8.8918012"><ele>39.0</ele><time>2026-03-22T08:46:39.656Z</time></trkpt><trkpt lat="44.4398132" lon="8.8917742"><ele>39.0</ele><time>2026-03-22T08:46:40.657Z</time></trkpt><trkpt lat="44.4398765" lon="8.891753"><ele>39.0</ele><time>2026-03-22T08:46:41.657Z</time></trkpt><trkpt lat="44.4399386" lon="8.8917276"><ele>39.0</ele><time>2026-03-22T08:46:42.657Z</time></trkpt><trkpt lat="44.4399997" lon="8.891701"><ele>37.5</ele><time>2026-03-22T08:46:43.656Z</time></trkpt><trkpt lat="44.4400639" lon="8.8916763"><ele>36.0</ele><time>2026-03-22T08:46:44.656Z</time></trkpt><trkpt lat="44.4401278" lon="8.8916521"><ele>34.5</ele><time>2026-03-22T08:46:45.656Z</time></trkpt><trkpt lat="44.4401941" lon="8.8916306"><ele>33.0</ele><time>2026-03-22T08:46:46.658Z</time></trkpt><trkpt lat="44.440256" lon="8.8916072"><ele>31.5</ele><time>2026-03-22T08:46:47.656Z</time></trkpt><trkpt lat="44.4403187" lon="8.8915889"><ele>30.0</ele><time>2026-03-22T08:46:48.657Z</time></trkpt><trkpt lat="44.4404467" lon="8.8915877"><ele>29.666666666666668</ele><time>2026-03-22T08:46:50.657Z</time></trkpt><trkpt lat="44.4405194" lon="8.8916181"><ele>29.333333333333336</ele><time>2026-03-22T08:46:51.656Z</time></trkpt><trkpt lat="44.4405789" lon="8.8916516"><ele>29.0</ele><time>2026-03-22T08:46:52.657Z</time></trkpt><trkpt lat="44.4406696" lon="8.8917276"><ele>28.666666666666668</ele><time>2026-03-22T08:46:54.656Z</time></trkpt><trkpt lat="44.4407866" lon="8.8918011"><ele>28.333333333333336</ele><time>2026-03-22T08:46:56.658Z</time></trkpt><trkpt lat="44.4408514" lon="8.8918328"><ele>28.0</ele><time>2026-03-22T08:46:57.656Z</time></trkpt><trkpt lat="44.4409354" lon="8.8918628"><ele>28.75</ele><time>2026-03-22T08:46:58.656Z</time></trkpt><trkpt lat="44.4410301" lon="8.8918917"><ele>29.5</ele><time>2026-03-22T08:46:59.657Z</time></trkpt><trkpt lat="44.4411407" lon="8.891924"><ele>30.25</ele><time>2026-03-22T08:47:00.657Z</time></trkpt><trkpt lat="44.4412618" lon="8.8919631"><ele>31.0</ele><time>2026-03-22T08:47:01.656Z</time></trkpt><trkpt lat="44.4413837" lon="8.8920052"><ele>31.0</ele><time>2026-03-22T08:47:02.656Z</time></trkpt><trkpt lat="44.4415008" lon="8.8920465"><ele>31.0</ele><time>2026-03-22T08:47:03.657Z</time></trkpt><trkpt lat="44.4416235" lon="8.8920869"><ele>31.0</ele><time>2026-03-22T08:47:04.657Z</time></trkpt><trkpt lat="44.4417461" lon="8.892136"><ele>31.0</ele><time>2026-03-22T08:47:05.657Z</time></trkpt><trkpt lat="44.4418638" lon="8.8921771"><ele>31.0</ele><time>2026-03-22T08:47:06.657Z</time></trkpt><trkpt lat="44.4419743" lon="8.8922252"><ele>31.0</ele><time>2026-03-22T08:47:07.656Z</time></trkpt><trkpt lat="44.4420816" lon="8.8922651"><ele>31.0</ele><time>2026-03-22T08:47:08.657Z</time></trkpt><trkpt lat="44.4421893" lon="8.892313"><ele>31.0</ele><time>2026-03-22T08:47:09.656Z</time></trkpt><trkpt lat="44.4423025" lon="8.8923505"><ele>31.6</ele><time>2026-03-22T08:47:10.656Z</time></trkpt><trkpt lat="44.4424109" lon="8.8923887"><ele>32.2</ele><time>2026-03-22T08:47:11.657Z</time></trkpt><trkpt lat="44.4425165" lon="8.892424"><ele>32.8</ele><time>2026-03-22T08:47:12.658Z</time></trkpt><trkpt lat="44.4426196" lon="8.8924595"><ele>33.4</ele><time>2026-03-22T08:47:13.657Z</time></trkpt><trkpt lat="44.4427198" lon="8.8924959"><ele>34.0</ele><time>2026-03-22T08:47:14.657Z</time></trkpt><trkpt lat="44.442819" lon="8.8925337"><ele>34.0</ele><time>2026-03-22T08:47:15.657Z</time></trkpt><trkpt lat="44.4429152" lon="8.8925725"><ele>34.0</ele><time>2026-03-22T08:47:16.656Z</time></trkpt><trkpt lat="44.4430091" lon="8.892608"><ele>34.0</ele><time>2026-03-22T08:47:17.657Z</time></trkpt><trkpt lat="44.4431003" lon="8.8926419"><ele>34.0</ele><time>2026-03-22T08:47:18.656Z</time></trkpt><trkpt lat="44.4431899" lon="8.8926733"><ele>34.0</ele><time>2026-03-22T08:47:19.657Z</time></trkpt><trkpt lat="44.4432829" lon="8.8927066"><ele>33.5</ele><time>2026-03-22T08:47:20.656Z</time></trkpt><trkpt lat="44.4433741" lon="8.8927401"><ele>33.0</ele><time>2026-03-22T08:47:21.657Z</time></trkpt><trkpt lat="44.4434607" lon="8.8927703"><ele>32.5</ele><time>2026-03-22T08:47:22.656Z</time></trkpt><trkpt lat="44.4435472" lon="8.8928002"><ele>32.0</ele><time>2026-03-22T08:47:23.658Z</time></trkpt><trkpt lat="44.4436322" lon="8.8928308"><ele>31.500000000000004</ele><time>2026-03-22T08:47:24.658Z</time></trkpt><trkpt lat="44.4437179" lon="8.8928588"><ele>31.0</ele><time>2026-03-22T08:47:25.656Z</time></trkpt><trkpt lat="44.4438043" lon="8.8928855"><ele>30.8</ele><time>2026-03-22T08:47:26.657Z</time></trkpt><trkpt lat="44.4438926" lon="8.8929121"><ele>30.6</ele><time>2026-03-22T08:47:27.656Z</time></trkpt><trkpt lat="44.4439821" lon="8.8929386"><ele>30.4</ele><time>2026-03-22T08:47:28.657Z</time></trkpt><trkpt lat="44.4440709" lon="8.8929649"><ele>30.2</ele><time>2026-03-22T08:47:29.658Z</time></trkpt><trkpt lat="44.444161" lon="8.892995"><ele>30.0</ele><time>2026-03-22T08:47:30.656Z</time></trkpt><trkpt lat="44.4442529" lon="8.8930294"><ele>30.0</ele><time>2026-03-22T08:47:31.658Z</time></trkpt><trkpt lat="44.4443415" lon="8.89306"><ele>30.0</ele><time>2026-03-22T08:47:32.656Z</time></trkpt><trkpt lat="44.4444312" lon="8.8930901"><ele>30.0</ele><time>2026-03-22T08:47:33.657Z</time></trkpt><trkpt lat="44.4445222" lon="8.8931223"><ele>30.0</ele><time>2026-03-22T08:47:34.656Z</time></trkpt><trkpt lat="44.4446139" lon="8.8931539"><ele>30.0</ele><time>2026-03-22T08:47:35.657Z</time></trkpt><trkpt lat="44.4447019" lon="8.8931824"><ele>29.833333333333332</ele><time>2026-03-22T08:47:36.657Z</time></trkpt><trkpt lat="44.4447876" lon="8.8932089"><ele>29.666666666666664</ele><time>2026-03-22T08:47:37.656Z</time></trkpt><trkpt lat="44.4448713" lon="8.8932281"><ele>29.5</ele><time>2026-03-22T08:47:38.656Z</time></trkpt><trkpt lat="44.4449571" lon="8.8932379"><ele>29.333333333333332</ele><time>2026-03-22T08:47:39.657Z</time></trkpt><trkpt lat="44.445043" lon="8.8932401"><ele>29.166666666666664</ele><time>2026-03-22T08:47:40.656Z</time></trkpt><trkpt lat="44.4451217" lon="8.8932374"><ele>29.0</ele><time>2026-03-22T08:47:41.656Z</time></trkpt><trkpt lat="44.4451936" lon="8.893237"><ele>29.000000000000004</ele><time>2026-03-22T08:47:42.657Z</time></trkpt><trkpt lat="44.4452621" lon="8.8932553"><ele>29.0</ele><time>2026-03-22T08:47:43.657Z</time></trkpt><trkpt lat="44.4453232" lon="8.8932851"><ele>29.000000000000004</ele><time>2026-03-22T08:47:44.656Z</time></trkpt><trkpt lat="44.4453922" lon="8.8933201"><ele>29.000000000000004</ele><time>2026-03-22T08:47:45.656Z</time></trkpt><trkpt lat="44.4454696" lon="8.8933545"><ele>29.0</ele><time>2026-03-22T08:47:46.658Z</time></trkpt><trkpt lat="44.4455436" lon="8.8933887"><ele>29.000000000000004</ele><time>2026-03-22T08:47:47.658Z</time></trkpt><trkpt lat="44.4456172" lon="8.8934289"><ele>29.000000000000004</ele><time>2026-03-22T08:47:48.658Z</time></trkpt><trkpt lat="44.4456952" lon="8.8934681"><ele>29.166666666666664</ele><time>2026-03-22T08:47:49.657Z</time></trkpt><trkpt lat="44.4457767" lon="8.8935009"><ele>29.333333333333332</ele><time>2026-03-22T08:47:50.656Z</time></trkpt><trkpt lat="44.4458602" lon="8.8935274"><ele>29.5</ele><time>2026-03-22T08:47:51.657Z</time></trkpt><trkpt lat="44.445941" lon="8.8935523"><ele>29.666666666666664</ele><time>2026-03-22T08:47:52.657Z</time></trkpt><trkpt lat="44.446023" lon="8.8935773"><ele>29.833333333333332</ele><time>2026-03-22T08:47:53.656Z</time></trkpt><trkpt lat="44.4461035" lon="8.8936019"><ele>30.0</ele><time>2026-03-22T08:47:54.657Z</time></trkpt><trkpt lat="44.4461852" lon="8.8936283"><ele>30.0</ele><time>2026-03-22T08:47:55.657Z</time></trkpt><trkpt lat="44.4462579" lon="8.8936536"><ele>30.0</ele><time>2026-03-22T08:47:56.656Z</time></trkpt><trkpt lat="44.4463219" lon="8.8936781"><ele>30.0</ele><time>2026-03-22T08:47:57.656Z</time></trkpt><trkpt lat="44.4464537" lon="8.893719"><ele>30.0</ele><time>2026-03-22T08:47:59.656Z</time></trkpt><trkpt lat="44.4465337" lon="8.893742"><ele>30.0</ele><time>2026-03-22T08:48:00.657Z</time></trkpt><trkpt lat="44.4466061" lon="8.8937604"><ele>30.0</ele><time>2026-03-22T08:48:01.657Z</time></trkpt><trkpt lat="44.4466728" lon="8.8937769"><ele>30.5</ele><time>2026-03-22T08:48:02.657Z</time></trkpt><trkpt lat="44.4467401" lon="8.893793"><ele>31.0</ele><time>2026-03-22T08:48:03.657Z</time></trkpt><trkpt lat="44.4468127" lon="8.8938122"><ele>31.5</ele><time>2026-03-22T08:48:04.656Z</time></trkpt><trkpt lat="44.4468897" lon="8.8938316"><ele>32.0</ele><time>2026-03-22T08:48:05.657Z</time></trkpt><trkpt lat="44.4469669" lon="8.8938518"><ele>32.5</ele><time>2026-03-22T08:48:06.658Z</time></trkpt><trkpt lat="44.4470465" lon="8.8938718"><ele>33.0</ele><time>2026-03-22T08:48:07.657Z</time></trkpt><trkpt lat="44.4471274" lon="8.8938918"><ele>33.0</ele><time>2026-03-22T08:48:08.656Z</time></trkpt><trkpt lat="44.4472078" lon="8.8939117"><ele>33.0</ele><time>2026-03-22T08:48:09.656Z</time></trkpt><trkpt lat="44.4472873" lon="8.8939296"><ele>33.0</ele><time>2026-03-22T08:48:10.656Z</time></trkpt><trkpt lat="44.4473698" lon="8.8939474"><ele>33.0</ele><time>2026-03-22T08:48:11.656Z</time></trkpt><trkpt lat="44.4474508" lon="8.893967"><ele>33.0</ele><time>2026-03-22T08:48:12.656Z</time></trkpt><trkpt lat="44.4475293" lon="8.8939873"><ele>33.0</ele><time>2026-03-22T08:48:13.658Z</time></trkpt><trkpt lat="44.4476023" lon="8.8940042"><ele>33.0</ele><time>2026-03-22T08:48:14.656Z</time></trkpt><trkpt lat="44.447688" lon="8.8940258"><ele>33.0</ele><time>2026-03-22T08:48:16.657Z</time></trkpt><trkpt lat="44.4477845" lon="8.8940599"><ele>33.0</ele><time>2026-03-22T08:48:19.657Z</time></trkpt><trkpt lat="44.4478728" lon="8.8940844"><ele>33.0</ele><time>2026-03-22T08:48:21.658Z</time></trkpt><trkpt lat="44.4479708" lon="8.8941086"><ele>33.0</ele><time>2026-03-22T08:48:23.656Z</time></trkpt><trkpt lat="44.4480891" lon="8.8941276"><ele>32.8</ele><time>2026-03-22T08:48:25.657Z</time></trkpt><trkpt lat="44.4482058" lon="8.894137"><ele>32.599999999999994</ele><time>2026-03-22T08:48:27.657Z</time></trkpt><trkpt lat="44.4483189" lon="8.8941457"><ele>32.400000000000006</ele><time>2026-03-22T08:48:29.657Z</time></trkpt><trkpt lat="44.4484448" lon="8.8941586"><ele>32.2</ele><time>2026-03-22T08:48:31.657Z</time></trkpt><trkpt lat="44.4485079" lon="8.8941626"><ele>32.0</ele><time>2026-03-22T08:48:32.658Z</time></trkpt><trkpt lat="44.4485712" lon="8.894168"><ele>31.999999999999996</ele><time>2026-03-22T08:48:33.656Z</time></trkpt><trkpt lat="44.448635" lon="8.8941731"><ele>32.0</ele><time>2026-03-22T08:48:34.656Z</time></trkpt><trkpt lat="44.4486981" lon="8.8941792"><ele>32.0</ele><time>2026-03-22T08:48:35.656Z</time></trkpt><trkpt lat="44.4487649" lon="8.8941811"><ele>32.0</ele><time>2026-03-22T08:48:36.657Z</time></trkpt><trkpt lat="44.4488282" lon="8.8941816"><ele>31.999999999999996</ele><time>2026-03-22T08:48:37.657Z</time></trkpt><trkpt lat="44.4489569" lon="8.8941816"><ele>32.0</ele><time>2026-03-22T08:48:39.656Z</time></trkpt><trkpt lat="44.4490232" lon="8.8941822"><ele>32.14285714285714</ele><time>2026-03-22T08:48:40.657Z</time></trkpt><trkpt lat="44.4490935" lon="8.8941822"><ele>32.285714285714285</ele><time>2026-03-22T08:48:41.656Z</time></trkpt><trkpt lat="44.4491679" lon="8.8941857"><ele>32.42857142857143</ele><time>2026-03-22T08:48:42.658Z</time></trkpt><trkpt lat="44.4492421" lon="8.8941913"><ele>32.57142857142857</ele><time>2026-03-22T08:48:43.657Z</time></trkpt><trkpt lat="44.4493144" lon="8.8941948"><ele>32.714285714285715</ele><time>2026-03-22T08:48:44.658Z</time></trkpt><trkpt lat="44.4493892" lon="8.8942003"><ele>32.857142857142854</ele><time>2026-03-22T08:48:45.656Z</time></trkpt><trkpt lat="44.4494628" lon="8.8942034"><ele>33.0</ele><time>2026-03-22T08:48:46.657Z</time></trkpt><trkpt lat="44.4495323" lon="8.8942026"><ele>33.0</ele><time>2026-03-22T08:48:47.657Z</time></trkpt><trkpt lat="44.4495981" lon="8.8942058"><ele>33.0</ele><time>2026-03-22T08:48:48.657Z</time></trkpt><trkpt lat="44.4496612" lon="8.8942102"><ele>33.0</ele><time>2026-03-22T08:48:49.658Z</time></trkpt><trkpt lat="44.4497738" lon="8.8942128"><ele>33.0</ele><time>2026-03-22T08:48:51.656Z</time></trkpt><trkpt lat="44.4498404" lon="8.8942148"><ele>33.0</ele><time>2026-03-22T08:48:53.658Z</time></trkpt><trkpt lat="44.4499079" lon="8.894208"><ele>33.0</ele><time>2026-03-22T08:48:55.657Z</time></trkpt><trkpt lat="44.4500192" lon="8.8942114"><ele>33.6</ele><time>2026-03-22T08:48:57.657Z</time></trkpt><trkpt lat="44.450106" lon="8.8942227"><ele>34.199999999999996</ele><time>2026-03-22T08:48:58.656Z</time></trkpt><trkpt lat="44.4501799" lon="8.8942293"><ele>34.8</ele><time>2026-03-22T08:48:59.656Z</time></trkpt><trkpt lat="44.450247" lon="8.8942339"><ele>35.4</ele><time>2026-03-22T08:49:00.658Z</time></trkpt><trkpt lat="44.4503634" lon="8.8942182"><ele>36.0</ele><time>2026-03-22T08:49:02.656Z</time></trkpt><trkpt lat="44.4504694" lon="8.8942122"><ele>36.0</ele><time>2026-03-22T08:49:04.658Z</time></trkpt><trkpt lat="44.4505707" lon="8.8942132"><ele>36.0</ele><time>2026-03-22T08:49:06.657Z</time></trkpt><trkpt lat="44.4506604" lon="8.8942235"><ele>36.0</ele><time>2026-03-22T08:49:08.656Z</time></trkpt><trkpt lat="44.4507916" lon="8.8942238"><ele>36.0</ele><time>2026-03-22T08:49:10.657Z</time></trkpt><trkpt lat="44.4508569" lon="8.8942393"><ele>36.0</ele><time>2026-03-22T08:49:11.657Z</time></trkpt><trkpt lat="44.450921" lon="8.8942487"><ele>37.666666666666664</ele><time>2026-03-22T08:49:12.657Z</time></trkpt><trkpt lat="44.450988" lon="8.8942599"><ele>39.333333333333336</ele><time>2026-03-22T08:49:13.657Z</time></trkpt><trkpt lat="44.4510621" lon="8.8942668"><ele>41.0</ele><time>2026-03-22T08:49:14.656Z</time></trkpt><trkpt lat="44.4511353" lon="8.8942784"><ele>42.66666666666667</ele><time>2026-03-22T08:49:15.657Z</time></trkpt><trkpt lat="44.4512113" lon="8.8942932"><ele>44.333333333333336</ele><time>2026-03-22T08:49:16.656Z</time></trkpt><trkpt lat="44.4512973" lon="8.8943168"><ele>46.0</ele><time>2026-03-22T08:49:17.657Z</time></trkpt><trkpt lat="44.4513813" lon="8.8943351"><ele>46.0</ele><time>2026-03-22T08:49:18.656Z</time></trkpt><trkpt lat="44.4514672" lon="8.8943586"><ele>46.0</ele><time>2026-03-22T08:49:19.657Z</time></trkpt><trkpt lat="44.4515526" lon="8.8943838"><ele>46.0</ele><time>2026-03-22T08:49:20.656Z</time></trkpt><trkpt lat="44.4516397" lon="8.8944106"><ele>46.0</ele><time>2026-03-22T08:49:21.657Z</time></trkpt><trkpt lat="44.4517254" lon="8.8944423"><ele>46.0</ele><time>2026-03-22T08:49:22.656Z</time></trkpt><trkpt lat="44.4518158" lon="8.8944829"><ele>46.0</ele><time>2026-03-22T08:49:23.657Z</time></trkpt><trkpt lat="44.4519" lon="8.8945281"><ele>46.0</ele><time>2026-03-22T08:49:24.657Z</time></trkpt><trkpt lat="44.4519833" lon="8.8945784"><ele>46.0</ele><time>2026-03-22T08:49:25.656Z</time></trkpt><trkpt lat="44.4520659" lon="8.8946368"><ele>46.0</ele><time>2026-03-22T08:49:26.657Z</time></trkpt><trkpt lat="44.4521445" lon="8.8946953"><ele>46.0</ele><time>2026-03-22T08:49:27.657Z</time></trkpt><trkpt lat="44.4522174" lon="8.8947519"><ele>46.0</ele><time>2026-03-22T08:49:28.656Z</time></trkpt><trkpt lat="44.452293" lon="8.89481"><ele>46.0</ele><time>2026-03-22T08:49:29.656Z</time></trkpt><trkpt lat="44.4523622" lon="8.8948666"><ele>45.714285714285715</ele><time>2026-03-22T08:49:30.656Z</time></trkpt><trkpt lat="44.4524278" lon="8.8949217"><ele>45.42857142857142</ele><time>2026-03-22T08:49:31.657Z</time></trkpt><trkpt lat="44.4524896" lon="8.8949752"><ele>45.14285714285714</ele><time>2026-03-22T08:49:32.657Z</time></trkpt><trkpt lat="44.452551" lon="8.8950278"><ele>44.85714285714286</ele><time>2026-03-22T08:49:33.656Z</time></trkpt><trkpt lat="44.4526092" lon="8.8950788"><ele>44.57142857142857</ele><time>2026-03-22T08:49:34.657Z</time></trkpt><trkpt lat="44.452668" lon="8.89513"><ele>44.285714285714285</ele><time>2026-03-22T08:49:35.656Z</time></trkpt><trkpt lat="44.4527272" lon="8.8951816"><ele>44.0</ele><time>2026-03-22T08:49:36.656Z</time></trkpt><trkpt lat="44.4527897" lon="8.8952316"><ele>43.85714285714286</ele><time>2026-03-22T08:49:37.658Z</time></trkpt><trkpt lat="44.4528504" lon="8.8952805"><ele>43.714285714285715</ele><time>2026-03-22T08:49:38.657Z</time></trkpt><trkpt lat="44.4529154" lon="8.8953307"><ele>43.57142857142857</ele><time>2026-03-22T08:49:39.657Z</time></trkpt><trkpt lat="44.4529793" lon="8.8953805"><ele>43.42857142857143</ele><time>2026-03-22T08:49:40.657Z</time></trkpt><trkpt lat="44.4530434" lon="8.8954275"><ele>43.285714285714285</ele><time>2026-03-22T08:49:41.657Z</time></trkpt><trkpt lat="44.4531049" lon="8.895476"><ele>43.142857142857146</ele><time>2026-03-22T08:49:42.656Z</time></trkpt><trkpt lat="44.4531657" lon="8.8955259"><ele>43.0</ele><time>2026-03-22T08:49:43.656Z</time></trkpt><trkpt lat="44.4532287" lon="8.8955748"><ele>43.00000000000001</ele><time>2026-03-22T08:49:44.657Z</time></trkpt><trkpt lat="44.453289" lon="8.8956231"><ele>43.0</ele><time>2026-03-22T08:49:45.656Z</time></trkpt><trkpt lat="44.453349" lon="8.895671"><ele>43.0</ele><time>2026-03-22T08:49:46.657Z</time></trkpt><trkpt lat="44.4534099" lon="8.8957209"><ele>43.0</ele><time>2026-03-22T08:49:47.657Z</time></trkpt><trkpt lat="44.453471" lon="8.8957702"><ele>43.0</ele><time>2026-03-22T08:49:48.656Z</time></trkpt><trkpt lat="44.4535371" lon="8.8958204"><ele>43.00000000000001</ele><time>2026-03-22T08:49:49.656Z</time></trkpt><trkpt lat="44.4536055" lon="8.8958757"><ele>43.0</ele><time>2026-03-22T08:49:50.657Z</time></trkpt><trkpt lat="44.4536778" lon="8.8959342"><ele>42.4</ele><time>2026-03-22T08:49:51.657Z</time></trkpt><trkpt lat="44.4537521" lon="8.8959954"><ele>41.8</ele><time>2026-03-22T08:49:52.656Z</time></trkpt><trkpt lat="44.4538282" lon="8.8960612"><ele>41.2</ele><time>2026-03-22T08:49:53.657Z</time></trkpt><trkpt lat="44.4539079" lon="8.8961274"><ele>40.6</ele><time>2026-03-22T08:49:54.657Z</time></trkpt><trkpt lat="44.4539915" lon="8.8961937"><ele>40.0</ele><time>2026-03-22T08:49:55.656Z</time></trkpt><trkpt lat="44.4540827" lon="8.8962642"><ele>40.0</ele><time>2026-03-22T08:49:56.656Z</time></trkpt><trkpt lat="44.4541753" lon="8.8963368"><ele>40.0</ele><time>2026-03-22T08:49:57.658Z</time></trkpt><trkpt lat="44.4542695" lon="8.8964122"><ele>40.0</ele><time>2026-03-22T08:49:58.656Z</time></trkpt><trkpt lat="44.454364" lon="8.8964894"><ele>40.0</ele><time>2026-03-22T08:49:59.657Z</time></trkpt><trkpt lat="44.4544557" lon="8.896569"><ele>40.0</ele><time>2026-03-22T08:50:00.656Z</time></trkpt><trkpt lat="44.4545421" lon="8.8966546"><ele>40.0</ele><time>2026-03-22T08:50:01.658Z</time></trkpt><trkpt lat="44.4546185" lon="8.896749"><ele>40.0</ele><time>2026-03-22T08:50:02.657Z</time></trkpt><trkpt lat="44.4546831" lon="8.8968545"><ele>40.0</ele><time>2026-03-22T08:50:03.656Z</time></trkpt><trkpt lat="44.4547321" lon="8.8969663"><ele>40.0</ele><time>2026-03-22T08:50:04.657Z</time></trkpt><trkpt lat="44.4547667" lon="8.8970807"><ele>40.0</ele><time>2026-03-22T08:50:05.657Z</time></trkpt><trkpt lat="44.4547909" lon="8.8971918"><ele>40.333333333333336</ele><time>2026-03-22T08:50:06.657Z</time></trkpt><trkpt lat="44.4548079" lon="8.8973003"><ele>40.66666666666667</ele><time>2026-03-22T08:50:07.656Z</time></trkpt><trkpt lat="44.4548215" lon="8.8974079"><ele>41.0</ele><time>2026-03-22T08:50:08.657Z</time></trkpt><trkpt lat="44.454833" lon="8.8975244"><ele>41.333333333333336</ele><time>2026-03-22T08:50:09.656Z</time></trkpt><trkpt lat="44.4548432" lon="8.8976483"><ele>41.666666666666664</ele><time>2026-03-22T08:50:10.656Z</time></trkpt><trkpt lat="44.4548526" lon="8.8977716"><ele>42.0</ele><time>2026-03-22T08:50:11.657Z</time></trkpt><trkpt lat="44.4548611" lon="8.8978891"><ele>42.666666666666664</ele><time>2026-03-22T08:50:12.657Z</time></trkpt><trkpt lat="44.4548692" lon="8.8979987"><ele>43.333333333333336</ele><time>2026-03-22T08:50:13.656Z</time></trkpt><trkpt lat="44.4548794" lon="8.8981159"><ele>44.0</ele><time>2026-03-22T08:50:14.656Z</time></trkpt><trkpt lat="44.4548916" lon="8.8982368"><ele>44.66666666666667</ele><time>2026-03-22T08:50:15.657Z</time></trkpt><trkpt lat="44.4549044" lon="8.8983691"><ele>45.333333333333336</ele><time>2026-03-22T08:50:16.658Z</time></trkpt><trkpt lat="44.4549178" lon="8.8985022"><ele>46.0</ele><time>2026-03-22T08:50:17.656Z</time></trkpt><trkpt lat="44.4549283" lon="8.8986361"><ele>46.5</ele><time>2026-03-22T08:50:18.656Z</time></trkpt><trkpt lat="44.4549341" lon="8.898764"><ele>47.0</ele><time>2026-03-22T08:50:19.656Z</time></trkpt><trkpt lat="44.4549372" lon="8.8988896"><ele>47.5</ele><time>2026-03-22T08:50:20.658Z</time></trkpt><trkpt lat="44.4549437" lon="8.8990109"><ele>48.0</ele><time>2026-03-22T08:50:21.658Z</time></trkpt><trkpt lat="44.4549602" lon="8.8991287"><ele>48.49999999999999</ele><time>2026-03-22T08:50:22.656Z</time></trkpt><trkpt lat="44.4549935" lon="8.899235"><ele>49.0</ele><time>2026-03-22T08:50:23.657Z</time></trkpt><trkpt lat="44.4550437" lon="8.8993168"><ele>48.99999999999999</ele><time>2026-03-22T08:50:24.657Z</time></trkpt><trkpt lat="44.4551055" lon="8.8993748"><ele>49.0</ele><time>2026-03-22T08:50:25.656Z</time></trkpt><trkpt lat="44.4551747" lon="8.8994148"><ele>49.0</ele><time>2026-03-22T08:50:26.656Z</time></trkpt><trkpt lat="44.4552462" lon="8.8994468"><ele>49.0</ele><time>2026-03-22T08:50:27.657Z</time></trkpt><trkpt lat="44.4553195" lon="8.8994801"><ele>48.99999999999999</ele><time>2026-03-22T08:50:28.656Z</time></trkpt><trkpt lat="44.4553938" lon="8.899517"><ele>49.0</ele><time>2026-03-22T08:50:29.656Z</time></trkpt><trkpt lat="44.4554712" lon="8.899558"><ele>48.166666666666664</ele><time>2026-03-22T08:50:30.657Z</time></trkpt><trkpt lat="44.4555512" lon="8.8995943"><ele>47.33333333333333</ele><time>2026-03-22T08:50:31.657Z</time></trkpt><trkpt lat="44.45563" lon="8.8996312"><ele>46.5</ele><time>2026-03-22T08:50:32.656Z</time></trkpt><trkpt lat="44.4557053" lon="8.8996657"><ele>45.666666666666664</ele><time>2026-03-22T08:50:33.656Z</time></trkpt><trkpt lat="44.4557761" lon="8.8996978"><ele>44.83333333333333</ele><time>2026-03-22T08:50:34.658Z</time></trkpt><trkpt lat="44.4558407" lon="8.8997291"><ele>44.0</ele><time>2026-03-22T08:50:35.657Z</time></trkpt><trkpt lat="44.455961" lon="8.8997801"><ele>44.0</ele><time>2026-03-22T08:50:37.656Z</time></trkpt><trkpt lat="44.4560779" lon="8.8998276"><ele>44.0</ele><time>2026-03-22T08:50:39.657Z</time></trkpt><trkpt lat="44.4561881" lon="8.8998794"><ele>44.0</ele><time>2026-03-22T08:50:41.658Z</time></trkpt><trkpt lat="44.4563041" lon="8.899936"><ele>44.0</ele><time>2026-03-22T08:50:43.657Z</time></trkpt><trkpt lat="44.4564231" lon="8.8999893"><ele>44.0</ele><time>2026-03-22T08:50:45.657Z</time></trkpt><trkpt lat="44.4564865" lon="8.9000179"><ele>44.0</ele><time>2026-03-22T08:50:46.657Z</time></trkpt><trkpt lat="44.4565523" lon="8.9000469"><ele>44.0</ele><time>2026-03-22T08:50:47.658Z</time></trkpt><trkpt lat="44.4566192" lon="8.9000788"><ele>44.0</ele><time>2026-03-22T08:50:48.656Z</time></trkpt><trkpt lat="44.4566871" lon="8.9001156"><ele>44.0</ele><time>2026-03-22T08:50:49.657Z</time></trkpt><trkpt lat="44.4567594" lon="8.9001545"><ele>44.0</ele><time>2026-03-22T08:50:50.657Z</time></trkpt><trkpt lat="44.4568308" lon="8.9001941"><ele>44.0</ele><time>2026-03-22T08:50:51.656Z</time></trkpt><trkpt lat="44.4569013" lon="8.9002271"><ele>44.714285714285715</ele><time>2026-03-22T08:50:52.657Z</time></trkpt><trkpt lat="44.4569702" lon="8.9002609"><ele>45.42857142857143</ele><time>2026-03-22T08:50:53.658Z</time></trkpt><trkpt lat="44.4570376" lon="8.9002916"><ele>46.14285714285714</ele><time>2026-03-22T08:50:54.658Z</time></trkpt><trkpt lat="44.4571042" lon="8.9003228"><ele>46.85714285714286</ele><time>2026-03-22T08:50:55.657Z</time></trkpt><trkpt lat="44.4571693" lon="8.9003542"><ele>47.57142857142857</ele><time>2026-03-22T08:50:56.658Z</time></trkpt><trkpt lat="44.4572318" lon="8.9003812"><ele>48.285714285714285</ele><time>2026-03-22T08:50:57.658Z</time></trkpt><trkpt lat="44.4572936" lon="8.9004083"><ele>49.0</ele><time>2026-03-22T08:50:59.657Z</time></trkpt><trkpt lat="44.4573668" lon="8.9004475"><ele>48.99999999999999</ele><time>2026-03-22T08:51:02.657Z</time></trkpt><trkpt lat="44.4574713" lon="8.9004944"><ele>49.0</ele><time>2026-03-22T08:51:04.657Z</time></trkpt><trkpt lat="44.4575782" lon="8.9005387"><ele>49.0</ele><time>2026-03-22T08:51:06.656Z</time></trkpt><trkpt lat="44.4576404" lon="8.9005664"><ele>49.0</ele><time>2026-03-22T08:51:07.657Z</time></trkpt><trkpt lat="44.4577025" lon="8.9005964"><ele>48.99999999999999</ele><time>2026-03-22T08:51:08.658Z</time></trkpt><trkpt lat="44.4577634" lon="8.9006299"><ele>49.0</ele><time>2026-03-22T08:51:09.656Z</time></trkpt><trkpt lat="44.4578228" lon="8.9006625"><ele>48.99999999999999</ele><time>2026-03-22T08:51:10.656Z</time></trkpt><trkpt lat="44.4578829" lon="8.9006974"><ele>49.0</ele><time>2026-03-22T08:51:11.657Z</time></trkpt><trkpt lat="44.4579827" lon="8.9007707"><ele>49.0</ele><time>2026-03-22T08:51:13.657Z</time></trkpt><trkpt lat="44.4580553" lon="8.9008331"><ele>49.0</ele><time>2026-03-22T08:51:15.656Z</time></trkpt><trkpt lat="44.4581158" lon="8.9008757"><ele>48.99999999999999</ele><time>2026-03-22T08:51:17.657Z</time></trkpt><trkpt lat="44.4582152" lon="8.9009285"><ele>49.0</ele><time>2026-03-22T08:51:20.657Z</time></trkpt><trkpt lat="44.4582748" lon="8.9009611"><ele>49.166666666666664</ele><time>2026-03-22T08:51:21.656Z</time></trkpt><trkpt lat="44.4583484" lon="8.901002"><ele>49.33333333333333</ele><time>2026-03-22T08:51:22.657Z</time></trkpt><trkpt lat="44.4584127" lon="8.9010407"><ele>49.5</ele><time>2026-03-22T08:51:23.656Z</time></trkpt><trkpt lat="44.4584737" lon="8.9010851"><ele>49.66666666666667</ele><time>2026-03-22T08:51:24.657Z</time></trkpt><trkpt lat="44.4585413" lon="8.901123"><ele>49.833333333333336</ele><time>2026-03-22T08:51:25.657Z</time></trkpt><trkpt lat="44.4586069" lon="8.9011633"><ele>50.0</ele><time>2026-03-22T08:51:26.657Z</time></trkpt><trkpt lat="44.4586992" lon="8.9012268"><ele>50.0</ele><time>2026-03-22T08:51:28.657Z</time></trkpt><trkpt lat="44.4587786" lon="8.9012908"><ele>50.0</ele><time>2026-03-22T08:51:30.656Z</time></trkpt><trkpt lat="44.4588858" lon="8.9013543"><ele>50.0</ele><time>2026-03-22T08:51:32.657Z</time></trkpt><trkpt lat="44.4589467" lon="8.9013896"><ele>50.0</ele><time>2026-03-22T08:51:33.656Z</time></trkpt><trkpt lat="44.4590532" lon="8.9014538"><ele>50.0</ele><time>2026-03-22T08:51:35.657Z</time></trkpt><trkpt lat="44.4591539" lon="8.9015209"><ele>50.00000000000001</ele><time>2026-03-22T08:51:37.657Z</time></trkpt><trkpt lat="44.4592751" lon="8.9016043"><ele>50.0</ele><time>2026-03-22T08:51:39.656Z</time></trkpt><trkpt lat="44.4593428" lon="8.9016473"><ele>50.0</ele><time>2026-03-22T08:51:40.656Z</time></trkpt><trkpt lat="44.4594099" lon="8.9016883"><ele>50.0</ele><time>2026-03-22T08:51:41.657Z</time></trkpt><trkpt lat="44.4594846" lon="8.9017315"><ele>50.00000000000001</ele><time>2026-03-22T08:51:42.657Z</time></trkpt><trkpt lat="44.4595594" lon="8.9017788"><ele>50.0</ele><time>2026-03-22T08:51:43.656Z</time></trkpt><trkpt lat="44.4596316" lon="8.9018237"><ele>51.0</ele><time>2026-03-22T08:51:44.658Z</time></trkpt><trkpt lat="44.4597121" lon="8.9018754"><ele>52.0</ele><time>2026-03-22T08:51:45.657Z</time></trkpt><trkpt lat="44.4597941" lon="8.9019263"><ele>53.0</ele><time>2026-03-22T08:51:46.656Z</time></trkpt><trkpt lat="44.4598785" lon="8.9019769"><ele>54.0</ele><time>2026-03-22T08:51:47.657Z</time></trkpt><trkpt lat="44.4599656" lon="8.9020247"><ele>55.0</ele><time>2026-03-22T08:51:48.656Z</time></trkpt><trkpt lat="44.4600546" lon="8.9020613"><ele>54.99999999999999</ele><time>2026-03-22T08:51:49.656Z</time></trkpt><trkpt lat="44.4601377" lon="8.9020856"><ele>55.0</ele><time>2026-03-22T08:51:50.658Z</time></trkpt><trkpt lat="44.4602146" lon="8.9020983"><ele>55.0</ele><time>2026-03-22T08:51:51.657Z</time></trkpt><trkpt lat="44.4602902" lon="8.9021026"><ele>55.0</ele><time>2026-03-22T08:51:52.657Z</time></trkpt><trkpt lat="44.4603627" lon="8.9021011"><ele>54.99999999999999</ele><time>2026-03-22T08:51:53.656Z</time></trkpt><trkpt lat="44.460429" lon="8.9021027"><ele>55.0</ele><time>2026-03-22T08:51:54.657Z</time></trkpt><trkpt lat="44.4605318" lon="8.9020977"><ele>55.666666666666664</ele><time>2026-03-22T08:51:56.656Z</time></trkpt><trkpt lat="44.4606028" lon="8.902097"><ele>56.33333333333333</ele><time>2026-03-22T08:51:58.657Z</time></trkpt><trkpt lat="44.4606775" lon="8.9021012"><ele>57.0</ele><time>2026-03-22T08:52:00.657Z</time></trkpt><trkpt lat="44.4607696" lon="8.902116"><ele>57.66666666666667</ele><time>2026-03-22T08:52:02.656Z</time></trkpt><trkpt lat="44.4608588" lon="8.902135"><ele>58.333333333333336</ele><time>2026-03-22T08:52:04.657Z</time></trkpt><trkpt lat="44.4609303" lon="8.9021503"><ele>59.0</ele><time>2026-03-22T08:52:06.658Z</time></trkpt><trkpt lat="44.4610189" lon="8.9021622"><ele>59.00000000000001</ele><time>2026-03-22T08:52:09.657Z</time></trkpt><trkpt lat="44.4611063" lon="8.902172"><ele>59.0</ele><time>2026-03-22T08:52:12.657Z</time></trkpt><trkpt lat="44.4611873" lon="8.9021813"><ele>59.0</ele><time>2026-03-22T08:52:16.656Z</time></trkpt><trkpt lat="44.4612489" lon="8.9022141"><ele>59.0</ele><time>2026-03-22T08:52:20.656Z</time></trkpt><trkpt lat="44.46119" lon="8.9021711"><ele>59.00000000000001</ele><time>2026-03-22T08:53:26.658Z</time></trkpt><trkpt lat="44.461133" lon="8.9020749"><ele>59.0</ele><time>2026-03-22T08:54:01.654Z</time></trkpt><trkpt lat="44.4611272" lon="8.9019809"><ele>59.00000000000001</ele><time>2026-03-22T08:54:10.66Z</time></trkpt><trkpt lat="44.4611189" lon="8.9020686"><ele>59.0</ele><time>2026-03-22T08:58:29.659Z</time></trkpt><trkpt lat="44.4611775" lon="8.9021016"><ele>59.0</ele><time>2026-03-22T08:59:28.659Z</time></trkpt><trkpt lat="44.4613216" lon="8.9021863"><ele>59.0</ele><time>2026-03-22T09:04:17.66Z</time></trkpt><trkpt lat="44.4612611" lon="8.9022189"><ele>59.00000000000001</ele><time>2026-03-22T09:04:21.659Z</time></trkpt><trkpt lat="44.4613426" lon="8.9021645"><ele>59.0</ele><time>2026-03-22T09:06:30.659Z</time></trkpt><trkpt lat="44.4614331" lon="8.902098"><ele>60.50000000000001</ele><time>2026-03-22T09:06:31.66Z</time></trkpt><trkpt lat="44.4615124" lon="8.9020645"><ele>62.0</ele><time>2026-03-22T09:06:32.66Z</time></trkpt><trkpt lat="44.4615789" lon="8.9020318"><ele>63.5</ele><time>2026-03-22T09:06:33.659Z</time></trkpt><trkpt lat="44.4616522" lon="8.9020013"><ele>65.0</ele><time>2026-03-22T09:06:34.659Z</time></trkpt><trkpt lat="44.4617436" lon="8.9019728"><ele>66.5</ele><time>2026-03-22T09:06:35.659Z</time></trkpt><trkpt lat="44.4618465" lon="8.9019409"><ele>68.0</ele><time>2026-03-22T09:06:36.659Z</time></trkpt><trkpt lat="44.4619603" lon="8.9019007"><ele>68.0</ele><time>2026-03-22T09:06:37.659Z</time></trkpt><trkpt lat="44.4620834" lon="8.9018573"><ele>68.0</ele><time>2026-03-22T09:06:38.659Z</time></trkpt><trkpt lat="44.4622075" lon="8.9018106"><ele>68.0</ele><time>2026-03-22T09:06:39.659Z</time></trkpt><trkpt lat="44.4623179" lon="8.9017664"><ele>68.0</ele><time>2026-03-22T09:06:40.66Z</time></trkpt><trkpt lat="44.4624358" lon="8.9017229"><ele>67.6</ele><time>2026-03-22T09:06:41.659Z</time></trkpt><trkpt lat="44.4625487" lon="8.9016899"><ele>67.19999999999999</ele><time>2026-03-22T09:06:42.659Z</time></trkpt><trkpt lat="44.4626565" lon="8.9016689"><ele>66.8</ele><time>2026-03-22T09:06:43.659Z</time></trkpt><trkpt lat="44.4627698" lon="8.9016835"><ele>66.39999999999999</ele><time>2026-03-22T09:06:44.66Z</time></trkpt><trkpt lat="44.4628748" lon="8.9017167"><ele>66.0</ele><time>2026-03-22T09:06:45.659Z</time></trkpt><trkpt lat="44.4629692" lon="8.9017766"><ele>66.0</ele><time>2026-03-22T09:06:46.66Z</time></trkpt><trkpt lat="44.4630565" lon="8.9018549"><ele>66.0</ele><time>2026-03-22T09:06:47.66Z</time></trkpt><trkpt lat="44.4631357" lon="8.9019522"><ele>66.0</ele><time>2026-03-22T09:06:48.66Z</time></trkpt><trkpt lat="44.4632068" lon="8.9020689"><ele>66.0</ele><time>2026-03-22T09:06:49.659Z</time></trkpt><trkpt lat="44.4632729" lon="8.9021884"><ele>66.0</ele><time>2026-03-22T09:06:50.66Z</time></trkpt><trkpt lat="44.4633412" lon="8.9023146"><ele>66.0</ele><time>2026-03-22T09:06:51.659Z</time></trkpt><trkpt lat="44.4634112" lon="8.9024375"><ele>66.0</ele><time>2026-03-22T09:06:52.659Z</time></trkpt><trkpt lat="44.4634744" lon="8.9025545"><ele>66.0</ele><time>2026-03-22T09:06:53.66Z</time></trkpt><trkpt lat="44.4635417" lon="8.9026767"><ele>66.0</ele><time>2026-03-22T09:06:54.659Z</time></trkpt><trkpt lat="44.4636048" lon="8.9027961"><ele>66.0</ele><time>2026-03-22T09:06:55.659Z</time></trkpt><trkpt lat="44.4636655" lon="8.9029107"><ele>64.8</ele><time>2026-03-22T09:06:56.659Z</time></trkpt><trkpt lat="44.4637236" lon="8.9030198"><ele>63.599999999999994</ele><time>2026-03-22T09:06:57.66Z</time></trkpt><trkpt lat="44.4637818" lon="8.9031272"><ele>62.4</ele><time>2026-03-22T09:06:58.659Z</time></trkpt><trkpt lat="44.4638376" lon="8.903238"><ele>61.2</ele><time>2026-03-22T09:06:59.659Z</time></trkpt><trkpt lat="44.4638966" lon="8.9033477"><ele>60.0</ele><time>2026-03-22T09:07:00.66Z</time></trkpt><trkpt lat="44.4639566" lon="8.9034565"><ele>59.666666666666664</ele><time>2026-03-22T09:07:01.659Z</time></trkpt><trkpt lat="44.4640191" lon="8.9035616"><ele>59.33333333333333</ele><time>2026-03-22T09:07:02.659Z</time></trkpt><trkpt lat="44.4640832" lon="8.9036605"><ele>59.0</ele><time>2026-03-22T09:07:03.659Z</time></trkpt><trkpt lat="44.4641484" lon="8.9037471"><ele>58.666666666666664</ele><time>2026-03-22T09:07:04.659Z</time></trkpt><trkpt lat="44.4642061" lon="8.9038166"><ele>58.33333333333333</ele><time>2026-03-22T09:07:05.66Z</time></trkpt><trkpt lat="44.4642612" lon="8.9038778"><ele>58.0</ele><time>2026-03-22T09:07:06.659Z</time></trkpt><trkpt lat="44.4643134" lon="8.9039318"><ele>58.0</ele><time>2026-03-22T09:07:07.659Z</time></trkpt><trkpt lat="44.4643838" lon="8.9040134"><ele>58.0</ele><time>2026-03-22T09:07:09.66Z</time></trkpt><trkpt lat="44.4644386" lon="8.9041284"><ele>58.0</ele><time>2026-03-22T09:07:12.659Z</time></trkpt><trkpt lat="44.4644391" lon="8.9042833"><ele>58.0</ele><time>2026-03-22T09:07:14.66Z</time></trkpt><trkpt lat="44.4644549" lon="8.9044732"><ele>58.0</ele><time>2026-03-22T09:07:16.659Z</time></trkpt><trkpt lat="44.4644766" lon="8.9045833"><ele>57.8</ele><time>2026-03-22T09:07:17.659Z</time></trkpt><trkpt lat="44.4645095" lon="8.9047009"><ele>57.599999999999994</ele><time>2026-03-22T09:07:18.659Z</time></trkpt><trkpt lat="44.464558" lon="8.9048337"><ele>57.400000000000006</ele><time>2026-03-22T09:07:19.659Z</time></trkpt><trkpt lat="44.4646196" lon="8.9049794"><ele>57.2</ele><time>2026-03-22T09:07:20.659Z</time></trkpt><trkpt lat="44.4646878" lon="8.9051277"><ele>57.0</ele><time>2026-03-22T09:07:21.659Z</time></trkpt><trkpt lat="44.4647498" lon="8.9052575"><ele>59.5</ele><time>2026-03-22T09:07:22.659Z</time></trkpt><trkpt lat="44.4648141" lon="8.9053927"><ele>62.0</ele><time>2026-03-22T09:07:23.659Z</time></trkpt><trkpt lat="44.4648789" lon="8.9055275"><ele>64.5</ele><time>2026-03-22T09:07:24.659Z</time></trkpt><trkpt lat="44.4649468" lon="8.9056564"><ele>67.0</ele><time>2026-03-22T09:07:25.659Z</time></trkpt><trkpt lat="44.4650266" lon="8.9057685"><ele>67.0</ele><time>2026-03-22T09:07:26.659Z</time></trkpt><trkpt lat="44.4651165" lon="8.9058604"><ele>67.0</ele><time>2026-03-22T09:07:27.659Z</time></trkpt><trkpt lat="44.4652141" lon="8.9059314"><ele>67.0</ele><time>2026-03-22T09:07:28.659Z</time></trkpt><trkpt lat="44.4653181" lon="8.9059851"><ele>67.0</ele><time>2026-03-22T09:07:29.66Z</time></trkpt><trkpt lat="44.4654272" lon="8.9060367"><ele>67.0</ele><time>2026-03-22T09:07:30.659Z</time></trkpt><trkpt lat="44.4655337" lon="8.9060917"><ele>69.0</ele><time>2026-03-22T09:07:31.66Z</time></trkpt><trkpt lat="44.4656283" lon="8.906142"><ele>71.0</ele><time>2026-03-22T09:07:32.659Z</time></trkpt><trkpt lat="44.465718" lon="8.906187"><ele>73.0</ele><time>2026-03-22T09:07:33.66Z</time></trkpt><trkpt lat="44.4657977" lon="8.9062268"><ele>75.0</ele><time>2026-03-22T09:07:34.659Z</time></trkpt><trkpt lat="44.4658605" lon="8.9062626"><ele>77.0</ele><time>2026-03-22T09:07:35.659Z</time></trkpt><trkpt lat="44.4659316" lon="8.9063138"><ele>79.0</ele><time>2026-03-22T09:07:37.659Z</time></trkpt><trkpt lat="44.4660186" lon="8.9063693"><ele>79.0</ele><time>2026-03-22T09:07:39.659Z</time></trkpt><trkpt lat="44.4660777" lon="8.9064"><ele>79.0</ele><time>2026-03-22T09:07:40.659Z</time></trkpt><trkpt lat="44.4661885" lon="8.9064619"><ele>79.0</ele><time>2026-03-22T09:07:42.66Z</time></trkpt><trkpt lat="44.4662997" lon="8.9065123"><ele>79.0</ele><time>2026-03-22T09:07:44.659Z</time></trkpt><trkpt lat="44.466368" lon="8.9065465"><ele>79.0</ele><time>2026-03-22T09:07:45.659Z</time></trkpt><trkpt lat="44.4664463" lon="8.9065854"><ele>77.16666666666666</ele><time>2026-03-22T09:07:46.659Z</time></trkpt><trkpt lat="44.4665193" lon="8.906622"><ele>75.33333333333333</ele><time>2026-03-22T09:07:47.66Z</time></trkpt><trkpt lat="44.4665982" lon="8.9066599"><ele>73.5</ele><time>2026-03-22T09:07:48.659Z</time></trkpt><trkpt lat="44.4666816" lon="8.9066968"><ele>71.66666666666667</ele><time>2026-03-22T09:07:49.659Z</time></trkpt><trkpt lat="44.4667684" lon="8.9067311"><ele>69.83333333333334</ele><time>2026-03-22T09:07:50.659Z</time></trkpt><trkpt lat="44.4668573" lon="8.9067663"><ele>68.0</ele><time>2026-03-22T09:07:51.659Z</time></trkpt><trkpt lat="44.4669417" lon="8.9067981"><ele>69.0</ele><time>2026-03-22T09:07:52.66Z</time></trkpt><trkpt lat="44.4670251" lon="8.9068273"><ele>70.0</ele><time>2026-03-22T09:07:53.659Z</time></trkpt><trkpt lat="44.4671051" lon="8.9068496"><ele>71.0</ele><time>2026-03-22T09:07:54.659Z</time></trkpt><trkpt lat="44.4671869" lon="8.9068678"><ele>72.0</ele><time>2026-03-22T09:07:55.659Z</time></trkpt><trkpt lat="44.4672703" lon="8.9068766"><ele>73.0</ele><time>2026-03-22T09:07:56.66Z</time></trkpt><trkpt lat="44.4673539" lon="8.9068784"><ele>74.0</ele><time>2026-03-22T09:07:57.659Z</time></trkpt><trkpt lat="44.4674346" lon="8.9068726"><ele>74.0</ele><time>2026-03-22T09:07:58.659Z</time></trkpt><trkpt lat="44.4675137" lon="8.9068589"><ele>74.0</ele><time>2026-03-22T09:07:59.659Z</time></trkpt><trkpt lat="44.4675874" lon="8.906839"><ele>74.0</ele><time>2026-03-22T09:08:00.659Z</time></trkpt><trkpt lat="44.46766" lon="8.9068159"><ele>74.0</ele><time>2026-03-22T09:08:01.659Z</time></trkpt><trkpt lat="44.4677338" lon="8.9067883"><ele>74.0</ele><time>2026-03-22T09:08:02.659Z</time></trkpt><trkpt lat="44.4678078" lon="8.9067608"><ele>74.0</ele><time>2026-03-22T09:08:03.659Z</time></trkpt><trkpt lat="44.4678807" lon="8.9067322"><ele>73.83333333333334</ele><time>2026-03-22T09:08:04.659Z</time></trkpt><trkpt lat="44.467953" lon="8.9067045"><ele>73.66666666666667</ele><time>2026-03-22T09:08:05.659Z</time></trkpt><trkpt lat="44.468026" lon="8.9066922"><ele>73.5</ele><time>2026-03-22T09:08:06.659Z</time></trkpt><trkpt lat="44.4680989" lon="8.9067041"><ele>73.33333333333333</ele><time>2026-03-22T09:08:07.66Z</time></trkpt><trkpt lat="44.4681642" lon="8.9067458"><ele>73.16666666666666</ele><time>2026-03-22T09:08:08.659Z</time></trkpt><trkpt lat="44.4682128" lon="8.9068141"><ele>73.0</ele><time>2026-03-22T09:08:09.659Z</time></trkpt><trkpt lat="44.4682658" lon="8.9069653"><ele>73.0</ele><time>2026-03-22T09:08:11.66Z</time></trkpt><trkpt lat="44.4682712" lon="8.9070558"><ele>73.0</ele><time>2026-03-22T09:08:12.66Z</time></trkpt><trkpt lat="44.4682596" lon="8.9071446"><ele>73.0</ele><time>2026-03-22T09:08:13.66Z</time></trkpt><trkpt lat="44.4681975" lon="8.9072869"><ele>73.0</ele><time>2026-03-22T09:08:15.66Z</time></trkpt><trkpt lat="44.4680853" lon="8.9073554"><ele>73.0</ele><time>2026-03-22T09:08:17.66Z</time></trkpt><trkpt lat="44.4680137" lon="8.9073593"><ele>73.0</ele><time>2026-03-22T09:08:18.659Z</time></trkpt><trkpt lat="44.4679374" lon="8.9073449"><ele>73.2</ele><time>2026-03-22T09:08:19.659Z</time></trkpt><trkpt lat="44.4678574" lon="8.9073173"><ele>73.4</ele><time>2026-03-22T09:08:20.659Z</time></trkpt><trkpt lat="44.4677687" lon="8.9072829"><ele>73.60000000000001</ele><time>2026-03-22T09:08:21.659Z</time></trkpt><trkpt lat="44.4676752" lon="8.9072465"><ele>73.8</ele><time>2026-03-22T09:08:22.659Z</time></trkpt><trkpt lat="44.4675764" lon="8.9072066"><ele>74.0</ele><time>2026-03-22T09:08:23.659Z</time></trkpt><trkpt lat="44.4674689" lon="8.9071627"><ele>74.0</ele><time>2026-03-22T09:08:24.66Z</time></trkpt><trkpt lat="44.4673587" lon="8.9071192"><ele>74.0</ele><time>2026-03-22T09:08:25.66Z</time></trkpt><trkpt lat="44.4672546" lon="8.9070764"><ele>74.0</ele><time>2026-03-22T09:08:26.659Z</time></trkpt><trkpt lat="44.4671527" lon="8.9070334"><ele>74.0</ele><time>2026-03-22T09:08:27.659Z</time></trkpt><trkpt lat="44.4670437" lon="8.9069887"><ele>74.0</ele><time>2026-03-22T09:08:28.659Z</time></trkpt><trkpt lat="44.4669285" lon="8.9069414"><ele>72.5</ele><time>2026-03-22T09:08:29.659Z</time></trkpt><trkpt lat="44.4668072" lon="8.9068918"><ele>71.0</ele><time>2026-03-22T09:08:30.659Z</time></trkpt><trkpt lat="44.4666806" lon="8.9068404"><ele>69.5</ele><time>2026-03-22T09:08:31.659Z</time></trkpt><trkpt lat="44.4665593" lon="8.9067897"><ele>68.0</ele><time>2026-03-22T09:08:32.659Z</time></trkpt><trkpt lat="44.4664412" lon="8.9067419"><ele>68.0</ele><time>2026-03-22T09:08:33.659Z</time></trkpt><trkpt lat="44.4663231" lon="8.9066944"><ele>68.0</ele><time>2026-03-22T09:08:34.659Z</time></trkpt><trkpt lat="44.4662031" lon="8.9066443"><ele>68.0</ele><time>2026-03-22T09:08:35.659Z</time></trkpt><trkpt lat="44.4660832" lon="8.9065906"><ele>68.0</ele><time>2026-03-22T09:08:36.659Z</time></trkpt><trkpt lat="44.4659613" lon="8.906534"><ele>70.75</ele><time>2026-03-22T09:08:37.659Z</time></trkpt><trkpt lat="44.4658281" lon="8.9064729"><ele>73.5</ele><time>2026-03-22T09:08:38.659Z</time></trkpt><trkpt lat="44.4656869" lon="8.9064137"><ele>76.25</ele><time>2026-03-22T09:08:39.659Z</time></trkpt><trkpt lat="44.4655446" lon="8.9063477"><ele>79.0</ele><time>2026-03-22T09:08:40.659Z</time></trkpt><trkpt lat="44.4654076" lon="8.9062759"><ele>83.33333333333333</ele><time>2026-03-22T09:08:41.66Z</time></trkpt><trkpt lat="44.465266" lon="8.9061905"><ele>87.66666666666667</ele><time>2026-03-22T09:08:42.659Z</time></trkpt><trkpt lat="44.4651298" lon="8.9060911"><ele>92.0</ele><time>2026-03-22T09:08:43.659Z</time></trkpt><trkpt lat="44.4650014" lon="8.9059788"><ele>83.66666666666667</ele><time>2026-03-22T09:08:44.659Z</time></trkpt><trkpt lat="44.4648813" lon="8.9058534"><ele>75.33333333333333</ele><time>2026-03-22T09:08:45.659Z</time></trkpt><trkpt lat="44.4647683" lon="8.9057086"><ele>67.0</ele><time>2026-03-22T09:08:46.659Z</time></trkpt><trkpt lat="44.464662" lon="8.9055558"><ele>75.0</ele><time>2026-03-22T09:08:47.66Z</time></trkpt><trkpt lat="44.4645555" lon="8.9054061"><ele>83.0</ele><time>2026-03-22T09:08:48.659Z</time></trkpt><trkpt lat="44.4644401" lon="8.9052704"><ele>91.0</ele><time>2026-03-22T09:08:49.659Z</time></trkpt><trkpt lat="44.4643159" lon="8.9051488"><ele>84.33333333333333</ele><time>2026-03-22T09:08:50.659Z</time></trkpt><trkpt lat="44.4641857" lon="8.905037"><ele>77.66666666666667</ele><time>2026-03-22T09:08:51.659Z</time></trkpt><trkpt lat="44.4640595" lon="8.9049118"><ele>71.0</ele><time>2026-03-22T09:08:52.659Z</time></trkpt><trkpt lat="44.4639458" lon="8.9047632"><ele>71.0</ele><time>2026-03-22T09:08:53.659Z</time></trkpt><trkpt lat="44.463849" lon="8.904595"><ele>71.0</ele><time>2026-03-22T09:08:54.659Z</time></trkpt><trkpt lat="44.4637744" lon="8.904407"><ele>71.0</ele><time>2026-03-22T09:08:55.659Z</time></trkpt><trkpt lat="44.4637171" lon="8.9042097"><ele>76.0</ele><time>2026-03-22T09:08:56.659Z</time></trkpt><trkpt lat="44.463665" lon="8.9040085"><ele>81.0</ele><time>2026-03-22T09:08:57.659Z</time></trkpt><trkpt lat="44.4636079" lon="8.9038121"><ele>86.0</ele><time>2026-03-22T09:08:58.66Z</time></trkpt><trkpt lat="44.463536" lon="8.9036266"><ele>86.0</ele><time>2026-03-22T09:08:59.66Z</time></trkpt><trkpt lat="44.4634419" lon="8.9034609"><ele>86.0</ele><time>2026-03-22T09:09:00.659Z</time></trkpt><trkpt lat="44.4633337" lon="8.9033211"><ele>86.0</ele><time>2026-03-22T09:09:01.659Z</time></trkpt><trkpt lat="44.4632172" lon="8.9031887"><ele>86.0</ele><time>2026-03-22T09:09:02.659Z</time></trkpt><trkpt lat="44.4630974" lon="8.9030605"><ele>86.0</ele><time>2026-03-22T09:09:03.659Z</time></trkpt><trkpt lat="44.4629623" lon="8.90302"><ele>86.0</ele><time>2026-03-22T09:09:04.659Z</time></trkpt><trkpt lat="44.4628359" lon="8.9029347"><ele>86.0</ele><time>2026-03-22T09:09:05.659Z</time></trkpt><trkpt lat="44.462709" lon="8.9028588"><ele>86.0</ele><time>2026-03-22T09:09:06.659Z</time></trkpt><trkpt lat="44.4614687" lon="8.9031827"><ele>86.0</ele><time>2026-03-22T09:09:14.659Z</time></trkpt><trkpt lat="44.4613615" lon="8.9033448"><ele>86.0</ele><time>2026-03-22T09:09:15.659Z</time></trkpt><trkpt lat="44.4612191" lon="8.903397"><ele>86.0</ele><time>2026-03-22T09:09:16.659Z</time></trkpt><trkpt lat="44.4610309" lon="8.903383"><ele>83.5</ele><time>2026-03-22T09:09:17.66Z</time></trkpt><trkpt lat="44.4608844" lon="8.9033406"><ele>81.0</ele><time>2026-03-22T09:09:18.659Z</time></trkpt><trkpt lat="44.4607467" lon="8.9032593"><ele>78.5</ele><time>2026-03-22T09:09:19.659Z</time></trkpt><trkpt lat="44.4606188" lon="8.9031577"><ele>76.0</ele><time>2026-03-22T09:09:20.66Z</time></trkpt><trkpt lat="44.460484" lon="8.9030776"><ele>76.0</ele><time>2026-03-22T09:09:21.659Z</time></trkpt><trkpt lat="44.4603373" lon="8.9030306"><ele>76.0</ele><time>2026-03-22T09:09:22.659Z</time></trkpt><trkpt lat="44.460183" lon="8.903019"><ele>76.0</ele><time>2026-03-22T09:09:23.659Z</time></trkpt><trkpt lat="44.4600223" lon="8.9030546"><ele>76.0</ele><time>2026-03-22T09:09:24.659Z</time></trkpt><trkpt lat="44.4598637" lon="8.9031272"><ele>76.0</ele><time>2026-03-22T09:09:25.659Z</time></trkpt><trkpt lat="44.4597066" lon="8.903225"><ele>76.0</ele><time>2026-03-22T09:09:26.659Z</time></trkpt><trkpt lat="44.4595479" lon="8.9033338"><ele>80.33333333333333</ele><time>2026-03-22T09:09:27.66Z</time></trkpt><trkpt lat="44.4593853" lon="8.9034432"><ele>84.66666666666667</ele><time>2026-03-22T09:09:28.659Z</time></trkpt><trkpt lat="44.4592198" lon="8.9035546"><ele>89.0</ele><time>2026-03-22T09:09:29.66Z</time></trkpt><trkpt lat="44.4590478" lon="8.9036573"><ele>89.0</ele><time>2026-03-22T09:09:30.659Z</time></trkpt><trkpt lat="44.4588678" lon="8.9037438"><ele>89.0</ele><time>2026-03-22T09:09:31.66Z</time></trkpt><trkpt lat="44.4586829" lon="8.9038139"><ele>89.0</ele><time>2026-03-22T09:09:32.659Z</time></trkpt><trkpt lat="44.4584991" lon="8.9038763"><ele>82.0</ele><time>2026-03-22T09:09:33.659Z</time></trkpt><trkpt lat="44.4583145" lon="8.9039403"><ele>75.0</ele><time>2026-03-22T09:09:34.659Z</time></trkpt><trkpt lat="44.4581296" lon="8.9040084"><ele>68.0</ele><time>2026-03-22T09:09:35.659Z</time></trkpt><trkpt lat="44.4579505" lon="8.9040767"><ele>65.0</ele><time>2026-03-22T09:09:36.659Z</time></trkpt><trkpt lat="44.4577772" lon="8.9041409"><ele>62.0</ele><time>2026-03-22T09:09:37.659Z</time></trkpt><trkpt lat="44.457599" lon="8.9041904"><ele>59.0</ele><time>2026-03-22T09:09:38.659Z</time></trkpt><trkpt lat="44.4574148" lon="8.9042157"><ele>59.0</ele><time>2026-03-22T09:09:39.659Z</time></trkpt><trkpt lat="44.4572082" lon="8.9042317"><ele>59.0</ele><time>2026-03-22T09:09:40.659Z</time></trkpt><trkpt lat="44.457017" lon="8.9041498"><ele>59.0</ele><time>2026-03-22T09:09:41.659Z</time></trkpt><trkpt lat="44.4568209" lon="8.9040897"><ele>58.0</ele><time>2026-03-22T09:09:42.66Z</time></trkpt><trkpt lat="44.4566173" lon="8.9040421"><ele>57.0</ele><time>2026-03-22T09:09:43.66Z</time></trkpt><trkpt lat="44.4564188" lon="8.9039852"><ele>56.0</ele><time>2026-03-22T09:09:44.659Z</time></trkpt><trkpt lat="44.4562233" lon="8.9039388"><ele>56.0</ele><time>2026-03-22T09:09:45.659Z</time></trkpt><trkpt lat="44.4560347" lon="8.903891"><ele>56.0</ele><time>2026-03-22T09:09:46.66Z</time></trkpt><trkpt lat="44.4558612" lon="8.9038254"><ele>56.0</ele><time>2026-03-22T09:09:47.659Z</time></trkpt><trkpt lat="44.4556951" lon="8.9037439"><ele>56.0</ele><time>2026-03-22T09:09:48.659Z</time></trkpt><trkpt lat="44.455543" lon="8.903629"><ele>56.0</ele><time>2026-03-22T09:09:49.659Z</time></trkpt><trkpt lat="44.4554021" lon="8.9034848"><ele>56.0</ele><time>2026-03-22T09:09:50.659Z</time></trkpt><trkpt lat="44.4552893" lon="8.9033101"><ele>63.0</ele><time>2026-03-22T09:09:51.659Z</time></trkpt><trkpt lat="44.4551982" lon="8.903104"><ele>70.0</ele><time>2026-03-22T09:09:52.66Z</time></trkpt><trkpt lat="44.4551341" lon="8.9028693"><ele>77.0</ele><time>2026-03-22T09:09:53.659Z</time></trkpt><trkpt lat="44.4550835" lon="8.9026239"><ele>73.33333333333334</ele><time>2026-03-22T09:09:54.659Z</time></trkpt><trkpt lat="44.4550342" lon="8.9023771"><ele>69.66666666666667</ele><time>2026-03-22T09:09:55.659Z</time></trkpt><trkpt lat="44.4549825" lon="8.9021264"><ele>66.0</ele><time>2026-03-22T09:09:56.659Z</time></trkpt><trkpt lat="44.4549274" lon="8.9018704"><ele>62.66666666666667</ele><time>2026-03-22T09:09:57.659Z</time></trkpt><trkpt lat="44.4548768" lon="8.9016186"><ele>59.333333333333336</ele><time>2026-03-22T09:09:58.659Z</time></trkpt><trkpt lat="44.4548275" lon="8.901374"><ele>56.0</ele><time>2026-03-22T09:09:59.659Z</time></trkpt><trkpt lat="44.4547864" lon="8.9011348"><ele>53.66666666666667</ele><time>2026-03-22T09:10:00.659Z</time></trkpt><trkpt lat="44.4547634" lon="8.9008936"><ele>51.33333333333333</ele><time>2026-03-22T09:10:01.659Z</time></trkpt><trkpt lat="44.4547666" lon="8.9006524"><ele>49.0</ele><time>2026-03-22T09:10:02.659Z</time></trkpt><trkpt lat="44.4547845" lon="8.9004171"><ele>49.0</ele><time>2026-03-22T09:10:03.659Z</time></trkpt><trkpt lat="44.4548083" lon="8.9001952"><ele>49.0</ele><time>2026-03-22T09:10:04.659Z</time></trkpt><trkpt lat="44.4548264" lon="8.8999867"><ele>49.0</ele><time>2026-03-22T09:10:05.659Z</time></trkpt><trkpt lat="44.454832" lon="8.8997897"><ele>49.0</ele><time>2026-03-22T09:10:06.659Z</time></trkpt><trkpt lat="44.4548163" lon="8.8995917"><ele>49.0</ele><time>2026-03-22T09:10:07.66Z</time></trkpt><trkpt lat="44.4547785" lon="8.8993874"><ele>49.0</ele><time>2026-03-22T09:10:08.659Z</time></trkpt><trkpt lat="44.454717" lon="8.8991782"><ele>49.33333333333333</ele><time>2026-03-22T09:10:09.659Z</time></trkpt><trkpt lat="44.4546346" lon="8.8989678"><ele>49.66666666666667</ele><time>2026-03-22T09:10:10.659Z</time></trkpt><trkpt lat="44.4545319" lon="8.898761"><ele>50.0</ele><time>2026-03-22T09:10:11.66Z</time></trkpt><trkpt lat="44.4544168" lon="8.8985595"><ele>51.333333333333336</ele><time>2026-03-22T09:10:12.659Z</time></trkpt><trkpt lat="44.4542917" lon="8.8983609"><ele>52.66666666666667</ele><time>2026-03-22T09:10:13.66Z</time></trkpt><trkpt lat="44.4541746" lon="8.8981631"><ele>54.0</ele><time>2026-03-22T09:10:14.659Z</time></trkpt><trkpt lat="44.4540569" lon="8.8979695"><ele>54.0</ele><time>2026-03-22T09:10:15.659Z</time></trkpt><trkpt lat="44.4539449" lon="8.8977825"><ele>54.0</ele><time>2026-03-22T09:10:16.659Z</time></trkpt><trkpt lat="44.4538291" lon="8.8975909"><ele>54.0</ele><time>2026-03-22T09:10:17.659Z</time></trkpt><trkpt lat="44.4537089" lon="8.8973996"><ele>51.666666666666664</ele><time>2026-03-22T09:10:18.659Z</time></trkpt><trkpt lat="44.4535862" lon="8.8972047"><ele>49.33333333333333</ele><time>2026-03-22T09:10:19.659Z</time></trkpt><trkpt lat="44.4534611" lon="8.897007"><ele>47.0</ele><time>2026-03-22T09:10:20.659Z</time></trkpt><trkpt lat="44.4533376" lon="8.8968098"><ele>47.666666666666664</ele><time>2026-03-22T09:10:21.659Z</time></trkpt><trkpt lat="44.4532119" lon="8.8966136"><ele>48.33333333333333</ele><time>2026-03-22T09:10:22.66Z</time></trkpt><trkpt lat="44.4530797" lon="8.8964266"><ele>49.0</ele><time>2026-03-22T09:10:23.66Z</time></trkpt><trkpt lat="44.4529422" lon="8.8962622"><ele>51.666666666666664</ele><time>2026-03-22T09:10:24.659Z</time></trkpt><trkpt lat="44.4527933" lon="8.8961204"><ele>54.33333333333333</ele><time>2026-03-22T09:10:25.659Z</time></trkpt><trkpt lat="44.4526388" lon="8.8959978"><ele>57.0</ele><time>2026-03-22T09:10:26.659Z</time></trkpt><trkpt lat="44.4524859" lon="8.8958776"><ele>57.0</ele><time>2026-03-22T09:10:27.659Z</time></trkpt><trkpt lat="44.4523297" lon="8.8957568"><ele>57.0</ele><time>2026-03-22T09:10:28.659Z</time></trkpt><trkpt lat="44.4521905" lon="8.8956713"><ele>57.0</ele><time>2026-03-22T09:10:29.66Z</time></trkpt><trkpt lat="44.4520313" lon="8.8955826"><ele>59.33333333333333</ele><time>2026-03-22T09:10:30.659Z</time></trkpt><trkpt lat="44.4518718" lon="8.8955154"><ele>61.666666666666664</ele><time>2026-03-22T09:10:31.659Z</time></trkpt><trkpt lat="44.4516948" lon="8.8956422"><ele>64.0</ele><time>2026-03-22T09:10:32.659Z</time></trkpt><trkpt lat="44.4515416" lon="8.8957187"><ele>64.0</ele><time>2026-03-22T09:10:33.659Z</time></trkpt><trkpt lat="44.4513779" lon="8.8957745"><ele>64.0</ele><time>2026-03-22T09:10:34.66Z</time></trkpt><trkpt lat="44.4512127" lon="8.8958442"><ele>64.0</ele><time>2026-03-22T09:10:35.659Z</time></trkpt><trkpt lat="44.4510429" lon="8.8959105"><ele>64.66666666666666</ele><time>2026-03-22T09:10:36.659Z</time></trkpt><trkpt lat="44.4508481" lon="8.8959838"><ele>65.33333333333333</ele><time>2026-03-22T09:10:37.659Z</time></trkpt><trkpt lat="44.4506506" lon="8.8960172"><ele>66.0</ele><time>2026-03-22T09:10:38.659Z</time></trkpt><trkpt lat="44.4504661" lon="8.896017"><ele>67.33333333333333</ele><time>2026-03-22T09:10:39.66Z</time></trkpt><trkpt lat="44.4502931" lon="8.8960033"><ele>68.66666666666666</ele><time>2026-03-22T09:10:40.659Z</time></trkpt><trkpt lat="44.4501274" lon="8.8960131"><ele>70.0</ele><time>2026-03-22T09:10:41.66Z</time></trkpt><trkpt lat="44.4499599" lon="8.8960504"><ele>70.0</ele><time>2026-03-22T09:10:42.659Z</time></trkpt><trkpt lat="44.449802" lon="8.8961168"><ele>70.0</ele><time>2026-03-22T09:10:43.659Z</time></trkpt><trkpt lat="44.4496479" lon="8.8961913"><ele>70.0</ele><time>2026-03-22T09:10:44.659Z</time></trkpt><trkpt lat="44.4494865" lon="8.8962395"><ele>68.0</ele><time>2026-03-22T09:10:45.659Z</time></trkpt><trkpt lat="44.4493226" lon="8.8962616"><ele>66.0</ele><time>2026-03-22T09:10:46.66Z</time></trkpt><trkpt lat="44.4491535" lon="8.8962521"><ele>64.0</ele><time>2026-03-22T09:10:47.659Z</time></trkpt><trkpt lat="44.4489819" lon="8.8962094"><ele>64.0</ele><time>2026-03-22T09:10:48.659Z</time></trkpt><trkpt lat="44.4488117" lon="8.8961541"><ele>64.0</ele><time>2026-03-22T09:10:49.66Z</time></trkpt><trkpt lat="44.4486369" lon="8.8961205"><ele>64.0</ele><time>2026-03-22T09:10:50.659Z</time></trkpt><trkpt lat="44.4484556" lon="8.8961205"><ele>64.0</ele><time>2026-03-22T09:10:51.66Z</time></trkpt><trkpt lat="44.4482702" lon="8.8961503"><ele>64.0</ele><time>2026-03-22T09:10:52.66Z</time></trkpt><trkpt lat="44.4480826" lon="8.8961992"><ele>64.0</ele><time>2026-03-22T09:10:53.66Z</time></trkpt><trkpt lat="44.4478917" lon="8.8962594"><ele>64.0</ele><time>2026-03-22T09:10:54.659Z</time></trkpt><trkpt lat="44.4476967" lon="8.8963233"><ele>64.0</ele><time>2026-03-22T09:10:55.659Z</time></trkpt><trkpt lat="44.4474965" lon="8.8963896"><ele>64.0</ele><time>2026-03-22T09:10:56.66Z</time></trkpt><trkpt lat="44.4472965" lon="8.896463"><ele>61.666666666666664</ele><time>2026-03-22T09:10:57.66Z</time></trkpt><trkpt lat="44.4470999" lon="8.8965295"><ele>59.33333333333333</ele><time>2026-03-22T09:10:58.66Z</time></trkpt><trkpt lat="44.4469022" lon="8.8965901"><ele>57.0</ele><time>2026-03-22T09:10:59.66Z</time></trkpt><trkpt lat="44.4467072" lon="8.8966516"><ele>57.0</ele><time>2026-03-22T09:11:00.659Z</time></trkpt><trkpt lat="44.4465183" lon="8.8967108"><ele>57.0</ele><time>2026-03-22T09:11:01.659Z</time></trkpt><trkpt lat="44.446338" lon="8.8967621"><ele>57.0</ele><time>2026-03-22T09:11:02.659Z</time></trkpt><trkpt lat="44.4461665" lon="8.8968122"><ele>61.66666666666667</ele><time>2026-03-22T09:11:03.66Z</time></trkpt><trkpt lat="44.4460008" lon="8.8968555"><ele>66.33333333333334</ele><time>2026-03-22T09:11:04.659Z</time></trkpt><trkpt lat="44.4458408" lon="8.8968826"><ele>71.0</ele><time>2026-03-22T09:11:05.66Z</time></trkpt><trkpt lat="44.4456758" lon="8.8968807"><ele>71.0</ele><time>2026-03-22T09:11:06.659Z</time></trkpt><trkpt lat="44.4455085" lon="8.8968636"><ele>71.0</ele><time>2026-03-22T09:11:07.659Z</time></trkpt><trkpt lat="44.4453398" lon="8.8968401"><ele>71.0</ele><time>2026-03-22T09:11:08.659Z</time></trkpt><trkpt lat="44.4451681" lon="8.8968201"><ele>73.0</ele><time>2026-03-22T09:11:09.66Z</time></trkpt><trkpt lat="44.4450002" lon="8.8968013"><ele>75.0</ele><time>2026-03-22T09:11:10.66Z</time></trkpt><trkpt lat="44.4448398" lon="8.8967839"><ele>77.0</ele><time>2026-03-22T09:11:11.66Z</time></trkpt><trkpt lat="44.4446837" lon="8.8967571"><ele>71.0</ele><time>2026-03-22T09:11:12.66Z</time></trkpt><trkpt lat="44.4445349" lon="8.8967118"><ele>65.0</ele><time>2026-03-22T09:11:13.659Z</time></trkpt><trkpt lat="44.4443889" lon="8.8966422"><ele>59.0</ele><time>2026-03-22T09:11:14.66Z</time></trkpt><trkpt lat="44.4442502" lon="8.8965389"><ele>59.0</ele><time>2026-03-22T09:11:15.659Z</time></trkpt><trkpt lat="44.4441247" lon="8.8964037"><ele>59.0</ele><time>2026-03-22T09:11:16.659Z</time></trkpt><trkpt lat="44.4440202" lon="8.8962371"><ele>59.0</ele><time>2026-03-22T09:11:17.66Z</time></trkpt><trkpt lat="44.4439336" lon="8.896048"><ele>53.0</ele><time>2026-03-22T09:11:18.659Z</time></trkpt><trkpt lat="44.4438719" lon="8.8958389"><ele>47.0</ele><time>2026-03-22T09:11:19.659Z</time></trkpt><trkpt lat="44.4438161" lon="8.8956162"><ele>41.0</ele><time>2026-03-22T09:11:20.659Z</time></trkpt><trkpt lat="44.443782" lon="8.8954094"><ele>48.33333333333333</ele><time>2026-03-22T09:11:21.66Z</time></trkpt><trkpt lat="44.4437366" lon="8.8952087"><ele>55.666666666666664</ele><time>2026-03-22T09:11:22.659Z</time></trkpt><trkpt lat="44.4436559" lon="8.895022"><ele>63.0</ele><time>2026-03-22T09:11:23.659Z</time></trkpt><trkpt lat="44.4435578" lon="8.8948479"><ele>63.0</ele><time>2026-03-22T09:11:24.66Z</time></trkpt><trkpt lat="44.4434355" lon="8.8946983"><ele>63.0</ele><time>2026-03-22T09:11:25.659Z</time></trkpt><trkpt lat="44.443294" lon="8.8945519"><ele>63.0</ele><time>2026-03-22T09:11:26.659Z</time></trkpt><trkpt lat="44.4431434" lon="8.8944088"><ele>63.0</ele><time>2026-03-22T09:11:27.659Z</time></trkpt><trkpt lat="44.4429851" lon="8.8942603"><ele>63.0</ele><time>2026-03-22T09:11:28.659Z</time></trkpt><trkpt lat="44.4428337" lon="8.8941273"><ele>63.0</ele><time>2026-03-22T09:11:29.66Z</time></trkpt><trkpt lat="44.4426772" lon="8.8940028"><ele>58.66666666666667</ele><time>2026-03-22T09:11:30.659Z</time></trkpt><trkpt lat="44.4425005" lon="8.8939398"><ele>54.333333333333336</ele><time>2026-03-22T09:11:31.66Z</time></trkpt><trkpt lat="44.4423203" lon="8.8938933"><ele>50.0</ele><time>2026-03-22T09:11:32.659Z</time></trkpt><trkpt lat="44.4421454" lon="8.8938775"><ele>52.0</ele><time>2026-03-22T09:11:33.659Z</time></trkpt><trkpt lat="44.4419766" lon="8.8938519"><ele>54.0</ele><time>2026-03-22T09:11:34.66Z</time></trkpt><trkpt lat="44.4418035" lon="8.8937872"><ele>56.0</ele><time>2026-03-22T09:11:35.66Z</time></trkpt><trkpt lat="44.4416408" lon="8.8936807"><ele>56.0</ele><time>2026-03-22T09:11:36.66Z</time></trkpt><trkpt lat="44.4414904" lon="8.8935331"><ele>56.0</ele><time>2026-03-22T09:11:37.659Z</time></trkpt><trkpt lat="44.4413518" lon="8.8933569"><ele>56.0</ele><time>2026-03-22T09:11:38.659Z</time></trkpt><trkpt lat="44.4412094" lon="8.8931776"><ele>58.66666666666667</ele><time>2026-03-22T09:11:39.66Z</time></trkpt><trkpt lat="44.4410665" lon="8.8930006"><ele>61.33333333333333</ele><time>2026-03-22T09:11:40.66Z</time></trkpt><trkpt lat="44.4409305" lon="8.892837"><ele>64.0</ele><time>2026-03-22T09:11:41.66Z</time></trkpt><trkpt lat="44.4407918" lon="8.892693"><ele>59.0</ele><time>2026-03-22T09:11:42.659Z</time></trkpt><trkpt lat="44.4406444" lon="8.8925862"><ele>54.0</ele><time>2026-03-22T09:11:43.66Z</time></trkpt><trkpt lat="44.4404876" lon="8.8925176"><ele>49.0</ele><time>2026-03-22T09:11:44.659Z</time></trkpt><trkpt lat="44.4403262" lon="8.8924861"><ele>49.0</ele><time>2026-03-22T09:11:45.66Z</time></trkpt><trkpt lat="44.4401665" lon="8.8924901"><ele>49.0</ele><time>2026-03-22T09:11:46.659Z</time></trkpt><trkpt lat="44.4400059" lon="8.8925383"><ele>49.0</ele><time>2026-03-22T09:11:47.659Z</time></trkpt><trkpt lat="44.4398538" lon="8.892631"><ele>49.666666666666664</ele><time>2026-03-22T09:11:48.659Z</time></trkpt><trkpt lat="44.4397056" lon="8.8927517"><ele>50.33333333333333</ele><time>2026-03-22T09:11:49.659Z</time></trkpt><trkpt lat="44.4395611" lon="8.8928878"><ele>51.0</ele><time>2026-03-22T09:11:50.66Z</time></trkpt><trkpt lat="44.4394124" lon="8.8930319"><ele>51.0</ele><time>2026-03-22T09:11:51.659Z</time></trkpt><trkpt lat="44.4392574" lon="8.8931836"><ele>51.0</ele><time>2026-03-22T09:11:52.659Z</time></trkpt><trkpt lat="44.4390953" lon="8.8933367"><ele>51.0</ele><time>2026-03-22T09:11:53.66Z</time></trkpt><trkpt lat="44.4389353" lon="8.8934952"><ele>49.333333333333336</ele><time>2026-03-22T09:11:54.659Z</time></trkpt><trkpt lat="44.4387701" lon="8.8936593"><ele>47.66666666666667</ele><time>2026-03-22T09:11:55.659Z</time></trkpt><trkpt lat="44.4386094" lon="8.893825"><ele>46.0</ele><time>2026-03-22T09:11:56.66Z</time></trkpt><trkpt lat="44.4384491" lon="8.893982"><ele>46.0</ele><time>2026-03-22T09:11:57.659Z</time></trkpt><trkpt lat="44.4382917" lon="8.8941373"><ele>46.0</ele><time>2026-03-22T09:11:58.659Z</time></trkpt><trkpt lat="44.4381396" lon="8.8942812"><ele>46.0</ele><time>2026-03-22T09:11:59.66Z</time></trkpt><trkpt lat="44.4379811" lon="8.8944129"><ele>41.0</ele><time>2026-03-22T09:12:00.659Z</time></trkpt><trkpt lat="44.4378086" lon="8.8944967"><ele>36.0</ele><time>2026-03-22T09:12:01.659Z</time></trkpt><trkpt lat="44.4376391" lon="8.8945848"><ele>31.0</ele><time>2026-03-22T09:12:02.66Z</time></trkpt><trkpt lat="44.4374476" lon="8.8946721"><ele>31.0</ele><time>2026-03-22T09:12:03.659Z</time></trkpt><trkpt lat="44.4372505" lon="8.8947239"><ele>31.0</ele><time>2026-03-22T09:12:04.659Z</time></trkpt><trkpt lat="44.437055" lon="8.8948074"><ele>31.0</ele><time>2026-03-22T09:12:05.659Z</time></trkpt><trkpt lat="44.4368559" lon="8.8948906"><ele>30.333333333333336</ele><time>2026-03-22T09:12:06.659Z</time></trkpt><trkpt lat="44.4366553" lon="8.8949782"><ele>29.666666666666664</ele><time>2026-03-22T09:12:07.659Z</time></trkpt><trkpt lat="44.436455" lon="8.8950674"><ele>29.0</ele><time>2026-03-22T09:12:08.659Z</time></trkpt><trkpt lat="44.4362515" lon="8.8951557"><ele>36.0</ele><time>2026-03-22T09:12:09.66Z</time></trkpt><trkpt lat="44.43605" lon="8.8952422"><ele>43.0</ele><time>2026-03-22T09:12:10.659Z</time></trkpt><trkpt lat="44.435848" lon="8.8953256"><ele>50.0</ele><time>2026-03-22T09:12:11.66Z</time></trkpt><trkpt lat="44.4356474" lon="8.8954056"><ele>56.66666666666667</ele><time>2026-03-22T09:12:12.659Z</time></trkpt><trkpt lat="44.4354455" lon="8.8954729"><ele>63.33333333333333</ele><time>2026-03-22T09:12:13.66Z</time></trkpt><trkpt lat="44.435242" lon="8.8955341"><ele>70.0</ele><time>2026-03-22T09:12:14.659Z</time></trkpt><trkpt lat="44.4350395" lon="8.8956029"><ele>70.0</ele><time>2026-03-22T09:12:15.659Z</time></trkpt><trkpt lat="44.4348369" lon="8.8956682"><ele>70.0</ele><time>2026-03-22T09:12:16.659Z</time></trkpt><trkpt lat="44.433358" lon="8.8960824"><ele>62.33333333333333</ele><time>2026-03-22T09:12:23.659Z</time></trkpt><trkpt lat="44.4331607" lon="8.8961804"><ele>54.666666666666664</ele><time>2026-03-22T09:12:24.66Z</time></trkpt><trkpt lat="44.4329662" lon="8.8962825"><ele>47.0</ele><time>2026-03-22T09:12:25.66Z</time></trkpt><trkpt lat="44.4327784" lon="8.8963972"><ele>47.0</ele><time>2026-03-22T09:12:26.659Z</time></trkpt><trkpt lat="44.4325935" lon="8.8965134"><ele>47.0</ele><time>2026-03-22T09:12:27.659Z</time></trkpt><trkpt lat="44.4324059" lon="8.8966311"><ele>47.0</ele><time>2026-03-22T09:12:28.659Z</time></trkpt><trkpt lat="44.4322216" lon="8.8967517"><ele>60.0</ele><time>2026-03-22T09:12:29.659Z</time></trkpt><trkpt lat="44.4320374" lon="8.8968743"><ele>73.0</ele><time>2026-03-22T09:12:30.659Z</time></trkpt><trkpt lat="44.4318521" lon="8.8969924"><ele>86.0</ele><time>2026-03-22T09:12:31.659Z</time></trkpt><trkpt lat="44.4316723" lon="8.8971035"><ele>68.0</ele><time>2026-03-22T09:12:32.659Z</time></trkpt><trkpt lat="44.4305021" lon="8.8977135"><ele>64.33333333333334</ele><time>2026-03-22T09:12:39.659Z</time></trkpt><trkpt lat="44.4303139" lon="8.897645"><ele>60.66666666666667</ele><time>2026-03-22T09:12:40.659Z</time></trkpt><trkpt lat="44.4301632" lon="8.8975765"><ele>57.0</ele><time>2026-03-22T09:12:41.66Z</time></trkpt><trkpt lat="44.4300139" lon="8.8975014"><ele>57.0</ele><time>2026-03-22T09:12:42.659Z</time></trkpt><trkpt lat="44.4298587" lon="8.8974638"><ele>57.0</ele><time>2026-03-22T09:12:43.659Z</time></trkpt><trkpt lat="44.429693" lon="8.8974548"><ele>57.0</ele><time>2026-03-22T09:12:44.659Z</time></trkpt><trkpt lat="44.4295327" lon="8.8974798"><ele>62.0</ele><time>2026-03-22T09:12:45.66Z</time></trkpt><trkpt lat="44.4293796" lon="8.8975197"><ele>67.0</ele><time>2026-03-22T09:12:46.659Z</time></trkpt><trkpt lat="44.4292429" lon="8.8976384"><ele>72.0</ele><time>2026-03-22T09:12:47.66Z</time></trkpt><trkpt lat="44.4290778" lon="8.8977638"><ele>72.0</ele><time>2026-03-22T09:12:48.659Z</time></trkpt><trkpt lat="44.4289247" lon="8.8978651"><ele>72.0</ele><time>2026-03-22T09:12:49.659Z</time></trkpt><trkpt lat="44.4287705" lon="8.8979706"><ele>72.0</ele><time>2026-03-22T09:12:50.659Z</time></trkpt><trkpt lat="44.4296334" lon="8.8974805"><ele>93.0</ele><time>2026-03-22T09:12:58.827Z</time></trkpt><trkpt lat="44.4271359" lon="8.8976916"><ele>89.66666666666667</ele><time>2026-03-22T09:13:03.66Z</time></trkpt><trkpt lat="44.427137" lon="8.897413"><ele>86.33333333333334</ele><time>2026-03-22T09:13:04.658Z</time></trkpt><trkpt lat="44.4270872" lon="8.8972032"><ele>83.0</ele><time>2026-03-22T09:13:05.66Z</time></trkpt><trkpt lat="44.4270368" lon="8.8969718"><ele>81.66666666666667</ele><time>2026-03-22T09:13:06.659Z</time></trkpt><trkpt lat="44.4269948" lon="8.8967326"><ele>80.33333333333333</ele><time>2026-03-22T09:13:07.659Z</time></trkpt><trkpt lat="44.426953" lon="8.8965047"><ele>79.0</ele><time>2026-03-22T09:13:08.659Z</time></trkpt><trkpt lat="44.4269145" lon="8.896287"><ele>79.0</ele><time>2026-03-22T09:13:09.66Z</time></trkpt><trkpt lat="44.4268667" lon="8.8960818"><ele>79.0</ele><time>2026-03-22T09:13:10.659Z</time></trkpt><trkpt lat="44.426797" lon="8.8958893"><ele>79.0</ele><time>2026-03-22T09:13:11.659Z</time></trkpt><trkpt lat="44.4267088" lon="8.8957138"><ele>80.5</ele><time>2026-03-22T09:13:12.659Z</time></trkpt><trkpt lat="44.4266008" lon="8.8955599"><ele>82.0</ele><time>2026-03-22T09:13:13.659Z</time></trkpt><trkpt lat="44.4264809" lon="8.8954322"><ele>83.5</ele><time>2026-03-22T09:13:14.66Z</time></trkpt><trkpt lat="44.4263581" lon="8.895333"><ele>85.0</ele><time>2026-03-22T09:13:15.659Z</time></trkpt><trkpt lat="44.4262352" lon="8.8952516"><ele>85.0</ele><time>2026-03-22T09:13:16.659Z</time></trkpt><trkpt lat="44.4261066" lon="8.895171"><ele>85.0</ele><time>2026-03-22T09:13:17.66Z</time></trkpt><trkpt lat="44.425976" lon="8.8950896"><ele>85.0</ele><time>2026-03-22T09:13:18.66Z</time></trkpt><trkpt lat="44.4258485" lon="8.8950055"><ele>85.0</ele><time>2026-03-22T09:13:19.66Z</time></trkpt><trkpt lat="44.4257231" lon="8.894918"><ele>86.5</ele><time>2026-03-22T09:13:20.659Z</time></trkpt><trkpt lat="44.4256" lon="8.8948266"><ele>88.0</ele><time>2026-03-22T09:13:21.659Z</time></trkpt><trkpt lat="44.4254805" lon="8.8947276"><ele>89.5</ele><time>2026-03-22T09:13:22.659Z</time></trkpt><trkpt lat="44.4253677" lon="8.8946216"><ele>91.0</ele><time>2026-03-22T09:13:23.659Z</time></trkpt><trkpt lat="44.4252643" lon="8.8945011"><ele>91.0</ele><time>2026-03-22T09:13:24.659Z</time></trkpt><trkpt lat="44.4251631" lon="8.8943715"><ele>91.0</ele><time>2026-03-22T09:13:25.66Z</time></trkpt><trkpt lat="44.4250612" lon="8.8942399"><ele>91.0</ele><time>2026-03-22T09:13:26.659Z</time></trkpt><trkpt lat="44.4249616" lon="8.8941127"><ele>91.0</ele><time>2026-03-22T09:13:27.659Z</time></trkpt><trkpt lat="44.4248597" lon="8.8939919"><ele>86.25</ele><time>2026-03-22T09:13:28.659Z</time></trkpt><trkpt lat="44.424762" lon="8.8938671"><ele>81.5</ele><time>2026-03-22T09:13:29.659Z</time></trkpt><trkpt lat="44.4246723" lon="8.8937339"><ele>76.75</ele><time>2026-03-22T09:13:30.659Z</time></trkpt><trkpt lat="44.4245896" lon="8.8935921"><ele>72.0</ele><time>2026-03-22T09:13:31.66Z</time></trkpt><trkpt lat="44.4245164" lon="8.8934398"><ele>69.0</ele><time>2026-03-22T09:13:32.659Z</time></trkpt><trkpt lat="44.4244568" lon="8.8932729"><ele>66.0</ele><time>2026-03-22T09:13:33.659Z</time></trkpt><trkpt lat="44.4244169" lon="8.8930886"><ele>63.0</ele><time>2026-03-22T09:13:34.659Z</time></trkpt><trkpt lat="44.424397" lon="8.8928874"><ele>60.0</ele><time>2026-03-22T09:13:35.66Z</time></trkpt><trkpt lat="44.4244039" lon="8.8926787"><ele>51.0</ele><time>2026-03-22T09:13:36.659Z</time></trkpt><trkpt lat="44.424434" lon="8.8924699"><ele>42.0</ele><time>2026-03-22T09:13:37.66Z</time></trkpt><trkpt lat="44.4244861" lon="8.8922688"><ele>33.0</ele><time>2026-03-22T09:13:38.659Z</time></trkpt><trkpt lat="44.4245559" lon="8.8920713"><ele>33.0</ele><time>2026-03-22T09:13:39.659Z</time></trkpt><trkpt lat="44.4246338" lon="8.8918777"><ele>33.0</ele><time>2026-03-22T09:13:40.659Z</time></trkpt><trkpt lat="44.4247122" lon="8.8916805"><ele>33.0</ele><time>2026-03-22T09:13:41.659Z</time></trkpt><trkpt lat="44.4247915" lon="8.8914812"><ele>28.0</ele><time>2026-03-22T09:13:42.659Z</time></trkpt><trkpt lat="44.4248734" lon="8.8912821"><ele>23.0</ele><time>2026-03-22T09:13:43.659Z</time></trkpt><trkpt lat="44.4249566" lon="8.8910821"><ele>18.0</ele><time>2026-03-22T09:13:44.66Z</time></trkpt><trkpt lat="44.4250401" lon="8.8908781"><ele>17.666666666666668</ele><time>2026-03-22T09:13:45.659Z</time></trkpt><trkpt lat="44.4251243" lon="8.8906702"><ele>17.333333333333336</ele><time>2026-03-22T09:13:46.659Z</time></trkpt><trkpt lat="44.4252103" lon="8.8904585"><ele>17.0</ele><time>2026-03-22T09:13:47.659Z</time></trkpt><trkpt lat="44.4252965" lon="8.8902478"><ele>17.0</ele><time>2026-03-22T09:13:48.659Z</time></trkpt><trkpt lat="44.4253844" lon="8.8900309"><ele>17.0</ele><time>2026-03-22T09:13:49.659Z</time></trkpt><trkpt lat="44.4254752" lon="8.8898109"><ele>17.0</ele><time>2026-03-22T09:13:50.659Z</time></trkpt><trkpt lat="44.4255684" lon="8.8895867"><ele>16.0</ele><time>2026-03-22T09:13:51.659Z</time></trkpt><trkpt lat="44.4256605" lon="8.8893572"><ele>15.0</ele><time>2026-03-22T09:13:52.659Z</time></trkpt><trkpt lat="44.4257531" lon="8.8891267"><ele>14.0</ele><time>2026-03-22T09:13:53.659Z</time></trkpt><trkpt lat="44.4258464" lon="8.888895"><ele>14.0</ele><time>2026-03-22T09:13:54.66Z</time></trkpt><trkpt lat="44.42594" lon="8.8886617"><ele>14.0</ele><time>2026-03-22T09:13:55.66Z</time></trkpt><trkpt lat="44.4260367" lon="8.8884269"><ele>14.0</ele><time>2026-03-22T09:13:56.659Z</time></trkpt><trkpt lat="44.4261338" lon="8.8881927"><ele>13.666666666666668</ele><time>2026-03-22T09:13:57.659Z</time></trkpt><trkpt lat="44.4262313" lon="8.8879596"><ele>13.333333333333332</ele><time>2026-03-22T09:13:58.659Z</time></trkpt><trkpt lat="44.4263285" lon="8.8877242"><ele>13.0</ele><time>2026-03-22T09:13:59.66Z</time></trkpt><trkpt lat="44.4264248" lon="8.887486"><ele>14.0</ele><time>2026-03-22T09:14:00.659Z</time></trkpt><trkpt lat="44.4265225" lon="8.8872491"><ele>15.0</ele><time>2026-03-22T09:14:01.659Z</time></trkpt><trkpt lat="44.4266201" lon="8.8870093"><ele>16.0</ele><time>2026-03-22T09:14:02.659Z</time></trkpt><trkpt lat="44.4267187" lon="8.8867679"><ele>15.666666666666666</ele><time>2026-03-22T09:14:03.659Z</time></trkpt><trkpt lat="44.4268189" lon="8.8865255"><ele>15.333333333333332</ele><time>2026-03-22T09:14:04.659Z</time></trkpt><trkpt lat="44.4269208" lon="8.8862813"><ele>15.0</ele><time>2026-03-22T09:14:05.659Z</time></trkpt><trkpt lat="44.4270222" lon="8.886035"><ele>14.333333333333332</ele><time>2026-03-22T09:14:06.659Z</time></trkpt><trkpt lat="44.4271233" lon="8.8857862"><ele>13.666666666666666</ele><time>2026-03-22T09:14:07.659Z</time></trkpt><trkpt lat="44.4272258" lon="8.8855351"><ele>13.0</ele><time>2026-03-22T09:14:08.659Z</time></trkpt><trkpt lat="44.4273295" lon="8.8852829"><ele>14.333333333333332</ele><time>2026-03-22T09:14:09.659Z</time></trkpt><trkpt lat="44.4274339" lon="8.8850282"><ele>15.666666666666668</ele><time>2026-03-22T09:14:10.659Z</time></trkpt><trkpt lat="44.4275342" lon="8.8847688"><ele>17.0</ele><time>2026-03-22T09:14:11.659Z</time></trkpt><trkpt lat="44.4276296" lon="8.8845042"><ele>16.666666666666668</ele><time>2026-03-22T09:14:12.66Z</time></trkpt><trkpt lat="44.4277173" lon="8.8842335"><ele>16.333333333333332</ele><time>2026-03-22T09:14:13.66Z</time></trkpt><trkpt lat="44.4277953" lon="8.8839535"><ele>16.0</ele><time>2026-03-22T09:14:14.659Z</time></trkpt><trkpt lat="44.4278605" lon="8.8836626"><ele>16.0</ele><time>2026-03-22T09:14:15.659Z</time></trkpt><trkpt lat="44.4279086" lon="8.8833647"><ele>16.0</ele><time>2026-03-22T09:14:16.659Z</time></trkpt><trkpt lat="44.4279389" lon="8.8830598"><ele>16.0</ele><time>2026-03-22T09:14:17.66Z</time></trkpt><trkpt lat="44.4279524" lon="8.8827454"><ele>17.5</ele><time>2026-03-22T09:14:18.66Z</time></trkpt><trkpt lat="44.4279454" lon="8.8824293"><ele>19.0</ele><time>2026-03-22T09:14:19.659Z</time></trkpt><trkpt lat="44.42792" lon="8.8821149"><ele>19.0</ele><time>2026-03-22T09:14:20.659Z</time></trkpt><trkpt lat="44.4278767" lon="8.8818048"><ele>19.0</ele><time>2026-03-22T09:14:21.659Z</time></trkpt><trkpt lat="44.4278173" lon="8.8814997"><ele>26.333333333333332</ele><time>2026-03-22T09:14:22.659Z</time></trkpt><trkpt lat="44.4277443" lon="8.8811978"><ele>33.666666666666664</ele><time>2026-03-22T09:14:23.66Z</time></trkpt><trkpt lat="44.427675" lon="8.8809029"><ele>41.0</ele><time>2026-03-22T09:14:24.659Z</time></trkpt><trkpt lat="44.4276095" lon="8.8806124"><ele>47.666666666666664</ele><time>2026-03-22T09:14:25.66Z</time></trkpt><trkpt lat="44.4275525" lon="8.8803197"><ele>54.33333333333333</ele><time>2026-03-22T09:14:26.659Z</time></trkpt><trkpt lat="44.4274896" lon="8.8800298"><ele>61.0</ele><time>2026-03-22T09:14:27.659Z</time></trkpt><trkpt lat="44.4274212" lon="8.8797368"><ele>65.0</ele><time>2026-03-22T09:14:28.659Z</time></trkpt><trkpt lat="44.4273565" lon="8.8794442"><ele>69.0</ele><time>2026-03-22T09:14:29.659Z</time></trkpt><trkpt lat="44.428025" lon="8.8812011"><ele>74.0</ele><time>2026-03-22T09:14:37.785Z</time></trkpt><trkpt lat="44.4241641" lon="8.869202"><ele>74.0</ele><time>2026-03-22T09:15:07.659Z</time></trkpt><trkpt lat="44.4241671" lon="8.8689366"><ele>74.0</ele><time>2026-03-22T09:15:08.659Z</time></trkpt><trkpt lat="44.4241892" lon="8.8686628"><ele>74.0</ele><time>2026-03-22T09:15:09.659Z</time></trkpt><trkpt lat="44.4242266" lon="8.8683979"><ele>72.0</ele><time>2026-03-22T09:15:10.659Z</time></trkpt><trkpt lat="44.4242732" lon="8.8681357"><ele>70.0</ele><time>2026-03-22T09:15:11.659Z</time></trkpt><trkpt lat="44.4243545" lon="8.8678768"><ele>68.0</ele><time>2026-03-22T09:15:12.66Z</time></trkpt><trkpt lat="44.4244436" lon="8.8676323"><ele>72.66666666666667</ele><time>2026-03-22T09:15:13.66Z</time></trkpt><trkpt lat="44.4245393" lon="8.8673906"><ele>77.33333333333333</ele><time>2026-03-22T09:15:14.66Z</time></trkpt><trkpt lat="44.4246363" lon="8.8671566"><ele>82.0</ele><time>2026-03-22T09:15:15.659Z</time></trkpt><trkpt lat="44.4247339" lon="8.8669225"><ele>44.0</ele><time>2026-03-22T09:15:16.659Z</time></trkpt><trkpt lat="44.4288064" lon="8.8608783"><ele>60.0</ele><time>2026-03-22T09:15:36.021Z</time></trkpt><trkpt lat="44.4272567" lon="8.8616935"><ele>60.0</ele><time>2026-03-22T09:15:39.659Z</time></trkpt><trkpt lat="44.4273644" lon="8.8614647"><ele>60.0</ele><time>2026-03-22T09:15:40.659Z</time></trkpt><trkpt lat="44.4274753" lon="8.8612491"><ele>60.0</ele><time>2026-03-22T09:15:41.659Z</time></trkpt><trkpt lat="44.4275863" lon="8.8610241"><ele>58.66666666666667</ele><time>2026-03-22T09:15:42.659Z</time></trkpt><trkpt lat="44.4276973" lon="8.8608028"><ele>57.333333333333336</ele><time>2026-03-22T09:15:43.659Z</time></trkpt><trkpt lat="44.427811" lon="8.8605785"><ele>56.0</ele><time>2026-03-22T09:15:44.659Z</time></trkpt><trkpt lat="44.4279276" lon="8.8603544"><ele>52.0</ele><time>2026-03-22T09:15:45.66Z</time></trkpt><trkpt lat="44.4280449" lon="8.8601251"><ele>48.0</ele><time>2026-03-22T09:15:46.659Z</time></trkpt><trkpt lat="44.4281628" lon="8.8598993"><ele>44.0</ele><time>2026-03-22T09:15:47.659Z</time></trkpt><trkpt lat="44.4282799" lon="8.8596713"><ele>38.0</ele><time>2026-03-22T09:15:48.66Z</time></trkpt><trkpt lat="44.4283973" lon="8.8594438"><ele>32.0</ele><time>2026-03-22T09:15:49.659Z</time></trkpt><trkpt lat="44.4285148" lon="8.8592182"><ele>26.0</ele><time>2026-03-22T09:15:50.66Z</time></trkpt><trkpt lat="44.4286295" lon="8.8589996"><ele>23.666666666666664</ele><time>2026-03-22T09:15:51.659Z</time></trkpt><trkpt lat="44.4287422" lon="8.8587876"><ele>21.333333333333332</ele><time>2026-03-22T09:15:52.659Z</time></trkpt><trkpt lat="44.4288516" lon="8.8585811"><ele>19.0</ele><time>2026-03-22T09:15:53.659Z</time></trkpt><trkpt lat="44.4289624" lon="8.8583754"><ele>19.0</ele><time>2026-03-22T09:15:54.659Z</time></trkpt><trkpt lat="44.4290703" lon="8.8581683"><ele>19.0</ele><time>2026-03-22T09:15:55.66Z</time></trkpt><trkpt lat="44.4291772" lon="8.8579579"><ele>19.0</ele><time>2026-03-22T09:15:56.659Z</time></trkpt><trkpt lat="44.429281" lon="8.8577366"><ele>21.0</ele><time>2026-03-22T09:15:57.659Z</time></trkpt><trkpt lat="44.4293785" lon="8.8574991"><ele>23.0</ele><time>2026-03-22T09:15:58.659Z</time></trkpt><trkpt lat="44.4294655" lon="8.8572457"><ele>25.0</ele><time>2026-03-22T09:15:59.66Z</time></trkpt><trkpt lat="44.4295345" lon="8.8569817"><ele>27.0</ele><time>2026-03-22T09:16:00.659Z</time></trkpt><trkpt lat="44.4295896" lon="8.8567091"><ele>29.0</ele><time>2026-03-22T09:16:01.659Z</time></trkpt><trkpt lat="44.4296403" lon="8.8564183"><ele>31.0</ele><time>2026-03-22T09:16:02.66Z</time></trkpt><trkpt lat="44.4296899" lon="8.8561178"><ele>31.666666666666668</ele><time>2026-03-22T09:16:03.66Z</time></trkpt><trkpt lat="44.4297388" lon="8.8558336"><ele>32.333333333333336</ele><time>2026-03-22T09:16:04.659Z</time></trkpt><trkpt lat="44.4297863" lon="8.8555514"><ele>33.0</ele><time>2026-03-22T09:16:05.66Z</time></trkpt><trkpt lat="44.4298388" lon="8.8552692"><ele>29.0</ele><time>2026-03-22T09:16:06.66Z</time></trkpt><trkpt lat="44.4298896" lon="8.854992"><ele>25.0</ele><time>2026-03-22T09:16:07.659Z</time></trkpt><trkpt lat="44.4299394" lon="8.8547067"><ele>21.0</ele><time>2026-03-22T09:16:08.659Z</time></trkpt><trkpt lat="44.4299873" lon="8.8544245"><ele>21.333333333333332</ele><time>2026-03-22T09:16:09.659Z</time></trkpt><trkpt lat="44.4300339" lon="8.8541447"><ele>21.666666666666664</ele><time>2026-03-22T09:16:10.66Z</time></trkpt><trkpt lat="44.4300809" lon="8.8538682"><ele>22.0</ele><time>2026-03-22T09:16:11.659Z</time></trkpt><trkpt lat="44.4301266" lon="8.8535891"><ele>24.0</ele><time>2026-03-22T09:16:12.659Z</time></trkpt><trkpt lat="44.4301697" lon="8.8533247"><ele>26.0</ele><time>2026-03-22T09:16:13.659Z</time></trkpt><trkpt lat="44.4302157" lon="8.8530724"><ele>28.0</ele><time>2026-03-22T09:16:14.659Z</time></trkpt><trkpt lat="44.4302603" lon="8.8528228"><ele>32.0</ele><time>2026-03-22T09:16:15.659Z</time></trkpt><trkpt lat="44.4302893" lon="8.8525869"><ele>36.0</ele><time>2026-03-22T09:16:16.659Z</time></trkpt><trkpt lat="44.4303281" lon="8.8523507"><ele>40.0</ele><time>2026-03-22T09:16:17.659Z</time></trkpt><trkpt lat="44.4303674" lon="8.8521123"><ele>39.0</ele><time>2026-03-22T09:16:18.659Z</time></trkpt><trkpt lat="44.4302781" lon="8.8468348"><ele>37.333333333333336</ele><time>2026-03-22T09:16:39.659Z</time></trkpt><trkpt lat="44.4302627" lon="8.8465655"><ele>35.66666666666667</ele><time>2026-03-22T09:16:40.659Z</time></trkpt><trkpt lat="44.430287" lon="8.8463103"><ele>34.0</ele><time>2026-03-22T09:16:41.659Z</time></trkpt><trkpt lat="44.430294" lon="8.8460362"><ele>35.66666666666667</ele><time>2026-03-22T09:16:42.659Z</time></trkpt><trkpt lat="44.430321" lon="8.8457839"><ele>37.333333333333336</ele><time>2026-03-22T09:16:43.659Z</time></trkpt><trkpt lat="44.4303416" lon="8.8455301"><ele>39.0</ele><time>2026-03-22T09:16:44.659Z</time></trkpt><trkpt lat="44.4303755" lon="8.8452869"><ele>40.333333333333336</ele><time>2026-03-22T09:16:45.659Z</time></trkpt><trkpt lat="44.4304312" lon="8.8450085"><ele>41.66666666666667</ele><time>2026-03-22T09:16:46.66Z</time></trkpt><trkpt lat="44.4304781" lon="8.8447441"><ele>43.0</ele><time>2026-03-22T09:16:47.659Z</time></trkpt><trkpt lat="44.4304959" lon="8.844462"><ele>44.66666666666667</ele><time>2026-03-22T09:16:48.66Z</time></trkpt><trkpt lat="44.4305201" lon="8.8441752"><ele>46.333333333333336</ele><time>2026-03-22T09:16:49.66Z</time></trkpt><trkpt lat="44.4305626" lon="8.8439449"><ele>48.0</ele><time>2026-03-22T09:16:50.659Z</time></trkpt><trkpt lat="44.4306053" lon="8.843708"><ele>49.33333333333333</ele><time>2026-03-22T09:16:51.659Z</time></trkpt><trkpt lat="44.4306625" lon="8.843463"><ele>50.666666666666664</ele><time>2026-03-22T09:16:52.659Z</time></trkpt><trkpt lat="44.4307278" lon="8.8432291"><ele>52.0</ele><time>2026-03-22T09:16:53.659Z</time></trkpt><trkpt lat="44.4307598" lon="8.8430664"><ele>52.0</ele><time>2026-03-22T09:16:54.659Z</time></trkpt><trkpt lat="44.4308007" lon="8.8428727"><ele>52.0</ele><time>2026-03-22T09:16:55.659Z</time></trkpt><trkpt lat="44.4308427" lon="8.8426725"><ele>52.0</ele><time>2026-03-22T09:16:56.66Z</time></trkpt><trkpt lat="44.4300918" lon="8.84013"><ele>45.5</ele><time>2026-03-22T09:17:04.795Z</time></trkpt><trkpt lat="44.4301649" lon="8.8396678"><ele>39.0</ele><time>2026-03-22T09:17:08.659Z</time></trkpt><trkpt lat="44.4301081" lon="8.8394169"><ele>36.666666666666664</ele><time>2026-03-22T09:17:09.659Z</time></trkpt><trkpt lat="44.430046" lon="8.839163"><ele>34.33333333333333</ele><time>2026-03-22T09:17:10.659Z</time></trkpt><trkpt lat="44.4300403" lon="8.8388886"><ele>32.0</ele><time>2026-03-22T09:17:11.659Z</time></trkpt><trkpt lat="44.430036" lon="8.8386025"><ele>34.33333333333333</ele><time>2026-03-22T09:17:12.659Z</time></trkpt><trkpt lat="44.4300433" lon="8.8383275"><ele>36.666666666666664</ele><time>2026-03-22T09:17:13.659Z</time></trkpt><trkpt lat="44.4300784" lon="8.8380564"><ele>39.0</ele><time>2026-03-22T09:17:14.659Z</time></trkpt><trkpt lat="44.4301308" lon="8.8377858"><ele>41.666666666666664</ele><time>2026-03-22T09:17:15.659Z</time></trkpt><trkpt lat="44.4301784" lon="8.837514"><ele>44.33333333333333</ele><time>2026-03-22T09:17:16.659Z</time></trkpt><trkpt lat="44.4302073" lon="8.8372715"><ele>47.0</ele><time>2026-03-22T09:17:17.66Z</time></trkpt><trkpt lat="44.4302361" lon="8.8370162"><ele>48.0</ele><time>2026-03-22T09:17:18.659Z</time></trkpt><trkpt lat="44.4302534" lon="8.8367614"><ele>49.0</ele><time>2026-03-22T09:17:19.66Z</time></trkpt><trkpt lat="44.4302335" lon="8.8364958"><ele>50.0</ele><time>2026-03-22T09:17:20.66Z</time></trkpt><trkpt lat="44.4302009" lon="8.8362688"><ele>50.0</ele><time>2026-03-22T09:17:21.659Z</time></trkpt><trkpt lat="44.4301684" lon="8.8359909"><ele>50.0</ele><time>2026-03-22T09:17:22.659Z</time></trkpt><trkpt lat="44.4301061" lon="8.8357733"><ele>50.0</ele><time>2026-03-22T09:17:23.659Z</time></trkpt><trkpt lat="44.4300378" lon="8.8353582"><ele>50.0</ele><time>2026-03-22T09:17:24.66Z</time></trkpt><trkpt lat="44.4299541" lon="8.8350188"><ele>50.0</ele><time>2026-03-22T09:17:25.659Z</time></trkpt><trkpt lat="44.4298749" lon="8.8347201"><ele>50.0</ele><time>2026-03-22T09:17:26.659Z</time></trkpt><trkpt lat="44.4298026" lon="8.83442"><ele>50.0</ele><time>2026-03-22T09:17:27.66Z</time></trkpt><trkpt lat="44.4297399" lon="8.834114"><ele>50.5</ele><time>2026-03-22T09:17:28.659Z</time></trkpt><trkpt lat="44.4296718" lon="8.8338152"><ele>51.0</ele><time>2026-03-22T09:17:29.66Z</time></trkpt><trkpt lat="44.4296339" lon="8.8334934"><ele>46.5</ele><time>2026-03-22T09:17:30.66Z</time></trkpt><trkpt lat="44.4296059" lon="8.8331709"><ele>42.0</ele><time>2026-03-22T09:17:31.659Z</time></trkpt><trkpt lat="44.429582" lon="8.8328433"><ele>45.5</ele><time>2026-03-22T09:17:32.659Z</time></trkpt><trkpt lat="44.429571" lon="8.8325145"><ele>49.0</ele><time>2026-03-22T09:17:33.66Z</time></trkpt><trkpt lat="44.4295656" lon="8.8321825"><ele>49.0</ele><time>2026-03-22T09:17:34.659Z</time></trkpt><trkpt lat="44.4295488" lon="8.8318629"><ele>49.0</ele><time>2026-03-22T09:17:35.66Z</time></trkpt><trkpt lat="44.4295352" lon="8.8315401"><ele>56.0</ele><time>2026-03-22T09:17:36.659Z</time></trkpt><trkpt lat="44.429755" lon="8.8274291"><ele>56.0</ele><time>2026-03-22T09:17:49.659Z</time></trkpt><trkpt lat="44.4297634" lon="8.8271023"><ele>56.0</ele><time>2026-03-22T09:17:50.66Z</time></trkpt><trkpt lat="44.4297234" lon="8.8268582"><ele>56.0</ele><time>2026-03-22T09:17:51.659Z</time></trkpt><trkpt lat="44.4297046" lon="8.8265861"><ele>54.333333333333336</ele><time>2026-03-22T09:17:52.659Z</time></trkpt><trkpt lat="44.4296779" lon="8.8263238"><ele>52.66666666666667</ele><time>2026-03-22T09:17:53.659Z</time></trkpt><trkpt lat="44.429656" lon="8.8261017"><ele>51.0</ele><time>2026-03-22T09:17:54.659Z</time></trkpt><trkpt lat="44.4294757" lon="8.8258438"><ele>47.0</ele><time>2026-03-22T09:17:55.659Z</time></trkpt><trkpt lat="44.4293998" lon="8.8255615"><ele>43.0</ele><time>2026-03-22T09:17:56.659Z</time></trkpt><trkpt lat="44.4293281" lon="8.8252808"><ele>39.0</ele><time>2026-03-22T09:17:57.659Z</time></trkpt><trkpt lat="44.4292715" lon="8.8249885"><ele>38.0</ele><time>2026-03-22T09:17:58.66Z</time></trkpt><trkpt lat="44.4292362" lon="8.8246917"><ele>37.0</ele><time>2026-03-22T09:17:59.659Z</time></trkpt><trkpt lat="44.4292239" lon="8.8243922"><ele>36.0</ele><time>2026-03-22T09:18:00.659Z</time></trkpt><trkpt lat="44.4292302" lon="8.8240924"><ele>35.666666666666664</ele><time>2026-03-22T09:18:01.659Z</time></trkpt><trkpt lat="44.4292588" lon="8.8237988"><ele>35.33333333333333</ele><time>2026-03-22T09:18:02.659Z</time></trkpt><trkpt lat="44.42931" lon="8.8235071"><ele>35.0</ele><time>2026-03-22T09:18:03.659Z</time></trkpt><trkpt lat="44.4293861" lon="8.8232159"><ele>32.0</ele><time>2026-03-22T09:18:04.659Z</time></trkpt><trkpt lat="44.4294763" lon="8.8229295"><ele>29.0</ele><time>2026-03-22T09:18:05.659Z</time></trkpt><trkpt lat="44.4295689" lon="8.8226394"><ele>28.0</ele><time>2026-03-22T09:18:06.659Z</time></trkpt><trkpt lat="44.429656" lon="8.8223371"><ele>27.0</ele><time>2026-03-22T09:18:07.659Z</time></trkpt><trkpt lat="44.429744" lon="8.8220197"><ele>23.5</ele><time>2026-03-22T09:18:08.659Z</time></trkpt><trkpt lat="44.4298337" lon="8.8216861"><ele>20.0</ele><time>2026-03-22T09:18:09.66Z</time></trkpt><trkpt lat="44.4299256" lon="8.8213419"><ele>20.0</ele><time>2026-03-22T09:18:10.659Z</time></trkpt><trkpt lat="44.4300191" lon="8.8209978"><ele>20.0</ele><time>2026-03-22T09:18:11.66Z</time></trkpt><trkpt lat="44.4301121" lon="8.8206614"><ele>19.0</ele><time>2026-03-22T09:18:12.659Z</time></trkpt><trkpt lat="44.4302039" lon="8.8203302"><ele>18.0</ele><time>2026-03-22T09:18:13.659Z</time></trkpt><trkpt lat="44.430297" lon="8.820003"><ele>18.0</ele><time>2026-03-22T09:18:14.66Z</time></trkpt><trkpt lat="44.4303899" lon="8.8196758"><ele>18.0</ele><time>2026-03-22T09:18:15.659Z</time></trkpt><trkpt lat="44.43048" lon="8.8193502"><ele>24.5</ele><time>2026-03-22T09:18:16.659Z</time></trkpt><trkpt lat="44.4305674" lon="8.8190267"><ele>31.0</ele><time>2026-03-22T09:18:17.659Z</time></trkpt><trkpt lat="44.4306555" lon="8.818705"><ele>36.0</ele><time>2026-03-22T09:18:18.659Z</time></trkpt><trkpt lat="44.4307444" lon="8.8183839"><ele>41.0</ele><time>2026-03-22T09:18:19.659Z</time></trkpt><trkpt lat="44.4308343" lon="8.8180648"><ele>41.0</ele><time>2026-03-22T09:18:20.659Z</time></trkpt><trkpt lat="44.4309235" lon="8.8177505"><ele>41.0</ele><time>2026-03-22T09:18:21.659Z</time></trkpt><trkpt lat="44.4310327" lon="8.8174554"><ele>46.0</ele><time>2026-03-22T09:18:22.659Z</time></trkpt><trkpt lat="44.431131" lon="8.8171569"><ele>51.0</ele><time>2026-03-22T09:18:23.659Z</time></trkpt><trkpt lat="44.4312286" lon="8.8168633"><ele>52.0</ele><time>2026-03-22T09:18:24.659Z</time></trkpt><trkpt lat="44.4320996" lon="8.8080867"><ele>52.0</ele><time>2026-03-22T09:18:48.256Z</time></trkpt><trkpt lat="44.432161" lon="8.8083029"><ele>52.0</ele><time>2026-03-22T09:18:52.659Z</time></trkpt><trkpt lat="44.4321225" lon="8.8079707"><ele>52.0</ele><time>2026-03-22T09:18:53.659Z</time></trkpt><trkpt lat="44.4320873" lon="8.8076487"><ele>61.5</ele><time>2026-03-22T09:18:54.659Z</time></trkpt><trkpt lat="44.4320537" lon="8.8073248"><ele>71.0</ele><time>2026-03-22T09:18:55.66Z</time></trkpt><trkpt lat="44.4320243" lon="8.8069937"><ele>81.5</ele><time>2026-03-22T09:18:56.66Z</time></trkpt><trkpt lat="44.4319948" lon="8.8066599"><ele>92.0</ele><time>2026-03-22T09:18:57.659Z</time></trkpt><trkpt lat="44.431968" lon="8.8063297"><ele>48.0</ele><time>2026-03-22T09:18:58.66Z</time></trkpt><trkpt lat="44.4330375" lon="8.7914209"><ele>48.0</ele><time>2026-03-22T09:19:44.659Z</time></trkpt><trkpt lat="44.4330254" lon="8.7911053"><ele>48.0</ele><time>2026-03-22T09:19:45.66Z</time></trkpt><trkpt lat="44.4330014" lon="8.7907668"><ele>45.5</ele><time>2026-03-22T09:19:46.659Z</time></trkpt><trkpt lat="44.4329616" lon="8.7904291"><ele>43.0</ele><time>2026-03-22T09:19:47.659Z</time></trkpt><trkpt lat="44.432906" lon="8.790086"><ele>43.0</ele><time>2026-03-22T09:19:48.659Z</time></trkpt><trkpt lat="44.432849" lon="8.7897408"><ele>43.0</ele><time>2026-03-22T09:19:49.659Z</time></trkpt><trkpt lat="44.4327905" lon="8.789397"><ele>42.5</ele><time>2026-03-22T09:19:50.659Z</time></trkpt><trkpt lat="44.4327328" lon="8.789054"><ele>42.0</ele><time>2026-03-22T09:19:51.659Z</time></trkpt><trkpt lat="44.4321536" lon="8.7874708"><ele>34.0</ele><time>2026-03-22T09:19:56.66Z</time></trkpt><trkpt lat="44.4320434" lon="8.7871531"><ele>26.0</ele><time>2026-03-22T09:19:57.66Z</time></trkpt><trkpt lat="44.43194" lon="8.7868386"><ele>25.5</ele><time>2026-03-22T09:19:58.66Z</time></trkpt><trkpt lat="44.4318372" lon="8.7865242"><ele>25.0</ele><time>2026-03-22T09:19:59.66Z</time></trkpt><trkpt lat="44.4317357" lon="8.7862159"><ele>29.0</ele><time>2026-03-22T09:20:00.66Z</time></trkpt><trkpt lat="44.4316371" lon="8.785913"><ele>33.0</ele><time>2026-03-22T09:20:01.659Z</time></trkpt><trkpt lat="44.4315404" lon="8.7856158"><ele>33.0</ele><time>2026-03-22T09:20:02.659Z</time></trkpt><trkpt lat="44.4314417" lon="8.7853179"><ele>33.0</ele><time>2026-03-22T09:20:03.659Z</time></trkpt><trkpt lat="44.4313468" lon="8.7850344"><ele>50.5</ele><time>2026-03-22T09:20:04.659Z</time></trkpt><trkpt lat="44.4312527" lon="8.784751"><ele>68.0</ele><time>2026-03-22T09:20:05.659Z</time></trkpt><trkpt lat="44.4311569" lon="8.7844631"><ele>23.0</ele><time>2026-03-22T09:20:06.659Z</time></trkpt><trkpt lat="44.4303999" lon="8.7749986"><ele>17.0</ele><time>2026-03-22T09:20:25.601Z</time></trkpt><trkpt lat="44.4302906" lon="8.7775488"><ele>17.0</ele><time>2026-03-22T09:20:28.659Z</time></trkpt><trkpt lat="44.4302802" lon="8.7772305"><ele>17.0</ele><time>2026-03-22T09:20:29.659Z</time></trkpt><trkpt lat="44.4302678" lon="8.7769072"><ele>13.5</ele><time>2026-03-22T09:20:30.659Z</time></trkpt><trkpt lat="44.4302544" lon="8.7765838"><ele>10.0</ele><time>2026-03-22T09:20:31.659Z</time></trkpt><trkpt lat="44.4302415" lon="8.7762549"><ele>12.0</ele><time>2026-03-22T09:20:32.66Z</time></trkpt><trkpt lat="44.430227" lon="8.7759233"><ele>14.0</ele><time>2026-03-22T09:20:33.66Z</time></trkpt><trkpt lat="44.4302143" lon="8.7755905"><ele>14.0</ele><time>2026-03-22T09:20:34.66Z</time></trkpt><trkpt lat="44.4302064" lon="8.7752598"><ele>14.0</ele><time>2026-03-22T09:20:35.659Z</time></trkpt><trkpt lat="44.4302103" lon="8.7749299"><ele>18.5</ele><time>2026-03-22T09:20:36.66Z</time></trkpt><trkpt lat="44.4302248" lon="8.7745996"><ele>23.0</ele><time>2026-03-22T09:20:37.659Z</time></trkpt><trkpt lat="44.4302464" lon="8.774273"><ele>25.0</ele><time>2026-03-22T09:20:38.66Z</time></trkpt><trkpt lat="44.4302692" lon="8.7739462"><ele>27.0</ele><time>2026-03-22T09:20:39.659Z</time></trkpt><trkpt lat="44.4302983" lon="8.773622"><ele>28.0</ele><time>2026-03-22T09:20:40.66Z</time></trkpt><trkpt lat="44.4303176" lon="8.7732913"><ele>29.0</ele><time>2026-03-22T09:20:41.66Z</time></trkpt><trkpt lat="44.4303312" lon="8.772959"><ele>30.0</ele><time>2026-03-22T09:20:42.659Z</time></trkpt><trkpt lat="44.430335" lon="8.7726321"><ele>31.0</ele><time>2026-03-22T09:20:43.66Z</time></trkpt><trkpt lat="44.4303307" lon="8.7723064"><ele>31.0</ele><time>2026-03-22T09:20:44.659Z</time></trkpt><trkpt lat="44.4303242" lon="8.7719816"><ele>31.0</ele><time>2026-03-22T09:20:45.66Z</time></trkpt><trkpt lat="44.4303234" lon="8.7716593"><ele>31.333333333333336</ele><time>2026-03-22T09:20:46.66Z</time></trkpt><trkpt lat="44.4303322" lon="8.7713431"><ele>31.666666666666664</ele><time>2026-03-22T09:20:47.659Z</time></trkpt><trkpt lat="44.430345" lon="8.7710344"><ele>32.0</ele><time>2026-03-22T09:20:48.66Z</time></trkpt><trkpt lat="44.4303551" lon="8.7707288"><ele>30.666666666666664</ele><time>2026-03-22T09:20:49.659Z</time></trkpt><trkpt lat="44.4303531" lon="8.7704201"><ele>29.333333333333336</ele><time>2026-03-22T09:20:50.659Z</time></trkpt><trkpt lat="44.4303358" lon="8.7701093"><ele>28.0</ele><time>2026-03-22T09:20:51.66Z</time></trkpt><trkpt lat="44.4303006" lon="8.7697947"><ele>28.0</ele><time>2026-03-22T09:20:52.659Z</time></trkpt><trkpt lat="44.4302496" lon="8.7694838"><ele>28.0</ele><time>2026-03-22T09:20:53.66Z</time></trkpt><trkpt lat="44.4301882" lon="8.7691808"><ele>24.666666666666668</ele><time>2026-03-22T09:20:54.66Z</time></trkpt><trkpt lat="44.4301238" lon="8.7688814"><ele>21.333333333333336</ele><time>2026-03-22T09:20:55.659Z</time></trkpt><trkpt lat="44.4300624" lon="8.768582"><ele>18.0</ele><time>2026-03-22T09:20:56.659Z</time></trkpt><trkpt lat="44.4300037" lon="8.7682809"><ele>17.666666666666668</ele><time>2026-03-22T09:20:57.659Z</time></trkpt><trkpt lat="44.4299529" lon="8.7679752"><ele>17.333333333333336</ele><time>2026-03-22T09:20:58.659Z</time></trkpt><trkpt lat="44.4299212" lon="8.7676628"><ele>17.0</ele><time>2026-03-22T09:20:59.66Z</time></trkpt><trkpt lat="44.4299079" lon="8.767343"><ele>16.5</ele><time>2026-03-22T09:21:00.66Z</time></trkpt><trkpt lat="44.4299165" lon="8.7670136"><ele>16.0</ele><time>2026-03-22T09:21:01.66Z</time></trkpt><trkpt lat="44.42994" lon="8.7666839"><ele>17.0</ele><time>2026-03-22T09:21:02.659Z</time></trkpt><trkpt lat="44.4299676" lon="8.7663533"><ele>18.0</ele><time>2026-03-22T09:21:03.659Z</time></trkpt><trkpt lat="44.43" lon="8.7660219"><ele>19.5</ele><time>2026-03-22T09:21:04.66Z</time></trkpt><trkpt lat="44.4300333" lon="8.7656893"><ele>21.0</ele><time>2026-03-22T09:21:05.66Z</time></trkpt><trkpt lat="44.4300732" lon="8.7653582"><ele>21.0</ele><time>2026-03-22T09:21:06.659Z</time></trkpt><trkpt lat="44.4301207" lon="8.7650254"><ele>21.0</ele><time>2026-03-22T09:21:07.659Z</time></trkpt><trkpt lat="44.4301757" lon="8.764695"><ele>21.0</ele><time>2026-03-22T09:21:08.66Z</time></trkpt><trkpt lat="44.4302335" lon="8.764373"><ele>21.0</ele><time>2026-03-22T09:21:09.659Z</time></trkpt><trkpt lat="44.4302896" lon="8.7640566"><ele>22.0</ele><time>2026-03-22T09:21:10.66Z</time></trkpt><trkpt lat="44.4303442" lon="8.7637433"><ele>23.0</ele><time>2026-03-22T09:21:11.659Z</time></trkpt><trkpt lat="44.4303974" lon="8.7634325"><ele>20.5</ele><time>2026-03-22T09:21:12.66Z</time></trkpt><trkpt lat="44.4304478" lon="8.7631235"><ele>18.0</ele><time>2026-03-22T09:21:13.659Z</time></trkpt><trkpt lat="44.4304887" lon="8.7628154"><ele>24.5</ele><time>2026-03-22T09:21:14.66Z</time></trkpt><trkpt lat="44.4305133" lon="8.7625045"><ele>31.0</ele><time>2026-03-22T09:21:15.66Z</time></trkpt><trkpt lat="44.4305342" lon="8.7621869"><ele>31.0</ele><time>2026-03-22T09:21:16.659Z</time></trkpt><trkpt lat="44.4305453" lon="8.7618747"><ele>31.0</ele><time>2026-03-22T09:21:17.659Z</time></trkpt><trkpt lat="44.4304913" lon="8.7615783"><ele>31.0</ele><time>2026-03-22T09:21:18.659Z</time></trkpt><trkpt lat="44.4304602" lon="8.7612808"><ele>30.0</ele><time>2026-03-22T09:21:19.659Z</time></trkpt><trkpt lat="44.4303999" lon="8.7609867"><ele>29.0</ele><time>2026-03-22T09:21:20.66Z</time></trkpt><trkpt lat="44.4303572" lon="8.7606634"><ele>29.0</ele><time>2026-03-22T09:21:21.66Z</time></trkpt><trkpt lat="44.4303183" lon="8.7603524"><ele>29.0</ele><time>2026-03-22T09:21:22.659Z</time></trkpt><trkpt lat="44.430278" lon="8.7600433"><ele>29.0</ele><time>2026-03-22T09:21:23.659Z</time></trkpt><trkpt lat="44.4302454" lon="8.759735"><ele>29.0</ele><time>2026-03-22T09:21:24.66Z</time></trkpt><trkpt lat="44.4302109" lon="8.7594246"><ele>29.0</ele><time>2026-03-22T09:21:25.659Z</time></trkpt><trkpt lat="44.4301848" lon="8.759107"><ele>29.333333333333332</ele><time>2026-03-22T09:21:26.659Z</time></trkpt><trkpt lat="44.4302099" lon="8.7587946"><ele>29.666666666666664</ele><time>2026-03-22T09:21:27.66Z</time></trkpt><trkpt lat="44.4302191" lon="8.7584844"><ele>30.0</ele><time>2026-03-22T09:21:28.659Z</time></trkpt><trkpt lat="44.4302242" lon="8.7582041"><ele>30.0</ele><time>2026-03-22T09:21:29.659Z</time></trkpt><trkpt lat="44.4302361" lon="8.7578875"><ele>30.0</ele><time>2026-03-22T09:21:30.659Z</time></trkpt><trkpt lat="44.4302438" lon="8.7575708"><ele>30.0</ele><time>2026-03-22T09:21:31.659Z</time></trkpt><trkpt lat="44.4302582" lon="8.7572728"><ele>30.0</ele><time>2026-03-22T09:21:32.66Z</time></trkpt><trkpt lat="44.4302698" lon="8.7569736"><ele>30.0</ele><time>2026-03-22T09:21:33.659Z</time></trkpt><trkpt lat="44.4303082" lon="8.7566959"><ele>30.333333333333336</ele><time>2026-03-22T09:21:34.659Z</time></trkpt><trkpt lat="44.4303664" lon="8.7564098"><ele>30.666666666666668</ele><time>2026-03-22T09:21:35.659Z</time></trkpt><trkpt lat="44.4304245" lon="8.7561082"><ele>31.0</ele><time>2026-03-22T09:21:36.659Z</time></trkpt><trkpt lat="44.4305119" lon="8.7558135"><ele>41.0</ele><time>2026-03-22T09:21:37.659Z</time></trkpt><trkpt lat="44.4306141" lon="8.7555314"><ele>51.0</ele><time>2026-03-22T09:21:38.659Z</time></trkpt><trkpt lat="44.4307079" lon="8.7552442"><ele>47.666666666666664</ele><time>2026-03-22T09:21:39.659Z</time></trkpt><trkpt lat="44.4308094" lon="8.7549819"><ele>44.33333333333333</ele><time>2026-03-22T09:21:40.66Z</time></trkpt><trkpt lat="44.4309085" lon="8.7547088"><ele>41.0</ele><time>2026-03-22T09:21:41.66Z</time></trkpt><trkpt lat="44.431024" lon="8.7544513"><ele>41.0</ele><time>2026-03-22T09:21:42.66Z</time></trkpt><trkpt lat="44.4311398" lon="8.7542018"><ele>41.0</ele><time>2026-03-22T09:21:43.66Z</time></trkpt><trkpt lat="44.4312394" lon="8.7539441"><ele>41.0</ele><time>2026-03-22T09:21:44.659Z</time></trkpt><trkpt lat="44.4313378" lon="8.7536847"><ele>44.666666666666664</ele><time>2026-03-22T09:21:45.659Z</time></trkpt><trkpt lat="44.4314351" lon="8.7534337"><ele>48.33333333333333</ele><time>2026-03-22T09:21:46.659Z</time></trkpt><trkpt lat="44.4315291" lon="8.7531925"><ele>52.0</ele><time>2026-03-22T09:21:47.659Z</time></trkpt><trkpt lat="44.4316285" lon="8.7529494"><ele>52.0</ele><time>2026-03-22T09:21:48.659Z</time></trkpt><trkpt lat="44.4317407" lon="8.7527101"><ele>52.0</ele><time>2026-03-22T09:21:49.66Z</time></trkpt><trkpt lat="44.4318642" lon="8.7524729"><ele>52.0</ele><time>2026-03-22T09:21:50.66Z</time></trkpt><trkpt lat="44.4319968" lon="8.7522412"><ele>52.0</ele><time>2026-03-22T09:21:51.66Z</time></trkpt><trkpt lat="44.4321393" lon="8.7520126"><ele>52.0</ele><time>2026-03-22T09:21:52.66Z</time></trkpt><trkpt lat="44.432285" lon="8.7517944"><ele>52.0</ele><time>2026-03-22T09:21:53.659Z</time></trkpt><trkpt lat="44.432433" lon="8.7515789"><ele>52.0</ele><time>2026-03-22T09:21:54.659Z</time></trkpt><trkpt lat="44.432578" lon="8.751366"><ele>52.0</ele><time>2026-03-22T09:21:55.66Z</time></trkpt><trkpt lat="44.4327237" lon="8.7511505"><ele>52.0</ele><time>2026-03-22T09:21:56.659Z</time></trkpt><trkpt lat="44.4328642" lon="8.7509319"><ele>53.666666666666664</ele><time>2026-03-22T09:21:57.66Z</time></trkpt><trkpt lat="44.4329972" lon="8.7507077"><ele>55.33333333333333</ele><time>2026-03-22T09:21:58.659Z</time></trkpt><trkpt lat="44.4331197" lon="8.7504844"><ele>57.0</ele><time>2026-03-22T09:21:59.659Z</time></trkpt><trkpt lat="44.4332345" lon="8.7502554"><ele>53.0</ele><time>2026-03-22T09:22:00.659Z</time></trkpt><trkpt lat="44.4333419" lon="8.7500285"><ele>49.0</ele><time>2026-03-22T09:22:01.659Z</time></trkpt><trkpt lat="44.4334425" lon="8.749799"><ele>45.0</ele><time>2026-03-22T09:22:02.659Z</time></trkpt><trkpt lat="44.4335306" lon="8.7495808"><ele>43.0</ele><time>2026-03-22T09:22:03.659Z</time></trkpt><trkpt lat="44.4336077" lon="8.749372"><ele>41.0</ele><time>2026-03-22T09:22:04.66Z</time></trkpt><trkpt lat="44.4336779" lon="8.7491662"><ele>39.0</ele><time>2026-03-22T09:22:05.659Z</time></trkpt><trkpt lat="44.4337447" lon="8.7489519"><ele>41.0</ele><time>2026-03-22T09:22:06.66Z</time></trkpt><trkpt lat="44.4338053" lon="8.7487416"><ele>43.0</ele><time>2026-03-22T09:22:07.659Z</time></trkpt><trkpt lat="44.4338574" lon="8.748534"><ele>45.0</ele><time>2026-03-22T09:22:08.659Z</time></trkpt><trkpt lat="44.4339028" lon="8.7483278"><ele>45.0</ele><time>2026-03-22T09:22:09.659Z</time></trkpt><trkpt lat="44.4339477" lon="8.7481114"><ele>45.0</ele><time>2026-03-22T09:22:10.66Z</time></trkpt><trkpt lat="44.4339891" lon="8.7478886"><ele>45.0</ele><time>2026-03-22T09:22:11.66Z</time></trkpt><trkpt lat="44.4340253" lon="8.7476575"><ele>36.333333333333336</ele><time>2026-03-22T09:22:12.659Z</time></trkpt><trkpt lat="44.434056" lon="8.7474193"><ele>27.666666666666664</ele><time>2026-03-22T09:22:13.66Z</time></trkpt><trkpt lat="44.43408" lon="8.7471766"><ele>19.0</ele><time>2026-03-22T09:22:14.66Z</time></trkpt><trkpt lat="44.4340974" lon="8.7469293"><ele>19.0</ele><time>2026-03-22T09:22:15.659Z</time></trkpt><trkpt lat="44.4341097" lon="8.7466768"><ele>19.0</ele><time>2026-03-22T09:22:16.659Z</time></trkpt><trkpt lat="44.4341152" lon="8.7464206"><ele>19.0</ele><time>2026-03-22T09:22:17.659Z</time></trkpt><trkpt lat="44.4341151" lon="8.7461591"><ele>27.666666666666664</ele><time>2026-03-22T09:22:18.659Z</time></trkpt><trkpt lat="44.434108" lon="8.7458981"><ele>36.333333333333336</ele><time>2026-03-22T09:22:19.659Z</time></trkpt><trkpt lat="44.4340928" lon="8.7456355"><ele>45.0</ele><time>2026-03-22T09:22:20.66Z</time></trkpt><trkpt lat="44.4340681" lon="8.745371"><ele>53.33333333333333</ele><time>2026-03-22T09:22:21.66Z</time></trkpt><trkpt lat="44.4340372" lon="8.7451049"><ele>61.666666666666664</ele><time>2026-03-22T09:22:22.66Z</time></trkpt><trkpt lat="44.4340003" lon="8.7448407"><ele>70.0</ele><time>2026-03-22T09:22:23.66Z</time></trkpt><trkpt lat="44.4339586" lon="8.7445791"><ele>79.66666666666666</ele><time>2026-03-22T09:22:24.66Z</time></trkpt><trkpt lat="44.4339171" lon="8.7443162"><ele>89.33333333333333</ele><time>2026-03-22T09:22:25.66Z</time></trkpt><trkpt lat="44.433873" lon="8.7440559"><ele>99.0</ele><time>2026-03-22T09:22:26.659Z</time></trkpt><trkpt lat="44.4338367" lon="8.7437971"><ele>99.0</ele><time>2026-03-22T09:22:27.659Z</time></trkpt><trkpt lat="44.4337965" lon="8.7435384"><ele>99.0</ele><time>2026-03-22T09:22:28.66Z</time></trkpt><trkpt lat="44.433756" lon="8.7432796"><ele>99.0</ele><time>2026-03-22T09:22:29.659Z</time></trkpt><trkpt lat="44.4319332" lon="8.7413042"><ele>81.33333333333333</ele><time>2026-03-22T09:22:41.659Z</time></trkpt><trkpt lat="44.4317602" lon="8.7412366"><ele>63.66666666666667</ele><time>2026-03-22T09:22:42.659Z</time></trkpt><trkpt lat="44.4315919" lon="8.7411776"><ele>46.0</ele><time>2026-03-22T09:22:43.659Z</time></trkpt><trkpt lat="44.4314244" lon="8.7411233"><ele>37.66666666666667</ele><time>2026-03-22T09:22:44.66Z</time></trkpt><trkpt lat="44.4312444" lon="8.7410674"><ele>29.333333333333336</ele><time>2026-03-22T09:22:45.659Z</time></trkpt><trkpt lat="44.4310601" lon="8.741012"><ele>21.0</ele><time>2026-03-22T09:22:46.66Z</time></trkpt><trkpt lat="44.4308753" lon="8.740957"><ele>19.0</ele><time>2026-03-22T09:22:47.659Z</time></trkpt><trkpt lat="44.4306911" lon="8.7409017"><ele>17.0</ele><time>2026-03-22T09:22:48.66Z</time></trkpt><trkpt lat="44.4305013" lon="8.7408454"><ele>15.0</ele><time>2026-03-22T09:22:49.659Z</time></trkpt><trkpt lat="44.4303047" lon="8.7407893"><ele>19.333333333333336</ele><time>2026-03-22T09:22:50.66Z</time></trkpt><trkpt lat="44.4301037" lon="8.74073"><ele>23.666666666666668</ele><time>2026-03-22T09:22:51.66Z</time></trkpt><trkpt lat="44.4298947" lon="8.740666"><ele>28.0</ele><time>2026-03-22T09:22:52.66Z</time></trkpt><trkpt lat="44.4296707" lon="8.7406028"><ele>38.5</ele><time>2026-03-22T09:22:53.659Z</time></trkpt><trkpt lat="44.4294426" lon="8.7405418"><ele>49.0</ele><time>2026-03-22T09:22:54.659Z</time></trkpt><trkpt lat="44.4292243" lon="8.7404796"><ele>49.0</ele><time>2026-03-22T09:22:55.659Z</time></trkpt><trkpt lat="44.4290145" lon="8.7404072"><ele>49.0</ele><time>2026-03-22T09:22:56.659Z</time></trkpt><trkpt lat="44.4288085" lon="8.7403202"><ele>49.0</ele><time>2026-03-22T09:22:57.659Z</time></trkpt><trkpt lat="44.4286013" lon="8.7402211"><ele>64.0</ele><time>2026-03-22T09:22:58.659Z</time></trkpt><trkpt lat="44.4283951" lon="8.7401221"><ele>79.0</ele><time>2026-03-22T09:22:59.66Z</time></trkpt><trkpt lat="44.4281926" lon="8.7400247"><ele>94.0</ele><time>2026-03-22T09:23:00.659Z</time></trkpt><trkpt lat="44.4279894" lon="8.7399269"><ele>81.0</ele><time>2026-03-22T09:23:01.659Z</time></trkpt><trkpt lat="44.4269202" lon="8.7369246"><ele>60.0</ele><time>2026-03-22T09:23:09.81Z</time></trkpt><trkpt lat="44.4262332" lon="8.737268"><ele>60.0</ele><time>2026-03-22T09:23:12.66Z</time></trkpt><trkpt lat="44.42612" lon="8.736987"><ele>60.0</ele><time>2026-03-22T09:23:13.66Z</time></trkpt><trkpt lat="44.4260168" lon="8.7366784"><ele>61.0</ele><time>2026-03-22T09:23:14.659Z</time></trkpt><trkpt lat="44.4259338" lon="8.7363621"><ele>62.0</ele><time>2026-03-22T09:23:15.659Z</time></trkpt><trkpt lat="44.4258564" lon="8.7360327"><ele>76.0</ele><time>2026-03-22T09:23:16.659Z</time></trkpt><trkpt lat="44.4257778" lon="8.7357039"><ele>90.0</ele><time>2026-03-22T09:23:17.659Z</time></trkpt><trkpt lat="44.425697" lon="8.7353753"><ele>92.5</ele><time>2026-03-22T09:23:18.659Z</time></trkpt><trkpt lat="44.4256169" lon="8.7350459"><ele>95.0</ele><time>2026-03-22T09:23:19.66Z</time></trkpt><trkpt lat="44.4215649" lon="8.7284333"><ele>95.0</ele><time>2026-03-22T09:23:44.659Z</time></trkpt><trkpt lat="44.4213996" lon="8.7281504"><ele>95.0</ele><time>2026-03-22T09:23:45.66Z</time></trkpt><trkpt lat="44.4212407" lon="8.7278604"><ele>90.0</ele><time>2026-03-22T09:23:46.659Z</time></trkpt><trkpt lat="44.4210813" lon="8.7275685"><ele>85.0</ele><time>2026-03-22T09:23:47.66Z</time></trkpt><trkpt lat="44.4209231" lon="8.7272778"><ele>85.0</ele><time>2026-03-22T09:23:48.659Z</time></trkpt><trkpt lat="44.4207677" lon="8.7269906"><ele>85.0</ele><time>2026-03-22T09:23:49.659Z</time></trkpt><trkpt lat="44.4206177" lon="8.7267043"><ele>83.5</ele><time>2026-03-22T09:23:50.659Z</time></trkpt><trkpt lat="44.4204763" lon="8.726416"><ele>82.0</ele><time>2026-03-22T09:23:51.659Z</time></trkpt><trkpt lat="44.4203485" lon="8.7261185"><ele>91.5</ele><time>2026-03-22T09:23:52.659Z</time></trkpt><trkpt lat="44.4202238" lon="8.7258167"><ele>101.0</ele><time>2026-03-22T09:23:53.66Z</time></trkpt><trkpt lat="44.4200991" lon="8.7255134"><ele>110.0</ele><time>2026-03-22T09:23:54.659Z</time></trkpt><trkpt lat="44.4199741" lon="8.7252172"><ele>119.0</ele><time>2026-03-22T09:23:55.659Z</time></trkpt><trkpt lat="44.4198502" lon="8.7249163"><ele>119.0</ele><time>2026-03-22T09:23:56.66Z</time></trkpt><trkpt lat="44.4197272" lon="8.7246205"><ele>119.0</ele><time>2026-03-22T09:23:57.659Z</time></trkpt><trkpt lat="44.4196065" lon="8.724325"><ele>115.0</ele><time>2026-03-22T09:23:58.659Z</time></trkpt><trkpt lat="44.4194839" lon="8.7240263"><ele>111.0</ele><time>2026-03-22T09:23:59.659Z</time></trkpt><trkpt lat="44.4193612" lon="8.7237286"><ele>110.0</ele><time>2026-03-22T09:24:00.659Z</time></trkpt><trkpt lat="44.4192386" lon="8.7234311"><ele>109.0</ele><time>2026-03-22T09:24:01.659Z</time></trkpt><trkpt lat="44.4204611" lon="8.7162374"><ele>99.5</ele><time>2026-03-22T09:24:20.659Z</time></trkpt><trkpt lat="44.4203978" lon="8.7158733"><ele>90.0</ele><time>2026-03-22T09:24:21.659Z</time></trkpt><trkpt lat="44.420323" lon="8.7155063"><ele>92.0</ele><time>2026-03-22T09:24:22.659Z</time></trkpt><trkpt lat="44.4202319" lon="8.7151353"><ele>94.0</ele><time>2026-03-22T09:24:23.659Z</time></trkpt><trkpt lat="44.4201199" lon="8.7147638"><ele>94.0</ele><time>2026-03-22T09:24:24.659Z</time></trkpt><trkpt lat="44.4200004" lon="8.7144305"><ele>94.0</ele><time>2026-03-22T09:24:25.659Z</time></trkpt><trkpt lat="44.4198666" lon="8.7141122"><ele>89.0</ele><time>2026-03-22T09:24:26.659Z</time></trkpt><trkpt lat="44.4197199" lon="8.713808"><ele>84.0</ele><time>2026-03-22T09:24:27.659Z</time></trkpt><trkpt lat="44.4195658" lon="8.713514"><ele>81.5</ele><time>2026-03-22T09:24:28.659Z</time></trkpt><trkpt lat="44.419407" lon="8.7132246"><ele>79.0</ele><time>2026-03-22T09:24:29.659Z</time></trkpt><trkpt lat="44.4192468" lon="8.7129368"><ele>86.5</ele><time>2026-03-22T09:24:30.659Z</time></trkpt><trkpt lat="44.4190845" lon="8.7126434"><ele>94.0</ele><time>2026-03-22T09:24:31.659Z</time></trkpt><trkpt lat="44.4189227" lon="8.7123437"><ele>89.5</ele><time>2026-03-22T09:24:32.66Z</time></trkpt><trkpt lat="44.4187616" lon="8.7120346"><ele>85.0</ele><time>2026-03-22T09:24:33.659Z</time></trkpt><trkpt lat="44.4186005" lon="8.7117158"><ele>95.0</ele><time>2026-03-22T09:24:34.659Z</time></trkpt><trkpt lat="44.4184375" lon="8.7113844"><ele>105.0</ele><time>2026-03-22T09:24:35.659Z</time></trkpt><trkpt lat="44.4182726" lon="8.7110413"><ele>108.0</ele><time>2026-03-22T09:24:36.659Z</time></trkpt><trkpt lat="44.4181047" lon="8.7106817"><ele>111.0</ele><time>2026-03-22T09:24:37.659Z</time></trkpt><trkpt lat="44.4179291" lon="8.7102978"><ele>109.0</ele><time>2026-03-22T09:24:38.659Z</time></trkpt><trkpt lat="44.4177523" lon="8.7099033"><ele>107.0</ele><time>2026-03-22T09:24:39.659Z</time></trkpt><trkpt lat="44.4175864" lon="8.7095329"><ele>107.5</ele><time>2026-03-22T09:24:40.66Z</time></trkpt><trkpt lat="44.417426" lon="8.7091785"><ele>108.0</ele><time>2026-03-22T09:24:41.659Z</time></trkpt><trkpt lat="44.4172728" lon="8.7088421"><ele>103.0</ele><time>2026-03-22T09:24:42.659Z</time></trkpt><trkpt lat="44.4171242" lon="8.7085138"><ele>98.0</ele><time>2026-03-22T09:24:43.659Z</time></trkpt><trkpt lat="44.4169812" lon="8.7081919"><ele>98.0</ele><time>2026-03-22T09:24:44.66Z</time></trkpt><trkpt lat="44.416846" lon="8.7078727"><ele>98.0</ele><time>2026-03-22T09:24:45.659Z</time></trkpt><trkpt lat="44.4167217" lon="8.7075518"><ele>103.0</ele><time>2026-03-22T09:24:46.66Z</time></trkpt><trkpt lat="44.4166045" lon="8.7072159"><ele>108.0</ele><time>2026-03-22T09:24:47.659Z</time></trkpt><trkpt lat="44.4164943" lon="8.7068563"><ele>110.5</ele><time>2026-03-22T09:24:48.659Z</time></trkpt><trkpt lat="44.4163896" lon="8.7064634"><ele>113.0</ele><time>2026-03-22T09:24:49.659Z</time></trkpt><trkpt lat="44.4162987" lon="8.7060667"><ele>92.5</ele><time>2026-03-22T09:24:50.659Z</time></trkpt><trkpt lat="44.4162216" lon="8.705679"><ele>72.0</ele><time>2026-03-22T09:24:51.66Z</time></trkpt><trkpt lat="44.4161556" lon="8.7053035"><ele>63.5</ele><time>2026-03-22T09:24:52.66Z</time></trkpt><trkpt lat="44.4161028" lon="8.7049295"><ele>55.0</ele><time>2026-03-22T09:24:53.659Z</time></trkpt><trkpt lat="44.4160606" lon="8.7045523"><ele>63.5</ele><time>2026-03-22T09:24:54.659Z</time></trkpt><trkpt lat="44.4160249" lon="8.7041726"><ele>72.0</ele><time>2026-03-22T09:24:55.659Z</time></trkpt><trkpt lat="44.4159936" lon="8.7037918"><ele>86.5</ele><time>2026-03-22T09:24:56.659Z</time></trkpt><trkpt lat="44.4159625" lon="8.7034261"><ele>101.0</ele><time>2026-03-22T09:24:57.659Z</time></trkpt><trkpt lat="44.4159234" lon="8.7030742"><ele>111.0</ele><time>2026-03-22T09:24:58.659Z</time></trkpt><trkpt lat="44.4158887" lon="8.7027244"><ele>121.0</ele><time>2026-03-22T09:24:59.659Z</time></trkpt><trkpt lat="44.4158529" lon="8.7023814"><ele>121.0</ele><time>2026-03-22T09:25:00.659Z</time></trkpt><trkpt lat="44.4158152" lon="8.702041"><ele>121.0</ele><time>2026-03-22T09:25:01.66Z</time></trkpt><trkpt lat="44.4157784" lon="8.7017006"><ele>109.0</ele><time>2026-03-22T09:25:02.659Z</time></trkpt><trkpt lat="44.4140874" lon="8.6994467"><ele>108.0</ele><time>2026-03-22T09:25:11.659Z</time></trkpt><trkpt lat="44.4138359" lon="8.6992359"><ele>107.0</ele><time>2026-03-22T09:25:12.66Z</time></trkpt><trkpt lat="44.4135908" lon="8.6990283"><ele>107.0</ele><time>2026-03-22T09:25:13.659Z</time></trkpt><trkpt lat="44.4133439" lon="8.6988238"><ele>107.0</ele><time>2026-03-22T09:25:14.659Z</time></trkpt><trkpt lat="44.4130968" lon="8.6986194"><ele>105.5</ele><time>2026-03-22T09:25:15.659Z</time></trkpt><trkpt lat="44.4128498" lon="8.6984151"><ele>104.0</ele><time>2026-03-22T09:25:16.659Z</time></trkpt><trkpt lat="44.4126743" lon="8.6980708"><ele>105.0</ele><time>2026-03-22T09:25:17.659Z</time></trkpt><trkpt lat="44.4124578" lon="8.6977167"><ele>106.0</ele><time>2026-03-22T09:25:18.659Z</time></trkpt><trkpt lat="44.4122599" lon="8.6973937"><ele>97.5</ele><time>2026-03-22T09:25:19.659Z</time></trkpt><trkpt lat="44.4120852" lon="8.6970549"><ele>89.0</ele><time>2026-03-22T09:25:20.66Z</time></trkpt><trkpt lat="44.4119273" lon="8.6967057"><ele>89.0</ele><time>2026-03-22T09:25:21.659Z</time></trkpt><trkpt lat="44.4117856" lon="8.6963397"><ele>89.0</ele><time>2026-03-22T09:25:22.66Z</time></trkpt><trkpt lat="44.4116607" lon="8.6959572"><ele>94.0</ele><time>2026-03-22T09:25:23.66Z</time></trkpt><trkpt lat="44.4115493" lon="8.6955648"><ele>99.0</ele><time>2026-03-22T09:25:24.659Z</time></trkpt><trkpt lat="44.4114472" lon="8.6951697"><ele>102.5</ele><time>2026-03-22T09:25:25.659Z</time></trkpt><trkpt lat="44.4113491" lon="8.6947742"><ele>106.0</ele><time>2026-03-22T09:25:26.659Z</time></trkpt><trkpt lat="44.4112513" lon="8.6943797"><ele>97.5</ele><time>2026-03-22T09:25:27.659Z</time></trkpt><trkpt lat="44.411155" lon="8.6939868"><ele>89.0</ele><time>2026-03-22T09:25:28.66Z</time></trkpt><trkpt lat="44.4110606" lon="8.6935949"><ele>94.5</ele><time>2026-03-22T09:25:29.659Z</time></trkpt><trkpt lat="44.4109646" lon="8.6932049"><ele>100.0</ele><time>2026-03-22T09:25:30.66Z</time></trkpt><trkpt lat="44.4108688" lon="8.692814"><ele>103.0</ele><time>2026-03-22T09:25:31.66Z</time></trkpt><trkpt lat="44.4107609" lon="8.6924288"><ele>106.0</ele><time>2026-03-22T09:25:32.659Z</time></trkpt><trkpt lat="44.410658" lon="8.6920345"><ele>102.0</ele><time>2026-03-22T09:25:33.66Z</time></trkpt><trkpt lat="44.4105549" lon="8.6916413"><ele>98.0</ele><time>2026-03-22T09:25:34.659Z</time></trkpt><trkpt lat="44.4105236" lon="8.6912806"><ele>85.5</ele><time>2026-03-22T09:25:35.659Z</time></trkpt><trkpt lat="44.4104277" lon="8.6908477"><ele>73.0</ele><time>2026-03-22T09:25:36.659Z</time></trkpt><trkpt lat="44.4103447" lon="8.6904512"><ele>73.5</ele><time>2026-03-22T09:25:37.659Z</time></trkpt><trkpt lat="44.4102604" lon="8.6900527"><ele>74.0</ele><time>2026-03-22T09:25:38.659Z</time></trkpt><trkpt lat="44.4101766" lon="8.689653"><ele>75.5</ele><time>2026-03-22T09:25:39.659Z</time></trkpt><trkpt lat="44.4100892" lon="8.6892488"><ele>77.0</ele><time>2026-03-22T09:25:40.659Z</time></trkpt><trkpt lat="44.4100018" lon="8.6888456"><ele>81.5</ele><time>2026-03-22T09:25:41.659Z</time></trkpt><trkpt lat="44.4099134" lon="8.6884416"><ele>86.0</ele><time>2026-03-22T09:25:42.659Z</time></trkpt><trkpt lat="44.4098271" lon="8.6880439"><ele>90.0</ele><time>2026-03-22T09:25:43.66Z</time></trkpt><trkpt lat="44.4097429" lon="8.6876479"><ele>94.0</ele><time>2026-03-22T09:25:44.659Z</time></trkpt><trkpt lat="44.4096588" lon="8.6872489"><ele>84.5</ele><time>2026-03-22T09:25:45.659Z</time></trkpt><trkpt lat="44.4095748" lon="8.6868475"><ele>75.0</ele><time>2026-03-22T09:25:46.659Z</time></trkpt><trkpt lat="44.4094907" lon="8.6864481"><ele>78.5</ele><time>2026-03-22T09:25:47.66Z</time></trkpt><trkpt lat="44.4094035" lon="8.6860454"><ele>82.0</ele><time>2026-03-22T09:25:48.659Z</time></trkpt><trkpt lat="44.4093163" lon="8.6856487"><ele>74.0</ele><time>2026-03-22T09:25:49.659Z</time></trkpt><trkpt lat="44.4092299" lon="8.6852587"><ele>66.0</ele><time>2026-03-22T09:25:50.659Z</time></trkpt><trkpt lat="44.4091456" lon="8.6848723"><ele>66.0</ele><time>2026-03-22T09:25:51.66Z</time></trkpt><trkpt lat="44.4090626" lon="8.6844842"><ele>66.0</ele><time>2026-03-22T09:25:52.659Z</time></trkpt><trkpt lat="44.4089794" lon="8.6840994"><ele>58.5</ele><time>2026-03-22T09:25:53.659Z</time></trkpt><trkpt lat="44.4088968" lon="8.6837156"><ele>51.0</ele><time>2026-03-22T09:25:54.66Z</time></trkpt><trkpt lat="44.4088159" lon="8.6833316"><ele>51.0</ele><time>2026-03-22T09:25:55.659Z</time></trkpt><trkpt lat="44.4087365" lon="8.6829438"><ele>51.0</ele><time>2026-03-22T09:25:56.659Z</time></trkpt><trkpt lat="44.4086567" lon="8.6825553"><ele>57.0</ele><time>2026-03-22T09:25:57.66Z</time></trkpt><trkpt lat="44.4085769" lon="8.6821722"><ele>63.0</ele><time>2026-03-22T09:25:58.66Z</time></trkpt><trkpt lat="44.4084959" lon="8.681795"><ele>68.5</ele><time>2026-03-22T09:25:59.66Z</time></trkpt><trkpt lat="44.408411" lon="8.6814204"><ele>74.0</ele><time>2026-03-22T09:26:00.659Z</time></trkpt><trkpt lat="44.4083215" lon="8.6810511"><ele>78.0</ele><time>2026-03-22T09:26:01.659Z</time></trkpt><trkpt lat="44.4082365" lon="8.6806804"><ele>82.0</ele><time>2026-03-22T09:26:02.659Z</time></trkpt><trkpt lat="44.4081495" lon="8.6803197"><ele>89.5</ele><time>2026-03-22T09:26:03.659Z</time></trkpt><trkpt lat="44.4080632" lon="8.6799567"><ele>97.0</ele><time>2026-03-22T09:26:04.659Z</time></trkpt><trkpt lat="44.4070485" lon="8.6779457"><ele>76.5</ele><time>2026-03-22T09:26:10.659Z</time></trkpt><trkpt lat="44.4068719" lon="8.6775976"><ele>56.0</ele><time>2026-03-22T09:26:11.659Z</time></trkpt><trkpt lat="44.406705" lon="8.6772535"><ele>64.0</ele><time>2026-03-22T09:26:12.659Z</time></trkpt><trkpt lat="44.4065417" lon="8.6769128"><ele>72.0</ele><time>2026-03-22T09:26:13.66Z</time></trkpt><trkpt lat="44.4063749" lon="8.6765752"><ele>67.0</ele><time>2026-03-22T09:26:14.66Z</time></trkpt><trkpt lat="44.4062071" lon="8.6762354"><ele>62.0</ele><time>2026-03-22T09:26:15.66Z</time></trkpt><trkpt lat="44.4060395" lon="8.6759009"><ele>62.0</ele><time>2026-03-22T09:26:16.659Z</time></trkpt><trkpt lat="44.4058788" lon="8.6755807"><ele>62.0</ele><time>2026-03-22T09:26:17.659Z</time></trkpt><trkpt lat="44.4057244" lon="8.6752682"><ele>65.5</ele><time>2026-03-22T09:26:18.659Z</time></trkpt><trkpt lat="44.4055697" lon="8.6749496"><ele>69.0</ele><time>2026-03-22T09:26:19.659Z</time></trkpt><trkpt lat="44.405409" lon="8.6746206"><ele>60.5</ele><time>2026-03-22T09:26:20.659Z</time></trkpt><trkpt lat="44.4052489" lon="8.6742789"><ele>52.0</ele><time>2026-03-22T09:26:21.66Z</time></trkpt><trkpt lat="44.4050932" lon="8.6739293"><ele>55.0</ele><time>2026-03-22T09:26:22.659Z</time></trkpt><trkpt lat="44.4049414" lon="8.6735708"><ele>58.0</ele><time>2026-03-22T09:26:23.66Z</time></trkpt><trkpt lat="44.4047947" lon="8.673212"><ele>55.5</ele><time>2026-03-22T09:26:24.66Z</time></trkpt><trkpt lat="44.4046513" lon="8.6728534"><ele>53.0</ele><time>2026-03-22T09:26:25.659Z</time></trkpt><trkpt lat="44.4045124" lon="8.672496"><ele>53.0</ele><time>2026-03-22T09:26:26.659Z</time></trkpt><trkpt lat="44.4043792" lon="8.6721401"><ele>53.0</ele><time>2026-03-22T09:26:27.66Z</time></trkpt><trkpt lat="44.4042465" lon="8.6717827"><ele>52.0</ele><time>2026-03-22T09:26:28.66Z</time></trkpt><trkpt lat="44.4041161" lon="8.6714284"><ele>51.0</ele><time>2026-03-22T09:26:29.659Z</time></trkpt><trkpt lat="44.4039882" lon="8.6710791"><ele>52.5</ele><time>2026-03-22T09:26:30.659Z</time></trkpt><trkpt lat="44.4038572" lon="8.6707337"><ele>54.0</ele><time>2026-03-22T09:26:31.659Z</time></trkpt><trkpt lat="44.4037167" lon="8.6703932"><ele>57.5</ele><time>2026-03-22T09:26:32.66Z</time></trkpt><trkpt lat="44.403573" lon="8.6700574"><ele>61.0</ele><time>2026-03-22T09:26:33.659Z</time></trkpt><trkpt lat="44.4034406" lon="8.6697187"><ele>63.0</ele><time>2026-03-22T09:26:34.659Z</time></trkpt><trkpt lat="44.4032862" lon="8.6693567"><ele>65.0</ele><time>2026-03-22T09:26:35.659Z</time></trkpt><trkpt lat="44.4030725" lon="8.6690823"><ele>62.5</ele><time>2026-03-22T09:26:36.659Z</time></trkpt><trkpt lat="44.4028535" lon="8.6688122"><ele>60.0</ele><time>2026-03-22T09:26:37.659Z</time></trkpt><trkpt lat="44.4026479" lon="8.6685203"><ele>60.0</ele><time>2026-03-22T09:26:38.66Z</time></trkpt><trkpt lat="44.4024461" lon="8.6682369"><ele>60.0</ele><time>2026-03-22T09:26:39.659Z</time></trkpt><trkpt lat="44.4022441" lon="8.6679536"><ele>60.5</ele><time>2026-03-22T09:26:40.66Z</time></trkpt><trkpt lat="44.402041" lon="8.6676647"><ele>61.0</ele><time>2026-03-22T09:26:41.659Z</time></trkpt><trkpt lat="44.4018398" lon="8.6673885"><ele>61.0</ele><time>2026-03-22T09:26:42.659Z</time></trkpt><trkpt lat="44.4016369" lon="8.6671107"><ele>61.0</ele><time>2026-03-22T09:26:43.659Z</time></trkpt><trkpt lat="44.4014338" lon="8.6668381"><ele>60.0</ele><time>2026-03-22T09:26:44.659Z</time></trkpt><trkpt lat="44.4012317" lon="8.6665618"><ele>59.0</ele><time>2026-03-22T09:26:45.659Z</time></trkpt><trkpt lat="44.4010336" lon="8.6662815"><ele>60.5</ele><time>2026-03-22T09:26:46.659Z</time></trkpt><trkpt lat="44.4008379" lon="8.6659975"><ele>62.0</ele><time>2026-03-22T09:26:47.659Z</time></trkpt><trkpt lat="44.4006515" lon="8.6657158"><ele>62.5</ele><time>2026-03-22T09:26:48.659Z</time></trkpt><trkpt lat="44.4004656" lon="8.665426"><ele>63.0</ele><time>2026-03-22T09:26:49.66Z</time></trkpt><trkpt lat="44.4002772" lon="8.6651184"><ele>64.0</ele><time>2026-03-22T09:26:50.659Z</time></trkpt><trkpt lat="44.4000859" lon="8.6647945"><ele>65.0</ele><time>2026-03-22T09:26:51.659Z</time></trkpt><trkpt lat="44.3998902" lon="8.6644595"><ele>72.5</ele><time>2026-03-22T09:26:52.659Z</time></trkpt><trkpt lat="44.3996917" lon="8.6641312"><ele>80.0</ele><time>2026-03-22T09:26:53.66Z</time></trkpt><trkpt lat="44.399495" lon="8.6638013"><ele>51.0</ele><time>2026-03-22T09:26:54.659Z</time></trkpt><trkpt lat="44.3984361" lon="8.6615095"><ele>51.0</ele><time>2026-03-22T09:27:01.659Z</time></trkpt><trkpt lat="44.3983037" lon="8.6611841"><ele>51.0</ele><time>2026-03-22T09:27:02.659Z</time></trkpt><trkpt lat="44.398165" lon="8.6608507"><ele>42.0</ele><time>2026-03-22T09:27:03.659Z</time></trkpt><trkpt lat="44.3980369" lon="8.6605193"><ele>33.0</ele><time>2026-03-22T09:27:04.659Z</time></trkpt><trkpt lat="44.3979076" lon="8.6601728"><ele>24.5</ele><time>2026-03-22T09:27:05.66Z</time></trkpt><trkpt lat="44.3977788" lon="8.6598182"><ele>16.0</ele><time>2026-03-22T09:27:06.659Z</time></trkpt><trkpt lat="44.3976494" lon="8.6594538"><ele>22.0</ele><time>2026-03-22T09:27:07.659Z</time></trkpt><trkpt lat="44.3975192" lon="8.6590839"><ele>28.0</ele><time>2026-03-22T09:27:08.66Z</time></trkpt><trkpt lat="44.3973913" lon="8.6587204"><ele>49.5</ele><time>2026-03-22T09:27:09.659Z</time></trkpt><trkpt lat="44.3972639" lon="8.6583582"><ele>71.0</ele><time>2026-03-22T09:27:10.659Z</time></trkpt><trkpt lat="44.397139" lon="8.6579978"><ele>90.0</ele><time>2026-03-22T09:27:11.659Z</time></trkpt><trkpt lat="44.397012" lon="8.6576339"><ele>109.0</ele><time>2026-03-22T09:27:12.66Z</time></trkpt><trkpt lat="44.3968848" lon="8.6572703"><ele>111.0</ele><time>2026-03-22T09:27:13.659Z</time></trkpt><trkpt lat="44.3967578" lon="8.6569067"><ele>113.0</ele><time>2026-03-22T09:27:14.659Z</time></trkpt><trkpt lat="44.3966309" lon="8.6565431"><ele>113.0</ele><time>2026-03-22T09:27:15.659Z</time></trkpt><trkpt lat="44.396504" lon="8.6561796"><ele>113.0</ele><time>2026-03-22T09:27:16.66Z</time></trkpt><trkpt lat="44.3963771" lon="8.6558165"><ele>113.0</ele><time>2026-03-22T09:27:17.66Z</time></trkpt><trkpt lat="44.3962504" lon="8.6554536"><ele>113.0</ele><time>2026-03-22T09:27:18.659Z</time></trkpt><trkpt lat="44.3961232" lon="8.6550906"><ele>79.0</ele><time>2026-03-22T09:27:19.659Z</time></trkpt><trkpt lat="44.3945798" lon="8.6507467"><ele>79.0</ele><time>2026-03-22T09:27:31.659Z</time></trkpt><trkpt lat="44.394467" lon="8.6504038"><ele>79.0</ele><time>2026-03-22T09:27:32.659Z</time></trkpt><trkpt lat="44.3943738" lon="8.6500616"><ele>87.0</ele><time>2026-03-22T09:27:33.659Z</time></trkpt><trkpt lat="44.3942808" lon="8.6497168"><ele>95.0</ele><time>2026-03-22T09:27:34.659Z</time></trkpt><trkpt lat="44.3941891" lon="8.6493803"><ele>101.5</ele><time>2026-03-22T09:27:35.659Z</time></trkpt><trkpt lat="44.3940984" lon="8.6490384"><ele>108.0</ele><time>2026-03-22T09:27:36.659Z</time></trkpt><trkpt lat="44.3940072" lon="8.6486982"><ele>101.0</ele><time>2026-03-22T09:27:37.659Z</time></trkpt><trkpt lat="44.3940136" lon="8.6467211"><ele>101.0</ele><time>2026-03-22T09:27:42.66Z</time></trkpt><trkpt lat="44.3940155" lon="8.6462968"><ele>101.0</ele><time>2026-03-22T09:27:43.659Z</time></trkpt><trkpt lat="44.3940082" lon="8.6458963"><ele>95.5</ele><time>2026-03-22T09:27:44.659Z</time></trkpt><trkpt lat="44.3939977" lon="8.64548"><ele>90.0</ele><time>2026-03-22T09:27:45.659Z</time></trkpt><trkpt lat="44.3939922" lon="8.6450554"><ele>85.0</ele><time>2026-03-22T09:27:46.66Z</time></trkpt><trkpt lat="44.3939838" lon="8.6446339"><ele>80.0</ele><time>2026-03-22T09:27:47.66Z</time></trkpt><trkpt lat="44.3939751" lon="8.644229"><ele>80.0</ele><time>2026-03-22T09:27:48.659Z</time></trkpt><trkpt lat="44.3939691" lon="8.6438478"><ele>80.0</ele><time>2026-03-22T09:27:49.659Z</time></trkpt><trkpt lat="44.3939603" lon="8.6434707"><ele>89.5</ele><time>2026-03-22T09:27:50.659Z</time></trkpt><trkpt lat="44.3939438" lon="8.6430943"><ele>99.0</ele><time>2026-03-22T09:27:51.659Z</time></trkpt><trkpt lat="44.3939141" lon="8.64271"><ele>101.0</ele><time>2026-03-22T09:27:52.66Z</time></trkpt><trkpt lat="44.3938687" lon="8.6423156"><ele>103.0</ele><time>2026-03-22T09:27:53.659Z</time></trkpt><trkpt lat="44.3938053" lon="8.6419245"><ele>88.0</ele><time>2026-03-22T09:27:54.659Z</time></trkpt><trkpt lat="44.3937322" lon="8.6415406"><ele>73.0</ele><time>2026-03-22T09:27:55.659Z</time></trkpt><trkpt lat="44.3936521" lon="8.6411621"><ele>83.5</ele><time>2026-03-22T09:27:56.659Z</time></trkpt><trkpt lat="44.3935693" lon="8.6407933"><ele>94.0</ele><time>2026-03-22T09:27:57.659Z</time></trkpt><trkpt lat="44.3934911" lon="8.640428"><ele>98.0</ele><time>2026-03-22T09:27:58.66Z</time></trkpt><trkpt lat="44.3934026" lon="8.6400733"><ele>102.0</ele><time>2026-03-22T09:27:59.66Z</time></trkpt><trkpt lat="44.3933213" lon="8.6397244"><ele>94.5</ele><time>2026-03-22T09:28:00.66Z</time></trkpt><trkpt lat="44.3932447" lon="8.639375"><ele>87.0</ele><time>2026-03-22T09:28:01.66Z</time></trkpt><trkpt lat="44.3931698" lon="8.6390147"><ele>87.0</ele><time>2026-03-22T09:28:02.659Z</time></trkpt><trkpt lat="44.3930915" lon="8.6386739"><ele>87.0</ele><time>2026-03-22T09:28:03.659Z</time></trkpt><trkpt lat="44.3930164" lon="8.6383445"><ele>90.0</ele><time>2026-03-22T09:28:04.66Z</time></trkpt><trkpt lat="44.3929472" lon="8.6380296"><ele>93.0</ele><time>2026-03-22T09:28:05.66Z</time></trkpt><trkpt lat="44.3928765" lon="8.6377091"><ele>93.0</ele><time>2026-03-22T09:28:06.659Z</time></trkpt><trkpt lat="44.3927964" lon="8.6374069"><ele>93.0</ele><time>2026-03-22T09:28:07.659Z</time></trkpt><trkpt lat="44.3927194" lon="8.6370991"><ele>75.5</ele><time>2026-03-22T09:28:08.66Z</time></trkpt><trkpt lat="44.3926413" lon="8.6367925"><ele>58.0</ele><time>2026-03-22T09:28:09.66Z</time></trkpt><trkpt lat="44.3913292" lon="8.6334487"><ele>58.0</ele><time>2026-03-22T09:28:17.815Z</time></trkpt><trkpt lat="44.3912093" lon="8.6334017"><ele>58.0</ele><time>2026-03-22T09:28:21.66Z</time></trkpt><trkpt lat="44.3910681" lon="8.6331716"><ele>58.0</ele><time>2026-03-22T09:28:22.66Z</time></trkpt><trkpt lat="44.3909327" lon="8.6329185"><ele>69.5</ele><time>2026-03-22T09:28:23.659Z</time></trkpt><trkpt lat="44.3907856" lon="8.6326586"><ele>81.0</ele><time>2026-03-22T09:28:24.659Z</time></trkpt><trkpt lat="44.3906331" lon="8.6323947"><ele>93.5</ele><time>2026-03-22T09:28:25.659Z</time></trkpt><trkpt lat="44.3904798" lon="8.6321309"><ele>106.0</ele><time>2026-03-22T09:28:26.659Z</time></trkpt><trkpt lat="44.3903272" lon="8.631867"><ele>58.0</ele><time>2026-03-22T09:28:27.659Z</time></trkpt><trkpt lat="44.3913292" lon="8.6334499"><ele>50.0</ele><time>2026-03-22T09:28:35.801Z</time></trkpt><trkpt lat="44.3868433" lon="8.6257433"><ele>50.0</ele><time>2026-03-22T09:28:46.659Z</time></trkpt><trkpt lat="44.3866727" lon="8.6254506"><ele>50.0</ele><time>2026-03-22T09:28:47.659Z</time></trkpt><trkpt lat="44.3865068" lon="8.6251569"><ele>46.0</ele><time>2026-03-22T09:28:48.66Z</time></trkpt><trkpt lat="44.3863402" lon="8.6248666"><ele>42.0</ele><time>2026-03-22T09:28:49.659Z</time></trkpt><trkpt lat="44.3861661" lon="8.6245759"><ele>49.0</ele><time>2026-03-22T09:28:50.659Z</time></trkpt><trkpt lat="44.3859822" lon="8.6242916"><ele>56.0</ele><time>2026-03-22T09:28:51.66Z</time></trkpt><trkpt lat="44.38579" lon="8.6240197"><ele>56.0</ele><time>2026-03-22T09:28:52.66Z</time></trkpt><trkpt lat="44.3855881" lon="8.6237514"><ele>56.0</ele><time>2026-03-22T09:28:53.66Z</time></trkpt><trkpt lat="44.385372" lon="8.6234902"><ele>54.0</ele><time>2026-03-22T09:28:54.659Z</time></trkpt><trkpt lat="44.385153" lon="8.6232477"><ele>52.0</ele><time>2026-03-22T09:28:55.66Z</time></trkpt><trkpt lat="44.3849285" lon="8.6230261"><ele>52.0</ele><time>2026-03-22T09:28:56.66Z</time></trkpt><trkpt lat="44.3846953" lon="8.6228206"><ele>52.0</ele><time>2026-03-22T09:28:57.659Z</time></trkpt><trkpt lat="44.3844545" lon="8.6226303"><ele>47.0</ele><time>2026-03-22T09:28:58.659Z</time></trkpt><trkpt lat="44.3842083" lon="8.6224537"><ele>42.0</ele><time>2026-03-22T09:28:59.66Z</time></trkpt><trkpt lat="44.3839568" lon="8.6222903"><ele>35.0</ele><time>2026-03-22T09:29:00.659Z</time></trkpt><trkpt lat="44.3837028" lon="8.622143"><ele>28.0</ele><time>2026-03-22T09:29:01.66Z</time></trkpt><trkpt lat="44.3834492" lon="8.6220149"><ele>35.0</ele><time>2026-03-22T09:29:02.659Z</time></trkpt><trkpt lat="44.3831971" lon="8.6219045"><ele>42.0</ele><time>2026-03-22T09:29:03.66Z</time></trkpt><trkpt lat="44.3829457" lon="8.6218094"><ele>45.0</ele><time>2026-03-22T09:29:04.659Z</time></trkpt><trkpt lat="44.3826949" lon="8.6217293"><ele>48.0</ele><time>2026-03-22T09:29:05.659Z</time></trkpt><trkpt lat="44.3824465" lon="8.6216644"><ele>48.0</ele><time>2026-03-22T09:29:06.659Z</time></trkpt><trkpt lat="44.3821971" lon="8.6216133"><ele>48.0</ele><time>2026-03-22T09:29:07.659Z</time></trkpt><trkpt lat="44.3819466" lon="8.6215779"><ele>59.5</ele><time>2026-03-22T09:29:08.66Z</time></trkpt><trkpt lat="44.3816951" lon="8.6215556"><ele>71.0</ele><time>2026-03-22T09:29:09.659Z</time></trkpt><trkpt lat="44.3814436" lon="8.6215318"><ele>66.5</ele><time>2026-03-22T09:29:10.66Z</time></trkpt><trkpt lat="44.3811924" lon="8.6215057"><ele>62.0</ele><time>2026-03-22T09:29:11.659Z</time></trkpt><trkpt lat="44.3791749" lon="8.6216659"><ele>62.0</ele><time>2026-03-22T09:29:19.659Z</time></trkpt><trkpt lat="44.3789147" lon="8.6216875"><ele>62.0</ele><time>2026-03-22T09:29:20.659Z</time></trkpt><trkpt lat="44.3786783" lon="8.6217047"><ele>56.5</ele><time>2026-03-22T09:29:21.659Z</time></trkpt><trkpt lat="44.3784376" lon="8.6217196"><ele>51.0</ele><time>2026-03-22T09:29:22.66Z</time></trkpt><trkpt lat="44.3781972" lon="8.6217376"><ele>55.5</ele><time>2026-03-22T09:29:23.659Z</time></trkpt><trkpt lat="44.3779592" lon="8.6217548"><ele>60.0</ele><time>2026-03-22T09:29:24.659Z</time></trkpt><trkpt lat="44.3777157" lon="8.62177"><ele>60.0</ele><time>2026-03-22T09:29:25.66Z</time></trkpt><trkpt lat="44.3774675" lon="8.621787"><ele>60.0</ele><time>2026-03-22T09:29:26.66Z</time></trkpt><trkpt lat="44.3772155" lon="8.6218064"><ele>50.5</ele><time>2026-03-22T09:29:27.659Z</time></trkpt><trkpt lat="44.3769599" lon="8.6218277"><ele>41.0</ele><time>2026-03-22T09:29:28.659Z</time></trkpt><trkpt lat="44.3767025" lon="8.6218479"><ele>41.0</ele><time>2026-03-22T09:29:29.659Z</time></trkpt><trkpt lat="44.3764495" lon="8.6218619"><ele>41.0</ele><time>2026-03-22T09:29:30.659Z</time></trkpt><trkpt lat="44.3762012" lon="8.621867"><ele>49.5</ele><time>2026-03-22T09:29:31.659Z</time></trkpt><trkpt lat="44.3759509" lon="8.6218544"><ele>58.0</ele><time>2026-03-22T09:29:32.659Z</time></trkpt><trkpt lat="44.3757011" lon="8.6218173"><ele>67.5</ele><time>2026-03-22T09:29:33.66Z</time></trkpt><trkpt lat="44.3754506" lon="8.6217531"><ele>77.0</ele><time>2026-03-22T09:29:34.659Z</time></trkpt><trkpt lat="44.3752005" lon="8.6216637"><ele>77.0</ele><time>2026-03-22T09:29:35.66Z</time></trkpt><trkpt lat="44.3749549" lon="8.6215485"><ele>77.0</ele><time>2026-03-22T09:29:36.659Z</time></trkpt><trkpt lat="44.3747112" lon="8.6214091"><ele>76.5</ele><time>2026-03-22T09:29:37.659Z</time></trkpt><trkpt lat="44.3744788" lon="8.6212457"><ele>76.0</ele><time>2026-03-22T09:29:38.659Z</time></trkpt><trkpt lat="44.3742577" lon="8.6210651"><ele>74.5</ele><time>2026-03-22T09:29:39.66Z</time></trkpt><trkpt lat="44.3740462" lon="8.6208599"><ele>73.0</ele><time>2026-03-22T09:29:40.66Z</time></trkpt><trkpt lat="44.3738466" lon="8.6206313"><ele>73.0</ele><time>2026-03-22T09:29:41.659Z</time></trkpt><trkpt lat="44.3736529" lon="8.6203829"><ele>73.0</ele><time>2026-03-22T09:29:42.66Z</time></trkpt><trkpt lat="44.373459" lon="8.6201234"><ele>74.5</ele><time>2026-03-22T09:29:43.66Z</time></trkpt><trkpt lat="44.3732568" lon="8.6198531"><ele>76.0</ele><time>2026-03-22T09:29:44.659Z</time></trkpt><trkpt lat="44.3730506" lon="8.6195861"><ele>76.5</ele><time>2026-03-22T09:29:45.66Z</time></trkpt><trkpt lat="44.372855" lon="8.6193173"><ele>77.0</ele><time>2026-03-22T09:29:46.659Z</time></trkpt><trkpt lat="44.3726765" lon="8.6190332"><ele>77.0</ele><time>2026-03-22T09:29:47.659Z</time></trkpt><trkpt lat="44.3725163" lon="8.6187319"><ele>77.0</ele><time>2026-03-22T09:29:48.659Z</time></trkpt><trkpt lat="44.3723681" lon="8.6184101"><ele>76.5</ele><time>2026-03-22T09:29:49.659Z</time></trkpt><trkpt lat="44.372234" lon="8.6180669"><ele>76.0</ele><time>2026-03-22T09:29:50.659Z</time></trkpt><trkpt lat="44.3721157" lon="8.6177123"><ele>76.0</ele><time>2026-03-22T09:29:51.659Z</time></trkpt><trkpt lat="44.3720037" lon="8.6173543"><ele>76.0</ele><time>2026-03-22T09:29:52.66Z</time></trkpt><trkpt lat="44.3718936" lon="8.6169958"><ele>77.5</ele><time>2026-03-22T09:29:53.66Z</time></trkpt><trkpt lat="44.3717801" lon="8.6166383"><ele>79.0</ele><time>2026-03-22T09:29:54.659Z</time></trkpt><trkpt lat="44.3716567" lon="8.6162856"><ele>81.5</ele><time>2026-03-22T09:29:55.659Z</time></trkpt><trkpt lat="44.3715219" lon="8.6159427"><ele>84.0</ele><time>2026-03-22T09:29:56.659Z</time></trkpt><trkpt lat="44.3713716" lon="8.6156128"><ele>81.0</ele><time>2026-03-22T09:29:57.659Z</time></trkpt><trkpt lat="44.3712071" lon="8.6152962"><ele>78.0</ele><time>2026-03-22T09:29:58.659Z</time></trkpt><trkpt lat="44.3710315" lon="8.6149906"><ele>78.0</ele><time>2026-03-22T09:29:59.659Z</time></trkpt><trkpt lat="44.3708482" lon="8.6146961"><ele>78.0</ele><time>2026-03-22T09:30:00.659Z</time></trkpt><trkpt lat="44.3706627" lon="8.614407"><ele>77.0</ele><time>2026-03-22T09:30:01.659Z</time></trkpt><trkpt lat="44.3704809" lon="8.6141189"><ele>76.0</ele><time>2026-03-22T09:30:02.659Z</time></trkpt><trkpt lat="44.3703054" lon="8.6138299"><ele>80.0</ele><time>2026-03-22T09:30:03.66Z</time></trkpt><trkpt lat="44.3701394" lon="8.6135364"><ele>84.0</ele><time>2026-03-22T09:30:04.66Z</time></trkpt><trkpt lat="44.3699905" lon="8.6132314"><ele>84.0</ele><time>2026-03-22T09:30:05.659Z</time></trkpt><trkpt lat="44.3698628" lon="8.6129175"><ele>84.0</ele><time>2026-03-22T09:30:06.66Z</time></trkpt><trkpt lat="44.3697536" lon="8.6126002"><ele>81.5</ele><time>2026-03-22T09:30:07.659Z</time></trkpt><trkpt lat="44.3696602" lon="8.6122745"><ele>79.0</ele><time>2026-03-22T09:30:08.659Z</time></trkpt><trkpt lat="44.3695828" lon="8.6119443"><ele>79.0</ele><time>2026-03-22T09:30:09.66Z</time></trkpt><trkpt lat="44.3695231" lon="8.6116097"><ele>79.0</ele><time>2026-03-22T09:30:10.659Z</time></trkpt><trkpt lat="44.3694717" lon="8.6112632"><ele>79.5</ele><time>2026-03-22T09:30:11.659Z</time></trkpt><trkpt lat="44.3694265" lon="8.6109006"><ele>80.0</ele><time>2026-03-22T09:30:12.659Z</time></trkpt><trkpt lat="44.3693874" lon="8.6105257"><ele>81.0</ele><time>2026-03-22T09:30:13.659Z</time></trkpt><trkpt lat="44.3693531" lon="8.6101407"><ele>82.0</ele><time>2026-03-22T09:30:14.659Z</time></trkpt><trkpt lat="44.3693188" lon="8.6097533"><ele>82.5</ele><time>2026-03-22T09:30:15.659Z</time></trkpt><trkpt lat="44.3692818" lon="8.6093555"><ele>83.0</ele><time>2026-03-22T09:30:16.659Z</time></trkpt><trkpt lat="44.3692456" lon="8.608954"><ele>84.0</ele><time>2026-03-22T09:30:17.66Z</time></trkpt><trkpt lat="44.3692102" lon="8.6085529"><ele>85.0</ele><time>2026-03-22T09:30:18.659Z</time></trkpt><trkpt lat="44.3691668" lon="8.6081499"><ele>87.5</ele><time>2026-03-22T09:30:19.659Z</time></trkpt><trkpt lat="44.3691121" lon="8.607748"><ele>90.0</ele><time>2026-03-22T09:30:20.659Z</time></trkpt><trkpt lat="44.3690494" lon="8.6073527"><ele>90.0</ele><time>2026-03-22T09:30:21.66Z</time></trkpt><trkpt lat="44.3689785" lon="8.6069662"><ele>90.0</ele><time>2026-03-22T09:30:22.66Z</time></trkpt><trkpt lat="44.3688983" lon="8.6065898"><ele>86.5</ele><time>2026-03-22T09:30:23.659Z</time></trkpt><trkpt lat="44.3688052" lon="8.6062221"><ele>83.0</ele><time>2026-03-22T09:30:24.66Z</time></trkpt><trkpt lat="44.3686999" lon="8.605862"><ele>83.0</ele><time>2026-03-22T09:30:25.659Z</time></trkpt><trkpt lat="44.3685833" lon="8.605509"><ele>83.0</ele><time>2026-03-22T09:30:26.659Z</time></trkpt><trkpt lat="44.3684536" lon="8.6051586"><ele>85.5</ele><time>2026-03-22T09:30:27.659Z</time></trkpt><trkpt lat="44.3683114" lon="8.6048128"><ele>88.0</ele><time>2026-03-22T09:30:28.66Z</time></trkpt><trkpt lat="44.3681605" lon="8.6044749"><ele>84.5</ele><time>2026-03-22T09:30:29.66Z</time></trkpt><trkpt lat="44.3680069" lon="8.6041361"><ele>81.0</ele><time>2026-03-22T09:30:30.659Z</time></trkpt><trkpt lat="44.3678552" lon="8.6037995"><ele>84.0</ele><time>2026-03-22T09:30:31.659Z</time></trkpt><trkpt lat="44.3677041" lon="8.6034648"><ele>87.0</ele><time>2026-03-22T09:30:32.659Z</time></trkpt><trkpt lat="44.367555" lon="8.6031301"><ele>92.0</ele><time>2026-03-22T09:30:33.659Z</time></trkpt><trkpt lat="44.3674093" lon="8.6027943"><ele>97.0</ele><time>2026-03-22T09:30:34.659Z</time></trkpt><trkpt lat="44.3672676" lon="8.6024546"><ele>91.5</ele><time>2026-03-22T09:30:35.66Z</time></trkpt><trkpt lat="44.3671335" lon="8.6021123"><ele>86.0</ele><time>2026-03-22T09:30:36.659Z</time></trkpt><trkpt lat="44.3670102" lon="8.6017628"><ele>86.0</ele><time>2026-03-22T09:30:37.659Z</time></trkpt><trkpt lat="44.3668979" lon="8.6014028"><ele>86.0</ele><time>2026-03-22T09:30:38.659Z</time></trkpt><trkpt lat="44.3667968" lon="8.6010328"><ele>87.5</ele><time>2026-03-22T09:30:39.66Z</time></trkpt><trkpt lat="44.3667018" lon="8.6006587"><ele>89.0</ele><time>2026-03-22T09:30:40.659Z</time></trkpt><trkpt lat="44.3666145" lon="8.6002672"><ele>90.5</ele><time>2026-03-22T09:30:41.659Z</time></trkpt><trkpt lat="44.3665236" lon="8.5998823"><ele>92.0</ele><time>2026-03-22T09:30:42.66Z</time></trkpt><trkpt lat="44.3664315" lon="8.599483"><ele>86.5</ele><time>2026-03-22T09:30:43.659Z</time></trkpt><trkpt lat="44.3663409" lon="8.5990893"><ele>81.0</ele><time>2026-03-22T09:30:44.659Z</time></trkpt><trkpt lat="44.3662591" lon="8.5987205"><ele>84.0</ele><time>2026-03-22T09:30:45.659Z</time></trkpt><trkpt lat="44.3661786" lon="8.5983672"><ele>87.0</ele><time>2026-03-22T09:30:46.659Z</time></trkpt><trkpt lat="44.3660989" lon="8.5980206"><ele>89.0</ele><time>2026-03-22T09:30:47.659Z</time></trkpt><trkpt lat="44.3660184" lon="8.5976794"><ele>91.0</ele><time>2026-03-22T09:30:48.659Z</time></trkpt><trkpt lat="44.3659364" lon="8.5973402"><ele>97.0</ele><time>2026-03-22T09:30:49.659Z</time></trkpt><trkpt lat="44.3658506" lon="8.5969981"><ele>103.0</ele><time>2026-03-22T09:30:50.659Z</time></trkpt><trkpt lat="44.3657609" lon="8.5966571"><ele>103.0</ele><time>2026-03-22T09:30:51.66Z</time></trkpt><trkpt lat="44.3656731" lon="8.5963114"><ele>103.0</ele><time>2026-03-22T09:30:52.659Z</time></trkpt><trkpt lat="44.3642677" lon="8.5876583"><ele>93.5</ele><time>2026-03-22T09:31:15.659Z</time></trkpt><trkpt lat="44.3642843" lon="8.5872688"><ele>84.0</ele><time>2026-03-22T09:31:16.659Z</time></trkpt><trkpt lat="44.3643087" lon="8.586882"><ele>84.0</ele><time>2026-03-22T09:31:17.66Z</time></trkpt><trkpt lat="44.3643237" lon="8.5865071"><ele>84.0</ele><time>2026-03-22T09:31:18.66Z</time></trkpt><trkpt lat="44.3643399" lon="8.5861281"><ele>88.0</ele><time>2026-03-22T09:31:19.659Z</time></trkpt><trkpt lat="44.3643553" lon="8.5857484"><ele>92.0</ele><time>2026-03-22T09:31:20.659Z</time></trkpt><trkpt lat="44.3649404" lon="8.5834334"><ele>94.0</ele><time>2026-03-22T09:31:26.659Z</time></trkpt><trkpt lat="44.3650404" lon="8.5830651"><ele>96.0</ele><time>2026-03-22T09:31:27.659Z</time></trkpt><trkpt lat="44.3651403" lon="8.5826974"><ele>55.0</ele><time>2026-03-22T09:31:28.66Z</time></trkpt><trkpt lat="44.3663298" lon="8.5797939"><ele>57.5</ele><time>2026-03-22T09:31:36.659Z</time></trkpt><trkpt lat="44.3664765" lon="8.5794373"><ele>60.0</ele><time>2026-03-22T09:31:37.659Z</time></trkpt><trkpt lat="44.3666168" lon="8.5790834"><ele>60.0</ele><time>2026-03-22T09:31:38.659Z</time></trkpt><trkpt lat="44.3667575" lon="8.578736"><ele>60.0</ele><time>2026-03-22T09:31:39.659Z</time></trkpt><trkpt lat="44.3668953" lon="8.5783947"><ele>75.0</ele><time>2026-03-22T09:31:40.659Z</time></trkpt><trkpt lat="44.3670254" lon="8.5780572"><ele>90.0</ele><time>2026-03-22T09:31:41.659Z</time></trkpt><trkpt lat="44.3671576" lon="8.5777194"><ele>48.0</ele><time>2026-03-22T09:31:42.659Z</time></trkpt><trkpt lat="44.3677787" lon="8.5737694"><ele>39.5</ele><time>2026-03-22T09:31:53.659Z</time></trkpt><trkpt lat="44.3677434" lon="8.573418"><ele>31.0</ele><time>2026-03-22T09:31:54.659Z</time></trkpt><trkpt lat="44.3676954" lon="8.5730611"><ele>28.0</ele><time>2026-03-22T09:31:55.66Z</time></trkpt><trkpt lat="44.3676321" lon="8.5727126"><ele>25.0</ele><time>2026-03-22T09:31:56.659Z</time></trkpt><trkpt lat="44.3675528" lon="8.5723669"><ele>25.0</ele><time>2026-03-22T09:31:57.659Z</time></trkpt><trkpt lat="44.3674556" lon="8.5720265"><ele>25.0</ele><time>2026-03-22T09:31:58.66Z</time></trkpt><trkpt lat="44.3673473" lon="8.5716932"><ele>25.0</ele><time>2026-03-22T09:31:59.659Z</time></trkpt><trkpt lat="44.3672236" lon="8.571368"><ele>25.0</ele><time>2026-03-22T09:32:00.659Z</time></trkpt><trkpt lat="44.3670873" lon="8.5710514"><ele>27.5</ele><time>2026-03-22T09:32:01.659Z</time></trkpt><trkpt lat="44.3669401" lon="8.5707486"><ele>30.0</ele><time>2026-03-22T09:32:02.659Z</time></trkpt><trkpt lat="44.3667785" lon="8.5704597"><ele>39.5</ele><time>2026-03-22T09:32:03.659Z</time></trkpt><trkpt lat="44.3666086" lon="8.5701892"><ele>49.0</ele><time>2026-03-22T09:32:04.66Z</time></trkpt><trkpt lat="44.3664401" lon="8.5699368"><ele>59.5</ele><time>2026-03-22T09:32:05.659Z</time></trkpt><trkpt lat="44.3662691" lon="8.5696767"><ele>70.0</ele><time>2026-03-22T09:32:06.659Z</time></trkpt><trkpt lat="44.3660965" lon="8.5694183"><ele>41.0</ele><time>2026-03-22T09:32:07.659Z</time></trkpt><trkpt lat="44.3603341" lon="8.5654752"><ele>41.5</ele><time>2026-03-22T09:32:30.66Z</time></trkpt><trkpt lat="44.3601087" lon="8.5653103"><ele>42.0</ele><time>2026-03-22T09:32:31.659Z</time></trkpt><trkpt lat="44.359873" lon="8.565142"><ele>46.5</ele><time>2026-03-22T09:32:32.66Z</time></trkpt><trkpt lat="44.3596402" lon="8.56497"><ele>51.0</ele><time>2026-03-22T09:32:33.659Z</time></trkpt><trkpt lat="44.3594026" lon="8.5647872"><ele>51.0</ele><time>2026-03-22T09:32:34.659Z</time></trkpt><trkpt lat="44.3591667" lon="8.5646163"><ele>51.0</ele><time>2026-03-22T09:32:35.66Z</time></trkpt><trkpt lat="44.358933" lon="8.5644434"><ele>45.0</ele><time>2026-03-22T09:32:36.659Z</time></trkpt><trkpt lat="44.3586878" lon="8.5642352"><ele>39.0</ele><time>2026-03-22T09:32:37.659Z</time></trkpt><trkpt lat="44.3584463" lon="8.5640455"><ele>39.0</ele><time>2026-03-22T09:32:38.66Z</time></trkpt><trkpt lat="44.3582046" lon="8.5638565"><ele>39.0</ele><time>2026-03-22T09:32:39.66Z</time></trkpt><trkpt lat="44.3579622" lon="8.5636689"><ele>40.0</ele><time>2026-03-22T09:32:40.66Z</time></trkpt><trkpt lat="44.3577142" lon="8.563477"><ele>41.0</ele><time>2026-03-22T09:32:41.659Z</time></trkpt><trkpt lat="44.3574646" lon="8.5632846"><ele>41.0</ele><time>2026-03-22T09:32:42.659Z</time></trkpt><trkpt lat="44.3572154" lon="8.5630903"><ele>41.0</ele><time>2026-03-22T09:32:43.66Z</time></trkpt><trkpt lat="44.3569665" lon="8.5628919"><ele>39.5</ele><time>2026-03-22T09:32:44.659Z</time></trkpt><trkpt lat="44.356721" lon="8.5626971"><ele>38.0</ele><time>2026-03-22T09:32:45.659Z</time></trkpt><trkpt lat="44.3564791" lon="8.5625018"><ele>42.0</ele><time>2026-03-22T09:32:46.66Z</time></trkpt><trkpt lat="44.3562398" lon="8.5623022"><ele>46.0</ele><time>2026-03-22T09:32:47.66Z</time></trkpt><trkpt lat="44.3560035" lon="8.5621048"><ele>46.5</ele><time>2026-03-22T09:32:48.659Z</time></trkpt><trkpt lat="44.3557646" lon="8.56191"><ele>47.0</ele><time>2026-03-22T09:32:49.659Z</time></trkpt><trkpt lat="44.3555282" lon="8.5617178"><ele>47.0</ele><time>2026-03-22T09:32:50.659Z</time></trkpt><trkpt lat="44.3552912" lon="8.5615291"><ele>47.0</ele><time>2026-03-22T09:32:51.659Z</time></trkpt><trkpt lat="44.3550524" lon="8.5613438"><ele>50.0</ele><time>2026-03-22T09:32:52.659Z</time></trkpt><trkpt lat="44.3548104" lon="8.561155"><ele>53.0</ele><time>2026-03-22T09:32:53.66Z</time></trkpt><trkpt lat="44.3545664" lon="8.5609664"><ele>54.0</ele><time>2026-03-22T09:32:54.66Z</time></trkpt><trkpt lat="44.35432" lon="8.5607735"><ele>55.0</ele><time>2026-03-22T09:32:55.659Z</time></trkpt><trkpt lat="44.3540729" lon="8.5605785"><ele>53.5</ele><time>2026-03-22T09:32:56.659Z</time></trkpt><trkpt lat="44.3538329" lon="8.5603947"><ele>52.0</ele><time>2026-03-22T09:32:57.659Z</time></trkpt><trkpt lat="44.3536031" lon="8.5602186"><ele>52.0</ele><time>2026-03-22T09:32:58.66Z</time></trkpt><trkpt lat="44.3533791" lon="8.5600385"><ele>52.0</ele><time>2026-03-22T09:32:59.659Z</time></trkpt><trkpt lat="44.353158" lon="8.5598586"><ele>51.5</ele><time>2026-03-22T09:33:00.659Z</time></trkpt><trkpt lat="44.3529331" lon="8.5596815"><ele>51.0</ele><time>2026-03-22T09:33:01.659Z</time></trkpt><trkpt lat="44.3527042" lon="8.559507"><ele>51.0</ele><time>2026-03-22T09:33:02.659Z</time></trkpt><trkpt lat="44.3524735" lon="8.5593298"><ele>51.0</ele><time>2026-03-22T09:33:03.659Z</time></trkpt><trkpt lat="44.3522423" lon="8.5591525"><ele>50.5</ele><time>2026-03-22T09:33:04.659Z</time></trkpt><trkpt lat="44.3520109" lon="8.5589723"><ele>50.0</ele><time>2026-03-22T09:33:05.659Z</time></trkpt><trkpt lat="44.3517873" lon="8.5587864"><ele>56.0</ele><time>2026-03-22T09:33:06.659Z</time></trkpt><trkpt lat="44.3515734" lon="8.5585918"><ele>62.0</ele><time>2026-03-22T09:33:07.659Z</time></trkpt><trkpt lat="44.3513701" lon="8.558388"><ele>64.5</ele><time>2026-03-22T09:33:08.659Z</time></trkpt><trkpt lat="44.3511655" lon="8.5581769"><ele>67.0</ele><time>2026-03-22T09:33:09.659Z</time></trkpt><trkpt lat="44.3509593" lon="8.557969"><ele>73.5</ele><time>2026-03-22T09:33:10.66Z</time></trkpt><trkpt lat="44.3507526" lon="8.5577578"><ele>80.0</ele><time>2026-03-22T09:33:11.66Z</time></trkpt><trkpt lat="44.3493734" lon="8.5542747"><ele>70.0</ele><time>2026-03-22T09:33:22.659Z</time></trkpt><trkpt lat="44.3493147" lon="8.5539215"><ele>60.0</ele><time>2026-03-22T09:33:23.659Z</time></trkpt><trkpt lat="44.3492737" lon="8.553574"><ele>60.0</ele><time>2026-03-22T09:33:24.659Z</time></trkpt><trkpt lat="44.3492375" lon="8.5532142"><ele>60.0</ele><time>2026-03-22T09:33:25.659Z</time></trkpt><trkpt lat="44.3492093" lon="8.5528553"><ele>59.5</ele><time>2026-03-22T09:33:26.659Z</time></trkpt><trkpt lat="44.3491874" lon="8.5524943"><ele>59.0</ele><time>2026-03-22T09:33:27.659Z</time></trkpt><trkpt lat="44.3491636" lon="8.5521188"><ele>56.5</ele><time>2026-03-22T09:33:28.659Z</time></trkpt><trkpt lat="44.3491399" lon="8.5517279"><ele>54.0</ele><time>2026-03-22T09:33:29.659Z</time></trkpt><trkpt lat="44.3491194" lon="8.5513239"><ele>52.0</ele><time>2026-03-22T09:33:30.659Z</time></trkpt><trkpt lat="44.3491" lon="8.550939"><ele>50.0</ele><time>2026-03-22T09:33:31.659Z</time></trkpt><trkpt lat="44.3490828" lon="8.5505751"><ele>46.0</ele><time>2026-03-22T09:33:32.659Z</time></trkpt><trkpt lat="44.3490678" lon="8.5502137"><ele>42.0</ele><time>2026-03-22T09:33:33.66Z</time></trkpt><trkpt lat="44.3490493" lon="8.5498521"><ele>46.0</ele><time>2026-03-22T09:33:34.66Z</time></trkpt><trkpt lat="44.3490269" lon="8.5494979"><ele>50.0</ele><time>2026-03-22T09:33:35.659Z</time></trkpt><trkpt lat="44.3490075" lon="8.5491454"><ele>50.0</ele><time>2026-03-22T09:33:36.66Z</time></trkpt><trkpt lat="44.348989" lon="8.5487906"><ele>50.0</ele><time>2026-03-22T09:33:37.659Z</time></trkpt><trkpt lat="44.3489629" lon="8.5484466"><ele>47.5</ele><time>2026-03-22T09:33:38.659Z</time></trkpt><trkpt lat="44.3489398" lon="8.5480967"><ele>45.0</ele><time>2026-03-22T09:33:39.66Z</time></trkpt><trkpt lat="44.3485409" lon="8.5448087"><ele>37.0</ele><time>2026-03-22T09:33:49.659Z</time></trkpt><trkpt lat="44.3484998" lon="8.5443432"><ele>29.0</ele><time>2026-03-22T09:33:50.659Z</time></trkpt><trkpt lat="44.3484321" lon="8.5440562"><ele>29.0</ele><time>2026-03-22T09:33:51.659Z</time></trkpt><trkpt lat="44.3483426" lon="8.543782"><ele>29.0</ele><time>2026-03-22T09:33:52.66Z</time></trkpt><trkpt lat="44.3482449" lon="8.5435343"><ele>29.0</ele><time>2026-03-22T09:33:53.659Z</time></trkpt><trkpt lat="44.3481336" lon="8.5432967"><ele>29.0</ele><time>2026-03-22T09:33:54.659Z</time></trkpt><trkpt lat="44.3480077" lon="8.543067"><ele>29.0</ele><time>2026-03-22T09:33:55.659Z</time></trkpt><trkpt lat="44.3478747" lon="8.5428472"><ele>29.0</ele><time>2026-03-22T09:33:56.659Z</time></trkpt><trkpt lat="44.3477357" lon="8.5426407"><ele>28.0</ele><time>2026-03-22T09:33:57.66Z</time></trkpt><trkpt lat="44.3475945" lon="8.5424547"><ele>27.0</ele><time>2026-03-22T09:33:58.659Z</time></trkpt><trkpt lat="44.3474492" lon="8.5422779"><ele>26.0</ele><time>2026-03-22T09:33:59.66Z</time></trkpt><trkpt lat="44.3473024" lon="8.5421148"><ele>32.666666666666664</ele><time>2026-03-22T09:34:00.659Z</time></trkpt><trkpt lat="44.3471538" lon="8.541963"><ele>39.333333333333336</ele><time>2026-03-22T09:34:01.659Z</time></trkpt><trkpt lat="44.3470029" lon="8.5418202"><ele>46.0</ele><time>2026-03-22T09:34:02.659Z</time></trkpt><trkpt lat="44.3468511" lon="8.5416838"><ele>46.0</ele><time>2026-03-22T09:34:03.659Z</time></trkpt><trkpt lat="44.3466993" lon="8.5415423"><ele>46.0</ele><time>2026-03-22T09:34:04.659Z</time></trkpt><trkpt lat="44.3465445" lon="8.5413991"><ele>46.0</ele><time>2026-03-22T09:34:05.66Z</time></trkpt><trkpt lat="44.3463848" lon="8.5412565"><ele>41.0</ele><time>2026-03-22T09:34:06.659Z</time></trkpt><trkpt lat="44.3462289" lon="8.5411111"><ele>36.0</ele><time>2026-03-22T09:34:07.66Z</time></trkpt><trkpt lat="44.34499" lon="8.5400817"><ele>36.0</ele><time>2026-03-22T09:34:14.66Z</time></trkpt><trkpt lat="44.3450844" lon="8.540098"><ele>36.0</ele><time>2026-03-22T09:34:15.659Z</time></trkpt><trkpt lat="44.3450052" lon="8.5400084"><ele>36.0</ele><time>2026-03-22T09:34:16.66Z</time></trkpt><trkpt lat="44.3449449" lon="8.5399456"><ele>36.0</ele><time>2026-03-22T09:34:17.66Z</time></trkpt><trkpt lat="44.3448515" lon="8.5398624"><ele>36.0</ele><time>2026-03-22T09:34:19.659Z</time></trkpt><trkpt lat="44.3447781" lon="8.5398207"><ele>36.8</ele><time>2026-03-22T09:35:45.66Z</time></trkpt><trkpt lat="44.344667" lon="8.5397286"><ele>37.6</ele><time>2026-03-22T09:35:47.659Z</time></trkpt><trkpt lat="44.3445786" lon="8.5396604"><ele>38.4</ele><time>2026-03-22T09:35:48.659Z</time></trkpt><trkpt lat="44.3444936" lon="8.5395841"><ele>39.2</ele><time>2026-03-22T09:35:49.66Z</time></trkpt><trkpt lat="44.3443989" lon="8.5394943"><ele>40.0</ele><time>2026-03-22T09:35:50.659Z</time></trkpt><trkpt lat="44.3442906" lon="8.5393959"><ele>40.0</ele><time>2026-03-22T09:35:51.66Z</time></trkpt><trkpt lat="44.3441741" lon="8.5392945"><ele>40.0</ele><time>2026-03-22T09:35:52.659Z</time></trkpt><trkpt lat="44.3440529" lon="8.5391796"><ele>40.0</ele><time>2026-03-22T09:35:53.659Z</time></trkpt><trkpt lat="44.343926" lon="8.5390755"><ele>40.0</ele><time>2026-03-22T09:35:54.659Z</time></trkpt><trkpt lat="44.3437996" lon="8.5389662"><ele>32.0</ele><time>2026-03-22T09:35:55.66Z</time></trkpt><trkpt lat="44.3436719" lon="8.5388567"><ele>24.0</ele><time>2026-03-22T09:35:56.659Z</time></trkpt><trkpt lat="44.340249" lon="8.5350497"><ele>24.0</ele><time>2026-03-22T09:36:18.659Z</time></trkpt><trkpt lat="44.3401184" lon="8.5348388"><ele>24.0</ele><time>2026-03-22T09:36:19.659Z</time></trkpt><trkpt lat="44.3399916" lon="8.5346216"><ele>24.0</ele><time>2026-03-22T09:36:20.659Z</time></trkpt><trkpt lat="44.3398647" lon="8.5344035"><ele>27.666666666666664</ele><time>2026-03-22T09:36:21.659Z</time></trkpt><trkpt lat="44.3397414" lon="8.5341763"><ele>31.333333333333332</ele><time>2026-03-22T09:36:22.659Z</time></trkpt><trkpt lat="44.3396182" lon="8.5339489"><ele>35.0</ele><time>2026-03-22T09:36:23.659Z</time></trkpt><trkpt lat="44.3394955" lon="8.5337221"><ele>37.33333333333333</ele><time>2026-03-22T09:36:24.66Z</time></trkpt><trkpt lat="44.3393748" lon="8.5334945"><ele>39.666666666666664</ele><time>2026-03-22T09:36:25.659Z</time></trkpt><trkpt lat="44.339245" lon="8.5332536"><ele>42.0</ele><time>2026-03-22T09:36:26.659Z</time></trkpt><trkpt lat="44.3391719" lon="8.5329459"><ele>40.666666666666664</ele><time>2026-03-22T09:36:27.66Z</time></trkpt><trkpt lat="44.3390507" lon="8.5327134"><ele>39.33333333333333</ele><time>2026-03-22T09:36:28.659Z</time></trkpt><trkpt lat="44.3389495" lon="8.5324578"><ele>38.0</ele><time>2026-03-22T09:36:29.659Z</time></trkpt><trkpt lat="44.3388451" lon="8.532198"><ele>45.33333333333333</ele><time>2026-03-22T09:36:30.66Z</time></trkpt><trkpt lat="44.3387497" lon="8.5319368"><ele>52.666666666666664</ele><time>2026-03-22T09:36:31.659Z</time></trkpt><trkpt lat="44.3386482" lon="8.5316728"><ele>60.0</ele><time>2026-03-22T09:36:32.659Z</time></trkpt><trkpt lat="44.3385607" lon="8.5313994"><ele>66.0</ele><time>2026-03-22T09:36:33.659Z</time></trkpt><trkpt lat="44.3384692" lon="8.5311361"><ele>72.0</ele><time>2026-03-22T09:36:34.659Z</time></trkpt><trkpt lat="44.3372691" lon="8.5241171"><ele>53.0</ele><time>2026-03-22T09:36:54.847Z</time></trkpt><trkpt lat="44.3371959" lon="8.5235257"><ele>34.0</ele><time>2026-03-22T09:36:58.659Z</time></trkpt><trkpt lat="44.3371506" lon="8.5232536"><ele>34.0</ele><time>2026-03-22T09:36:59.659Z</time></trkpt><trkpt lat="44.3371095" lon="8.5229591"><ele>34.0</ele><time>2026-03-22T09:37:00.66Z</time></trkpt><trkpt lat="44.3370679" lon="8.5226663"><ele>34.0</ele><time>2026-03-22T09:37:01.659Z</time></trkpt><trkpt lat="44.3370282" lon="8.5223767"><ele>42.5</ele><time>2026-03-22T09:37:02.659Z</time></trkpt><trkpt lat="44.3369887" lon="8.522087"><ele>51.0</ele><time>2026-03-22T09:37:03.659Z</time></trkpt><trkpt lat="44.3368575" lon="8.5127146"><ele>16.0</ele><time>2026-03-22T09:37:22.98Z</time></trkpt><trkpt lat="44.3359428" lon="8.516588"><ele>16.0</ele><time>2026-03-22T09:37:26.659Z</time></trkpt><trkpt lat="44.3358899" lon="8.5163563"><ele>16.0</ele><time>2026-03-22T09:37:27.659Z</time></trkpt><trkpt lat="44.3358366" lon="8.5161253"><ele>16.0</ele><time>2026-03-22T09:37:28.66Z</time></trkpt><trkpt lat="44.3357829" lon="8.5158893"><ele>14.0</ele><time>2026-03-22T09:37:29.659Z</time></trkpt><trkpt lat="44.3357334" lon="8.515651"><ele>12.0</ele><time>2026-03-22T09:37:30.659Z</time></trkpt><trkpt lat="44.3356862" lon="8.5154143"><ele>10.0</ele><time>2026-03-22T09:37:31.659Z</time></trkpt><trkpt lat="44.3356393" lon="8.5151738"><ele>10.333333333333334</ele><time>2026-03-22T09:37:32.659Z</time></trkpt><trkpt lat="44.3355941" lon="8.5149324"><ele>10.666666666666666</ele><time>2026-03-22T09:37:33.659Z</time></trkpt><trkpt lat="44.3355501" lon="8.514687"><ele>11.0</ele><time>2026-03-22T09:37:34.66Z</time></trkpt><trkpt lat="44.3355066" lon="8.5144406"><ele>11.0</ele><time>2026-03-22T09:37:35.659Z</time></trkpt><trkpt lat="44.3354624" lon="8.5141948"><ele>11.0</ele><time>2026-03-22T09:37:36.659Z</time></trkpt><trkpt lat="44.3354169" lon="8.5139509"><ele>11.0</ele><time>2026-03-22T09:37:37.659Z</time></trkpt><trkpt lat="44.3353708" lon="8.5137058"><ele>10.666666666666666</ele><time>2026-03-22T09:37:38.659Z</time></trkpt><trkpt lat="44.3353253" lon="8.5134622"><ele>10.333333333333334</ele><time>2026-03-22T09:37:39.659Z</time></trkpt><trkpt lat="44.3352803" lon="8.5132186"><ele>10.0</ele><time>2026-03-22T09:37:40.66Z</time></trkpt><trkpt lat="44.3352365" lon="8.5129786"><ele>10.333333333333334</ele><time>2026-03-22T09:37:41.66Z</time></trkpt><trkpt lat="44.3351923" lon="8.5127389"><ele>10.666666666666666</ele><time>2026-03-22T09:37:42.659Z</time></trkpt><trkpt lat="44.3351494" lon="8.5124988"><ele>11.0</ele><time>2026-03-22T09:37:43.66Z</time></trkpt><trkpt lat="44.3351088" lon="8.5122592"><ele>10.666666666666666</ele><time>2026-03-22T09:37:44.659Z</time></trkpt><trkpt lat="44.3350711" lon="8.512019"><ele>10.333333333333334</ele><time>2026-03-22T09:37:45.659Z</time></trkpt><trkpt lat="44.3350408" lon="8.5117816"><ele>10.0</ele><time>2026-03-22T09:37:46.659Z</time></trkpt><trkpt lat="44.335018" lon="8.5115475"><ele>10.0</ele><time>2026-03-22T09:37:47.66Z</time></trkpt><trkpt lat="44.334999" lon="8.5113167"><ele>10.0</ele><time>2026-03-22T09:37:48.659Z</time></trkpt><trkpt lat="44.3349826" lon="8.5110856"><ele>10.0</ele><time>2026-03-22T09:37:49.659Z</time></trkpt><trkpt lat="44.334965" lon="8.510861"><ele>9.666666666666668</ele><time>2026-03-22T09:37:50.659Z</time></trkpt><trkpt lat="44.3349517" lon="8.5106372"><ele>9.333333333333334</ele><time>2026-03-22T09:37:51.659Z</time></trkpt><trkpt lat="44.3349418" lon="8.5104147"><ele>9.0</ele><time>2026-03-22T09:37:52.659Z</time></trkpt><trkpt lat="44.3349379" lon="8.5101975"><ele>9.0</ele><time>2026-03-22T09:37:53.659Z</time></trkpt><trkpt lat="44.3349377" lon="8.5099862"><ele>9.0</ele><time>2026-03-22T09:37:54.659Z</time></trkpt><trkpt lat="44.3349414" lon="8.5097766"><ele>9.0</ele><time>2026-03-22T09:37:55.659Z</time></trkpt><trkpt lat="44.3349489" lon="8.5095739"><ele>9.0</ele><time>2026-03-22T09:37:56.659Z</time></trkpt><trkpt lat="44.3349575" lon="8.5093897"><ele>8.6</ele><time>2026-03-22T09:37:57.659Z</time></trkpt><trkpt lat="44.3349733" lon="8.5092198"><ele>8.2</ele><time>2026-03-22T09:37:58.659Z</time></trkpt><trkpt lat="44.334999" lon="8.5090702"><ele>7.799999999999999</ele><time>2026-03-22T09:37:59.659Z</time></trkpt><trkpt lat="44.3350373" lon="8.5089257"><ele>7.3999999999999995</ele><time>2026-03-22T09:38:00.66Z</time></trkpt><trkpt lat="44.3350821" lon="8.508803"><ele>7.0</ele><time>2026-03-22T09:38:01.659Z</time></trkpt><trkpt lat="44.3351356" lon="8.508695"><ele>7.0</ele><time>2026-03-22T09:38:02.66Z</time></trkpt><trkpt lat="44.3351994" lon="8.5086054"><ele>6.999999999999999</ele><time>2026-03-22T09:38:03.659Z</time></trkpt><trkpt lat="44.3352763" lon="8.5085419"><ele>6.999999999999999</ele><time>2026-03-22T09:38:04.66Z</time></trkpt><trkpt lat="44.3353658" lon="8.5085051"><ele>7.0</ele><time>2026-03-22T09:38:05.659Z</time></trkpt><trkpt lat="44.3354589" lon="8.508499"><ele>7.0</ele><time>2026-03-22T09:38:06.659Z</time></trkpt><trkpt lat="44.335547" lon="8.5085244"><ele>7.000000000000001</ele><time>2026-03-22T09:38:07.659Z</time></trkpt><trkpt lat="44.335627" lon="8.5085728"><ele>7.0</ele><time>2026-03-22T09:38:08.659Z</time></trkpt><trkpt lat="44.3356969" lon="8.5086352"><ele>7.0</ele><time>2026-03-22T09:38:09.66Z</time></trkpt><trkpt lat="44.3357544" lon="8.508703"><ele>7.0</ele><time>2026-03-22T09:38:10.659Z</time></trkpt><trkpt lat="44.3357953" lon="8.5087711"><ele>7.000000000000001</ele><time>2026-03-22T09:38:11.66Z</time></trkpt><trkpt lat="44.3358411" lon="8.5089076"><ele>7.0</ele><time>2026-03-22T09:38:13.659Z</time></trkpt><trkpt lat="44.3358535" lon="8.5090044"><ele>7.000000000000001</ele><time>2026-03-22T09:38:15.66Z</time></trkpt><trkpt lat="44.3358564" lon="8.5090932"><ele>7.0</ele><time>2026-03-22T09:38:17.659Z</time></trkpt><trkpt lat="44.3358596" lon="8.5092216"><ele>7.0</ele><time>2026-03-22T09:38:19.659Z</time></trkpt><trkpt lat="44.3358726" lon="8.5093461"><ele>7.0</ele><time>2026-03-22T09:38:21.659Z</time></trkpt><trkpt lat="44.3359155" lon="8.5094351"><ele>7.000000000000001</ele><time>2026-03-22T09:38:23.659Z</time></trkpt><trkpt lat="44.3359787" lon="8.5094908"><ele>7.0</ele><time>2026-03-22T09:38:25.659Z</time></trkpt><trkpt lat="44.3360498" lon="8.5095751"><ele>7.166666666666667</ele><time>2026-03-22T09:38:27.659Z</time></trkpt><trkpt lat="44.3361019" lon="8.5096713"><ele>7.333333333333334</ele><time>2026-03-22T09:38:29.659Z</time></trkpt><trkpt lat="44.336123" lon="8.509766"><ele>7.5</ele><time>2026-03-22T09:38:31.659Z</time></trkpt><trkpt lat="44.336125" lon="8.509871"><ele>7.666666666666666</ele><time>2026-03-22T09:38:33.659Z</time></trkpt><trkpt lat="44.3360741" lon="8.5099859"><ele>7.833333333333333</ele><time>2026-03-22T09:38:36.659Z</time></trkpt><trkpt lat="44.3359899" lon="8.5100557"><ele>8.0</ele><time>2026-03-22T09:38:38.659Z</time></trkpt><trkpt lat="44.33588" lon="8.5101246"><ele>7.999999999999999</ele><time>2026-03-22T09:38:40.659Z</time></trkpt><trkpt lat="44.3358182" lon="8.5101606"><ele>8.0</ele><time>2026-03-22T09:38:41.659Z</time></trkpt><trkpt lat="44.3357499" lon="8.5102024"><ele>8.0</ele><time>2026-03-22T09:38:42.659Z</time></trkpt><trkpt lat="44.3356767" lon="8.510244"><ele>8.0</ele><time>2026-03-22T09:38:43.66Z</time></trkpt><trkpt lat="44.3356008" lon="8.5102855"><ele>7.999999999999999</ele><time>2026-03-22T09:38:44.66Z</time></trkpt><trkpt lat="44.3355256" lon="8.5103285"><ele>8.0</ele><time>2026-03-22T09:38:45.659Z</time></trkpt><trkpt lat="44.3354519" lon="8.5103719"><ele>8.166666666666666</ele><time>2026-03-22T09:38:46.659Z</time></trkpt><trkpt lat="44.3353767" lon="8.5104155"><ele>8.333333333333332</ele><time>2026-03-22T09:38:47.66Z</time></trkpt><trkpt lat="44.3352962" lon="8.5104591"><ele>8.5</ele><time>2026-03-22T09:38:48.66Z</time></trkpt><trkpt lat="44.3352145" lon="8.5105031"><ele>8.666666666666666</ele><time>2026-03-22T09:38:49.659Z</time></trkpt><trkpt lat="44.3351316" lon="8.510547"><ele>8.833333333333334</ele><time>2026-03-22T09:38:50.659Z</time></trkpt><trkpt lat="44.3350471" lon="8.5105912"><ele>9.0</ele><time>2026-03-22T09:38:51.66Z</time></trkpt><trkpt lat="44.3349668" lon="8.5106365"><ele>9.0</ele><time>2026-03-22T09:38:52.66Z</time></trkpt><trkpt lat="44.3348846" lon="8.5106826"><ele>9.0</ele><time>2026-03-22T09:38:53.66Z</time></trkpt><trkpt lat="44.3348081" lon="8.510715"><ele>9.0</ele><time>2026-03-22T09:38:54.659Z</time></trkpt><trkpt lat="44.3347117" lon="8.5107489"><ele>9.0</ele><time>2026-03-22T09:38:55.659Z</time></trkpt><trkpt lat="44.3346392" lon="8.5108079"><ele>9.0</ele><time>2026-03-22T09:38:56.659Z</time></trkpt><trkpt lat="44.3345719" lon="8.5108401"><ele>9.0</ele><time>2026-03-22T09:38:57.659Z</time></trkpt><trkpt lat="44.3344869" lon="8.5108969"><ele>8.833333333333334</ele><time>2026-03-22T09:38:58.659Z</time></trkpt><trkpt lat="44.3344105" lon="8.5109393"><ele>8.666666666666666</ele><time>2026-03-22T09:38:59.659Z</time></trkpt><trkpt lat="44.3343161" lon="8.5109736"><ele>8.5</ele><time>2026-03-22T09:39:00.66Z</time></trkpt><trkpt lat="44.3342415" lon="8.511015"><ele>8.333333333333332</ele><time>2026-03-22T09:39:01.66Z</time></trkpt><trkpt lat="44.3341639" lon="8.5110641"><ele>8.166666666666666</ele><time>2026-03-22T09:39:02.659Z</time></trkpt><trkpt lat="44.334091" lon="8.5111102"><ele>8.0</ele><time>2026-03-22T09:39:03.659Z</time></trkpt><trkpt lat="44.3340211" lon="8.5111564"><ele>7.999999999999999</ele><time>2026-03-22T09:39:04.66Z</time></trkpt><trkpt lat="44.3339473" lon="8.511205"><ele>8.0</ele><time>2026-03-22T09:39:05.659Z</time></trkpt><trkpt lat="44.3338686" lon="8.5112525"><ele>8.0</ele><time>2026-03-22T09:39:06.659Z</time></trkpt><trkpt lat="44.3337888" lon="8.5112997"><ele>8.0</ele><time>2026-03-22T09:39:07.659Z</time></trkpt><trkpt lat="44.3337088" lon="8.5113475"><ele>7.999999999999999</ele><time>2026-03-22T09:39:08.66Z</time></trkpt><trkpt lat="44.3336253" lon="8.5113932"><ele>8.0</ele><time>2026-03-22T09:39:09.66Z</time></trkpt><trkpt lat="44.333543" lon="8.5114404"><ele>7.999999999999999</ele><time>2026-03-22T09:39:10.659Z</time></trkpt><trkpt lat="44.3334594" lon="8.5114844"><ele>8.0</ele><time>2026-03-22T09:39:11.66Z</time></trkpt><trkpt lat="44.3333762" lon="8.5115291"><ele>8.0</ele><time>2026-03-22T09:39:12.66Z</time></trkpt><trkpt lat="44.3332945" lon="8.5115745"><ele>8.0</ele><time>2026-03-22T09:39:13.659Z</time></trkpt><trkpt lat="44.3332117" lon="8.5116195"><ele>7.999999999999999</ele><time>2026-03-22T09:39:14.66Z</time></trkpt><trkpt lat="44.3331289" lon="8.5116642"><ele>8.0</ele><time>2026-03-22T09:39:15.659Z</time></trkpt><trkpt lat="44.3330467" lon="8.5117098"><ele>7.999999999999999</ele><time>2026-03-22T09:39:16.659Z</time></trkpt><trkpt lat="44.3329646" lon="8.511756"><ele>8.0</ele><time>2026-03-22T09:39:17.659Z</time></trkpt><trkpt lat="44.3328822" lon="8.5118026"><ele>8.0</ele><time>2026-03-22T09:39:18.659Z</time></trkpt><trkpt lat="44.3328019" lon="8.5118485"><ele>8.0</ele><time>2026-03-22T09:39:19.66Z</time></trkpt><trkpt lat="44.3327223" lon="8.5118922"><ele>7.999999999999999</ele><time>2026-03-22T09:39:20.659Z</time></trkpt><trkpt lat="44.3326441" lon="8.5119376"><ele>8.0</ele><time>2026-03-22T09:39:21.659Z</time></trkpt><trkpt lat="44.3325672" lon="8.5119844"><ele>7.999999999999999</ele><time>2026-03-22T09:39:22.659Z</time></trkpt><trkpt lat="44.3324877" lon="8.5120314"><ele>8.0</ele><time>2026-03-22T09:39:23.659Z</time></trkpt><trkpt lat="44.3324083" lon="8.5120761"><ele>8.0</ele><time>2026-03-22T09:39:24.659Z</time></trkpt><trkpt lat="44.3323254" lon="8.5121168"><ele>8.0</ele><time>2026-03-22T09:39:25.659Z</time></trkpt><trkpt lat="44.332243" lon="8.5121601"><ele>7.999999999999999</ele><time>2026-03-22T09:39:26.659Z</time></trkpt><trkpt lat="44.3321588" lon="8.5122012"><ele>8.0</ele><time>2026-03-22T09:39:27.66Z</time></trkpt><trkpt lat="44.3320756" lon="8.5122443"><ele>8.166666666666666</ele><time>2026-03-22T09:39:28.66Z</time></trkpt><trkpt lat="44.3319928" lon="8.5122924"><ele>8.333333333333332</ele><time>2026-03-22T09:39:29.66Z</time></trkpt><trkpt lat="44.331914" lon="8.5123411"><ele>8.5</ele><time>2026-03-22T09:39:30.659Z</time></trkpt><trkpt lat="44.3318387" lon="8.5123825"><ele>8.666666666666666</ele><time>2026-03-22T09:39:31.659Z</time></trkpt><trkpt lat="44.3317706" lon="8.5124205"><ele>8.833333333333334</ele><time>2026-03-22T09:39:32.659Z</time></trkpt><trkpt lat="44.3317039" lon="8.512455"><ele>9.0</ele><time>2026-03-22T09:39:33.659Z</time></trkpt><trkpt lat="44.331632" lon="8.5124929"><ele>9.0</ele><time>2026-03-22T09:39:34.659Z</time></trkpt><trkpt lat="44.3315567" lon="8.5125317"><ele>9.0</ele><time>2026-03-22T09:39:35.66Z</time></trkpt><trkpt lat="44.3314811" lon="8.5125709"><ele>9.0</ele><time>2026-03-22T09:39:36.66Z</time></trkpt><trkpt lat="44.3314104" lon="8.5126077"><ele>9.0</ele><time>2026-03-22T09:39:37.66Z</time></trkpt><trkpt lat="44.3313401" lon="8.5126442"><ele>9.0</ele><time>2026-03-22T09:39:38.659Z</time></trkpt><trkpt lat="44.3312702" lon="8.5126848"><ele>9.0</ele><time>2026-03-22T09:39:39.659Z</time></trkpt><trkpt lat="44.3312029" lon="8.5127242"><ele>9.0</ele><time>2026-03-22T09:39:40.659Z</time></trkpt><trkpt lat="44.3311375" lon="8.5127605"><ele>9.0</ele><time>2026-03-22T09:39:41.659Z</time></trkpt><trkpt lat="44.3310712" lon="8.5127983"><ele>9.0</ele><time>2026-03-22T09:39:42.659Z</time></trkpt><trkpt lat="44.3310028" lon="8.5128339"><ele>9.0</ele><time>2026-03-22T09:39:43.66Z</time></trkpt><trkpt lat="44.3309369" lon="8.512868"><ele>9.0</ele><time>2026-03-22T09:39:44.659Z</time></trkpt><trkpt lat="44.3308274" lon="8.5129218"><ele>9.0</ele><time>2026-03-22T09:39:46.66Z</time></trkpt><trkpt lat="44.3307368" lon="8.5129616"><ele>9.0</ele><time>2026-03-22T09:39:48.659Z</time></trkpt><trkpt lat="44.3306462" lon="8.5129696"><ele>9.0</ele><time>2026-03-22T09:39:51.659Z</time></trkpt><trkpt lat="44.3305751" lon="8.5129396"><ele>9.0</ele><time>2026-03-22T09:39:53.659Z</time></trkpt><trkpt lat="44.330501" lon="8.5128901"><ele>9.0</ele><time>2026-03-22T09:39:55.66Z</time></trkpt><trkpt lat="44.3304218" lon="8.5128155"><ele>9.0</ele><time>2026-03-22T09:39:57.659Z</time></trkpt><trkpt lat="44.3303538" lon="8.5127047"><ele>9.0</ele><time>2026-03-22T09:39:59.66Z</time></trkpt><trkpt lat="44.3303097" lon="8.5125663"><ele>8.666666666666666</ele><time>2026-03-22T09:40:01.659Z</time></trkpt><trkpt lat="44.3302608" lon="8.5124019"><ele>8.333333333333334</ele><time>2026-03-22T09:40:03.66Z</time></trkpt><trkpt lat="44.3302327" lon="8.5123088"><ele>8.0</ele><time>2026-03-22T09:40:04.659Z</time></trkpt><trkpt lat="44.3302032" lon="8.5122087"><ele>7.666666666666667</ele><time>2026-03-22T09:40:05.659Z</time></trkpt><trkpt lat="44.330175" lon="8.5121154"><ele>7.333333333333334</ele><time>2026-03-22T09:40:06.659Z</time></trkpt><trkpt lat="44.3301495" lon="8.5120276"><ele>7.0</ele><time>2026-03-22T09:40:07.659Z</time></trkpt><trkpt lat="44.330124" lon="8.5119346"><ele>6.833333333333334</ele><time>2026-03-22T09:40:08.659Z</time></trkpt><trkpt lat="44.3300946" lon="8.511836"><ele>6.666666666666667</ele><time>2026-03-22T09:40:09.659Z</time></trkpt><trkpt lat="44.330065" lon="8.5117371"><ele>6.5</ele><time>2026-03-22T09:40:10.659Z</time></trkpt><trkpt lat="44.3300365" lon="8.5116386"><ele>6.333333333333334</ele><time>2026-03-22T09:40:11.659Z</time></trkpt><trkpt lat="44.3300078" lon="8.5115408"><ele>6.166666666666667</ele><time>2026-03-22T09:40:12.659Z</time></trkpt><trkpt lat="44.3299784" lon="8.5114433"><ele>6.0</ele><time>2026-03-22T09:40:13.66Z</time></trkpt><trkpt lat="44.3299481" lon="8.5113469"><ele>6.0</ele><time>2026-03-22T09:40:14.66Z</time></trkpt><trkpt lat="44.3299188" lon="8.5112495"><ele>6.0</ele><time>2026-03-22T09:40:15.66Z</time></trkpt><trkpt lat="44.3298919" lon="8.5111513"><ele>6.0</ele><time>2026-03-22T09:40:16.659Z</time></trkpt><trkpt lat="44.3298661" lon="8.5110517"><ele>6.0</ele><time>2026-03-22T09:40:17.659Z</time></trkpt><trkpt lat="44.3298385" lon="8.5109498"><ele>6.0</ele><time>2026-03-22T09:40:18.659Z</time></trkpt><trkpt lat="44.3298101" lon="8.510848"><ele>6.0</ele><time>2026-03-22T09:40:19.659Z</time></trkpt><trkpt lat="44.32978" lon="8.5107477"><ele>5.833333333333333</ele><time>2026-03-22T09:40:20.659Z</time></trkpt><trkpt lat="44.3297539" lon="8.510645"><ele>5.666666666666667</ele><time>2026-03-22T09:40:21.659Z</time></trkpt><trkpt lat="44.3297242" lon="8.5105459"><ele>5.5</ele><time>2026-03-22T09:40:22.659Z</time></trkpt><trkpt lat="44.3296943" lon="8.5104476"><ele>5.333333333333334</ele><time>2026-03-22T09:40:23.659Z</time></trkpt><trkpt lat="44.3296654" lon="8.5103488"><ele>5.166666666666667</ele><time>2026-03-22T09:40:24.659Z</time></trkpt><trkpt lat="44.3296362" lon="8.5102484"><ele>5.0</ele><time>2026-03-22T09:40:25.659Z</time></trkpt><trkpt lat="44.3296083" lon="8.5101435"><ele>5.0</ele><time>2026-03-22T09:40:26.659Z</time></trkpt><trkpt lat="44.3295795" lon="8.5100365"><ele>5.0</ele><time>2026-03-22T09:40:27.66Z</time></trkpt><trkpt lat="44.32955" lon="8.5099281"><ele>5.0</ele><time>2026-03-22T09:40:28.659Z</time></trkpt><trkpt lat="44.3295187" lon="8.5098206"><ele>5.0</ele><time>2026-03-22T09:40:29.659Z</time></trkpt><trkpt lat="44.3294879" lon="8.5097133"><ele>5.0</ele><time>2026-03-22T09:40:30.66Z</time></trkpt><trkpt lat="44.3294563" lon="8.5096019"><ele>5.0</ele><time>2026-03-22T09:40:31.659Z</time></trkpt><trkpt lat="44.3294244" lon="8.5094893"><ele>4.333333333333334</ele><time>2026-03-22T09:40:32.66Z</time></trkpt><trkpt lat="44.3293907" lon="8.5093762"><ele>3.666666666666667</ele><time>2026-03-22T09:40:33.659Z</time></trkpt><trkpt lat="44.3293583" lon="8.5092654"><ele>3.0</ele><time>2026-03-22T09:40:34.659Z</time></trkpt><trkpt lat="44.3293266" lon="8.5091557"><ele>2.3333333333333335</ele><time>2026-03-22T09:40:35.659Z</time></trkpt><trkpt lat="44.3292944" lon="8.5090488"><ele>1.6666666666666665</ele><time>2026-03-22T09:40:36.659Z</time></trkpt><trkpt lat="44.3292636" lon="8.5089432"><ele>1.0</ele><time>2026-03-22T09:40:37.659Z</time></trkpt><trkpt lat="44.3292337" lon="8.5088397"><ele>1.2000000000000002</ele><time>2026-03-22T09:40:38.659Z</time></trkpt><trkpt lat="44.3292054" lon="8.5087399"><ele>1.4000000000000001</ele><time>2026-03-22T09:40:39.66Z</time></trkpt><trkpt lat="44.3291696" lon="8.5086086"><ele>1.6</ele><time>2026-03-22T09:40:41.659Z</time></trkpt><trkpt lat="44.3291351" lon="8.5084879"><ele>1.8</ele><time>2026-03-22T09:40:43.66Z</time></trkpt><trkpt lat="44.3290948" lon="8.5083492"><ele>2.0</ele><time>2026-03-22T09:40:45.659Z</time></trkpt><trkpt lat="44.3290568" lon="8.5082138"><ele>1.9999999999999998</ele><time>2026-03-22T09:40:47.659Z</time></trkpt><trkpt lat="44.3290142" lon="8.5080604"><ele>2.0</ele><time>2026-03-22T09:40:49.66Z</time></trkpt><trkpt lat="44.3289876" lon="8.5079708"><ele>2.0</ele><time>2026-03-22T09:40:50.66Z</time></trkpt><trkpt lat="44.3289603" lon="8.5078758"><ele>2.0</ele><time>2026-03-22T09:40:51.659Z</time></trkpt><trkpt lat="44.3289313" lon="8.5077765"><ele>1.9999999999999998</ele><time>2026-03-22T09:40:52.659Z</time></trkpt><trkpt lat="44.3289033" lon="8.5076776"><ele>2.0</ele><time>2026-03-22T09:40:53.659Z</time></trkpt><trkpt lat="44.3288728" lon="8.5075783"><ele>2.4000000000000004</ele><time>2026-03-22T09:40:54.659Z</time></trkpt><trkpt lat="44.3288421" lon="8.507477"><ele>2.8000000000000003</ele><time>2026-03-22T09:40:55.659Z</time></trkpt><trkpt lat="44.3288097" lon="8.5073732"><ele>3.2</ele><time>2026-03-22T09:40:56.66Z</time></trkpt><trkpt lat="44.3287724" lon="8.5072561"><ele>3.6</ele><time>2026-03-22T09:40:57.66Z</time></trkpt><trkpt lat="44.3287306" lon="8.5071279"><ele>4.0</ele><time>2026-03-22T09:40:58.66Z</time></trkpt><trkpt lat="44.3286866" lon="8.5070011"><ele>4.2</ele><time>2026-03-22T09:40:59.659Z</time></trkpt><trkpt lat="44.3286443" lon="8.5068764"><ele>4.4</ele><time>2026-03-22T09:41:00.659Z</time></trkpt><trkpt lat="44.3286027" lon="8.5067547"><ele>4.6</ele><time>2026-03-22T09:41:01.66Z</time></trkpt><trkpt lat="44.3285617" lon="8.5066371"><ele>4.8</ele><time>2026-03-22T09:41:02.659Z</time></trkpt><trkpt lat="44.3285213" lon="8.5065237"><ele>5.0</ele><time>2026-03-22T09:41:03.66Z</time></trkpt><trkpt lat="44.3284824" lon="8.5064145"><ele>5.0</ele><time>2026-03-22T09:41:04.66Z</time></trkpt><trkpt lat="44.3284481" lon="8.5063121"><ele>5.0</ele><time>2026-03-22T09:41:05.66Z</time></trkpt><trkpt lat="44.3284155" lon="8.5062158"><ele>5.0</ele><time>2026-03-22T09:41:06.659Z</time></trkpt><trkpt lat="44.3283845" lon="8.5061267"><ele>5.0</ele><time>2026-03-22T09:41:07.659Z</time></trkpt><trkpt lat="44.3283497" lon="8.5060333"><ele>5.0</ele><time>2026-03-22T09:41:08.659Z</time></trkpt><trkpt lat="44.3283125" lon="8.505933"><ele>5.0</ele><time>2026-03-22T09:41:09.66Z</time></trkpt><trkpt lat="44.3282743" lon="8.5058311"><ele>5.0</ele><time>2026-03-22T09:41:10.659Z</time></trkpt><trkpt lat="44.3282366" lon="8.5057297"><ele>5.0</ele><time>2026-03-22T09:41:11.659Z</time></trkpt><trkpt lat="44.3281979" lon="8.5056314"><ele>5.0</ele><time>2026-03-22T09:41:12.66Z</time></trkpt><trkpt lat="44.3281585" lon="8.5055334"><ele>5.0</ele><time>2026-03-22T09:41:13.66Z</time></trkpt><trkpt lat="44.3281156" lon="8.5054277"><ele>5.0</ele><time>2026-03-22T09:41:14.659Z</time></trkpt><trkpt lat="44.3280723" lon="8.5053191"><ele>5.0</ele><time>2026-03-22T09:41:15.659Z</time></trkpt><trkpt lat="44.3280287" lon="8.5052118"><ele>5.0</ele><time>2026-03-22T09:41:16.66Z</time></trkpt><trkpt lat="44.3279828" lon="8.5051045"><ele>5.0</ele><time>2026-03-22T09:41:17.659Z</time></trkpt><trkpt lat="44.3279365" lon="8.5049977"><ele>5.0</ele><time>2026-03-22T09:41:18.659Z</time></trkpt><trkpt lat="44.3278889" lon="8.5048921"><ele>5.0</ele><time>2026-03-22T09:41:19.66Z</time></trkpt><trkpt lat="44.3278448" lon="8.5047931"><ele>5.0</ele><time>2026-03-22T09:41:20.659Z</time></trkpt><trkpt lat="44.3278015" lon="8.5046966"><ele>5.0</ele><time>2026-03-22T09:41:21.659Z</time></trkpt><trkpt lat="44.3277609" lon="8.5046043"><ele>5.285714285714286</ele><time>2026-03-22T09:41:22.659Z</time></trkpt><trkpt lat="44.3277219" lon="8.5045156"><ele>5.571428571428571</ele><time>2026-03-22T09:41:23.659Z</time></trkpt><trkpt lat="44.3276859" lon="8.5044293"><ele>5.857142857142858</ele><time>2026-03-22T09:41:24.659Z</time></trkpt><trkpt lat="44.3276526" lon="8.5043414"><ele>6.142857142857142</ele><time>2026-03-22T09:41:25.659Z</time></trkpt><trkpt lat="44.3276171" lon="8.5042547"><ele>6.428571428571429</ele><time>2026-03-22T09:41:26.659Z</time></trkpt><trkpt lat="44.3275786" lon="8.5041609"><ele>6.714285714285714</ele><time>2026-03-22T09:41:27.659Z</time></trkpt><trkpt lat="44.3275384" lon="8.5040627"><ele>7.0</ele><time>2026-03-22T09:41:28.659Z</time></trkpt><trkpt lat="44.3274963" lon="8.5039604"><ele>7.000000000000001</ele><time>2026-03-22T09:41:29.659Z</time></trkpt><trkpt lat="44.3274544" lon="8.5038543"><ele>7.0</ele><time>2026-03-22T09:41:30.66Z</time></trkpt><trkpt lat="44.3274124" lon="8.5037452"><ele>7.0</ele><time>2026-03-22T09:41:31.659Z</time></trkpt><trkpt lat="44.3273709" lon="8.5036322"><ele>7.0</ele><time>2026-03-22T09:41:32.66Z</time></trkpt><trkpt lat="44.327326" lon="8.50352"><ele>7.000000000000001</ele><time>2026-03-22T09:41:33.66Z</time></trkpt><trkpt lat="44.3272825" lon="8.5034111"><ele>7.0</ele><time>2026-03-22T09:41:34.659Z</time></trkpt><trkpt lat="44.327239" lon="8.5033022"><ele>6.8</ele><time>2026-03-22T09:41:35.66Z</time></trkpt><trkpt lat="44.3271949" lon="8.5031907"><ele>6.6</ele><time>2026-03-22T09:41:36.659Z</time></trkpt><trkpt lat="44.3271502" lon="8.5030807"><ele>6.3999999999999995</ele><time>2026-03-22T09:41:37.66Z</time></trkpt><trkpt lat="44.3271062" lon="8.5029691"><ele>6.199999999999999</ele><time>2026-03-22T09:41:38.66Z</time></trkpt><trkpt lat="44.3270653" lon="8.5028581"><ele>6.0</ele><time>2026-03-22T09:41:39.659Z</time></trkpt><trkpt lat="44.3270241" lon="8.5027457"><ele>6.0</ele><time>2026-03-22T09:41:40.659Z</time></trkpt><trkpt lat="44.3269851" lon="8.5026306"><ele>6.0</ele><time>2026-03-22T09:41:41.659Z</time></trkpt><trkpt lat="44.3269479" lon="8.5025133"><ele>6.0</ele><time>2026-03-22T09:41:42.66Z</time></trkpt><trkpt lat="44.3269111" lon="8.5023941"><ele>6.0</ele><time>2026-03-22T09:41:43.66Z</time></trkpt><trkpt lat="44.3268765" lon="8.502273"><ele>6.0</ele><time>2026-03-22T09:41:44.659Z</time></trkpt><trkpt lat="44.326842" lon="8.5021519"><ele>6.6</ele><time>2026-03-22T09:41:45.66Z</time></trkpt><trkpt lat="44.3268047" lon="8.5020304"><ele>7.199999999999999</ele><time>2026-03-22T09:41:46.659Z</time></trkpt><trkpt lat="44.3267644" lon="8.501906"><ele>7.800000000000001</ele><time>2026-03-22T09:41:47.659Z</time></trkpt><trkpt lat="44.326724" lon="8.5017894"><ele>8.4</ele><time>2026-03-22T09:41:48.66Z</time></trkpt><trkpt lat="44.3266826" lon="8.5016777"><ele>9.0</ele><time>2026-03-22T09:41:49.66Z</time></trkpt><trkpt lat="44.3266394" lon="8.5015713"><ele>9.0</ele><time>2026-03-22T09:41:50.659Z</time></trkpt><trkpt lat="44.3265945" lon="8.5014682"><ele>9.0</ele><time>2026-03-22T09:41:51.66Z</time></trkpt><trkpt lat="44.3265483" lon="8.5013709"><ele>9.0</ele><time>2026-03-22T09:41:52.659Z</time></trkpt><trkpt lat="44.3264981" lon="8.5012753"><ele>9.0</ele><time>2026-03-22T09:41:53.659Z</time></trkpt><trkpt lat="44.3264448" lon="8.5011819"><ele>9.0</ele><time>2026-03-22T09:41:54.659Z</time></trkpt><trkpt lat="44.32639" lon="8.501091"><ele>9.0</ele><time>2026-03-22T09:41:55.659Z</time></trkpt><trkpt lat="44.326334" lon="8.5010025"><ele>8.666666666666666</ele><time>2026-03-22T09:41:56.659Z</time></trkpt><trkpt lat="44.3262763" lon="8.5009138"><ele>8.333333333333334</ele><time>2026-03-22T09:41:57.659Z</time></trkpt><trkpt lat="44.3262154" lon="8.5008278"><ele>8.0</ele><time>2026-03-22T09:41:58.66Z</time></trkpt><trkpt lat="44.3261553" lon="8.5007429"><ele>7.666666666666667</ele><time>2026-03-22T09:41:59.659Z</time></trkpt><trkpt lat="44.3260927" lon="8.5006603"><ele>7.333333333333334</ele><time>2026-03-22T09:42:00.659Z</time></trkpt><trkpt lat="44.3260287" lon="8.5005781"><ele>7.0</ele><time>2026-03-22T09:42:01.659Z</time></trkpt><trkpt lat="44.3259643" lon="8.5004994"><ele>7.000000000000001</ele><time>2026-03-22T09:42:02.659Z</time></trkpt><trkpt lat="44.325903" lon="8.5004243"><ele>7.0</ele><time>2026-03-22T09:42:03.659Z</time></trkpt><trkpt lat="44.3258472" lon="8.5003526"><ele>7.0</ele><time>2026-03-22T09:42:04.659Z</time></trkpt><trkpt lat="44.3257764" lon="8.500265"><ele>7.0</ele><time>2026-03-22T09:42:06.659Z</time></trkpt><trkpt lat="44.3257212" lon="8.5002043"><ele>7.000000000000001</ele><time>2026-03-22T09:43:26.66Z</time></trkpt><trkpt lat="44.3256909" lon="8.5000985"><ele>7.0</ele><time>2026-03-22T09:43:29.659Z</time></trkpt><trkpt lat="44.3257276" lon="8.4999962"><ele>7.166666666666667</ele><time>2026-03-22T09:43:31.659Z</time></trkpt><trkpt lat="44.3257858" lon="8.4999025"><ele>7.333333333333334</ele><time>2026-03-22T09:43:33.659Z</time></trkpt><trkpt lat="44.3258378" lon="8.4998365"><ele>7.5</ele><time>2026-03-22T09:43:35.659Z</time></trkpt><trkpt lat="44.3258339" lon="8.4997229"><ele>7.666666666666666</ele><time>2026-03-22T09:43:38.659Z</time></trkpt><trkpt lat="44.3257497" lon="8.4997673"><ele>7.833333333333333</ele><time>2026-03-22T09:43:41.66Z</time></trkpt><trkpt lat="44.3257375" lon="8.4998971"><ele>8.0</ele><time>2026-03-22T09:43:43.659Z</time></trkpt><trkpt lat="44.3257084" lon="8.4999943"><ele>7.999999999999999</ele><time>2026-03-22T09:43:45.659Z</time></trkpt><trkpt lat="44.3256629" lon="8.5000844"><ele>8.0</ele><time>2026-03-22T09:43:48.66Z</time></trkpt><trkpt lat="44.3256372" lon="8.5001843"><ele>8.0</ele><time>2026-03-22T09:43:53.659Z</time></trkpt><trkpt lat="44.3256828" lon="8.5002629"><ele>8.0</ele><time>2026-03-22T09:43:55.659Z</time></trkpt><trkpt lat="44.3257887" lon="8.5003658"><ele>7.999999999999999</ele><time>2026-03-22T09:43:57.659Z</time></trkpt><trkpt lat="44.3258543" lon="8.5004346"><ele>8.0</ele><time>2026-03-22T09:43:58.66Z</time></trkpt><trkpt lat="44.3259236" lon="8.5005098"><ele>7.800000000000001</ele><time>2026-03-22T09:43:59.659Z</time></trkpt><trkpt lat="44.3259971" lon="8.5005942"><ele>7.6000000000000005</ele><time>2026-03-22T09:44:00.66Z</time></trkpt><trkpt lat="44.3260696" lon="8.500683"><ele>7.3999999999999995</ele><time>2026-03-22T09:44:01.66Z</time></trkpt><trkpt lat="44.3261366" lon="8.5007712"><ele>7.199999999999999</ele><time>2026-03-22T09:44:02.659Z</time></trkpt><trkpt lat="44.3262044" lon="8.5008661"><ele>7.0</ele><time>2026-03-22T09:44:03.659Z</time></trkpt><trkpt lat="44.3262705" lon="8.5009619"><ele>7.0</ele><time>2026-03-22T09:44:04.659Z</time></trkpt><trkpt lat="44.3263312" lon="8.5010588"><ele>6.999999999999999</ele><time>2026-03-22T09:44:05.66Z</time></trkpt><trkpt lat="44.3263906" lon="8.5011565"><ele>6.999999999999999</ele><time>2026-03-22T09:44:06.66Z</time></trkpt><trkpt lat="44.3264482" lon="8.5012584"><ele>7.0</ele><time>2026-03-22T09:44:07.66Z</time></trkpt><trkpt lat="44.3265054" lon="8.5013669"><ele>7.0</ele><time>2026-03-22T09:44:08.659Z</time></trkpt><trkpt lat="44.3265588" lon="8.501481"><ele>6.8</ele><time>2026-03-22T09:44:09.66Z</time></trkpt><trkpt lat="44.3266113" lon="8.5015988"><ele>6.6</ele><time>2026-03-22T09:44:10.66Z</time></trkpt><trkpt lat="44.3266607" lon="8.5017183"><ele>6.3999999999999995</ele><time>2026-03-22T09:44:11.659Z</time></trkpt><trkpt lat="44.3267078" lon="8.5018391"><ele>6.199999999999999</ele><time>2026-03-22T09:44:12.659Z</time></trkpt><trkpt lat="44.3267522" lon="8.501965"><ele>6.0</ele><time>2026-03-22T09:44:13.659Z</time></trkpt><trkpt lat="44.3267932" lon="8.5020934"><ele>6.0</ele><time>2026-03-22T09:44:14.659Z</time></trkpt><trkpt lat="44.326834" lon="8.502226"><ele>6.0</ele><time>2026-03-22T09:44:15.659Z</time></trkpt><trkpt lat="44.3268755" lon="8.5023578"><ele>6.0</ele><time>2026-03-22T09:44:16.659Z</time></trkpt><trkpt lat="44.3269174" lon="8.5024925"><ele>6.0</ele><time>2026-03-22T09:44:17.66Z</time></trkpt><trkpt lat="44.3269603" lon="8.5026277"><ele>6.0</ele><time>2026-03-22T09:44:18.659Z</time></trkpt><trkpt lat="44.3270052" lon="8.5027593"><ele>6.0</ele><time>2026-03-22T09:44:19.659Z</time></trkpt><trkpt lat="44.3270522" lon="8.5028882"><ele>6.0</ele><time>2026-03-22T09:44:20.659Z</time></trkpt><trkpt lat="44.3270979" lon="8.5030123"><ele>6.0</ele><time>2026-03-22T09:44:21.659Z</time></trkpt><trkpt lat="44.3271426" lon="8.5031329"><ele>6.0</ele><time>2026-03-22T09:44:22.659Z</time></trkpt><trkpt lat="44.3271882" lon="8.5032525"><ele>6.0</ele><time>2026-03-22T09:44:23.659Z</time></trkpt><trkpt lat="44.327237" lon="8.5033724"><ele>6.199999999999999</ele><time>2026-03-22T09:44:24.659Z</time></trkpt><trkpt lat="44.3272881" lon="8.5034934"><ele>6.3999999999999995</ele><time>2026-03-22T09:44:25.66Z</time></trkpt><trkpt lat="44.3273388" lon="8.5036144"><ele>6.6</ele><time>2026-03-22T09:44:26.66Z</time></trkpt><trkpt lat="44.3273873" lon="8.5037308"><ele>6.8</ele><time>2026-03-22T09:44:27.659Z</time></trkpt><trkpt lat="44.3274332" lon="8.5038427"><ele>7.0</ele><time>2026-03-22T09:44:28.66Z</time></trkpt><trkpt lat="44.3274772" lon="8.5039505"><ele>7.000000000000001</ele><time>2026-03-22T09:44:29.659Z</time></trkpt><trkpt lat="44.3275199" lon="8.5040565"><ele>7.0</ele><time>2026-03-22T09:44:30.659Z</time></trkpt><trkpt lat="44.327561" lon="8.5041591"><ele>7.0</ele><time>2026-03-22T09:44:31.659Z</time></trkpt><trkpt lat="44.3276008" lon="8.5042611"><ele>7.0</ele><time>2026-03-22T09:44:32.659Z</time></trkpt><trkpt lat="44.3276425" lon="8.5043609"><ele>7.000000000000001</ele><time>2026-03-22T09:44:33.659Z</time></trkpt><trkpt lat="44.3276834" lon="8.5044614"><ele>7.0</ele><time>2026-03-22T09:44:34.66Z</time></trkpt><trkpt lat="44.3277243" lon="8.5045578"><ele>6.714285714285714</ele><time>2026-03-22T09:44:35.659Z</time></trkpt><trkpt lat="44.3277638" lon="8.5046523"><ele>6.428571428571429</ele><time>2026-03-22T09:44:36.659Z</time></trkpt><trkpt lat="44.3278021" lon="8.5047408"><ele>6.142857142857142</ele><time>2026-03-22T09:44:37.66Z</time></trkpt><trkpt lat="44.3278376" lon="8.5048247"><ele>5.857142857142858</ele><time>2026-03-22T09:44:38.659Z</time></trkpt><trkpt lat="44.3278733" lon="8.5049061"><ele>5.571428571428571</ele><time>2026-03-22T09:44:39.659Z</time></trkpt><trkpt lat="44.3279061" lon="8.5049837"><ele>5.285714285714286</ele><time>2026-03-22T09:44:40.659Z</time></trkpt><trkpt lat="44.327941" lon="8.5050673"><ele>5.0</ele><time>2026-03-22T09:44:41.659Z</time></trkpt><trkpt lat="44.3279781" lon="8.5051562"><ele>5.0</ele><time>2026-03-22T09:44:42.66Z</time></trkpt><trkpt lat="44.328014" lon="8.5052481"><ele>5.0</ele><time>2026-03-22T09:44:43.659Z</time></trkpt><trkpt lat="44.3280501" lon="8.5053417"><ele>5.0</ele><time>2026-03-22T09:44:44.66Z</time></trkpt><trkpt lat="44.328085" lon="8.5054342"><ele>5.0</ele><time>2026-03-22T09:44:45.659Z</time></trkpt><trkpt lat="44.3281179" lon="8.5055239"><ele>5.0</ele><time>2026-03-22T09:44:46.659Z</time></trkpt><trkpt lat="44.3281507" lon="8.50561"><ele>5.0</ele><time>2026-03-22T09:44:47.659Z</time></trkpt><trkpt lat="44.328183" lon="8.505686"><ele>5.0</ele><time>2026-03-22T09:44:48.659Z</time></trkpt><trkpt lat="44.3282353" lon="8.5057985"><ele>5.0</ele><time>2026-03-22T09:44:50.66Z</time></trkpt><trkpt lat="44.328274" lon="8.5058959"><ele>5.0</ele><time>2026-03-22T09:44:54.659Z</time></trkpt><trkpt lat="44.3283086" lon="8.5060242"><ele>5.0</ele><time>2026-03-22T09:44:56.66Z</time></trkpt><trkpt lat="44.328339" lon="8.506113"><ele>5.0</ele><time>2026-03-22T09:44:57.659Z</time></trkpt><trkpt lat="44.32837" lon="8.5061959"><ele>5.0</ele><time>2026-03-22T09:44:58.659Z</time></trkpt><trkpt lat="44.3284023" lon="8.5062844"><ele>5.0</ele><time>2026-03-22T09:44:59.659Z</time></trkpt><trkpt lat="44.3284393" lon="8.5063913"><ele>5.0</ele><time>2026-03-22T09:45:00.66Z</time></trkpt><trkpt lat="44.3284791" lon="8.5065118"><ele>5.0</ele><time>2026-03-22T09:45:01.66Z</time></trkpt><trkpt lat="44.3285232" lon="8.5066426"><ele>5.0</ele><time>2026-03-22T09:45:02.66Z</time></trkpt><trkpt lat="44.3285693" lon="8.5067775"><ele>5.0</ele><time>2026-03-22T09:45:03.659Z</time></trkpt><trkpt lat="44.3286151" lon="8.5069126"><ele>5.0</ele><time>2026-03-22T09:45:04.66Z</time></trkpt><trkpt lat="44.3286575" lon="8.5070388"><ele>4.8</ele><time>2026-03-22T09:45:05.659Z</time></trkpt><trkpt lat="44.3286976" lon="8.5071559"><ele>4.6</ele><time>2026-03-22T09:45:06.659Z</time></trkpt><trkpt lat="44.328736" lon="8.5072679"><ele>4.4</ele><time>2026-03-22T09:45:07.66Z</time></trkpt><trkpt lat="44.3287753" lon="8.507383"><ele>4.2</ele><time>2026-03-22T09:45:08.659Z</time></trkpt><trkpt lat="44.3288149" lon="8.5074987"><ele>4.0</ele><time>2026-03-22T09:45:09.659Z</time></trkpt><trkpt lat="44.3288518" lon="8.5076117"><ele>4.0</ele><time>2026-03-22T09:45:10.659Z</time></trkpt><trkpt lat="44.328886" lon="8.5077176"><ele>3.9999999999999996</ele><time>2026-03-22T09:45:11.659Z</time></trkpt><trkpt lat="44.3289169" lon="8.5078182"><ele>4.0</ele><time>2026-03-22T09:45:12.66Z</time></trkpt><trkpt lat="44.3289463" lon="8.5079172"><ele>4.0</ele><time>2026-03-22T09:45:13.659Z</time></trkpt><trkpt lat="44.3289722" lon="8.5080073"><ele>3.9999999999999996</ele><time>2026-03-22T09:45:14.659Z</time></trkpt><trkpt lat="44.3289979" lon="8.508091"><ele>4.0</ele><time>2026-03-22T09:45:15.659Z</time></trkpt><trkpt lat="44.3290226" lon="8.5081762"><ele>4.0</ele><time>2026-03-22T09:45:16.659Z</time></trkpt><trkpt lat="44.3290452" lon="8.5082621"><ele>3.6666666666666665</ele><time>2026-03-22T09:45:17.66Z</time></trkpt><trkpt lat="44.329066" lon="8.5083455"><ele>3.333333333333333</ele><time>2026-03-22T09:45:18.659Z</time></trkpt><trkpt lat="44.3291123" lon="8.5085114"><ele>3.0</ele><time>2026-03-22T09:45:20.66Z</time></trkpt><trkpt lat="44.3291413" lon="8.5086021"><ele>2.6666666666666665</ele><time>2026-03-22T09:45:21.659Z</time></trkpt><trkpt lat="44.3291696" lon="8.5086939"><ele>2.333333333333333</ele><time>2026-03-22T09:45:22.66Z</time></trkpt><trkpt lat="44.3291966" lon="8.508784"><ele>2.0</ele><time>2026-03-22T09:45:23.659Z</time></trkpt><trkpt lat="44.329228" lon="8.5089198"><ele>1.8333333333333333</ele><time>2026-03-22T09:45:25.659Z</time></trkpt><trkpt lat="44.3292617" lon="8.5090488"><ele>1.6666666666666665</ele><time>2026-03-22T09:45:27.659Z</time></trkpt><trkpt lat="44.3292879" lon="8.5091319"><ele>1.5</ele><time>2026-03-22T09:45:28.659Z</time></trkpt><trkpt lat="44.3293198" lon="8.5092215"><ele>1.3333333333333333</ele><time>2026-03-22T09:45:29.659Z</time></trkpt><trkpt lat="44.3293516" lon="8.5093163"><ele>1.1666666666666665</ele><time>2026-03-22T09:45:30.659Z</time></trkpt><trkpt lat="44.3293848" lon="8.5094171"><ele>1.0</ele><time>2026-03-22T09:45:31.659Z</time></trkpt><trkpt lat="44.3294196" lon="8.5095256"><ele>1.8</ele><time>2026-03-22T09:45:32.659Z</time></trkpt><trkpt lat="44.3294524" lon="8.5096393"><ele>2.6</ele><time>2026-03-22T09:45:33.659Z</time></trkpt><trkpt lat="44.3294864" lon="8.5097588"><ele>3.4</ele><time>2026-03-22T09:45:34.659Z</time></trkpt><trkpt lat="44.329522" lon="8.5098821"><ele>4.2</ele><time>2026-03-22T09:45:35.659Z</time></trkpt><trkpt lat="44.329559" lon="8.5100099"><ele>5.0</ele><time>2026-03-22T09:45:36.66Z</time></trkpt><trkpt lat="44.3295946" lon="8.5101411"><ele>5.0</ele><time>2026-03-22T09:45:37.659Z</time></trkpt><trkpt lat="44.3296313" lon="8.5102741"><ele>5.0</ele><time>2026-03-22T09:45:38.659Z</time></trkpt><trkpt lat="44.3296665" lon="8.5104005"><ele>5.0</ele><time>2026-03-22T09:45:39.659Z</time></trkpt><trkpt lat="44.3297019" lon="8.5105249"><ele>5.0</ele><time>2026-03-22T09:45:40.658Z</time></trkpt><trkpt lat="44.3297374" lon="8.5106496"><ele>5.0</ele><time>2026-03-22T09:45:41.659Z</time></trkpt><trkpt lat="44.3297715" lon="8.5107668"><ele>4.8</ele><time>2026-03-22T09:45:42.659Z</time></trkpt><trkpt lat="44.3298087" lon="8.5108841"><ele>4.6</ele><time>2026-03-22T09:45:43.659Z</time></trkpt><trkpt lat="44.3298431" lon="8.5110045"><ele>4.4</ele><time>2026-03-22T09:45:44.659Z</time></trkpt><trkpt lat="44.3298783" lon="8.5111259"><ele>4.2</ele><time>2026-03-22T09:45:45.659Z</time></trkpt><trkpt lat="44.3299136" lon="8.5112503"><ele>4.0</ele><time>2026-03-22T09:45:46.659Z</time></trkpt><trkpt lat="44.3299473" lon="8.5113742"><ele>4.4</ele><time>2026-03-22T09:45:47.659Z</time></trkpt><trkpt lat="44.3299813" lon="8.5114944"><ele>4.800000000000001</ele><time>2026-03-22T09:45:48.66Z</time></trkpt><trkpt lat="44.3300166" lon="8.511616"><ele>5.199999999999999</ele><time>2026-03-22T09:45:49.659Z</time></trkpt><trkpt lat="44.3300526" lon="8.5117379"><ele>5.6</ele><time>2026-03-22T09:45:50.66Z</time></trkpt><trkpt lat="44.3300891" lon="8.5118574"><ele>6.0</ele><time>2026-03-22T09:45:51.659Z</time></trkpt><trkpt lat="44.3301222" lon="8.5119762"><ele>6.166666666666667</ele><time>2026-03-22T09:45:52.659Z</time></trkpt><trkpt lat="44.330154" lon="8.5120929"><ele>6.333333333333334</ele><time>2026-03-22T09:45:53.659Z</time></trkpt><trkpt lat="44.3301848" lon="8.5122077"><ele>6.5</ele><time>2026-03-22T09:45:54.659Z</time></trkpt><trkpt lat="44.3302171" lon="8.5123204"><ele>6.666666666666667</ele><time>2026-03-22T09:45:55.659Z</time></trkpt><trkpt lat="44.3302501" lon="8.5124326"><ele>6.833333333333334</ele><time>2026-03-22T09:45:56.659Z</time></trkpt><trkpt lat="44.3302818" lon="8.5125399"><ele>7.0</ele><time>2026-03-22T09:45:57.66Z</time></trkpt><trkpt lat="44.33031" lon="8.5126407"><ele>7.000000000000001</ele><time>2026-03-22T09:45:58.66Z</time></trkpt><trkpt lat="44.3303361" lon="8.5127283"><ele>7.0</ele><time>2026-03-22T09:45:59.659Z</time></trkpt><trkpt lat="44.330385" lon="8.5128633"><ele>7.0</ele><time>2026-03-22T09:46:01.66Z</time></trkpt><trkpt lat="44.3304218" lon="8.5129606"><ele>7.0</ele><time>2026-03-22T09:46:03.66Z</time></trkpt><trkpt lat="44.3304581" lon="8.513049"><ele>7.000000000000001</ele><time>2026-03-22T09:46:05.659Z</time></trkpt><trkpt lat="44.3305241" lon="8.5131001"><ele>7.0</ele><time>2026-03-22T09:46:07.659Z</time></trkpt><trkpt lat="44.3306114" lon="8.5130769"><ele>7.166666666666667</ele><time>2026-03-22T09:46:09.659Z</time></trkpt><trkpt lat="44.3306834" lon="8.5130399"><ele>7.333333333333334</ele><time>2026-03-22T09:46:11.659Z</time></trkpt><trkpt lat="44.3307477" lon="8.5130062"><ele>7.5</ele><time>2026-03-22T09:46:15.659Z</time></trkpt><trkpt lat="44.3308494" lon="8.5129493"><ele>7.666666666666666</ele><time>2026-03-22T09:46:21.659Z</time></trkpt><trkpt lat="44.3309544" lon="8.5128885"><ele>7.833333333333333</ele><time>2026-03-22T09:46:23.659Z</time></trkpt><trkpt lat="44.3310117" lon="8.5128489"><ele>8.0</ele><time>2026-03-22T09:46:24.66Z</time></trkpt><trkpt lat="44.3310729" lon="8.5128109"><ele>8.0</ele><time>2026-03-22T09:46:25.659Z</time></trkpt><trkpt lat="44.3311365" lon="8.5127756"><ele>7.999999999999999</ele><time>2026-03-22T09:46:26.659Z</time></trkpt><trkpt lat="44.3312012" lon="8.5127421"><ele>8.0</ele><time>2026-03-22T09:46:27.659Z</time></trkpt><trkpt lat="44.3312677" lon="8.5127034"><ele>8.0</ele><time>2026-03-22T09:46:28.66Z</time></trkpt><trkpt lat="44.3313442" lon="8.5126589"><ele>7.999999999999999</ele><time>2026-03-22T09:46:29.659Z</time></trkpt><trkpt lat="44.3314204" lon="8.5126159"><ele>8.0</ele><time>2026-03-22T09:46:30.66Z</time></trkpt><trkpt lat="44.3314858" lon="8.5125828"><ele>8.0</ele><time>2026-03-22T09:46:31.66Z</time></trkpt><trkpt lat="44.3315946" lon="8.5125298"><ele>9.0</ele><time>2026-03-22T09:46:33.659Z</time></trkpt><trkpt lat="44.3317037" lon="8.5124704"><ele>9.0</ele><time>2026-03-22T09:46:35.659Z</time></trkpt><trkpt lat="44.331802" lon="8.512426"><ele>9.0</ele><time>2026-03-22T09:46:37.659Z</time></trkpt><trkpt lat="44.3318679" lon="8.512397"><ele>9.0</ele><time>2026-03-22T09:46:40.659Z</time></trkpt><trkpt lat="44.3319213" lon="8.5124507"><ele>9.0</ele><time>2026-03-22T09:46:43.659Z</time></trkpt><trkpt lat="44.331947" lon="8.5125317"><ele>9.0</ele><time>2026-03-22T09:46:45.659Z</time></trkpt></trkseg><trkseg><trkpt lat="44.3315886" lon="8.5125952"><ele>9.0</ele><time>2026-03-22T10:04:27.653Z</time></trkpt><trkpt lat="44.3316507" lon="8.5125334"><ele>9.0</ele><time>2026-03-22T10:04:29.654Z</time></trkpt><trkpt lat="44.3317276" lon="8.5124879"><ele>9.0</ele><time>2026-03-22T10:04:31.654Z</time></trkpt><trkpt lat="44.3317983" lon="8.5124483"><ele>9.0</ele><time>2026-03-22T10:04:33.653Z</time></trkpt><trkpt lat="44.3318746" lon="8.5124027"><ele>9.0</ele><time>2026-03-22T10:04:35.654Z</time></trkpt><trkpt lat="44.331935" lon="8.5123614"><ele>9.0</ele><time>2026-03-22T10:04:37.655Z</time></trkpt><trkpt lat="44.3319953" lon="8.5123256"><ele>9.0</ele><time>2026-03-22T10:04:39.654Z</time></trkpt><trkpt lat="44.3320819" lon="8.5122843"><ele>9.0</ele><time>2026-03-22T10:04:42.654Z</time></trkpt><trkpt lat="44.3321604" lon="8.5122455"><ele>9.0</ele><time>2026-03-22T10:04:45.653Z</time></trkpt><trkpt lat="44.3322277" lon="8.5122097"><ele>9.0</ele><time>2026-03-22T10:04:47.654Z</time></trkpt><trkpt lat="44.3323127" lon="8.5121599"><ele>9.0</ele><time>2026-03-22T10:04:49.654Z</time></trkpt><trkpt lat="44.3323861" lon="8.5121166"><ele>9.0</ele><time>2026-03-22T10:04:51.654Z</time></trkpt><trkpt lat="44.3324502" lon="8.5120794"><ele>8.833333333333334</ele><time>2026-03-22T10:04:54.654Z</time></trkpt><trkpt lat="44.3325099" lon="8.5120388"><ele>8.666666666666666</ele><time>2026-03-22T10:04:58.654Z</time></trkpt><trkpt lat="44.3325742" lon="8.5119999"><ele>8.5</ele><time>2026-03-22T10:05:00.654Z</time></trkpt><trkpt lat="44.3326448" lon="8.5119577"><ele>8.333333333333332</ele><time>2026-03-22T10:05:02.653Z</time></trkpt><trkpt lat="44.3327153" lon="8.5119179"><ele>8.166666666666666</ele><time>2026-03-22T10:05:04.654Z</time></trkpt><trkpt lat="44.3327997" lon="8.5118726"><ele>8.0</ele><time>2026-03-22T10:05:06.655Z</time></trkpt><trkpt lat="44.3328994" lon="8.5118236"><ele>7.999999999999999</ele><time>2026-03-22T10:05:08.654Z</time></trkpt><trkpt lat="44.3330043" lon="8.5117664"><ele>8.0</ele><time>2026-03-22T10:05:10.653Z</time></trkpt><trkpt lat="44.3331124" lon="8.5117084"><ele>8.0</ele><time>2026-03-22T10:05:12.653Z</time></trkpt><trkpt lat="44.3331749" lon="8.5116749"><ele>8.0</ele><time>2026-03-22T10:05:13.654Z</time></trkpt><trkpt lat="44.3332357" lon="8.5116437"><ele>7.999999999999999</ele><time>2026-03-22T10:05:14.655Z</time></trkpt><trkpt lat="44.3332983" lon="8.511618"><ele>8.0</ele><time>2026-03-22T10:05:15.653Z</time></trkpt><trkpt lat="44.3334189" lon="8.5115608"><ele>8.0</ele><time>2026-03-22T10:05:17.654Z</time></trkpt><trkpt lat="44.3334817" lon="8.511531"><ele>7.999999999999999</ele><time>2026-03-22T10:05:18.653Z</time></trkpt><trkpt lat="44.3335434" lon="8.5114935"><ele>8.0</ele><time>2026-03-22T10:05:19.654Z</time></trkpt><trkpt lat="44.3336015" lon="8.5114564"><ele>8.0</ele><time>2026-03-22T10:05:20.654Z</time></trkpt><trkpt lat="44.333661" lon="8.5114147"><ele>7.999999999999999</ele><time>2026-03-22T10:05:21.655Z</time></trkpt><trkpt lat="44.3337226" lon="8.5113772"><ele>8.0</ele><time>2026-03-22T10:05:22.653Z</time></trkpt><trkpt lat="44.3337877" lon="8.5113497"><ele>8.0</ele><time>2026-03-22T10:05:23.653Z</time></trkpt><trkpt lat="44.3338537" lon="8.511315"><ele>7.999999999999999</ele><time>2026-03-22T10:05:24.653Z</time></trkpt><trkpt lat="44.3339229" lon="8.5112804"><ele>8.0</ele><time>2026-03-22T10:05:25.653Z</time></trkpt><trkpt lat="44.3339926" lon="8.5112454"><ele>8.0</ele><time>2026-03-22T10:05:26.653Z</time></trkpt><trkpt lat="44.3340628" lon="8.5112096"><ele>8.0</ele><time>2026-03-22T10:05:27.653Z</time></trkpt><trkpt lat="44.3341371" lon="8.5111685"><ele>7.999999999999999</ele><time>2026-03-22T10:05:28.653Z</time></trkpt><trkpt lat="44.3342121" lon="8.5111308"><ele>8.0</ele><time>2026-03-22T10:05:29.653Z</time></trkpt><trkpt lat="44.3342852" lon="8.5110902"><ele>7.999999999999999</ele><time>2026-03-22T10:05:30.654Z</time></trkpt><trkpt lat="44.3343598" lon="8.5110511"><ele>8.0</ele><time>2026-03-22T10:05:31.654Z</time></trkpt><trkpt lat="44.3344294" lon="8.511014"><ele>8.0</ele><time>2026-03-22T10:05:32.655Z</time></trkpt><trkpt lat="44.3344997" lon="8.5109743"><ele>8.0</ele><time>2026-03-22T10:05:33.654Z</time></trkpt><trkpt lat="44.33457" lon="8.5109347"><ele>7.999999999999999</ele><time>2026-03-22T10:05:34.653Z</time></trkpt><trkpt lat="44.3346422" lon="8.5108959"><ele>8.0</ele><time>2026-03-22T10:05:35.654Z</time></trkpt><trkpt lat="44.3347393" lon="8.510833"><ele>8.166666666666666</ele><time>2026-03-22T10:05:36.654Z</time></trkpt><trkpt lat="44.3348204" lon="8.5107883"><ele>8.333333333333332</ele><time>2026-03-22T10:05:37.654Z</time></trkpt><trkpt lat="44.3349028" lon="8.5107417"><ele>8.5</ele><time>2026-03-22T10:05:38.654Z</time></trkpt><trkpt lat="44.3349856" lon="8.5106805"><ele>8.666666666666666</ele><time>2026-03-22T10:05:39.654Z</time></trkpt><trkpt lat="44.3350616" lon="8.5106425"><ele>8.833333333333334</ele><time>2026-03-22T10:05:40.655Z</time></trkpt><trkpt lat="44.3351452" lon="8.5106009"><ele>9.0</ele><time>2026-03-22T10:05:41.653Z</time></trkpt><trkpt lat="44.3352288" lon="8.5105449"><ele>9.0</ele><time>2026-03-22T10:05:42.653Z</time></trkpt><trkpt lat="44.3353203" lon="8.5104938"><ele>9.0</ele><time>2026-03-22T10:05:43.654Z</time></trkpt><trkpt lat="44.3354051" lon="8.5104431"><ele>9.0</ele><time>2026-03-22T10:05:44.653Z</time></trkpt><trkpt lat="44.33549" lon="8.5103985"><ele>9.0</ele><time>2026-03-22T10:05:45.654Z</time></trkpt><trkpt lat="44.3355748" lon="8.5103559"><ele>9.0</ele><time>2026-03-22T10:05:46.653Z</time></trkpt><trkpt lat="44.3356597" lon="8.5103075"><ele>8.833333333333334</ele><time>2026-03-22T10:05:47.654Z</time></trkpt><trkpt lat="44.33574" lon="8.5102605"><ele>8.666666666666666</ele><time>2026-03-22T10:05:48.654Z</time></trkpt><trkpt lat="44.3358214" lon="8.510214"><ele>8.5</ele><time>2026-03-22T10:05:49.654Z</time></trkpt><trkpt lat="44.3359017" lon="8.510169"><ele>8.333333333333332</ele><time>2026-03-22T10:05:50.653Z</time></trkpt><trkpt lat="44.3359763" lon="8.5101253"><ele>8.166666666666666</ele><time>2026-03-22T10:05:51.655Z</time></trkpt><trkpt lat="44.3360504" lon="8.5100844"><ele>8.0</ele><time>2026-03-22T10:05:52.655Z</time></trkpt><trkpt lat="44.3361213" lon="8.5100447"><ele>8.0</ele><time>2026-03-22T10:05:53.654Z</time></trkpt><trkpt lat="44.336194" lon="8.5100049"><ele>7.999999999999999</ele><time>2026-03-22T10:05:54.654Z</time></trkpt><trkpt lat="44.3362639" lon="8.5099647"><ele>8.0</ele><time>2026-03-22T10:05:55.655Z</time></trkpt><trkpt lat="44.3363324" lon="8.5099291"><ele>8.0</ele><time>2026-03-22T10:05:56.653Z</time></trkpt><trkpt lat="44.3363975" lon="8.5098948"><ele>7.999999999999999</ele><time>2026-03-22T10:05:57.653Z</time></trkpt><trkpt lat="44.3364641" lon="8.5098624"><ele>8.0</ele><time>2026-03-22T10:05:58.654Z</time></trkpt><trkpt lat="44.3365322" lon="8.5098272"><ele>8.0</ele><time>2026-03-22T10:05:59.655Z</time></trkpt><trkpt lat="44.3366002" lon="8.5097965"><ele>8.166666666666666</ele><time>2026-03-22T10:06:00.654Z</time></trkpt><trkpt lat="44.3366675" lon="8.5097621"><ele>8.333333333333332</ele><time>2026-03-22T10:06:01.655Z</time></trkpt><trkpt lat="44.3367325" lon="8.5097298"><ele>8.5</ele><time>2026-03-22T10:06:02.654Z</time></trkpt><trkpt lat="44.336794" lon="8.5096996"><ele>8.666666666666666</ele><time>2026-03-22T10:06:03.654Z</time></trkpt><trkpt lat="44.3369051" lon="8.5096499"><ele>8.833333333333334</ele><time>2026-03-22T10:06:05.653Z</time></trkpt><trkpt lat="44.3369784" lon="8.5096049"><ele>9.0</ele><time>2026-03-22T10:06:07.655Z</time></trkpt><trkpt lat="44.3370695" lon="8.5095542"><ele>9.0</ele><time>2026-03-22T10:06:10.654Z</time></trkpt><trkpt lat="44.3371361" lon="8.5095319"><ele>9.0</ele><time>2026-03-22T10:06:13.653Z</time></trkpt><trkpt lat="44.3372458" lon="8.5095499"><ele>9.0</ele><time>2026-03-22T10:06:16.654Z</time></trkpt><trkpt lat="44.3373279" lon="8.5095015"><ele>9.0</ele><time>2026-03-22T10:06:18.653Z</time></trkpt><trkpt lat="44.3373422" lon="8.5093998"><ele>9.0</ele><time>2026-03-22T10:06:20.653Z</time></trkpt><trkpt lat="44.3372783" lon="8.5093554"><ele>9.0</ele><time>2026-03-22T10:06:22.653Z</time></trkpt><trkpt lat="44.3371736" lon="8.5094131"><ele>9.0</ele><time>2026-03-22T10:06:24.653Z</time></trkpt><trkpt lat="44.337106" lon="8.5094602"><ele>9.0</ele><time>2026-03-22T10:06:25.653Z</time></trkpt><trkpt lat="44.3370372" lon="8.5094963"><ele>9.0</ele><time>2026-03-22T10:06:26.654Z</time></trkpt><trkpt lat="44.3369615" lon="8.5095351"><ele>9.0</ele><time>2026-03-22T10:06:27.654Z</time></trkpt><trkpt lat="44.3368821" lon="8.5095757"><ele>9.0</ele><time>2026-03-22T10:06:28.654Z</time></trkpt><trkpt lat="44.3368044" lon="8.5096175"><ele>9.0</ele><time>2026-03-22T10:06:29.653Z</time></trkpt><trkpt lat="44.3367313" lon="8.509651"><ele>9.142857142857144</ele><time>2026-03-22T10:06:30.655Z</time></trkpt><trkpt lat="44.336661" lon="8.5096818"><ele>9.285714285714286</ele><time>2026-03-22T10:06:31.654Z</time></trkpt><trkpt lat="44.3365939" lon="8.5097128"><ele>9.428571428571429</ele><time>2026-03-22T10:06:32.653Z</time></trkpt><trkpt lat="44.3365312" lon="8.5097389"><ele>9.571428571428573</ele><time>2026-03-22T10:06:33.654Z</time></trkpt><trkpt lat="44.336469" lon="8.5097566"><ele>9.714285714285715</ele><time>2026-03-22T10:06:34.654Z</time></trkpt><trkpt lat="44.3364039" lon="8.5097546"><ele>9.857142857142858</ele><time>2026-03-22T10:06:35.653Z</time></trkpt><trkpt lat="44.3363389" lon="8.5097323"><ele>10.0</ele><time>2026-03-22T10:06:36.654Z</time></trkpt><trkpt lat="44.3362798" lon="8.5096908"><ele>9.6</ele><time>2026-03-22T10:06:37.654Z</time></trkpt><trkpt lat="44.3362166" lon="8.5095764"><ele>9.2</ele><time>2026-03-22T10:06:39.654Z</time></trkpt><trkpt lat="44.3362001" lon="8.5094636"><ele>8.8</ele><time>2026-03-22T10:06:41.653Z</time></trkpt><trkpt lat="44.3361797" lon="8.509349"><ele>8.4</ele><time>2026-03-22T10:06:43.654Z</time></trkpt><trkpt lat="44.3361491" lon="8.5092174"><ele>8.0</ele><time>2026-03-22T10:06:45.653Z</time></trkpt><trkpt lat="44.336108" lon="8.5090755"><ele>7.833333333333333</ele><time>2026-03-22T10:06:47.654Z</time></trkpt><trkpt lat="44.3360797" lon="8.5089932"><ele>7.666666666666666</ele><time>2026-03-22T10:06:48.654Z</time></trkpt><trkpt lat="44.3360366" lon="8.5088961"><ele>7.5</ele><time>2026-03-22T10:06:49.654Z</time></trkpt><trkpt lat="44.3359824" lon="8.5088034"><ele>7.333333333333334</ele><time>2026-03-22T10:06:50.654Z</time></trkpt><trkpt lat="44.3359235" lon="8.5087101"><ele>7.166666666666667</ele><time>2026-03-22T10:06:51.653Z</time></trkpt><trkpt lat="44.3358556" lon="8.5086096"><ele>7.0</ele><time>2026-03-22T10:06:52.653Z</time></trkpt><trkpt lat="44.3357775" lon="8.5085088"><ele>7.0</ele><time>2026-03-22T10:06:53.653Z</time></trkpt><trkpt lat="44.3356875" lon="8.5084061"><ele>7.0</ele><time>2026-03-22T10:06:54.653Z</time></trkpt><trkpt lat="44.3355863" lon="8.5083039"><ele>7.0</ele><time>2026-03-22T10:06:55.653Z</time></trkpt><trkpt lat="44.3354743" lon="8.5082025"><ele>7.0</ele><time>2026-03-22T10:06:56.653Z</time></trkpt><trkpt lat="44.3353582" lon="8.5081041"><ele>7.0</ele><time>2026-03-22T10:06:57.654Z</time></trkpt><trkpt lat="44.3352443" lon="8.5080054"><ele>7.0</ele><time>2026-03-22T10:06:58.654Z</time></trkpt><trkpt lat="44.3351339" lon="8.5079098"><ele>7.0</ele><time>2026-03-22T10:06:59.654Z</time></trkpt><trkpt lat="44.3350311" lon="8.507816"><ele>7.0</ele><time>2026-03-22T10:07:00.654Z</time></trkpt><trkpt lat="44.334927" lon="8.5077257"><ele>7.0</ele><time>2026-03-22T10:07:01.654Z</time></trkpt><trkpt lat="44.3348284" lon="8.50764"><ele>6.999999999999999</ele><time>2026-03-22T10:07:02.653Z</time></trkpt><trkpt lat="44.3347484" lon="8.5075681"><ele>6.999999999999999</ele><time>2026-03-22T10:07:03.655Z</time></trkpt><trkpt lat="44.3346634" lon="8.5075089"><ele>7.0</ele><time>2026-03-22T10:07:04.653Z</time></trkpt><trkpt lat="44.3345762" lon="8.5074704"><ele>7.0</ele><time>2026-03-22T10:07:05.653Z</time></trkpt><trkpt lat="44.3344864" lon="8.5074651"><ele>6.833333333333334</ele><time>2026-03-22T10:07:06.653Z</time></trkpt><trkpt lat="44.3344027" lon="8.5074924"><ele>6.666666666666667</ele><time>2026-03-22T10:07:07.653Z</time></trkpt><trkpt lat="44.3343281" lon="8.5075526"><ele>6.5</ele><time>2026-03-22T10:07:08.654Z</time></trkpt><trkpt lat="44.3342682" lon="8.5076348"><ele>6.333333333333334</ele><time>2026-03-22T10:07:09.654Z</time></trkpt><trkpt lat="44.3342245" lon="8.5077378"><ele>6.166666666666667</ele><time>2026-03-22T10:07:10.655Z</time></trkpt><trkpt lat="44.334198" lon="8.5078513"><ele>6.0</ele><time>2026-03-22T10:07:11.654Z</time></trkpt><trkpt lat="44.334194" lon="8.5079702"><ele>6.0</ele><time>2026-03-22T10:07:12.655Z</time></trkpt><trkpt lat="44.3342152" lon="8.5080884"><ele>6.0</ele><time>2026-03-22T10:07:13.653Z</time></trkpt><trkpt lat="44.3342558" lon="8.508193"><ele>6.0</ele><time>2026-03-22T10:07:14.653Z</time></trkpt><trkpt lat="44.334313" lon="8.5082884"><ele>6.0</ele><time>2026-03-22T10:07:15.653Z</time></trkpt><trkpt lat="44.3343846" lon="8.508376"><ele>6.0</ele><time>2026-03-22T10:07:16.654Z</time></trkpt><trkpt lat="44.3344637" lon="8.5084668"><ele>6.0</ele><time>2026-03-22T10:07:17.654Z</time></trkpt><trkpt lat="44.3345411" lon="8.508568"><ele>6.0</ele><time>2026-03-22T10:07:18.655Z</time></trkpt><trkpt lat="44.3346154" lon="8.5086834"><ele>6.0</ele><time>2026-03-22T10:07:19.654Z</time></trkpt><trkpt lat="44.3346813" lon="8.5088157"><ele>6.0</ele><time>2026-03-22T10:07:20.653Z</time></trkpt><trkpt lat="44.334733" lon="8.5089682"><ele>6.25</ele><time>2026-03-22T10:07:21.653Z</time></trkpt><trkpt lat="44.3347671" lon="8.5091351"><ele>6.5</ele><time>2026-03-22T10:07:22.655Z</time></trkpt><trkpt lat="44.3347827" lon="8.5093087"><ele>6.75</ele><time>2026-03-22T10:07:23.654Z</time></trkpt><trkpt lat="44.3347843" lon="8.5094938"><ele>7.0</ele><time>2026-03-22T10:07:24.653Z</time></trkpt><trkpt lat="44.334778" lon="8.5096881"><ele>7.666666666666667</ele><time>2026-03-22T10:07:25.653Z</time></trkpt><trkpt lat="44.3347723" lon="8.5098923"><ele>8.333333333333334</ele><time>2026-03-22T10:07:26.653Z</time></trkpt><trkpt lat="44.3347772" lon="8.5101176"><ele>9.0</ele><time>2026-03-22T10:07:27.653Z</time></trkpt><trkpt lat="44.3347939" lon="8.5103688"><ele>9.0</ele><time>2026-03-22T10:07:28.654Z</time></trkpt><trkpt lat="44.3348207" lon="8.5106476"><ele>9.0</ele><time>2026-03-22T10:07:29.654Z</time></trkpt><trkpt lat="44.3348533" lon="8.510943"><ele>9.0</ele><time>2026-03-22T10:07:30.654Z</time></trkpt><trkpt lat="44.3348881" lon="8.5112428"><ele>9.333333333333334</ele><time>2026-03-22T10:07:31.655Z</time></trkpt><trkpt lat="44.3349226" lon="8.5115464"><ele>9.666666666666668</ele><time>2026-03-22T10:07:32.655Z</time></trkpt><trkpt lat="44.3349605" lon="8.5118458"><ele>10.0</ele><time>2026-03-22T10:07:33.654Z</time></trkpt><trkpt lat="44.3350032" lon="8.5121485"><ele>10.0</ele><time>2026-03-22T10:07:34.654Z</time></trkpt><trkpt lat="44.3350479" lon="8.5124463"><ele>10.0</ele><time>2026-03-22T10:07:35.654Z</time></trkpt><trkpt lat="44.3350908" lon="8.5127441"><ele>10.0</ele><time>2026-03-22T10:07:36.654Z</time></trkpt><trkpt lat="44.3351371" lon="8.5130425"><ele>10.0</ele><time>2026-03-22T10:07:37.653Z</time></trkpt><trkpt lat="44.3351824" lon="8.5133402"><ele>10.0</ele><time>2026-03-22T10:07:38.653Z</time></trkpt><trkpt lat="44.3352291" lon="8.5136456"><ele>10.0</ele><time>2026-03-22T10:07:39.653Z</time></trkpt><trkpt lat="44.3352797" lon="8.5139559"><ele>10.5</ele><time>2026-03-22T10:07:40.654Z</time></trkpt><trkpt lat="44.3353288" lon="8.514271"><ele>11.0</ele><time>2026-03-22T10:07:41.654Z</time></trkpt><trkpt lat="44.3353828" lon="8.5145934"><ele>11.5</ele><time>2026-03-22T10:07:42.653Z</time></trkpt><trkpt lat="44.3354381" lon="8.5149225"><ele>12.0</ele><time>2026-03-22T10:07:43.653Z</time></trkpt><trkpt lat="44.3354925" lon="8.5152541"><ele>11.5</ele><time>2026-03-22T10:07:44.655Z</time></trkpt><trkpt lat="44.3355504" lon="8.5155923"><ele>11.0</ele><time>2026-03-22T10:07:45.655Z</time></trkpt><trkpt lat="44.3356097" lon="8.5159354"><ele>13.5</ele><time>2026-03-22T10:07:46.653Z</time></trkpt><trkpt lat="44.3356709" lon="8.5162809"><ele>16.0</ele><time>2026-03-22T10:07:47.653Z</time></trkpt><trkpt lat="44.3357304" lon="8.5166276"><ele>16.0</ele><time>2026-03-22T10:07:48.655Z</time></trkpt><trkpt lat="44.3357883" lon="8.5169735"><ele>16.0</ele><time>2026-03-22T10:07:49.653Z</time></trkpt><trkpt lat="44.3358464" lon="8.5173194"><ele>24.5</ele><time>2026-03-22T10:07:50.654Z</time></trkpt><trkpt lat="44.3359025" lon="8.5176705"><ele>33.0</ele><time>2026-03-22T10:07:51.653Z</time></trkpt><trkpt lat="44.3359589" lon="8.5180136"><ele>32.0</ele><time>2026-03-22T10:07:52.655Z</time></trkpt><trkpt lat="44.3363178" lon="8.5235686"><ele>31.5</ele><time>2026-03-22T10:08:09.654Z</time></trkpt><trkpt lat="44.3362311" lon="8.5239077"><ele>31.0</ele><time>2026-03-22T10:08:10.653Z</time></trkpt><trkpt lat="44.3361291" lon="8.5242359"><ele>31.0</ele><time>2026-03-22T10:08:11.654Z</time></trkpt><trkpt lat="44.3360176" lon="8.5245553"><ele>31.0</ele><time>2026-03-22T10:08:12.654Z</time></trkpt><trkpt lat="44.335896" lon="8.5248735"><ele>36.0</ele><time>2026-03-22T10:08:13.653Z</time></trkpt><trkpt lat="44.3357694" lon="8.5251843"><ele>41.0</ele><time>2026-03-22T10:08:14.654Z</time></trkpt><trkpt lat="44.3356391" lon="8.5254942"><ele>44.0</ele><time>2026-03-22T10:08:15.654Z</time></trkpt><trkpt lat="44.3355133" lon="8.5257974"><ele>47.0</ele><time>2026-03-22T10:08:16.654Z</time></trkpt><trkpt lat="44.3353894" lon="8.5261"><ele>47.5</ele><time>2026-03-22T10:08:17.654Z</time></trkpt><trkpt lat="44.3352794" lon="8.5263658"><ele>48.0</ele><time>2026-03-22T10:08:18.654Z</time></trkpt><trkpt lat="44.3351669" lon="8.5266598"><ele>48.0</ele><time>2026-03-22T10:08:19.654Z</time></trkpt><trkpt lat="44.3351015" lon="8.5269672"><ele>48.0</ele><time>2026-03-22T10:08:20.653Z</time></trkpt><trkpt lat="44.3350336" lon="8.527291"><ele>46.5</ele><time>2026-03-22T10:08:21.654Z</time></trkpt><trkpt lat="44.3349883" lon="8.5276094"><ele>45.0</ele><time>2026-03-22T10:08:22.653Z</time></trkpt><trkpt lat="44.3349558" lon="8.5279361"><ele>42.0</ele><time>2026-03-22T10:08:23.654Z</time></trkpt><trkpt lat="44.3349428" lon="8.528261"><ele>39.0</ele><time>2026-03-22T10:08:24.654Z</time></trkpt><trkpt lat="44.3349512" lon="8.5285812"><ele>45.5</ele><time>2026-03-22T10:08:25.654Z</time></trkpt><trkpt lat="44.3349792" lon="8.5288972"><ele>52.0</ele><time>2026-03-22T10:08:26.653Z</time></trkpt><trkpt lat="44.3350218" lon="8.5292177"><ele>52.0</ele><time>2026-03-22T10:08:27.653Z</time></trkpt><trkpt lat="44.3350785" lon="8.5295309"><ele>52.0</ele><time>2026-03-22T10:08:28.654Z</time></trkpt><trkpt lat="44.3351438" lon="8.5298399"><ele>43.0</ele><time>2026-03-22T10:08:29.655Z</time></trkpt><trkpt lat="44.3356117" lon="8.5317076"><ele>43.0</ele><time>2026-03-22T10:08:35.654Z</time></trkpt><trkpt lat="44.3357301" lon="8.5319713"><ele>43.0</ele><time>2026-03-22T10:08:36.653Z</time></trkpt><trkpt lat="44.3358655" lon="8.5322255"><ele>43.0</ele><time>2026-03-22T10:08:37.653Z</time></trkpt><trkpt lat="44.3360191" lon="8.5324654"><ele>38.0</ele><time>2026-03-22T10:08:38.655Z</time></trkpt><trkpt lat="44.3361863" lon="8.5326881"><ele>33.0</ele><time>2026-03-22T10:08:39.654Z</time></trkpt><trkpt lat="44.3363714" lon="8.5328981"><ele>42.5</ele><time>2026-03-22T10:08:40.653Z</time></trkpt><trkpt lat="44.3365661" lon="8.53309"><ele>52.0</ele><time>2026-03-22T10:08:41.654Z</time></trkpt><trkpt lat="44.3367691" lon="8.5332713"><ele>52.0</ele><time>2026-03-22T10:08:42.653Z</time></trkpt><trkpt lat="44.3369726" lon="8.5334497"><ele>52.0</ele><time>2026-03-22T10:08:43.654Z</time></trkpt><trkpt lat="44.3371799" lon="8.5336303"><ele>44.0</ele><time>2026-03-22T10:08:44.654Z</time></trkpt><trkpt lat="44.3373874" lon="8.5338155"><ele>36.0</ele><time>2026-03-22T10:08:45.653Z</time></trkpt><trkpt lat="44.3376196" lon="8.5340607"><ele>36.0</ele><time>2026-03-22T10:08:46.654Z</time></trkpt><trkpt lat="44.3378314" lon="8.5342714"><ele>36.0</ele><time>2026-03-22T10:08:47.653Z</time></trkpt><trkpt lat="44.3380484" lon="8.5344717"><ele>30.0</ele><time>2026-03-22T10:08:48.653Z</time></trkpt><trkpt lat="44.3382605" lon="8.5346713"><ele>24.0</ele><time>2026-03-22T10:08:49.653Z</time></trkpt><trkpt lat="44.3384765" lon="8.5348683"><ele>24.0</ele><time>2026-03-22T10:08:50.653Z</time></trkpt><trkpt lat="44.3386878" lon="8.5350626"><ele>24.0</ele><time>2026-03-22T10:08:51.655Z</time></trkpt><trkpt lat="44.3388999" lon="8.5352568"><ele>22.0</ele><time>2026-03-22T10:08:52.654Z</time></trkpt><trkpt lat="44.3391103" lon="8.5354541"><ele>20.0</ele><time>2026-03-22T10:08:53.653Z</time></trkpt><trkpt lat="44.3393188" lon="8.5356497"><ele>20.0</ele><time>2026-03-22T10:08:54.654Z</time></trkpt><trkpt lat="44.33953" lon="8.5358447"><ele>20.0</ele><time>2026-03-22T10:08:55.654Z</time></trkpt><trkpt lat="44.3397403" lon="8.5360398"><ele>37.0</ele><time>2026-03-22T10:08:56.654Z</time></trkpt><trkpt lat="44.3399527" lon="8.5362343"><ele>54.0</ele><time>2026-03-22T10:08:57.654Z</time></trkpt><trkpt lat="44.3401638" lon="8.5364307"><ele>54.0</ele><time>2026-03-22T10:08:58.653Z</time></trkpt><trkpt lat="44.3403682" lon="8.5366224"><ele>54.0</ele><time>2026-03-22T10:08:59.653Z</time></trkpt><trkpt lat="44.3405737" lon="8.5368143"><ele>50.5</ele><time>2026-03-22T10:09:00.653Z</time></trkpt><trkpt lat="44.3407795" lon="8.5370053"><ele>47.0</ele><time>2026-03-22T10:09:01.654Z</time></trkpt><trkpt lat="44.3419426" lon="8.5380774"><ele>47.0</ele><time>2026-03-22T10:09:06.653Z</time></trkpt><trkpt lat="44.342156" lon="8.5382781"><ele>47.0</ele><time>2026-03-22T10:09:07.654Z</time></trkpt><trkpt lat="44.3423682" lon="8.5384686"><ele>57.5</ele><time>2026-03-22T10:09:08.654Z</time></trkpt><trkpt lat="44.3425851" lon="8.5386681"><ele>68.0</ele><time>2026-03-22T10:09:09.654Z</time></trkpt><trkpt lat="44.3428017" lon="8.5388703"><ele>68.0</ele><time>2026-03-22T10:09:10.654Z</time></trkpt><trkpt lat="44.3430153" lon="8.5390727"><ele>68.0</ele><time>2026-03-22T10:09:11.653Z</time></trkpt><trkpt lat="44.3432328" lon="8.5392759"><ele>64.0</ele><time>2026-03-22T10:09:12.653Z</time></trkpt><trkpt lat="44.3434535" lon="8.5394879"><ele>60.0</ele><time>2026-03-22T10:09:13.654Z</time></trkpt><trkpt lat="44.3436756" lon="8.539711"><ele>44.0</ele><time>2026-03-22T10:09:14.653Z</time></trkpt><trkpt lat="44.3439088" lon="8.5399294"><ele>28.0</ele><time>2026-03-22T10:09:15.655Z</time></trkpt><trkpt lat="44.3441442" lon="8.5401532"><ele>28.0</ele><time>2026-03-22T10:09:16.654Z</time></trkpt><trkpt lat="44.3443816" lon="8.5403741"><ele>28.0</ele><time>2026-03-22T10:09:17.654Z</time></trkpt><trkpt lat="44.3446136" lon="8.5405916"><ele>38.0</ele><time>2026-03-22T10:09:18.653Z</time></trkpt><trkpt lat="44.3448389" lon="8.5408049"><ele>48.0</ele><time>2026-03-22T10:09:19.654Z</time></trkpt><trkpt lat="44.3450616" lon="8.5410098"><ele>48.0</ele><time>2026-03-22T10:09:20.653Z</time></trkpt><trkpt lat="44.3452827" lon="8.5412114"><ele>48.0</ele><time>2026-03-22T10:09:21.654Z</time></trkpt><trkpt lat="44.3455039" lon="8.5414203"><ele>50.5</ele><time>2026-03-22T10:09:22.654Z</time></trkpt><trkpt lat="44.3457275" lon="8.541629"><ele>53.0</ele><time>2026-03-22T10:09:23.654Z</time></trkpt><trkpt lat="44.345961" lon="8.5418497"><ele>41.0</ele><time>2026-03-22T10:09:24.655Z</time></trkpt><trkpt lat="44.3461882" lon="8.542058"><ele>29.0</ele><time>2026-03-22T10:09:25.655Z</time></trkpt><trkpt lat="44.3464083" lon="8.5422557"><ele>26.5</ele><time>2026-03-22T10:09:26.654Z</time></trkpt><trkpt lat="44.3466193" lon="8.5424555"><ele>24.0</ele><time>2026-03-22T10:09:27.653Z</time></trkpt><trkpt lat="44.3468194" lon="8.5426516"><ele>24.0</ele><time>2026-03-22T10:09:28.654Z</time></trkpt><trkpt lat="44.3470041" lon="8.5428505"><ele>24.0</ele><time>2026-03-22T10:09:29.654Z</time></trkpt><trkpt lat="44.3471732" lon="8.5430653"><ele>24.0</ele><time>2026-03-22T10:09:30.654Z</time></trkpt><trkpt lat="44.3473223" lon="8.5432934"><ele>24.0</ele><time>2026-03-22T10:09:31.654Z</time></trkpt><trkpt lat="44.3474503" lon="8.5435412"><ele>24.0</ele><time>2026-03-22T10:09:32.653Z</time></trkpt><trkpt lat="44.3475594" lon="8.5438027"><ele>24.0</ele><time>2026-03-22T10:09:33.653Z</time></trkpt><trkpt lat="44.3476498" lon="8.5440804"><ele>24.0</ele><time>2026-03-22T10:09:34.654Z</time></trkpt><trkpt lat="44.347722" lon="8.5443672"><ele>24.0</ele><time>2026-03-22T10:09:35.654Z</time></trkpt><trkpt lat="44.3477727" lon="8.54467"><ele>30.5</ele><time>2026-03-22T10:09:36.654Z</time></trkpt><trkpt lat="44.3478045" lon="8.5449821"><ele>37.0</ele><time>2026-03-22T10:09:37.654Z</time></trkpt><trkpt lat="44.3478168" lon="8.5453047"><ele>45.5</ele><time>2026-03-22T10:09:38.653Z</time></trkpt><trkpt lat="44.3478193" lon="8.5456387"><ele>54.0</ele><time>2026-03-22T10:09:39.654Z</time></trkpt><trkpt lat="44.3478245" lon="8.5459767"><ele>59.5</ele><time>2026-03-22T10:09:40.653Z</time></trkpt><trkpt lat="44.3478218" lon="8.5463213"><ele>65.0</ele><time>2026-03-22T10:09:41.654Z</time></trkpt><trkpt lat="44.3478156" lon="8.5466826"><ele>58.5</ele><time>2026-03-22T10:09:42.655Z</time></trkpt><trkpt lat="44.3478151" lon="8.5470517"><ele>52.0</ele><time>2026-03-22T10:09:43.653Z</time></trkpt><trkpt lat="44.347833" lon="8.5474397"><ele>52.0</ele><time>2026-03-22T10:09:44.653Z</time></trkpt><trkpt lat="44.347841" lon="8.5478392"><ele>52.0</ele><time>2026-03-22T10:09:45.654Z</time></trkpt><trkpt lat="44.3478491" lon="8.5482672"><ele>49.0</ele><time>2026-03-22T10:09:46.653Z</time></trkpt><trkpt lat="44.3478535" lon="8.5486978"><ele>46.0</ele><time>2026-03-22T10:09:47.653Z</time></trkpt><trkpt lat="44.3478567" lon="8.5491067"><ele>46.0</ele><time>2026-03-22T10:09:48.653Z</time></trkpt><trkpt lat="44.3478593" lon="8.5495137"><ele>46.0</ele><time>2026-03-22T10:09:49.654Z</time></trkpt><trkpt lat="44.3478623" lon="8.5499306"><ele>41.5</ele><time>2026-03-22T10:09:50.654Z</time></trkpt><trkpt lat="44.3478693" lon="8.550376"><ele>37.0</ele><time>2026-03-22T10:09:51.655Z</time></trkpt><trkpt lat="44.3478733" lon="8.5508135"><ele>31.5</ele><time>2026-03-22T10:09:52.654Z</time></trkpt><trkpt lat="44.3478751" lon="8.5512262"><ele>26.0</ele><time>2026-03-22T10:09:53.654Z</time></trkpt><trkpt lat="44.3478784" lon="8.5516223"><ele>26.0</ele><time>2026-03-22T10:09:54.655Z</time></trkpt><trkpt lat="44.3478813" lon="8.5520125"><ele>26.0</ele><time>2026-03-22T10:09:55.654Z</time></trkpt><trkpt lat="44.3478859" lon="8.5524026"><ele>29.0</ele><time>2026-03-22T10:09:56.655Z</time></trkpt><trkpt lat="44.3478895" lon="8.5527951"><ele>32.0</ele><time>2026-03-22T10:09:57.654Z</time></trkpt><trkpt lat="44.3478955" lon="8.5531826"><ele>32.0</ele><time>2026-03-22T10:09:58.654Z</time></trkpt><trkpt lat="44.3478992" lon="8.5535574"><ele>32.0</ele><time>2026-03-22T10:09:59.653Z</time></trkpt><trkpt lat="44.3479007" lon="8.5539125"><ele>35.5</ele><time>2026-03-22T10:10:00.654Z</time></trkpt><trkpt lat="44.3479032" lon="8.5542494"><ele>39.0</ele><time>2026-03-22T10:10:01.654Z</time></trkpt><trkpt lat="44.347913" lon="8.5545734"><ele>46.5</ele><time>2026-03-22T10:10:02.654Z</time></trkpt><trkpt lat="44.3479361" lon="8.5548914"><ele>54.0</ele><time>2026-03-22T10:10:03.653Z</time></trkpt><trkpt lat="44.3479756" lon="8.5552069"><ele>55.5</ele><time>2026-03-22T10:10:04.654Z</time></trkpt><trkpt lat="44.3480268" lon="8.555516"><ele>57.0</ele><time>2026-03-22T10:10:05.653Z</time></trkpt><trkpt lat="44.3480941" lon="8.5558254"><ele>56.0</ele><time>2026-03-22T10:10:06.654Z</time></trkpt><trkpt lat="44.3482026" lon="8.5561184"><ele>55.0</ele><time>2026-03-22T10:10:07.655Z</time></trkpt><trkpt lat="44.3483136" lon="8.5563941"><ele>55.0</ele><time>2026-03-22T10:10:08.654Z</time></trkpt><trkpt lat="44.348455" lon="8.5566596"><ele>55.0</ele><time>2026-03-22T10:10:09.655Z</time></trkpt><trkpt lat="44.3486057" lon="8.556908"><ele>56.5</ele><time>2026-03-22T10:10:10.654Z</time></trkpt><trkpt lat="44.348769" lon="8.5571332"><ele>58.0</ele><time>2026-03-22T10:10:11.654Z</time></trkpt><trkpt lat="44.3489467" lon="8.5573413"><ele>58.0</ele><time>2026-03-22T10:10:12.654Z</time></trkpt><trkpt lat="44.34913" lon="8.5575255"><ele>58.0</ele><time>2026-03-22T10:10:13.655Z</time></trkpt><trkpt lat="44.3493228" lon="8.5576895"><ele>58.0</ele><time>2026-03-22T10:10:14.654Z</time></trkpt><trkpt lat="44.3495255" lon="8.5578347"><ele>58.0</ele><time>2026-03-22T10:10:15.654Z</time></trkpt><trkpt lat="44.3497334" lon="8.5579658"><ele>61.5</ele><time>2026-03-22T10:10:16.654Z</time></trkpt><trkpt lat="44.3499426" lon="8.5581008"><ele>65.0</ele><time>2026-03-22T10:10:17.653Z</time></trkpt><trkpt lat="44.3501491" lon="8.5582294"><ele>65.0</ele><time>2026-03-22T10:10:18.654Z</time></trkpt><trkpt lat="44.3503514" lon="8.5583563"><ele>65.0</ele><time>2026-03-22T10:10:19.655Z</time></trkpt><trkpt lat="44.3505515" lon="8.5584826"><ele>65.0</ele><time>2026-03-22T10:10:20.654Z</time></trkpt><trkpt lat="44.3507505" lon="8.5586068"><ele>61.66666666666667</ele><time>2026-03-22T10:10:21.654Z</time></trkpt><trkpt lat="44.350956" lon="8.5587332"><ele>58.33333333333333</ele><time>2026-03-22T10:10:22.654Z</time></trkpt><trkpt lat="44.3511549" lon="8.5588591"><ele>55.0</ele><time>2026-03-22T10:10:23.653Z</time></trkpt><trkpt lat="44.3513558" lon="8.5589815"><ele>53.33333333333333</ele><time>2026-03-22T10:10:24.653Z</time></trkpt><trkpt lat="44.3515541" lon="8.5591039"><ele>51.66666666666667</ele><time>2026-03-22T10:10:25.653Z</time></trkpt><trkpt lat="44.3517549" lon="8.559224"><ele>50.0</ele><time>2026-03-22T10:10:26.654Z</time></trkpt><trkpt lat="44.3519553" lon="8.5593456"><ele>50.0</ele><time>2026-03-22T10:10:27.653Z</time></trkpt><trkpt lat="44.3521519" lon="8.5594675"><ele>50.0</ele><time>2026-03-22T10:10:28.653Z</time></trkpt><trkpt lat="44.3523485" lon="8.5595843"><ele>50.0</ele><time>2026-03-22T10:10:29.654Z</time></trkpt><trkpt lat="44.3525431" lon="8.5597"><ele>49.66666666666667</ele><time>2026-03-22T10:10:30.654Z</time></trkpt><trkpt lat="44.3527367" lon="8.5598173"><ele>49.33333333333333</ele><time>2026-03-22T10:10:31.654Z</time></trkpt><trkpt lat="44.3529306" lon="8.5599428"><ele>49.0</ele><time>2026-03-22T10:10:32.653Z</time></trkpt><trkpt lat="44.353124" lon="8.560076"><ele>50.0</ele><time>2026-03-22T10:10:33.654Z</time></trkpt><trkpt lat="44.3533139" lon="8.5602171"><ele>51.0</ele><time>2026-03-22T10:10:34.653Z</time></trkpt><trkpt lat="44.353499" lon="8.5603669"><ele>52.0</ele><time>2026-03-22T10:10:35.655Z</time></trkpt><trkpt lat="44.3536848" lon="8.5605177"><ele>53.0</ele><time>2026-03-22T10:10:36.655Z</time></trkpt><trkpt lat="44.353872" lon="8.5606714"><ele>54.0</ele><time>2026-03-22T10:10:37.654Z</time></trkpt><trkpt lat="44.354064" lon="8.5608254"><ele>55.0</ele><time>2026-03-22T10:10:38.655Z</time></trkpt><trkpt lat="44.3542559" lon="8.5609777"><ele>55.0</ele><time>2026-03-22T10:10:39.655Z</time></trkpt><trkpt lat="44.3544522" lon="8.5611373"><ele>55.0</ele><time>2026-03-22T10:10:40.654Z</time></trkpt><trkpt lat="44.3546525" lon="8.5612982"><ele>51.0</ele><time>2026-03-22T10:10:41.654Z</time></trkpt><trkpt lat="44.3548518" lon="8.5614605"><ele>47.0</ele><time>2026-03-22T10:10:42.654Z</time></trkpt><trkpt lat="44.3550512" lon="8.5616261"><ele>47.0</ele><time>2026-03-22T10:10:43.655Z</time></trkpt><trkpt lat="44.3552493" lon="8.5617881"><ele>47.0</ele><time>2026-03-22T10:10:44.655Z</time></trkpt><trkpt lat="44.35545" lon="8.5619486"><ele>46.5</ele><time>2026-03-22T10:10:45.654Z</time></trkpt><trkpt lat="44.355647" lon="8.5621066"><ele>46.0</ele><time>2026-03-22T10:10:46.653Z</time></trkpt><trkpt lat="44.3558406" lon="8.5622636"><ele>46.0</ele><time>2026-03-22T10:10:47.654Z</time></trkpt><trkpt lat="44.3560279" lon="8.5624178"><ele>46.0</ele><time>2026-03-22T10:10:48.653Z</time></trkpt><trkpt lat="44.3562191" lon="8.5625723"><ele>46.0</ele><time>2026-03-22T10:10:49.654Z</time></trkpt><trkpt lat="44.3564093" lon="8.5627239"><ele>40.0</ele><time>2026-03-22T10:10:50.654Z</time></trkpt><trkpt lat="44.3565952" lon="8.562875"><ele>34.0</ele><time>2026-03-22T10:10:51.654Z</time></trkpt><trkpt lat="44.3567837" lon="8.5630289"><ele>28.0</ele><time>2026-03-22T10:10:52.653Z</time></trkpt><trkpt lat="44.3569723" lon="8.5631833"><ele>28.0</ele><time>2026-03-22T10:10:53.654Z</time></trkpt><trkpt lat="44.3571593" lon="8.5633357"><ele>28.0</ele><time>2026-03-22T10:10:54.654Z</time></trkpt><trkpt lat="44.3573474" lon="8.5634869"><ele>28.0</ele><time>2026-03-22T10:10:55.655Z</time></trkpt><trkpt lat="44.3575368" lon="8.5636369"><ele>31.333333333333336</ele><time>2026-03-22T10:10:56.653Z</time></trkpt><trkpt lat="44.3577274" lon="8.5637898"><ele>34.666666666666664</ele><time>2026-03-22T10:10:57.653Z</time></trkpt><trkpt lat="44.3579212" lon="8.5639506"><ele>38.0</ele><time>2026-03-22T10:10:58.655Z</time></trkpt><trkpt lat="44.358117" lon="8.5641085"><ele>38.5</ele><time>2026-03-22T10:10:59.654Z</time></trkpt><trkpt lat="44.3583124" lon="8.5642682"><ele>39.0</ele><time>2026-03-22T10:11:00.654Z</time></trkpt><trkpt lat="44.3585048" lon="8.5644266"><ele>40.0</ele><time>2026-03-22T10:11:01.654Z</time></trkpt><trkpt lat="44.3586982" lon="8.5645826"><ele>41.0</ele><time>2026-03-22T10:11:02.654Z</time></trkpt><trkpt lat="44.358892" lon="8.5647423"><ele>42.0</ele><time>2026-03-22T10:11:03.654Z</time></trkpt><trkpt lat="44.3590817" lon="8.5649097"><ele>46.5</ele><time>2026-03-22T10:11:04.654Z</time></trkpt><trkpt lat="44.3592603" lon="8.565082"><ele>51.0</ele><time>2026-03-22T10:11:05.654Z</time></trkpt><trkpt lat="44.3594561" lon="8.5653134"><ele>47.666666666666664</ele><time>2026-03-22T10:11:06.654Z</time></trkpt><trkpt lat="44.3596176" lon="8.5655291"><ele>44.33333333333333</ele><time>2026-03-22T10:11:07.654Z</time></trkpt><trkpt lat="44.3597747" lon="8.5657516"><ele>41.0</ele><time>2026-03-22T10:11:08.653Z</time></trkpt><trkpt lat="44.3599264" lon="8.5659895"><ele>44.0</ele><time>2026-03-22T10:11:09.654Z</time></trkpt><trkpt lat="44.3600709" lon="8.5662416"><ele>47.0</ele><time>2026-03-22T10:11:10.653Z</time></trkpt><trkpt lat="44.3602099" lon="8.5664974"><ele>47.0</ele><time>2026-03-22T10:11:11.653Z</time></trkpt><trkpt lat="44.3603432" lon="8.5667616"><ele>47.0</ele><time>2026-03-22T10:11:12.654Z</time></trkpt><trkpt lat="44.3604747" lon="8.5670236"><ele>39.0</ele><time>2026-03-22T10:11:13.653Z</time></trkpt><trkpt lat="44.3627883" lon="8.5713689"><ele>39.0</ele><time>2026-03-22T10:11:30.655Z</time></trkpt><trkpt lat="44.3629344" lon="8.5716251"><ele>39.0</ele><time>2026-03-22T10:11:31.655Z</time></trkpt><trkpt lat="44.3630681" lon="8.571881"><ele>38.5</ele><time>2026-03-22T10:11:32.654Z</time></trkpt><trkpt lat="44.3632076" lon="8.5721313"><ele>38.0</ele><time>2026-03-22T10:11:33.654Z</time></trkpt><trkpt lat="44.363337" lon="8.5723876"><ele>38.0</ele><time>2026-03-22T10:11:34.655Z</time></trkpt><trkpt lat="44.3634672" lon="8.5726359"><ele>38.0</ele><time>2026-03-22T10:11:35.654Z</time></trkpt><trkpt lat="44.3635913" lon="8.572874"><ele>38.0</ele><time>2026-03-22T10:11:36.654Z</time></trkpt><trkpt lat="44.3637071" lon="8.5731106"><ele>34.33333333333333</ele><time>2026-03-22T10:11:37.654Z</time></trkpt><trkpt lat="44.3638062" lon="8.5733592"><ele>30.666666666666664</ele><time>2026-03-22T10:11:38.655Z</time></trkpt><trkpt lat="44.3638849" lon="8.5736169"><ele>27.0</ele><time>2026-03-22T10:11:39.653Z</time></trkpt><trkpt lat="44.3639483" lon="8.5738855"><ele>24.0</ele><time>2026-03-22T10:11:40.655Z</time></trkpt><trkpt lat="44.3639902" lon="8.5741616"><ele>21.0</ele><time>2026-03-22T10:11:41.653Z</time></trkpt><trkpt lat="44.3640063" lon="8.5744433"><ele>18.0</ele><time>2026-03-22T10:11:42.654Z</time></trkpt><trkpt lat="44.3640006" lon="8.5747325"><ele>17.666666666666668</ele><time>2026-03-22T10:11:43.653Z</time></trkpt><trkpt lat="44.3639762" lon="8.5750227"><ele>17.333333333333336</ele><time>2026-03-22T10:11:44.653Z</time></trkpt><trkpt lat="44.3639438" lon="8.5753194"><ele>17.0</ele><time>2026-03-22T10:11:45.653Z</time></trkpt><trkpt lat="44.3639068" lon="8.575624"><ele>20.5</ele><time>2026-03-22T10:11:46.655Z</time></trkpt><trkpt lat="44.3638708" lon="8.5759364"><ele>24.0</ele><time>2026-03-22T10:11:47.653Z</time></trkpt><trkpt lat="44.3638356" lon="8.5762488"><ele>24.0</ele><time>2026-03-22T10:11:48.654Z</time></trkpt><trkpt lat="44.363802" lon="8.576563"><ele>24.0</ele><time>2026-03-22T10:11:49.653Z</time></trkpt><trkpt lat="44.363764" lon="8.5768743"><ele>26.333333333333336</ele><time>2026-03-22T10:11:50.653Z</time></trkpt><trkpt lat="44.3637298" lon="8.5771831"><ele>28.666666666666668</ele><time>2026-03-22T10:11:51.654Z</time></trkpt><trkpt lat="44.3636958" lon="8.5774926"><ele>31.0</ele><time>2026-03-22T10:11:52.653Z</time></trkpt><trkpt lat="44.3636642" lon="8.5777987"><ele>31.0</ele><time>2026-03-22T10:11:53.653Z</time></trkpt><trkpt lat="44.363633" lon="8.5781061"><ele>31.0</ele><time>2026-03-22T10:11:54.655Z</time></trkpt><trkpt lat="44.3636018" lon="8.5784123"><ele>31.0</ele><time>2026-03-22T10:11:55.653Z</time></trkpt><trkpt lat="44.3635678" lon="8.5787158"><ele>32.0</ele><time>2026-03-22T10:11:56.653Z</time></trkpt><trkpt lat="44.3635332" lon="8.5790205"><ele>33.0</ele><time>2026-03-22T10:11:57.653Z</time></trkpt><trkpt lat="44.3635003" lon="8.579325"><ele>34.0</ele><time>2026-03-22T10:11:58.654Z</time></trkpt><trkpt lat="44.363465" lon="8.5796283"><ele>34.0</ele><time>2026-03-22T10:11:59.654Z</time></trkpt><trkpt lat="44.3634314" lon="8.5799268"><ele>34.0</ele><time>2026-03-22T10:12:00.654Z</time></trkpt><trkpt lat="44.3633989" lon="8.5802251"><ele>34.0</ele><time>2026-03-22T10:12:01.654Z</time></trkpt><trkpt lat="44.363368" lon="8.5805207"><ele>41.333333333333336</ele><time>2026-03-22T10:12:02.654Z</time></trkpt><trkpt lat="44.3633395" lon="8.5808124"><ele>48.66666666666667</ele><time>2026-03-22T10:12:03.654Z</time></trkpt><trkpt lat="44.3633185" lon="8.5811076"><ele>56.0</ele><time>2026-03-22T10:12:04.654Z</time></trkpt><trkpt lat="44.363312" lon="8.5814043"><ele>56.66666666666667</ele><time>2026-03-22T10:12:05.654Z</time></trkpt><trkpt lat="44.36332" lon="8.5817022"><ele>57.33333333333333</ele><time>2026-03-22T10:12:06.654Z</time></trkpt><trkpt lat="44.3633438" lon="8.5820043"><ele>58.0</ele><time>2026-03-22T10:12:07.654Z</time></trkpt><trkpt lat="44.3633835" lon="8.5823022"><ele>58.0</ele><time>2026-03-22T10:12:08.653Z</time></trkpt><trkpt lat="44.363435" lon="8.5825935"><ele>58.0</ele><time>2026-03-22T10:12:09.653Z</time></trkpt><trkpt lat="44.3634941" lon="8.5828778"><ele>58.0</ele><time>2026-03-22T10:12:10.655Z</time></trkpt><trkpt lat="44.3635574" lon="8.5831567"><ele>58.0</ele><time>2026-03-22T10:12:11.654Z</time></trkpt><trkpt lat="44.3636176" lon="8.5834347"><ele>58.0</ele><time>2026-03-22T10:12:12.654Z</time></trkpt><trkpt lat="44.3636648" lon="8.5837008"><ele>58.0</ele><time>2026-03-22T10:12:13.653Z</time></trkpt><trkpt lat="44.3636809" lon="8.5839737"><ele>58.0</ele><time>2026-03-22T10:12:14.654Z</time></trkpt><trkpt lat="44.3636763" lon="8.5842453"><ele>58.0</ele><time>2026-03-22T10:12:15.654Z</time></trkpt><trkpt lat="44.3636523" lon="8.5845122"><ele>58.0</ele><time>2026-03-22T10:12:16.654Z</time></trkpt><trkpt lat="44.3636096" lon="8.5847779"><ele>58.33333333333333</ele><time>2026-03-22T10:12:17.655Z</time></trkpt><trkpt lat="44.3635512" lon="8.5850352"><ele>58.66666666666667</ele><time>2026-03-22T10:12:18.653Z</time></trkpt><trkpt lat="44.3634722" lon="8.5852831"><ele>59.0</ele><time>2026-03-22T10:12:19.654Z</time></trkpt><trkpt lat="44.3633809" lon="8.5855231"><ele>59.0</ele><time>2026-03-22T10:12:20.655Z</time></trkpt><trkpt lat="44.3632811" lon="8.5857616"><ele>59.0</ele><time>2026-03-22T10:12:21.654Z</time></trkpt><trkpt lat="44.3631826" lon="8.5860028"><ele>59.0</ele><time>2026-03-22T10:12:22.654Z</time></trkpt><trkpt lat="44.3630889" lon="8.5862511"><ele>56.333333333333336</ele><time>2026-03-22T10:12:23.654Z</time></trkpt><trkpt lat="44.3630005" lon="8.5865036"><ele>53.66666666666667</ele><time>2026-03-22T10:12:24.654Z</time></trkpt><trkpt lat="44.3629179" lon="8.5867595"><ele>51.0</ele><time>2026-03-22T10:12:25.654Z</time></trkpt><trkpt lat="44.3628463" lon="8.58703"><ele>51.0</ele><time>2026-03-22T10:12:26.655Z</time></trkpt><trkpt lat="44.3627889" lon="8.5873043"><ele>51.0</ele><time>2026-03-22T10:12:27.654Z</time></trkpt><trkpt lat="44.3627549" lon="8.5875961"><ele>51.0</ele><time>2026-03-22T10:12:28.653Z</time></trkpt><trkpt lat="44.3627196" lon="8.5878881"><ele>47.0</ele><time>2026-03-22T10:12:29.653Z</time></trkpt><trkpt lat="44.3626848" lon="8.588177"><ele>43.0</ele><time>2026-03-22T10:12:30.655Z</time></trkpt><trkpt lat="44.3626482" lon="8.5884651"><ele>39.0</ele><time>2026-03-22T10:12:31.653Z</time></trkpt><trkpt lat="44.3626079" lon="8.5887483"><ele>37.333333333333336</ele><time>2026-03-22T10:12:32.653Z</time></trkpt><trkpt lat="44.3625709" lon="8.5890284"><ele>35.66666666666667</ele><time>2026-03-22T10:12:33.653Z</time></trkpt><trkpt lat="44.3625336" lon="8.5893019"><ele>34.0</ele><time>2026-03-22T10:12:34.654Z</time></trkpt><trkpt lat="44.3624972" lon="8.5895681"><ele>37.66666666666667</ele><time>2026-03-22T10:12:35.653Z</time></trkpt><trkpt lat="44.3624604" lon="8.5898348"><ele>41.333333333333336</ele><time>2026-03-22T10:12:36.654Z</time></trkpt><trkpt lat="44.3624274" lon="8.5900979"><ele>45.0</ele><time>2026-03-22T10:12:37.655Z</time></trkpt><trkpt lat="44.3623955" lon="8.5903534"><ele>53.0</ele><time>2026-03-22T10:12:38.653Z</time></trkpt><trkpt lat="44.3623633" lon="8.5906043"><ele>61.0</ele><time>2026-03-22T10:12:39.653Z</time></trkpt><trkpt lat="44.3623372" lon="8.5908583"><ele>69.0</ele><time>2026-03-22T10:12:40.654Z</time></trkpt><trkpt lat="44.3623271" lon="8.5911134"><ele>71.0</ele><time>2026-03-22T10:12:41.654Z</time></trkpt><trkpt lat="44.3623286" lon="8.5913733"><ele>73.0</ele><time>2026-03-22T10:12:42.653Z</time></trkpt><trkpt lat="44.3623478" lon="8.591637"><ele>75.0</ele><time>2026-03-22T10:12:43.653Z</time></trkpt><trkpt lat="44.3623785" lon="8.5919005"><ele>74.66666666666667</ele><time>2026-03-22T10:12:44.654Z</time></trkpt><trkpt lat="44.3624294" lon="8.5921638"><ele>74.33333333333334</ele><time>2026-03-22T10:12:45.654Z</time></trkpt><trkpt lat="44.3624966" lon="8.5924314"><ele>74.0</ele><time>2026-03-22T10:12:46.654Z</time></trkpt><trkpt lat="44.3625764" lon="8.5927024"><ele>73.5</ele><time>2026-03-22T10:12:47.655Z</time></trkpt><trkpt lat="44.3626715" lon="8.5929765"><ele>73.0</ele><time>2026-03-22T10:12:48.654Z</time></trkpt><trkpt lat="44.3627872" lon="8.5932584"><ele>73.0</ele><time>2026-03-22T10:12:49.654Z</time></trkpt><trkpt lat="44.3629278" lon="8.5935523"><ele>73.0</ele><time>2026-03-22T10:12:50.654Z</time></trkpt><trkpt lat="44.3630835" lon="8.5938527"><ele>75.5</ele><time>2026-03-22T10:12:51.653Z</time></trkpt><trkpt lat="44.363274" lon="8.594174"><ele>78.0</ele><time>2026-03-22T10:12:52.654Z</time></trkpt><trkpt lat="44.3634554" lon="8.5944803"><ele>75.0</ele><time>2026-03-22T10:12:53.654Z</time></trkpt><trkpt lat="44.3636267" lon="8.5947707"><ele>72.0</ele><time>2026-03-22T10:12:54.653Z</time></trkpt><trkpt lat="44.3637915" lon="8.5950509"><ele>75.0</ele><time>2026-03-22T10:12:55.654Z</time></trkpt><trkpt lat="44.3639544" lon="8.5953334"><ele>78.0</ele><time>2026-03-22T10:12:56.654Z</time></trkpt><trkpt lat="44.3641191" lon="8.5956258"><ele>78.0</ele><time>2026-03-22T10:12:57.654Z</time></trkpt><trkpt lat="44.3642888" lon="8.5959214"><ele>78.0</ele><time>2026-03-22T10:12:58.654Z</time></trkpt><trkpt lat="44.3644623" lon="8.5962218"><ele>75.5</ele><time>2026-03-22T10:12:59.653Z</time></trkpt><trkpt lat="44.3646405" lon="8.5965284"><ele>73.0</ele><time>2026-03-22T10:13:00.654Z</time></trkpt><trkpt lat="44.3648178" lon="8.5968284"><ele>76.5</ele><time>2026-03-22T10:13:01.654Z</time></trkpt><trkpt lat="44.364994" lon="8.5971229"><ele>80.0</ele><time>2026-03-22T10:13:02.654Z</time></trkpt><trkpt lat="44.3651655" lon="8.5974136"><ele>80.0</ele><time>2026-03-22T10:13:03.653Z</time></trkpt><trkpt lat="44.3653347" lon="8.5977021"><ele>80.0</ele><time>2026-03-22T10:13:04.653Z</time></trkpt><trkpt lat="44.3655019" lon="8.5979891"><ele>83.5</ele><time>2026-03-22T10:13:05.655Z</time></trkpt><trkpt lat="44.3656665" lon="8.5982727"><ele>87.0</ele><time>2026-03-22T10:13:06.654Z</time></trkpt><trkpt lat="44.3658236" lon="8.5985586"><ele>84.0</ele><time>2026-03-22T10:13:07.654Z</time></trkpt><trkpt lat="44.3659703" lon="8.5988492"><ele>81.0</ele><time>2026-03-22T10:13:08.654Z</time></trkpt><trkpt lat="44.3661054" lon="8.5991471"><ele>81.0</ele><time>2026-03-22T10:13:09.653Z</time></trkpt><trkpt lat="44.366231" lon="8.5994517"><ele>81.0</ele><time>2026-03-22T10:13:10.654Z</time></trkpt><trkpt lat="44.3663469" lon="8.5997666"><ele>85.0</ele><time>2026-03-22T10:13:11.654Z</time></trkpt><trkpt lat="44.3664501" lon="8.6000948"><ele>89.0</ele><time>2026-03-22T10:13:12.653Z</time></trkpt><trkpt lat="44.3665427" lon="8.6004328"><ele>89.0</ele><time>2026-03-22T10:13:13.653Z</time></trkpt><trkpt lat="44.3666275" lon="8.6007785"><ele>89.0</ele><time>2026-03-22T10:13:14.654Z</time></trkpt><trkpt lat="44.3667162" lon="8.6011334"><ele>87.5</ele><time>2026-03-22T10:13:15.654Z</time></trkpt><trkpt lat="44.3668178" lon="8.6014925"><ele>86.0</ele><time>2026-03-22T10:13:16.654Z</time></trkpt><trkpt lat="44.366933" lon="8.6018515"><ele>85.5</ele><time>2026-03-22T10:13:17.653Z</time></trkpt><trkpt lat="44.3670583" lon="8.6022051"><ele>85.0</ele><time>2026-03-22T10:13:18.655Z</time></trkpt><trkpt lat="44.3672021" lon="8.6025714"><ele>86.0</ele><time>2026-03-22T10:13:19.653Z</time></trkpt><trkpt lat="44.3673564" lon="8.6029266"><ele>87.0</ele><time>2026-03-22T10:13:20.653Z</time></trkpt><trkpt lat="44.367511" lon="8.603276"><ele>87.0</ele><time>2026-03-22T10:13:21.654Z</time></trkpt><trkpt lat="44.3676701" lon="8.6036271"><ele>87.0</ele><time>2026-03-22T10:13:22.653Z</time></trkpt><trkpt lat="44.3678239" lon="8.6039667"><ele>87.5</ele><time>2026-03-22T10:13:23.654Z</time></trkpt><trkpt lat="44.3679735" lon="8.6042972"><ele>88.0</ele><time>2026-03-22T10:13:24.654Z</time></trkpt><trkpt lat="44.3681155" lon="8.6046177"><ele>88.0</ele><time>2026-03-22T10:13:25.654Z</time></trkpt><trkpt lat="44.3682492" lon="8.6049355"><ele>88.0</ele><time>2026-03-22T10:13:26.653Z</time></trkpt><trkpt lat="44.3683771" lon="8.605262"><ele>85.5</ele><time>2026-03-22T10:13:27.653Z</time></trkpt><trkpt lat="44.3684979" lon="8.6055925"><ele>83.0</ele><time>2026-03-22T10:13:28.654Z</time></trkpt><trkpt lat="44.3686082" lon="8.6059291"><ele>79.5</ele><time>2026-03-22T10:13:29.654Z</time></trkpt><trkpt lat="44.3687066" lon="8.6062743"><ele>76.0</ele><time>2026-03-22T10:13:30.654Z</time></trkpt><trkpt lat="44.3687965" lon="8.6066297"><ele>83.0</ele><time>2026-03-22T10:13:31.655Z</time></trkpt><trkpt lat="44.3688808" lon="8.6069936"><ele>90.0</ele><time>2026-03-22T10:13:32.654Z</time></trkpt><trkpt lat="44.3689567" lon="8.6073697"><ele>90.0</ele><time>2026-03-22T10:13:33.653Z</time></trkpt><trkpt lat="44.3690225" lon="8.6077471"><ele>90.0</ele><time>2026-03-22T10:13:34.654Z</time></trkpt><trkpt lat="44.369078" lon="8.6081274"><ele>87.5</ele><time>2026-03-22T10:13:35.654Z</time></trkpt><trkpt lat="44.3691221" lon="8.6085088"><ele>85.0</ele><time>2026-03-22T10:13:36.655Z</time></trkpt><trkpt lat="44.3691576" lon="8.6088859"><ele>84.0</ele><time>2026-03-22T10:13:37.654Z</time></trkpt><trkpt lat="44.369187" lon="8.6092598"><ele>83.0</ele><time>2026-03-22T10:13:38.654Z</time></trkpt><trkpt lat="44.3692163" lon="8.6096299"><ele>82.5</ele><time>2026-03-22T10:13:39.654Z</time></trkpt><trkpt lat="44.3692469" lon="8.6099948"><ele>82.0</ele><time>2026-03-22T10:13:40.653Z</time></trkpt><trkpt lat="44.3692787" lon="8.6103618"><ele>81.0</ele><time>2026-03-22T10:13:41.654Z</time></trkpt><trkpt lat="44.3693099" lon="8.6107196"><ele>80.0</ele><time>2026-03-22T10:13:42.654Z</time></trkpt><trkpt lat="44.369339" lon="8.6110748"><ele>79.5</ele><time>2026-03-22T10:13:43.654Z</time></trkpt><trkpt lat="44.3693718" lon="8.6114245"><ele>79.0</ele><time>2026-03-22T10:13:44.653Z</time></trkpt><trkpt lat="44.3694216" lon="8.6117692"><ele>77.0</ele><time>2026-03-22T10:13:45.654Z</time></trkpt><trkpt lat="44.3694905" lon="8.6121087"><ele>75.0</ele><time>2026-03-22T10:13:46.653Z</time></trkpt><trkpt lat="44.3695745" lon="8.6124395"><ele>75.0</ele><time>2026-03-22T10:13:47.654Z</time></trkpt><trkpt lat="44.3696733" lon="8.6127557"><ele>75.0</ele><time>2026-03-22T10:13:48.653Z</time></trkpt><trkpt lat="44.3697872" lon="8.6130587"><ele>79.5</ele><time>2026-03-22T10:13:49.653Z</time></trkpt><trkpt lat="44.3699172" lon="8.6133517"><ele>84.0</ele><time>2026-03-22T10:13:50.654Z</time></trkpt><trkpt lat="44.3700643" lon="8.613636"><ele>80.0</ele><time>2026-03-22T10:13:51.655Z</time></trkpt><trkpt lat="44.3702246" lon="8.613913"><ele>76.0</ele><time>2026-03-22T10:13:52.654Z</time></trkpt><trkpt lat="44.370389" lon="8.6141802"><ele>77.0</ele><time>2026-03-22T10:13:53.653Z</time></trkpt><trkpt lat="44.3705542" lon="8.6144429"><ele>78.0</ele><time>2026-03-22T10:13:54.653Z</time></trkpt><trkpt lat="44.3707152" lon="8.6146974"><ele>78.0</ele><time>2026-03-22T10:13:55.653Z</time></trkpt><trkpt lat="44.3708719" lon="8.6149549"><ele>78.0</ele><time>2026-03-22T10:13:56.653Z</time></trkpt><trkpt lat="44.3710243" lon="8.6152198"><ele>75.5</ele><time>2026-03-22T10:13:57.654Z</time></trkpt><trkpt lat="44.3711651" lon="8.6155026"><ele>73.0</ele><time>2026-03-22T10:13:58.654Z</time></trkpt><trkpt lat="44.3712903" lon="8.6158014"><ele>76.0</ele><time>2026-03-22T10:13:59.655Z</time></trkpt><trkpt lat="44.3714006" lon="8.616116"><ele>79.0</ele><time>2026-03-22T10:14:00.654Z</time></trkpt><trkpt lat="44.3715023" lon="8.6164373"><ele>79.0</ele><time>2026-03-22T10:14:01.653Z</time></trkpt><trkpt lat="44.3716026" lon="8.6167609"><ele>79.0</ele><time>2026-03-22T10:14:02.653Z</time></trkpt><trkpt lat="44.3717014" lon="8.6170836"><ele>77.5</ele><time>2026-03-22T10:14:03.654Z</time></trkpt><trkpt lat="44.3717982" lon="8.6174028"><ele>76.0</ele><time>2026-03-22T10:14:04.653Z</time></trkpt><trkpt lat="44.3718979" lon="8.6177232"><ele>73.0</ele><time>2026-03-22T10:14:05.655Z</time></trkpt><trkpt lat="44.3720063" lon="8.618033"><ele>70.0</ele><time>2026-03-22T10:14:06.654Z</time></trkpt><trkpt lat="44.3721253" lon="8.6183297"><ele>73.5</ele><time>2026-03-22T10:14:07.653Z</time></trkpt><trkpt lat="44.3722635" lon="8.6186115"><ele>77.0</ele><time>2026-03-22T10:14:08.653Z</time></trkpt><trkpt lat="44.3724149" lon="8.6188835"><ele>77.0</ele><time>2026-03-22T10:14:09.654Z</time></trkpt><trkpt lat="44.3725829" lon="8.6191439"><ele>77.0</ele><time>2026-03-22T10:14:10.654Z</time></trkpt><trkpt lat="44.3727622" lon="8.6193979"><ele>76.5</ele><time>2026-03-22T10:14:11.654Z</time></trkpt><trkpt lat="44.3729464" lon="8.6196505"><ele>76.0</ele><time>2026-03-22T10:14:12.653Z</time></trkpt><trkpt lat="44.3731342" lon="8.6199039"><ele>76.0</ele><time>2026-03-22T10:14:13.653Z</time></trkpt><trkpt lat="44.3733212" lon="8.6201562"><ele>76.0</ele><time>2026-03-22T10:14:14.654Z</time></trkpt><trkpt lat="44.3735068" lon="8.6204096"><ele>74.5</ele><time>2026-03-22T10:14:15.654Z</time></trkpt><trkpt lat="44.3736914" lon="8.6206581"><ele>73.0</ele><time>2026-03-22T10:14:16.655Z</time></trkpt><trkpt lat="44.3738731" lon="8.6209045"><ele>74.5</ele><time>2026-03-22T10:14:17.653Z</time></trkpt><trkpt lat="44.374056" lon="8.6211519"><ele>76.0</ele><time>2026-03-22T10:14:18.653Z</time></trkpt><trkpt lat="44.3742425" lon="8.6214047"><ele>76.0</ele><time>2026-03-22T10:14:19.653Z</time></trkpt><trkpt lat="44.3744357" lon="8.6216625"><ele>76.0</ele><time>2026-03-22T10:14:20.654Z</time></trkpt><trkpt lat="44.3746352" lon="8.6219262"><ele>73.0</ele><time>2026-03-22T10:14:21.654Z</time></trkpt><trkpt lat="44.374834" lon="8.6221854"><ele>70.0</ele><time>2026-03-22T10:14:22.653Z</time></trkpt><trkpt lat="44.3750316" lon="8.622443"><ele>70.0</ele><time>2026-03-22T10:14:23.654Z</time></trkpt><trkpt lat="44.3752247" lon="8.6227057"><ele>70.0</ele><time>2026-03-22T10:14:24.655Z</time></trkpt><trkpt lat="44.3754158" lon="8.6229609"><ele>56.5</ele><time>2026-03-22T10:14:25.653Z</time></trkpt><trkpt lat="44.3756017" lon="8.6232135"><ele>43.0</ele><time>2026-03-22T10:14:26.654Z</time></trkpt><trkpt lat="44.3757844" lon="8.6234618"><ele>40.5</ele><time>2026-03-22T10:14:27.654Z</time></trkpt><trkpt lat="44.3759647" lon="8.6237077"><ele>38.0</ele><time>2026-03-22T10:14:28.654Z</time></trkpt><trkpt lat="44.3761409" lon="8.6239482"><ele>38.0</ele><time>2026-03-22T10:14:29.654Z</time></trkpt><trkpt lat="44.3763087" lon="8.6241971"><ele>38.0</ele><time>2026-03-22T10:14:30.655Z</time></trkpt><trkpt lat="44.3764609" lon="8.6244575"><ele>55.0</ele><time>2026-03-22T10:14:31.653Z</time></trkpt><trkpt lat="44.3765988" lon="8.6247359"><ele>72.0</ele><time>2026-03-22T10:14:32.654Z</time></trkpt><trkpt lat="44.3767276" lon="8.6250282"><ele>71.5</ele><time>2026-03-22T10:14:33.653Z</time></trkpt><trkpt lat="44.3768488" lon="8.6253263"><ele>71.0</ele><time>2026-03-22T10:14:34.653Z</time></trkpt><trkpt lat="44.3769691" lon="8.625621"><ele>71.0</ele><time>2026-03-22T10:14:35.654Z</time></trkpt><trkpt lat="44.3770871" lon="8.6259163"><ele>71.0</ele><time>2026-03-22T10:14:36.654Z</time></trkpt><trkpt lat="44.3772086" lon="8.6262041"><ele>72.5</ele><time>2026-03-22T10:14:37.654Z</time></trkpt><trkpt lat="44.377325" lon="8.6264864"><ele>74.0</ele><time>2026-03-22T10:14:38.654Z</time></trkpt><trkpt lat="44.3774374" lon="8.6267582"><ele>70.0</ele><time>2026-03-22T10:14:39.653Z</time></trkpt><trkpt lat="44.3775499" lon="8.627018"><ele>66.0</ele><time>2026-03-22T10:14:40.654Z</time></trkpt><trkpt lat="44.3776688" lon="8.6272641"><ele>62.0</ele><time>2026-03-22T10:14:41.654Z</time></trkpt><trkpt lat="44.3778092" lon="8.6274952"><ele>62.0</ele><time>2026-03-22T10:14:42.655Z</time></trkpt><trkpt lat="44.3779672" lon="8.6276988"><ele>62.0</ele><time>2026-03-22T10:14:43.654Z</time></trkpt><trkpt lat="44.3781469" lon="8.6278809"><ele>62.0</ele><time>2026-03-22T10:14:44.653Z</time></trkpt><trkpt lat="44.378349" lon="8.6280432"><ele>56.5</ele><time>2026-03-22T10:14:45.653Z</time></trkpt><trkpt lat="44.3785701" lon="8.6281914"><ele>51.0</ele><time>2026-03-22T10:14:46.653Z</time></trkpt><trkpt lat="44.3787919" lon="8.6283304"><ele>58.0</ele><time>2026-03-22T10:14:47.653Z</time></trkpt><trkpt lat="44.3790067" lon="8.62847"><ele>65.0</ele><time>2026-03-22T10:14:48.655Z</time></trkpt><trkpt lat="44.3792163" lon="8.6286098"><ele>61.0</ele><time>2026-03-22T10:14:49.654Z</time></trkpt><trkpt lat="44.3794191" lon="8.628746"><ele>57.0</ele><time>2026-03-22T10:14:50.654Z</time></trkpt><trkpt lat="44.3796192" lon="8.6288784"><ele>53.0</ele><time>2026-03-22T10:14:51.654Z</time></trkpt><trkpt lat="44.3798152" lon="8.6290127"><ele>53.0</ele><time>2026-03-22T10:14:52.653Z</time></trkpt><trkpt lat="44.3800068" lon="8.6291662"><ele>53.0</ele><time>2026-03-22T10:14:53.653Z</time></trkpt><trkpt lat="44.3801955" lon="8.6293383"><ele>53.0</ele><time>2026-03-22T10:14:54.653Z</time></trkpt><trkpt lat="44.3803779" lon="8.6295271"><ele>50.5</ele><time>2026-03-22T10:14:55.654Z</time></trkpt><trkpt lat="44.3805548" lon="8.6297301"><ele>48.0</ele><time>2026-03-22T10:14:56.654Z</time></trkpt><trkpt lat="44.3807311" lon="8.6299384"><ele>48.0</ele><time>2026-03-22T10:14:57.654Z</time></trkpt><trkpt lat="44.380907" lon="8.6301523"><ele>48.0</ele><time>2026-03-22T10:14:58.654Z</time></trkpt><trkpt lat="44.3810838" lon="8.6303688"><ele>36.5</ele><time>2026-03-22T10:14:59.655Z</time></trkpt><trkpt lat="44.3812592" lon="8.6305835"><ele>25.0</ele><time>2026-03-22T10:15:00.654Z</time></trkpt><trkpt lat="44.3814306" lon="8.6308011"><ele>23.0</ele><time>2026-03-22T10:15:01.653Z</time></trkpt><trkpt lat="44.3816035" lon="8.6310161"><ele>21.0</ele><time>2026-03-22T10:15:02.654Z</time></trkpt><trkpt lat="44.3817806" lon="8.6312312"><ele>21.0</ele><time>2026-03-22T10:15:03.654Z</time></trkpt><trkpt lat="44.3819595" lon="8.6314495"><ele>21.0</ele><time>2026-03-22T10:15:04.653Z</time></trkpt><trkpt lat="44.3821393" lon="8.6316685"><ele>32.0</ele><time>2026-03-22T10:15:05.655Z</time></trkpt><trkpt lat="44.3823238" lon="8.6318893"><ele>43.0</ele><time>2026-03-22T10:15:06.653Z</time></trkpt><trkpt lat="44.3825048" lon="8.6321079"><ele>43.0</ele><time>2026-03-22T10:15:07.654Z</time></trkpt><trkpt lat="44.3826818" lon="8.6323225"><ele>43.0</ele><time>2026-03-22T10:15:08.654Z</time></trkpt><trkpt lat="44.3828682" lon="8.6325488"><ele>40.0</ele><time>2026-03-22T10:15:09.653Z</time></trkpt><trkpt lat="44.3830518" lon="8.6327742"><ele>37.0</ele><time>2026-03-22T10:15:10.653Z</time></trkpt><trkpt lat="44.3832494" lon="8.6330142"><ele>37.0</ele><time>2026-03-22T10:15:11.655Z</time></trkpt><trkpt lat="44.3834517" lon="8.6332322"><ele>37.0</ele><time>2026-03-22T10:15:12.654Z</time></trkpt><trkpt lat="44.3836487" lon="8.633438"><ele>35.5</ele><time>2026-03-22T10:15:13.654Z</time></trkpt><trkpt lat="44.3838468" lon="8.6336192"><ele>34.0</ele><time>2026-03-22T10:15:14.654Z</time></trkpt><trkpt lat="44.3840502" lon="8.6337836"><ele>34.0</ele><time>2026-03-22T10:15:15.653Z</time></trkpt><trkpt lat="44.3842594" lon="8.6339304"><ele>34.0</ele><time>2026-03-22T10:15:16.654Z</time></trkpt><trkpt lat="44.3844701" lon="8.6340669"><ele>34.0</ele><time>2026-03-22T10:15:17.655Z</time></trkpt><trkpt lat="44.3846794" lon="8.6341982"><ele>34.0</ele><time>2026-03-22T10:15:18.653Z</time></trkpt><trkpt lat="44.3848851" lon="8.6343256"><ele>31.5</ele><time>2026-03-22T10:15:19.654Z</time></trkpt><trkpt lat="44.3850949" lon="8.634452"><ele>29.0</ele><time>2026-03-22T10:15:20.653Z</time></trkpt><trkpt lat="44.3853019" lon="8.6345797"><ele>29.0</ele><time>2026-03-22T10:15:21.654Z</time></trkpt><trkpt lat="44.3855107" lon="8.6347088"><ele>29.0</ele><time>2026-03-22T10:15:22.654Z</time></trkpt><trkpt lat="44.3857182" lon="8.6348367"><ele>33.5</ele><time>2026-03-22T10:15:23.655Z</time></trkpt><trkpt lat="44.385928" lon="8.634966"><ele>38.0</ele><time>2026-03-22T10:15:24.653Z</time></trkpt><trkpt lat="44.3861371" lon="8.6350931"><ele>39.0</ele><time>2026-03-22T10:15:25.653Z</time></trkpt><trkpt lat="44.3863476" lon="8.6352232"><ele>40.0</ele><time>2026-03-22T10:15:26.653Z</time></trkpt><trkpt lat="44.3865635" lon="8.6353552"><ele>37.0</ele><time>2026-03-22T10:15:27.653Z</time></trkpt><trkpt lat="44.3867839" lon="8.6354885"><ele>34.0</ele><time>2026-03-22T10:15:28.654Z</time></trkpt><trkpt lat="44.3870087" lon="8.6356251"><ele>40.5</ele><time>2026-03-22T10:15:29.653Z</time></trkpt><trkpt lat="44.3872306" lon="8.6357553"><ele>47.0</ele><time>2026-03-22T10:15:30.653Z</time></trkpt><trkpt lat="44.3874484" lon="8.6358866"><ele>47.0</ele><time>2026-03-22T10:15:31.654Z</time></trkpt><trkpt lat="44.3876654" lon="8.6360216"><ele>47.0</ele><time>2026-03-22T10:15:32.654Z</time></trkpt><trkpt lat="44.3878834" lon="8.636154"><ele>36.0</ele><time>2026-03-22T10:15:33.655Z</time></trkpt><trkpt lat="44.3881059" lon="8.6362913"><ele>25.0</ele><time>2026-03-22T10:15:34.654Z</time></trkpt><trkpt lat="44.3883318" lon="8.6364427"><ele>25.0</ele><time>2026-03-22T10:15:35.653Z</time></trkpt><trkpt lat="44.3885513" lon="8.636604"><ele>25.0</ele><time>2026-03-22T10:15:36.654Z</time></trkpt><trkpt lat="44.3887647" lon="8.6367738"><ele>22.5</ele><time>2026-03-22T10:15:37.654Z</time></trkpt><trkpt lat="44.3889734" lon="8.6369506"><ele>20.0</ele><time>2026-03-22T10:15:38.653Z</time></trkpt><trkpt lat="44.3891818" lon="8.6371253"><ele>20.0</ele><time>2026-03-22T10:15:39.653Z</time></trkpt><trkpt lat="44.3893888" lon="8.6372994"><ele>20.0</ele><time>2026-03-22T10:15:40.653Z</time></trkpt><trkpt lat="44.3895928" lon="8.63748"><ele>38.5</ele><time>2026-03-22T10:15:41.653Z</time></trkpt><trkpt lat="44.3897844" lon="8.6376754"><ele>57.0</ele><time>2026-03-22T10:15:42.654Z</time></trkpt><trkpt lat="44.3899725" lon="8.6378857"><ele>57.0</ele><time>2026-03-22T10:15:43.653Z</time></trkpt><trkpt lat="44.3901403" lon="8.6381035"><ele>57.0</ele><time>2026-03-22T10:15:44.653Z</time></trkpt><trkpt lat="44.3902917" lon="8.638337"><ele>52.0</ele><time>2026-03-22T10:15:45.653Z</time></trkpt><trkpt lat="44.3907369" lon="8.6391084"><ele>52.0</ele><time>2026-03-22T10:15:48.654Z</time></trkpt><trkpt lat="44.390894" lon="8.6393864"><ele>52.0</ele><time>2026-03-22T10:15:49.653Z</time></trkpt><trkpt lat="44.3910621" lon="8.6396648"><ele>49.0</ele><time>2026-03-22T10:15:50.654Z</time></trkpt><trkpt lat="44.3912145" lon="8.639916"><ele>46.0</ele><time>2026-03-22T10:15:51.654Z</time></trkpt><trkpt lat="44.3913682" lon="8.6401677"><ele>43.0</ele><time>2026-03-22T10:15:52.655Z</time></trkpt><trkpt lat="44.3915222" lon="8.6404211"><ele>40.0</ele><time>2026-03-22T10:15:53.654Z</time></trkpt><trkpt lat="44.3916744" lon="8.6406738"><ele>40.0</ele><time>2026-03-22T10:15:54.653Z</time></trkpt><trkpt lat="44.3918207" lon="8.6409101"><ele>40.0</ele><time>2026-03-22T10:15:55.654Z</time></trkpt><trkpt lat="44.3919579" lon="8.6411408"><ele>40.0</ele><time>2026-03-22T10:15:56.653Z</time></trkpt><trkpt lat="44.3920871" lon="8.6413612"><ele>42.0</ele><time>2026-03-22T10:15:57.655Z</time></trkpt><trkpt lat="44.3922066" lon="8.6415867"><ele>44.0</ele><time>2026-03-22T10:15:58.653Z</time></trkpt><trkpt lat="44.3923142" lon="8.6418306"><ele>46.0</ele><time>2026-03-22T10:15:59.654Z</time></trkpt><trkpt lat="44.3923976" lon="8.6420968"><ele>46.0</ele><time>2026-03-22T10:16:00.655Z</time></trkpt><trkpt lat="44.3924502" lon="8.6423747"><ele>46.0</ele><time>2026-03-22T10:16:01.654Z</time></trkpt><trkpt lat="44.3924696" lon="8.6426619"><ele>46.0</ele><time>2026-03-22T10:16:02.653Z</time></trkpt><trkpt lat="44.3924559" lon="8.6429527"><ele>48.0</ele><time>2026-03-22T10:16:03.653Z</time></trkpt><trkpt lat="44.3924112" lon="8.6432381"><ele>50.0</ele><time>2026-03-22T10:16:04.653Z</time></trkpt><trkpt lat="44.3923429" lon="8.6435184"><ele>52.0</ele><time>2026-03-22T10:16:05.654Z</time></trkpt><trkpt lat="44.392263" lon="8.6438077"><ele>53.5</ele><time>2026-03-22T10:16:06.654Z</time></trkpt><trkpt lat="44.3921785" lon="8.6441051"><ele>55.0</ele><time>2026-03-22T10:16:07.654Z</time></trkpt><trkpt lat="44.3920913" lon="8.6444062"><ele>40.5</ele><time>2026-03-22T10:16:08.655Z</time></trkpt><trkpt lat="44.3920098" lon="8.6447133"><ele>26.0</ele><time>2026-03-22T10:16:09.654Z</time></trkpt><trkpt lat="44.3919264" lon="8.6450133"><ele>33.0</ele><time>2026-03-22T10:16:10.654Z</time></trkpt><trkpt lat="44.3918426" lon="8.645309"><ele>40.0</ele><time>2026-03-22T10:16:11.654Z</time></trkpt><trkpt lat="44.3917606" lon="8.6456011"><ele>40.0</ele><time>2026-03-22T10:16:12.654Z</time></trkpt><trkpt lat="44.3916841" lon="8.645898"><ele>40.0</ele><time>2026-03-22T10:16:13.653Z</time></trkpt><trkpt lat="44.3916211" lon="8.646207"><ele>45.0</ele><time>2026-03-22T10:16:14.654Z</time></trkpt><trkpt lat="44.3915767" lon="8.6465332"><ele>50.0</ele><time>2026-03-22T10:16:15.654Z</time></trkpt><trkpt lat="44.3915523" lon="8.6468745"><ele>47.5</ele><time>2026-03-22T10:16:16.653Z</time></trkpt><trkpt lat="44.3915492" lon="8.647204"><ele>45.0</ele><time>2026-03-22T10:16:17.653Z</time></trkpt><trkpt lat="44.3915693" lon="8.6475374"><ele>45.0</ele><time>2026-03-22T10:16:18.653Z</time></trkpt><trkpt lat="44.3916024" lon="8.6478715"><ele>45.0</ele><time>2026-03-22T10:16:19.654Z</time></trkpt><trkpt lat="44.3916455" lon="8.6482011"><ele>45.0</ele><time>2026-03-22T10:16:20.655Z</time></trkpt><trkpt lat="44.3916911" lon="8.6485305"><ele>45.0</ele><time>2026-03-22T10:16:21.654Z</time></trkpt><trkpt lat="44.3917336" lon="8.6488564"><ele>44.5</ele><time>2026-03-22T10:16:22.653Z</time></trkpt><trkpt lat="44.391775" lon="8.6491737"><ele>44.0</ele><time>2026-03-22T10:16:23.654Z</time></trkpt><trkpt lat="44.3918188" lon="8.6494849"><ele>39.5</ele><time>2026-03-22T10:16:24.654Z</time></trkpt><trkpt lat="44.3918629" lon="8.6497961"><ele>35.0</ele><time>2026-03-22T10:16:25.654Z</time></trkpt><trkpt lat="44.3919036" lon="8.6501089"><ele>34.666666666666664</ele><time>2026-03-22T10:16:26.653Z</time></trkpt><trkpt lat="44.3919459" lon="8.650418"><ele>34.333333333333336</ele><time>2026-03-22T10:16:27.654Z</time></trkpt><trkpt lat="44.3919857" lon="8.6507272"><ele>34.0</ele><time>2026-03-22T10:16:28.654Z</time></trkpt><trkpt lat="44.3920254" lon="8.651034"><ele>35.0</ele><time>2026-03-22T10:16:29.653Z</time></trkpt><trkpt lat="44.3920702" lon="8.65134"><ele>36.0</ele><time>2026-03-22T10:16:30.653Z</time></trkpt><trkpt lat="44.3921134" lon="8.6516471"><ele>37.0</ele><time>2026-03-22T10:16:31.654Z</time></trkpt><trkpt lat="44.3921594" lon="8.6519557"><ele>43.66666666666667</ele><time>2026-03-22T10:16:32.655Z</time></trkpt><trkpt lat="44.3921949" lon="8.6522658"><ele>50.333333333333336</ele><time>2026-03-22T10:16:33.654Z</time></trkpt><trkpt lat="44.3922291" lon="8.6525731"><ele>57.0</ele><time>2026-03-22T10:16:34.653Z</time></trkpt><trkpt lat="44.3922619" lon="8.6528847"><ele>57.0</ele><time>2026-03-22T10:16:35.653Z</time></trkpt><trkpt lat="44.3923176" lon="8.6532035"><ele>57.0</ele><time>2026-03-22T10:16:36.654Z</time></trkpt><trkpt lat="44.3923813" lon="8.6535238"><ele>53.5</ele><time>2026-03-22T10:16:37.654Z</time></trkpt><trkpt lat="44.3924463" lon="8.6538456"><ele>50.0</ele><time>2026-03-22T10:16:38.654Z</time></trkpt><trkpt lat="44.3925241" lon="8.6541542"><ele>47.0</ele><time>2026-03-22T10:16:39.655Z</time></trkpt><trkpt lat="44.3926192" lon="8.6544552"><ele>44.0</ele><time>2026-03-22T10:16:40.654Z</time></trkpt><trkpt lat="44.3927291" lon="8.6547476"><ele>44.0</ele><time>2026-03-22T10:16:41.653Z</time></trkpt><trkpt lat="44.3928457" lon="8.6550333"><ele>44.0</ele><time>2026-03-22T10:16:42.653Z</time></trkpt><trkpt lat="44.39297" lon="8.655311"><ele>49.0</ele><time>2026-03-22T10:16:43.654Z</time></trkpt><trkpt lat="44.3931072" lon="8.6555784"><ele>54.0</ele><time>2026-03-22T10:16:44.654Z</time></trkpt><trkpt lat="44.3932548" lon="8.6558327"><ele>54.0</ele><time>2026-03-22T10:16:45.654Z</time></trkpt><trkpt lat="44.393413" lon="8.656074"><ele>54.0</ele><time>2026-03-22T10:16:46.653Z</time></trkpt><trkpt lat="44.3935811" lon="8.6563083"><ele>60.5</ele><time>2026-03-22T10:16:47.654Z</time></trkpt><trkpt lat="44.3937567" lon="8.656541"><ele>67.0</ele><time>2026-03-22T10:16:48.653Z</time></trkpt><trkpt lat="44.3939339" lon="8.6567705"><ele>62.0</ele><time>2026-03-22T10:16:49.654Z</time></trkpt><trkpt lat="44.394113" lon="8.6569996"><ele>57.0</ele><time>2026-03-22T10:16:50.654Z</time></trkpt><trkpt lat="44.3961042" lon="8.6597247"><ele>57.0</ele><time>2026-03-22T10:17:01.654Z</time></trkpt><trkpt lat="44.3962741" lon="8.6599669"><ele>57.0</ele><time>2026-03-22T10:17:02.653Z</time></trkpt><trkpt lat="44.3964466" lon="8.6602121"><ele>42.5</ele><time>2026-03-22T10:17:03.655Z</time></trkpt><trkpt lat="44.3966191" lon="8.6604592"><ele>28.0</ele><time>2026-03-22T10:17:04.655Z</time></trkpt><trkpt lat="44.3967933" lon="8.6607049"><ele>28.0</ele><time>2026-03-22T10:17:05.655Z</time></trkpt><trkpt lat="44.3969654" lon="8.6609422"><ele>28.0</ele><time>2026-03-22T10:17:06.654Z</time></trkpt><trkpt lat="44.3971412" lon="8.6611827"><ele>32.0</ele><time>2026-03-22T10:17:07.654Z</time></trkpt><trkpt lat="44.3973209" lon="8.6614248"><ele>36.0</ele><time>2026-03-22T10:17:08.655Z</time></trkpt><trkpt lat="44.3975007" lon="8.6616685"><ele>36.0</ele><time>2026-03-22T10:17:09.654Z</time></trkpt><trkpt lat="44.3976764" lon="8.6619144"><ele>36.0</ele><time>2026-03-22T10:17:10.653Z</time></trkpt><trkpt lat="44.3978538" lon="8.6621546"><ele>50.0</ele><time>2026-03-22T10:17:11.653Z</time></trkpt><trkpt lat="44.3980309" lon="8.6623933"><ele>64.0</ele><time>2026-03-22T10:17:12.655Z</time></trkpt><trkpt lat="44.3982031" lon="8.6626278"><ele>68.5</ele><time>2026-03-22T10:17:13.655Z</time></trkpt><trkpt lat="44.3983741" lon="8.6628622"><ele>73.0</ele><time>2026-03-22T10:17:14.654Z</time></trkpt><trkpt lat="44.3985483" lon="8.6631006"><ele>73.0</ele><time>2026-03-22T10:17:15.654Z</time></trkpt><trkpt lat="44.3987208" lon="8.6633419"><ele>73.0</ele><time>2026-03-22T10:17:16.653Z</time></trkpt><trkpt lat="44.3989013" lon="8.6635954"><ele>65.0</ele><time>2026-03-22T10:17:17.654Z</time></trkpt><trkpt lat="44.3999585" lon="8.6650272"><ele>64.0</ele><time>2026-03-22T10:17:23.655Z</time></trkpt><trkpt lat="44.400133" lon="8.665282"><ele>63.0</ele><time>2026-03-22T10:17:24.653Z</time></trkpt><trkpt lat="44.4003138" lon="8.6655345"><ele>63.0</ele><time>2026-03-22T10:17:25.654Z</time></trkpt><trkpt lat="44.4004936" lon="8.6657787"><ele>63.0</ele><time>2026-03-22T10:17:26.654Z</time></trkpt><trkpt lat="44.4006736" lon="8.6660253"><ele>61.0</ele><time>2026-03-22T10:17:27.654Z</time></trkpt><trkpt lat="44.4008547" lon="8.6662705"><ele>59.0</ele><time>2026-03-22T10:17:28.655Z</time></trkpt><trkpt lat="44.4010337" lon="8.6665124"><ele>59.0</ele><time>2026-03-22T10:17:29.655Z</time></trkpt><trkpt lat="44.4012123" lon="8.666753"><ele>59.0</ele><time>2026-03-22T10:17:30.653Z</time></trkpt><trkpt lat="44.4013906" lon="8.6669943"><ele>60.0</ele><time>2026-03-22T10:17:31.653Z</time></trkpt><trkpt lat="44.4015709" lon="8.6672386"><ele>61.0</ele><time>2026-03-22T10:17:32.654Z</time></trkpt><trkpt lat="44.4017561" lon="8.6674862"><ele>61.0</ele><time>2026-03-22T10:17:33.654Z</time></trkpt><trkpt lat="44.4019433" lon="8.6677345"><ele>61.0</ele><time>2026-03-22T10:17:34.655Z</time></trkpt><trkpt lat="44.402127" lon="8.6679794"><ele>60.5</ele><time>2026-03-22T10:17:35.653Z</time></trkpt><trkpt lat="44.4023073" lon="8.6682281"><ele>60.0</ele><time>2026-03-22T10:17:36.654Z</time></trkpt><trkpt lat="44.4024863" lon="8.6684784"><ele>58.0</ele><time>2026-03-22T10:17:37.655Z</time></trkpt><trkpt lat="44.4026618" lon="8.6687309"><ele>56.0</ele><time>2026-03-22T10:17:38.654Z</time></trkpt><trkpt lat="44.4028324" lon="8.6689928"><ele>58.5</ele><time>2026-03-22T10:17:39.654Z</time></trkpt><trkpt lat="44.4029998" lon="8.669269"><ele>61.0</ele><time>2026-03-22T10:17:40.654Z</time></trkpt><trkpt lat="44.4031588" lon="8.6695547"><ele>61.0</ele><time>2026-03-22T10:17:41.655Z</time></trkpt><trkpt lat="44.4033157" lon="8.6698476"><ele>61.0</ele><time>2026-03-22T10:17:42.654Z</time></trkpt><trkpt lat="44.4034667" lon="8.6701483"><ele>57.5</ele><time>2026-03-22T10:17:43.654Z</time></trkpt><trkpt lat="44.403613" lon="8.6704799"><ele>54.0</ele><time>2026-03-22T10:17:44.653Z</time></trkpt><trkpt lat="44.4037537" lon="8.6708271"><ele>52.5</ele><time>2026-03-22T10:17:45.654Z</time></trkpt><trkpt lat="44.4038857" lon="8.6711688"><ele>51.0</ele><time>2026-03-22T10:17:46.654Z</time></trkpt><trkpt lat="44.4040154" lon="8.671513"><ele>51.0</ele><time>2026-03-22T10:17:47.654Z</time></trkpt><trkpt lat="44.4041442" lon="8.6718643"><ele>51.0</ele><time>2026-03-22T10:17:48.654Z</time></trkpt><trkpt lat="44.4042709" lon="8.672209"><ele>52.0</ele><time>2026-03-22T10:17:49.654Z</time></trkpt><trkpt lat="44.4043955" lon="8.672548"><ele>53.0</ele><time>2026-03-22T10:17:50.654Z</time></trkpt><trkpt lat="44.4045223" lon="8.6728789"><ele>53.0</ele><time>2026-03-22T10:17:51.654Z</time></trkpt><trkpt lat="44.4046523" lon="8.6732129"><ele>53.0</ele><time>2026-03-22T10:17:52.654Z</time></trkpt><trkpt lat="44.4047926" lon="8.6735439"><ele>52.5</ele><time>2026-03-22T10:17:53.654Z</time></trkpt><trkpt lat="44.4049363" lon="8.6738736"><ele>52.0</ele><time>2026-03-22T10:17:54.653Z</time></trkpt><trkpt lat="44.4050822" lon="8.6742005"><ele>51.0</ele><time>2026-03-22T10:17:55.653Z</time></trkpt><trkpt lat="44.4052307" lon="8.6745202"><ele>50.0</ele><time>2026-03-22T10:17:56.655Z</time></trkpt><trkpt lat="44.4053834" lon="8.674842"><ele>56.0</ele><time>2026-03-22T10:17:57.654Z</time></trkpt><trkpt lat="44.4055447" lon="8.6751796"><ele>62.0</ele><time>2026-03-22T10:17:58.654Z</time></trkpt><trkpt lat="44.4057041" lon="8.6755049"><ele>62.0</ele><time>2026-03-22T10:17:59.654Z</time></trkpt><trkpt lat="44.4058629" lon="8.6758179"><ele>62.0</ele><time>2026-03-22T10:18:00.654Z</time></trkpt><trkpt lat="44.4060198" lon="8.6761263"><ele>56.0</ele><time>2026-03-22T10:18:01.654Z</time></trkpt><trkpt lat="44.4061722" lon="8.6764358"><ele>50.0</ele><time>2026-03-22T10:18:02.654Z</time></trkpt><trkpt lat="44.4063218" lon="8.676737"><ele>53.0</ele><time>2026-03-22T10:18:03.654Z</time></trkpt><trkpt lat="44.4064649" lon="8.6770347"><ele>56.0</ele><time>2026-03-22T10:18:04.653Z</time></trkpt><trkpt lat="44.4066014" lon="8.6773359"><ele>56.0</ele><time>2026-03-22T10:18:05.654Z</time></trkpt><trkpt lat="44.4067298" lon="8.677642"><ele>56.0</ele><time>2026-03-22T10:18:06.655Z</time></trkpt><trkpt lat="44.4068549" lon="8.6779528"><ele>52.5</ele><time>2026-03-22T10:18:07.654Z</time></trkpt><trkpt lat="44.4069776" lon="8.6782663"><ele>49.0</ele><time>2026-03-22T10:18:08.653Z</time></trkpt><trkpt lat="44.407101" lon="8.6785832"><ele>68.0</ele><time>2026-03-22T10:18:09.655Z</time></trkpt><trkpt lat="44.4072239" lon="8.6789033"><ele>87.0</ele><time>2026-03-22T10:18:10.654Z</time></trkpt><trkpt lat="44.407349" lon="8.6792338"><ele>85.5</ele><time>2026-03-22T10:18:11.653Z</time></trkpt><trkpt lat="44.4074765" lon="8.6795581"><ele>84.0</ele><time>2026-03-22T10:18:12.653Z</time></trkpt><trkpt lat="44.4079834" lon="8.6807968"><ele>83.0</ele><time>2026-03-22T10:18:16.655Z</time></trkpt><trkpt lat="44.4080844" lon="8.6810742"><ele>82.0</ele><time>2026-03-22T10:18:17.654Z</time></trkpt><trkpt lat="44.408233" lon="8.6814382"><ele>78.0</ele><time>2026-03-22T10:18:18.654Z</time></trkpt><trkpt lat="44.4083446" lon="8.681765"><ele>74.0</ele><time>2026-03-22T10:18:19.654Z</time></trkpt><trkpt lat="44.4084399" lon="8.6821022"><ele>68.5</ele><time>2026-03-22T10:18:20.653Z</time></trkpt><trkpt lat="44.4085221" lon="8.6824468"><ele>63.0</ele><time>2026-03-22T10:18:21.653Z</time></trkpt><trkpt lat="44.4085956" lon="8.6827975"><ele>57.0</ele><time>2026-03-22T10:18:22.654Z</time></trkpt><trkpt lat="44.4086649" lon="8.683149"><ele>51.0</ele><time>2026-03-22T10:18:23.654Z</time></trkpt><trkpt lat="44.408736" lon="8.6834976"><ele>45.0</ele><time>2026-03-22T10:18:24.655Z</time></trkpt><trkpt lat="44.4088075" lon="8.6838401"><ele>39.0</ele><time>2026-03-22T10:18:25.653Z</time></trkpt><trkpt lat="44.4088792" lon="8.6841784"><ele>52.5</ele><time>2026-03-22T10:18:26.653Z</time></trkpt><trkpt lat="44.4089491" lon="8.6845146"><ele>66.0</ele><time>2026-03-22T10:18:27.653Z</time></trkpt><trkpt lat="44.409018" lon="8.6848465"><ele>66.0</ele><time>2026-03-22T10:18:28.653Z</time></trkpt><trkpt lat="44.4090896" lon="8.6851717"><ele>66.0</ele><time>2026-03-22T10:18:29.655Z</time></trkpt><trkpt lat="44.4091604" lon="8.6854915"><ele>70.5</ele><time>2026-03-22T10:18:30.655Z</time></trkpt><trkpt lat="44.409227" lon="8.6858043"><ele>75.0</ele><time>2026-03-22T10:18:31.654Z</time></trkpt><trkpt lat="44.4092927" lon="8.6861163"><ele>75.0</ele><time>2026-03-22T10:18:32.654Z</time></trkpt><trkpt lat="44.4093606" lon="8.6864308"><ele>75.0</ele><time>2026-03-22T10:18:33.655Z</time></trkpt><trkpt lat="44.4094285" lon="8.6867464"><ele>71.0</ele><time>2026-03-22T10:18:34.655Z</time></trkpt><trkpt lat="44.4095054" lon="8.6870698"><ele>67.0</ele><time>2026-03-22T10:18:35.653Z</time></trkpt><trkpt lat="44.409591" lon="8.6874144"><ele>76.5</ele><time>2026-03-22T10:18:36.654Z</time></trkpt><trkpt lat="44.4096785" lon="8.6877711"><ele>86.0</ele><time>2026-03-22T10:18:37.654Z</time></trkpt><trkpt lat="44.4097597" lon="8.6881316"><ele>86.0</ele><time>2026-03-22T10:18:38.653Z</time></trkpt><trkpt lat="44.4098407" lon="8.6885017"><ele>86.0</ele><time>2026-03-22T10:18:39.653Z</time></trkpt><trkpt lat="44.4099198" lon="8.6888681"><ele>81.5</ele><time>2026-03-22T10:18:40.655Z</time></trkpt><trkpt lat="44.4099958" lon="8.6892273"><ele>77.0</ele><time>2026-03-22T10:18:41.654Z</time></trkpt><trkpt lat="44.4100666" lon="8.689585"><ele>75.5</ele><time>2026-03-22T10:18:42.654Z</time></trkpt><trkpt lat="44.410132" lon="8.6899358"><ele>74.0</ele><time>2026-03-22T10:18:43.654Z</time></trkpt><trkpt lat="44.4101944" lon="8.6902864"><ele>73.5</ele><time>2026-03-22T10:18:44.653Z</time></trkpt><trkpt lat="44.4102591" lon="8.6906306"><ele>73.0</ele><time>2026-03-22T10:18:45.654Z</time></trkpt><trkpt lat="44.4103252" lon="8.6909708"><ele>81.5</ele><time>2026-03-22T10:18:46.654Z</time></trkpt><trkpt lat="44.4103924" lon="8.6913096"><ele>90.0</ele><time>2026-03-22T10:18:47.654Z</time></trkpt><trkpt lat="44.4104618" lon="8.6916464"><ele>98.0</ele><time>2026-03-22T10:18:48.654Z</time></trkpt><trkpt lat="44.4105276" lon="8.6919843"><ele>106.0</ele><time>2026-03-22T10:18:49.654Z</time></trkpt><trkpt lat="44.410599" lon="8.6923199"><ele>106.0</ele><time>2026-03-22T10:18:50.653Z</time></trkpt><trkpt lat="44.4106741" lon="8.6926534"><ele>106.0</ele><time>2026-03-22T10:18:51.653Z</time></trkpt><trkpt lat="44.4110159" lon="8.6940487"><ele>97.5</ele><time>2026-03-22T10:18:55.654Z</time></trkpt><trkpt lat="44.4110957" lon="8.694347"><ele>89.0</ele><time>2026-03-22T10:18:56.653Z</time></trkpt><trkpt lat="44.4111778" lon="8.6946665"><ele>85.5</ele><time>2026-03-22T10:18:57.654Z</time></trkpt><trkpt lat="44.411261" lon="8.6949871"><ele>82.0</ele><time>2026-03-22T10:18:58.654Z</time></trkpt><trkpt lat="44.4113435" lon="8.6953122"><ele>90.5</ele><time>2026-03-22T10:18:59.655Z</time></trkpt><trkpt lat="44.4114249" lon="8.6956339"><ele>99.0</ele><time>2026-03-22T10:19:00.655Z</time></trkpt><trkpt lat="44.4115046" lon="8.6959652"><ele>94.0</ele><time>2026-03-22T10:19:01.654Z</time></trkpt><trkpt lat="44.4115832" lon="8.6962969"><ele>89.0</ele><time>2026-03-22T10:19:02.655Z</time></trkpt><trkpt lat="44.4116644" lon="8.6966296"><ele>88.0</ele><time>2026-03-22T10:19:03.653Z</time></trkpt><trkpt lat="44.4117505" lon="8.6969634"><ele>87.0</ele><time>2026-03-22T10:19:04.654Z</time></trkpt><trkpt lat="44.4118375" lon="8.6972937"><ele>87.0</ele><time>2026-03-22T10:19:05.653Z</time></trkpt><trkpt lat="44.4119204" lon="8.6976239"><ele>87.0</ele><time>2026-03-22T10:19:06.654Z</time></trkpt><trkpt lat="44.4120011" lon="8.6979517"><ele>87.0</ele><time>2026-03-22T10:19:07.654Z</time></trkpt><trkpt lat="44.4120826" lon="8.698275"><ele>87.0</ele><time>2026-03-22T10:19:08.653Z</time></trkpt><trkpt lat="44.4121642" lon="8.6985942"><ele>92.5</ele><time>2026-03-22T10:19:09.654Z</time></trkpt><trkpt lat="44.412246" lon="8.6989125"><ele>98.0</ele><time>2026-03-22T10:19:10.655Z</time></trkpt><trkpt lat="44.4123273" lon="8.6992213"><ele>85.0</ele><time>2026-03-22T10:19:11.653Z</time></trkpt><trkpt lat="44.4124065" lon="8.6995337"><ele>72.0</ele><time>2026-03-22T10:19:12.654Z</time></trkpt><trkpt lat="44.4124828" lon="8.6998388"><ele>72.0</ele><time>2026-03-22T10:19:13.653Z</time></trkpt><trkpt lat="44.4125537" lon="8.7001322"><ele>72.0</ele><time>2026-03-22T10:19:14.654Z</time></trkpt><trkpt lat="44.4126213" lon="8.7004098"><ele>72.0</ele><time>2026-03-22T10:19:15.653Z</time></trkpt><trkpt lat="44.412686" lon="8.7006743"><ele>68.33333333333333</ele><time>2026-03-22T10:19:16.653Z</time></trkpt><trkpt lat="44.4127533" lon="8.7009272"><ele>64.66666666666666</ele><time>2026-03-22T10:19:17.653Z</time></trkpt><trkpt lat="44.4128316" lon="8.7011756"><ele>61.0</ele><time>2026-03-22T10:19:18.654Z</time></trkpt><trkpt lat="44.4129297" lon="8.7014021"><ele>63.33333333333333</ele><time>2026-03-22T10:19:19.654Z</time></trkpt><trkpt lat="44.4130496" lon="8.7016106"><ele>65.66666666666667</ele><time>2026-03-22T10:19:20.655Z</time></trkpt><trkpt lat="44.4131933" lon="8.7017986"><ele>68.0</ele><time>2026-03-22T10:19:21.654Z</time></trkpt><trkpt lat="44.4133569" lon="8.7019594"><ele>68.0</ele><time>2026-03-22T10:19:22.655Z</time></trkpt><trkpt lat="44.4135375" lon="8.7020983"><ele>68.0</ele><time>2026-03-22T10:19:23.653Z</time></trkpt><trkpt lat="44.4137296" lon="8.702218"><ele>68.0</ele><time>2026-03-22T10:19:24.654Z</time></trkpt><trkpt lat="44.4139258" lon="8.7023229"><ele>75.0</ele><time>2026-03-22T10:19:25.654Z</time></trkpt><trkpt lat="44.4141244" lon="8.7024187"><ele>82.0</ele><time>2026-03-22T10:19:26.655Z</time></trkpt><trkpt lat="44.414318" lon="8.7025118"><ele>89.0</ele><time>2026-03-22T10:19:27.654Z</time></trkpt><trkpt lat="44.4145127" lon="8.7026146"><ele>84.33333333333334</ele><time>2026-03-22T10:19:28.653Z</time></trkpt><trkpt lat="44.4147037" lon="8.7027215"><ele>79.66666666666667</ele><time>2026-03-22T10:19:29.655Z</time></trkpt><trkpt lat="44.4148896" lon="8.7028187"><ele>75.0</ele><time>2026-03-22T10:19:30.653Z</time></trkpt><trkpt lat="44.4150682" lon="8.7029202"><ele>75.0</ele><time>2026-03-22T10:19:31.654Z</time></trkpt><trkpt lat="44.4152332" lon="8.7030495"><ele>75.0</ele><time>2026-03-22T10:19:32.653Z</time></trkpt><trkpt lat="44.4153786" lon="8.7032113"><ele>75.0</ele><time>2026-03-22T10:19:33.655Z</time></trkpt><trkpt lat="44.4155097" lon="8.7034072"><ele>74.0</ele><time>2026-03-22T10:19:34.655Z</time></trkpt><trkpt lat="44.4156272" lon="8.7036284"><ele>73.0</ele><time>2026-03-22T10:19:35.653Z</time></trkpt><trkpt lat="44.4157252" lon="8.7038797"><ele>72.0</ele><time>2026-03-22T10:19:36.655Z</time></trkpt><trkpt lat="44.4158038" lon="8.7041539"><ele>66.33333333333333</ele><time>2026-03-22T10:19:37.654Z</time></trkpt><trkpt lat="44.415867" lon="8.704445"><ele>60.666666666666664</ele><time>2026-03-22T10:19:38.654Z</time></trkpt><trkpt lat="44.4159174" lon="8.7047415"><ele>55.0</ele><time>2026-03-22T10:19:39.653Z</time></trkpt><trkpt lat="44.4159701" lon="8.7050392"><ele>60.666666666666664</ele><time>2026-03-22T10:19:40.654Z</time></trkpt><trkpt lat="44.4160256" lon="8.7053353"><ele>66.33333333333333</ele><time>2026-03-22T10:19:41.654Z</time></trkpt><trkpt lat="44.4160814" lon="8.7056295"><ele>72.0</ele><time>2026-03-22T10:19:42.654Z</time></trkpt><trkpt lat="44.4161381" lon="8.7059213"><ele>76.66666666666667</ele><time>2026-03-22T10:19:43.653Z</time></trkpt><trkpt lat="44.4161926" lon="8.7062118"><ele>81.33333333333334</ele><time>2026-03-22T10:19:44.653Z</time></trkpt><trkpt lat="44.4162489" lon="8.7065016"><ele>86.0</ele><time>2026-03-22T10:19:45.655Z</time></trkpt><trkpt lat="44.4163082" lon="8.7067949"><ele>93.33333333333334</ele><time>2026-03-22T10:19:46.654Z</time></trkpt><trkpt lat="44.4163723" lon="8.7070878"><ele>100.66666666666667</ele><time>2026-03-22T10:19:47.653Z</time></trkpt><trkpt lat="44.4164502" lon="8.7073821"><ele>108.0</ele><time>2026-03-22T10:19:48.653Z</time></trkpt><trkpt lat="44.4165434" lon="8.7076728"><ele>103.0</ele><time>2026-03-22T10:19:49.654Z</time></trkpt><trkpt lat="44.4166474" lon="8.707954"><ele>98.0</ele><time>2026-03-22T10:19:50.653Z</time></trkpt><trkpt lat="44.4167651" lon="8.7082261"><ele>98.0</ele><time>2026-03-22T10:19:51.653Z</time></trkpt><trkpt lat="44.4168841" lon="8.7084998"><ele>98.0</ele><time>2026-03-22T10:19:52.653Z</time></trkpt><trkpt lat="44.4170046" lon="8.7087767"><ele>103.0</ele><time>2026-03-22T10:19:53.654Z</time></trkpt><trkpt lat="44.4171282" lon="8.7090514"><ele>108.0</ele><time>2026-03-22T10:19:54.653Z</time></trkpt><trkpt lat="44.4172509" lon="8.709328"><ele>107.5</ele><time>2026-03-22T10:19:55.654Z</time></trkpt><trkpt lat="44.4173706" lon="8.7096014"><ele>107.0</ele><time>2026-03-22T10:19:56.654Z</time></trkpt><trkpt lat="44.4174924" lon="8.7098702"><ele>107.0</ele><time>2026-03-22T10:19:57.654Z</time></trkpt><trkpt lat="44.4176112" lon="8.7101389"><ele>107.0</ele><time>2026-03-22T10:19:58.654Z</time></trkpt><trkpt lat="44.4177271" lon="8.7104063"><ele>107.0</ele><time>2026-03-22T10:19:59.653Z</time></trkpt><trkpt lat="44.4178443" lon="8.7106716"><ele>106.33333333333333</ele><time>2026-03-22T10:20:00.655Z</time></trkpt><trkpt lat="44.4179634" lon="8.7109339"><ele>105.66666666666666</ele><time>2026-03-22T10:20:01.653Z</time></trkpt><trkpt lat="44.4180788" lon="8.7111933"><ele>105.0</ele><time>2026-03-22T10:20:02.653Z</time></trkpt><trkpt lat="44.4182003" lon="8.7114498"><ele>105.0</ele><time>2026-03-22T10:20:03.653Z</time></trkpt><trkpt lat="44.4183255" lon="8.7117015"><ele>105.0</ele><time>2026-03-22T10:20:04.655Z</time></trkpt><trkpt lat="44.4184568" lon="8.7119503"><ele>105.0</ele><time>2026-03-22T10:20:05.654Z</time></trkpt><trkpt lat="44.4185927" lon="8.712192"><ele>101.33333333333333</ele><time>2026-03-22T10:20:06.653Z</time></trkpt><trkpt lat="44.4187279" lon="8.7124307"><ele>97.66666666666666</ele><time>2026-03-22T10:20:07.654Z</time></trkpt><trkpt lat="44.4188599" lon="8.7126696"><ele>94.0</ele><time>2026-03-22T10:20:08.653Z</time></trkpt><trkpt lat="44.4189862" lon="8.7129038"><ele>89.0</ele><time>2026-03-22T10:20:09.653Z</time></trkpt><trkpt lat="44.419108" lon="8.7131242"><ele>84.0</ele><time>2026-03-22T10:20:10.655Z</time></trkpt><trkpt lat="44.4192261" lon="8.7133379"><ele>79.0</ele><time>2026-03-22T10:20:11.654Z</time></trkpt><trkpt lat="44.4193407" lon="8.7135472"><ele>80.66666666666666</ele><time>2026-03-22T10:20:12.654Z</time></trkpt><trkpt lat="44.4194538" lon="8.7137511"><ele>82.33333333333333</ele><time>2026-03-22T10:20:13.653Z</time></trkpt><trkpt lat="44.4195611" lon="8.7139504"><ele>84.0</ele><time>2026-03-22T10:20:14.653Z</time></trkpt><trkpt lat="44.4196574" lon="8.7141585"><ele>84.0</ele><time>2026-03-22T10:20:15.653Z</time></trkpt><trkpt lat="44.419734" lon="8.714386"><ele>84.0</ele><time>2026-03-22T10:20:16.653Z</time></trkpt><trkpt lat="44.4197882" lon="8.7146269"><ele>84.0</ele><time>2026-03-22T10:20:17.653Z</time></trkpt><trkpt lat="44.4198175" lon="8.7148835"><ele>86.0</ele><time>2026-03-22T10:20:18.654Z</time></trkpt><trkpt lat="44.4198223" lon="8.7151474"><ele>88.0</ele><time>2026-03-22T10:20:19.654Z</time></trkpt><trkpt lat="44.4198015" lon="8.7154125"><ele>90.0</ele><time>2026-03-22T10:20:20.653Z</time></trkpt><trkpt lat="44.419752" lon="8.7156677"><ele>90.0</ele><time>2026-03-22T10:20:21.655Z</time></trkpt><trkpt lat="44.4196745" lon="8.7159165"><ele>90.0</ele><time>2026-03-22T10:20:22.653Z</time></trkpt><trkpt lat="44.4195706" lon="8.7161486"><ele>90.0</ele><time>2026-03-22T10:20:23.654Z</time></trkpt><trkpt lat="44.4194415" lon="8.7163597"><ele>88.33333333333333</ele><time>2026-03-22T10:20:24.654Z</time></trkpt><trkpt lat="44.4192912" lon="8.7165395"><ele>86.66666666666666</ele><time>2026-03-22T10:20:25.654Z</time></trkpt><trkpt lat="44.4191218" lon="8.7166891"><ele>85.0</ele><time>2026-03-22T10:20:26.654Z</time></trkpt><trkpt lat="44.418941" lon="8.7168144"><ele>88.66666666666666</ele><time>2026-03-22T10:20:27.655Z</time></trkpt><trkpt lat="44.4187433" lon="8.7169259"><ele>92.33333333333333</ele><time>2026-03-22T10:20:28.653Z</time></trkpt><trkpt lat="44.418547" lon="8.717038"><ele>96.0</ele><time>2026-03-22T10:20:29.654Z</time></trkpt><trkpt lat="44.4183633" lon="8.7171625"><ele>96.0</ele><time>2026-03-22T10:20:30.653Z</time></trkpt><trkpt lat="44.418191" lon="8.7172973"><ele>96.0</ele><time>2026-03-22T10:20:31.654Z</time></trkpt><trkpt lat="44.4180416" lon="8.7174495"><ele>96.0</ele><time>2026-03-22T10:20:32.655Z</time></trkpt><trkpt lat="44.4179088" lon="8.7176229"><ele>94.0</ele><time>2026-03-22T10:20:33.654Z</time></trkpt><trkpt lat="44.4177926" lon="8.7178207"><ele>92.0</ele><time>2026-03-22T10:20:34.654Z</time></trkpt><trkpt lat="44.4176948" lon="8.7180395"><ele>90.0</ele><time>2026-03-22T10:20:35.654Z</time></trkpt><trkpt lat="44.4176168" lon="8.7182791"><ele>90.0</ele><time>2026-03-22T10:20:36.654Z</time></trkpt><trkpt lat="44.4175623" lon="8.7185307"><ele>90.0</ele><time>2026-03-22T10:20:37.654Z</time></trkpt><trkpt lat="44.4175344" lon="8.718795"><ele>90.0</ele><time>2026-03-22T10:20:38.654Z</time></trkpt><trkpt lat="44.4175315" lon="8.719067"><ele>89.66666666666667</ele><time>2026-03-22T10:20:39.654Z</time></trkpt><trkpt lat="44.4175458" lon="8.7193513"><ele>89.33333333333334</ele><time>2026-03-22T10:20:40.653Z</time></trkpt><trkpt lat="44.4175736" lon="8.7196426"><ele>89.0</ele><time>2026-03-22T10:20:41.654Z</time></trkpt><trkpt lat="44.4176042" lon="8.7199355"><ele>89.0</ele><time>2026-03-22T10:20:42.654Z</time></trkpt><trkpt lat="44.4176327" lon="8.7202314"><ele>89.0</ele><time>2026-03-22T10:20:43.654Z</time></trkpt><trkpt lat="44.4176572" lon="8.7205307"><ele>89.0</ele><time>2026-03-22T10:20:44.653Z</time></trkpt><trkpt lat="44.4176807" lon="8.7208291"><ele>84.66666666666667</ele><time>2026-03-22T10:20:45.654Z</time></trkpt><trkpt lat="44.4177013" lon="8.7211321"><ele>80.33333333333333</ele><time>2026-03-22T10:20:46.653Z</time></trkpt><trkpt lat="44.4177234" lon="8.7214332"><ele>76.0</ele><time>2026-03-22T10:20:47.655Z</time></trkpt><trkpt lat="44.4177473" lon="8.7217374"><ele>72.33333333333333</ele><time>2026-03-22T10:20:48.654Z</time></trkpt><trkpt lat="44.4177737" lon="8.7220431"><ele>68.66666666666667</ele><time>2026-03-22T10:20:49.654Z</time></trkpt><trkpt lat="44.4177996" lon="8.7223385"><ele>65.0</ele><time>2026-03-22T10:20:50.653Z</time></trkpt><trkpt lat="44.4178262" lon="8.7226216"><ele>59.333333333333336</ele><time>2026-03-22T10:20:51.655Z</time></trkpt><trkpt lat="44.4178593" lon="8.722908"><ele>53.66666666666667</ele><time>2026-03-22T10:20:52.654Z</time></trkpt><trkpt lat="44.4179124" lon="8.7231917"><ele>48.0</ele><time>2026-03-22T10:20:53.654Z</time></trkpt><trkpt lat="44.4179883" lon="8.7234646"><ele>60.33333333333333</ele><time>2026-03-22T10:20:54.653Z</time></trkpt><trkpt lat="44.4180859" lon="8.7237261"><ele>72.66666666666666</ele><time>2026-03-22T10:20:55.653Z</time></trkpt><trkpt lat="44.4182044" lon="8.7239721"><ele>85.0</ele><time>2026-03-22T10:20:56.654Z</time></trkpt><trkpt lat="44.4183416" lon="8.7242074"><ele>80.66666666666666</ele><time>2026-03-22T10:20:57.654Z</time></trkpt><trkpt lat="44.4184879" lon="8.7244329"><ele>76.33333333333333</ele><time>2026-03-22T10:20:58.654Z</time></trkpt><trkpt lat="44.4186405" lon="8.724661"><ele>72.0</ele><time>2026-03-22T10:20:59.655Z</time></trkpt><trkpt lat="44.4187896" lon="8.7248938"><ele>73.5</ele><time>2026-03-22T10:21:00.654Z</time></trkpt><trkpt lat="44.4189392" lon="8.7251337"><ele>75.0</ele><time>2026-03-22T10:21:01.653Z</time></trkpt><trkpt lat="44.4190936" lon="8.7253688"><ele>75.0</ele><time>2026-03-22T10:21:02.654Z</time></trkpt><trkpt lat="44.4192489" lon="8.7256034"><ele>75.0</ele><time>2026-03-22T10:21:03.653Z</time></trkpt><trkpt lat="44.4194062" lon="8.7258369"><ele>75.0</ele><time>2026-03-22T10:21:04.654Z</time></trkpt><trkpt lat="44.4195759" lon="8.7260601"><ele>75.0</ele><time>2026-03-22T10:21:05.653Z</time></trkpt><trkpt lat="44.4197504" lon="8.7262748"><ele>77.33333333333333</ele><time>2026-03-22T10:21:06.654Z</time></trkpt><trkpt lat="44.4199195" lon="8.7264815"><ele>79.66666666666666</ele><time>2026-03-22T10:21:07.655Z</time></trkpt><trkpt lat="44.4200811" lon="8.7266815"><ele>82.0</ele><time>2026-03-22T10:21:08.654Z</time></trkpt><trkpt lat="44.4202407" lon="8.7268778"><ele>83.0</ele><time>2026-03-22T10:21:09.655Z</time></trkpt><trkpt lat="44.4204048" lon="8.7270689"><ele>84.0</ele><time>2026-03-22T10:21:10.653Z</time></trkpt><trkpt lat="44.4205688" lon="8.7272621"><ele>85.0</ele><time>2026-03-22T10:21:11.653Z</time></trkpt><trkpt lat="44.4207333" lon="8.7274621"><ele>85.0</ele><time>2026-03-22T10:21:12.653Z</time></trkpt><trkpt lat="44.4208916" lon="8.7276732"><ele>85.0</ele><time>2026-03-22T10:21:13.654Z</time></trkpt><trkpt lat="44.4210393" lon="8.7278985"><ele>85.0</ele><time>2026-03-22T10:21:14.654Z</time></trkpt><trkpt lat="44.4211793" lon="8.7281402"><ele>82.33333333333333</ele><time>2026-03-22T10:21:15.654Z</time></trkpt><trkpt lat="44.4213116" lon="8.7283933"><ele>79.66666666666667</ele><time>2026-03-22T10:21:16.653Z</time></trkpt><trkpt lat="44.4214369" lon="8.7286492"><ele>77.0</ele><time>2026-03-22T10:21:17.653Z</time></trkpt><trkpt lat="44.4215615" lon="8.7288962"><ele>77.0</ele><time>2026-03-22T10:21:18.654Z</time></trkpt><trkpt lat="44.4216858" lon="8.7291411"><ele>77.0</ele><time>2026-03-22T10:21:19.653Z</time></trkpt><trkpt lat="44.4218135" lon="8.7293871"><ele>77.0</ele><time>2026-03-22T10:21:20.654Z</time></trkpt><trkpt lat="44.4219429" lon="8.7296337"><ele>75.33333333333334</ele><time>2026-03-22T10:21:21.653Z</time></trkpt><trkpt lat="44.4220739" lon="8.7298831"><ele>73.66666666666667</ele><time>2026-03-22T10:21:22.653Z</time></trkpt><trkpt lat="44.4222036" lon="8.7301399"><ele>72.0</ele><time>2026-03-22T10:21:23.653Z</time></trkpt><trkpt lat="44.4223302" lon="8.7304025"><ele>72.0</ele><time>2026-03-22T10:21:24.654Z</time></trkpt><trkpt lat="44.4224492" lon="8.7306676"><ele>72.0</ele><time>2026-03-22T10:21:25.654Z</time></trkpt><trkpt lat="44.4225629" lon="8.7309389"><ele>72.0</ele><time>2026-03-22T10:21:26.653Z</time></trkpt><trkpt lat="44.4226757" lon="8.731209"><ele>68.0</ele><time>2026-03-22T10:21:27.654Z</time></trkpt><trkpt lat="44.4227882" lon="8.7314786"><ele>64.0</ele><time>2026-03-22T10:21:28.655Z</time></trkpt><trkpt lat="44.4228972" lon="8.7317463"><ele>60.0</ele><time>2026-03-22T10:21:29.655Z</time></trkpt><trkpt lat="44.4230034" lon="8.7320081"><ele>58.0</ele><time>2026-03-22T10:21:30.654Z</time></trkpt><trkpt lat="44.4231098" lon="8.7322706"><ele>56.0</ele><time>2026-03-22T10:21:31.655Z</time></trkpt><trkpt lat="44.424966" lon="8.7368521"><ele>49.333333333333336</ele><time>2026-03-22T10:21:48.654Z</time></trkpt><trkpt lat="44.4250809" lon="8.7371213"><ele>42.66666666666667</ele><time>2026-03-22T10:21:49.654Z</time></trkpt><trkpt lat="44.4251939" lon="8.7373925"><ele>36.0</ele><time>2026-03-22T10:21:50.653Z</time></trkpt><trkpt lat="44.4253062" lon="8.7376679"><ele>31.0</ele><time>2026-03-22T10:21:51.655Z</time></trkpt><trkpt lat="44.425422" lon="8.737943"><ele>26.0</ele><time>2026-03-22T10:21:52.654Z</time></trkpt><trkpt lat="44.4255395" lon="8.7382179"><ele>32.0</ele><time>2026-03-22T10:21:53.653Z</time></trkpt><trkpt lat="44.4256593" lon="8.7384895"><ele>38.0</ele><time>2026-03-22T10:21:54.654Z</time></trkpt><trkpt lat="44.4257842" lon="8.7387561"><ele>38.0</ele><time>2026-03-22T10:21:55.653Z</time></trkpt><trkpt lat="44.4259077" lon="8.7390233"><ele>38.0</ele><time>2026-03-22T10:21:56.654Z</time></trkpt><trkpt lat="44.4260355" lon="8.7392845"><ele>39.0</ele><time>2026-03-22T10:21:57.654Z</time></trkpt><trkpt lat="44.4261687" lon="8.7395383"><ele>40.0</ele><time>2026-03-22T10:21:58.654Z</time></trkpt><trkpt lat="44.426304" lon="8.7397806"><ele>41.0</ele><time>2026-03-22T10:21:59.653Z</time></trkpt><trkpt lat="44.4264411" lon="8.7400089"><ele>34.0</ele><time>2026-03-22T10:22:00.654Z</time></trkpt><trkpt lat="44.4265793" lon="8.7402211"><ele>27.0</ele><time>2026-03-22T10:22:01.653Z</time></trkpt><trkpt lat="44.4267239" lon="8.7404261"><ele>20.0</ele><time>2026-03-22T10:22:02.653Z</time></trkpt><trkpt lat="44.4268785" lon="8.740624"><ele>20.0</ele><time>2026-03-22T10:22:03.653Z</time></trkpt><trkpt lat="44.4270371" lon="8.7408114"><ele>20.0</ele><time>2026-03-22T10:22:04.654Z</time></trkpt><trkpt lat="44.4272016" lon="8.74096"><ele>20.0</ele><time>2026-03-22T10:22:05.653Z</time></trkpt><trkpt lat="44.4273682" lon="8.7410921"><ele>19.333333333333336</ele><time>2026-03-22T10:22:06.655Z</time></trkpt><trkpt lat="44.4275358" lon="8.7412125"><ele>18.666666666666668</ele><time>2026-03-22T10:22:07.654Z</time></trkpt><trkpt lat="44.4276937" lon="8.7413407"><ele>18.0</ele><time>2026-03-22T10:22:08.653Z</time></trkpt><trkpt lat="44.4278417" lon="8.7414914"><ele>18.0</ele><time>2026-03-22T10:22:09.653Z</time></trkpt><trkpt lat="44.4279762" lon="8.7416691"><ele>18.0</ele><time>2026-03-22T10:22:10.653Z</time></trkpt><trkpt lat="44.428102" lon="8.7418669"><ele>18.0</ele><time>2026-03-22T10:22:11.654Z</time></trkpt><trkpt lat="44.428221" lon="8.7420788"><ele>17.0</ele><time>2026-03-22T10:22:12.654Z</time></trkpt><trkpt lat="44.4283394" lon="8.7422939"><ele>16.0</ele><time>2026-03-22T10:22:13.654Z</time></trkpt><trkpt lat="44.4284578" lon="8.742505"><ele>15.0</ele><time>2026-03-22T10:22:14.655Z</time></trkpt><trkpt lat="44.4285801" lon="8.7427142"><ele>17.333333333333332</ele><time>2026-03-22T10:22:15.655Z</time></trkpt><trkpt lat="44.4286996" lon="8.7429256"><ele>19.666666666666664</ele><time>2026-03-22T10:22:16.654Z</time></trkpt><trkpt lat="44.4288138" lon="8.7431449"><ele>22.0</ele><time>2026-03-22T10:22:17.654Z</time></trkpt><trkpt lat="44.4289126" lon="8.7433798"><ele>29.0</ele><time>2026-03-22T10:22:18.655Z</time></trkpt><trkpt lat="44.4289952" lon="8.7436217"><ele>36.0</ele><time>2026-03-22T10:22:19.653Z</time></trkpt><trkpt lat="44.4290657" lon="8.7438679"><ele>43.0</ele><time>2026-03-22T10:22:20.653Z</time></trkpt><trkpt lat="44.4291331" lon="8.7441159"><ele>43.0</ele><time>2026-03-22T10:22:21.655Z</time></trkpt><trkpt lat="44.4291989" lon="8.7443647"><ele>43.0</ele><time>2026-03-22T10:22:22.655Z</time></trkpt><trkpt lat="44.4292664" lon="8.7446157"><ele>43.0</ele><time>2026-03-22T10:22:23.654Z</time></trkpt><trkpt lat="44.429332" lon="8.7448667"><ele>40.333333333333336</ele><time>2026-03-22T10:22:24.654Z</time></trkpt><trkpt lat="44.4294021" lon="8.7451195"><ele>37.666666666666664</ele><time>2026-03-22T10:22:25.655Z</time></trkpt><trkpt lat="44.429474" lon="8.7453737"><ele>35.0</ele><time>2026-03-22T10:22:26.654Z</time></trkpt><trkpt lat="44.4295433" lon="8.745637"><ele>33.666666666666664</ele><time>2026-03-22T10:22:27.653Z</time></trkpt><trkpt lat="44.4296127" lon="8.7459026"><ele>32.333333333333336</ele><time>2026-03-22T10:22:28.653Z</time></trkpt><trkpt lat="44.4296862" lon="8.7461677"><ele>31.0</ele><time>2026-03-22T10:22:29.653Z</time></trkpt><trkpt lat="44.4297697" lon="8.7464236"><ele>35.66666666666667</ele><time>2026-03-22T10:22:30.654Z</time></trkpt><trkpt lat="44.4298653" lon="8.7466681"><ele>40.333333333333336</ele><time>2026-03-22T10:22:31.655Z</time></trkpt><trkpt lat="44.4299663" lon="8.7469107"><ele>45.0</ele><time>2026-03-22T10:22:32.655Z</time></trkpt><trkpt lat="44.4300792" lon="8.7471514"><ele>45.0</ele><time>2026-03-22T10:22:33.653Z</time></trkpt><trkpt lat="44.430193" lon="8.7473929"><ele>45.0</ele><time>2026-03-22T10:22:34.653Z</time></trkpt><trkpt lat="44.4303053" lon="8.7476371"><ele>45.0</ele><time>2026-03-22T10:22:35.653Z</time></trkpt><trkpt lat="44.4304077" lon="8.7478573"><ele>40.0</ele><time>2026-03-22T10:22:36.653Z</time></trkpt><trkpt lat="44.4305132" lon="8.7480852"><ele>35.0</ele><time>2026-03-22T10:22:37.655Z</time></trkpt><trkpt lat="44.4312971" lon="8.7498032"><ele>29.0</ele><time>2026-03-22T10:22:44.654Z</time></trkpt><trkpt lat="44.4313535" lon="8.7500435"><ele>23.0</ele><time>2026-03-22T10:22:45.654Z</time></trkpt><trkpt lat="44.431425" lon="8.7503002"><ele>17.0</ele><time>2026-03-22T10:22:46.653Z</time></trkpt><trkpt lat="44.4314877" lon="8.7505614"><ele>15.666666666666668</ele><time>2026-03-22T10:22:47.653Z</time></trkpt><trkpt lat="44.4315488" lon="8.7508237"><ele>14.333333333333332</ele><time>2026-03-22T10:22:48.653Z</time></trkpt><trkpt lat="44.4316111" lon="8.7510845"><ele>13.0</ele><time>2026-03-22T10:22:49.653Z</time></trkpt><trkpt lat="44.4316624" lon="8.7513421"><ele>17.333333333333332</ele><time>2026-03-22T10:22:50.653Z</time></trkpt><trkpt lat="44.4316866" lon="8.7516014"><ele>21.666666666666664</ele><time>2026-03-22T10:22:51.654Z</time></trkpt><trkpt lat="44.4316818" lon="8.7518653"><ele>26.0</ele><time>2026-03-22T10:22:52.654Z</time></trkpt><trkpt lat="44.431654" lon="8.7521344"><ele>30.333333333333332</ele><time>2026-03-22T10:22:53.653Z</time></trkpt><trkpt lat="44.4316074" lon="8.7524046"><ele>34.666666666666664</ele><time>2026-03-22T10:22:54.653Z</time></trkpt><trkpt lat="44.43154" lon="8.7526709"><ele>39.0</ele><time>2026-03-22T10:22:55.653Z</time></trkpt><trkpt lat="44.4314525" lon="8.7529332"><ele>35.666666666666664</ele><time>2026-03-22T10:22:56.654Z</time></trkpt><trkpt lat="44.4313541" lon="8.7532037"><ele>32.33333333333333</ele><time>2026-03-22T10:22:57.653Z</time></trkpt><trkpt lat="44.4312474" lon="8.7534875"><ele>29.0</ele><time>2026-03-22T10:22:58.654Z</time></trkpt><trkpt lat="44.4311349" lon="8.7537885"><ele>29.0</ele><time>2026-03-22T10:22:59.655Z</time></trkpt><trkpt lat="44.4310264" lon="8.754086"><ele>29.0</ele><time>2026-03-22T10:23:00.654Z</time></trkpt><trkpt lat="44.4309218" lon="8.7543774"><ele>33.0</ele><time>2026-03-22T10:23:01.654Z</time></trkpt><trkpt lat="44.4308204" lon="8.7546548"><ele>37.0</ele><time>2026-03-22T10:23:02.653Z</time></trkpt><trkpt lat="44.4307216" lon="8.7549206"><ele>41.0</ele><time>2026-03-22T10:23:03.654Z</time></trkpt><trkpt lat="44.4306247" lon="8.7551809"><ele>38.0</ele><time>2026-03-22T10:23:04.654Z</time></trkpt><trkpt lat="44.4305337" lon="8.7554429"><ele>35.0</ele><time>2026-03-22T10:23:05.654Z</time></trkpt><trkpt lat="44.4304461" lon="8.7557094"><ele>32.0</ele><time>2026-03-22T10:23:06.653Z</time></trkpt><trkpt lat="44.43037" lon="8.7559817"><ele>31.666666666666664</ele><time>2026-03-22T10:23:07.654Z</time></trkpt><trkpt lat="44.4303044" lon="8.7562526"><ele>31.333333333333336</ele><time>2026-03-22T10:23:08.654Z</time></trkpt><trkpt lat="44.4302469" lon="8.7565296"><ele>31.0</ele><time>2026-03-22T10:23:09.654Z</time></trkpt><trkpt lat="44.4302051" lon="8.7567964"><ele>30.666666666666668</ele><time>2026-03-22T10:23:10.654Z</time></trkpt><trkpt lat="44.4301683" lon="8.7570898"><ele>30.333333333333336</ele><time>2026-03-22T10:23:11.654Z</time></trkpt><trkpt lat="44.4301458" lon="8.7573728"><ele>30.0</ele><time>2026-03-22T10:23:12.653Z</time></trkpt><trkpt lat="44.4301216" lon="8.7576528"><ele>30.0</ele><time>2026-03-22T10:23:13.653Z</time></trkpt><trkpt lat="44.4301158" lon="8.7579497"><ele>30.0</ele><time>2026-03-22T10:23:14.654Z</time></trkpt><trkpt lat="44.4301016" lon="8.758256"><ele>30.0</ele><time>2026-03-22T10:23:15.654Z</time></trkpt><trkpt lat="44.4300897" lon="8.7585497"><ele>30.0</ele><time>2026-03-22T10:23:16.655Z</time></trkpt><trkpt lat="44.4300818" lon="8.7588667"><ele>30.0</ele><time>2026-03-22T10:23:17.653Z</time></trkpt><trkpt lat="44.4300839" lon="8.7591636"><ele>30.0</ele><time>2026-03-22T10:23:18.653Z</time></trkpt><trkpt lat="44.4301022" lon="8.759468"><ele>29.666666666666664</ele><time>2026-03-22T10:23:19.653Z</time></trkpt><trkpt lat="44.4301329" lon="8.7597703"><ele>29.333333333333332</ele><time>2026-03-22T10:23:20.654Z</time></trkpt><trkpt lat="44.4301784" lon="8.7600331"><ele>29.0</ele><time>2026-03-22T10:23:21.654Z</time></trkpt><trkpt lat="44.4302188" lon="8.7603042"><ele>29.0</ele><time>2026-03-22T10:23:22.654Z</time></trkpt><trkpt lat="44.4302602" lon="8.7605757"><ele>29.0</ele><time>2026-03-22T10:23:23.653Z</time></trkpt><trkpt lat="44.4303028" lon="8.7608458"><ele>29.0</ele><time>2026-03-22T10:23:24.653Z</time></trkpt><trkpt lat="44.4303442" lon="8.7611147"><ele>26.666666666666664</ele><time>2026-03-22T10:23:25.654Z</time></trkpt><trkpt lat="44.4303793" lon="8.7613911"><ele>24.333333333333332</ele><time>2026-03-22T10:23:26.653Z</time></trkpt><trkpt lat="44.4304125" lon="8.761669"><ele>22.0</ele><time>2026-03-22T10:23:27.654Z</time></trkpt><trkpt lat="44.4304481" lon="8.7619427"><ele>20.666666666666664</ele><time>2026-03-22T10:23:28.653Z</time></trkpt><trkpt lat="44.4304515" lon="8.7622117"><ele>19.333333333333332</ele><time>2026-03-22T10:23:29.653Z</time></trkpt><trkpt lat="44.4304275" lon="8.7624968"><ele>18.0</ele><time>2026-03-22T10:23:30.655Z</time></trkpt><trkpt lat="44.4303996" lon="8.7627864"><ele>18.0</ele><time>2026-03-22T10:23:31.654Z</time></trkpt><trkpt lat="44.4303589" lon="8.7630729"><ele>18.0</ele><time>2026-03-22T10:23:32.654Z</time></trkpt><trkpt lat="44.4303131" lon="8.7633564"><ele>18.0</ele><time>2026-03-22T10:23:33.654Z</time></trkpt><trkpt lat="44.4302634" lon="8.7636384"><ele>19.0</ele><time>2026-03-22T10:23:34.653Z</time></trkpt><trkpt lat="44.430214" lon="8.7639187"><ele>20.0</ele><time>2026-03-22T10:23:35.655Z</time></trkpt><trkpt lat="44.4301614" lon="8.764205"><ele>21.0</ele><time>2026-03-22T10:23:36.654Z</time></trkpt><trkpt lat="44.4301098" lon="8.7644902"><ele>21.0</ele><time>2026-03-22T10:23:37.653Z</time></trkpt><trkpt lat="44.4300608" lon="8.7647743"><ele>21.0</ele><time>2026-03-22T10:23:38.653Z</time></trkpt><trkpt lat="44.4300142" lon="8.7650598"><ele>21.0</ele><time>2026-03-22T10:23:39.654Z</time></trkpt><trkpt lat="44.4299716" lon="8.7653496"><ele>21.0</ele><time>2026-03-22T10:23:40.654Z</time></trkpt><trkpt lat="44.4299327" lon="8.7656432"><ele>21.0</ele><time>2026-03-22T10:23:41.653Z</time></trkpt><trkpt lat="44.4298977" lon="8.7659415"><ele>21.0</ele><time>2026-03-22T10:23:42.654Z</time></trkpt><trkpt lat="44.4298654" lon="8.7662417"><ele>20.0</ele><time>2026-03-22T10:23:43.654Z</time></trkpt><trkpt lat="44.4298355" lon="8.7665421"><ele>19.0</ele><time>2026-03-22T10:23:44.653Z</time></trkpt><trkpt lat="44.4298132" lon="8.7668416"><ele>18.0</ele><time>2026-03-22T10:23:45.653Z</time></trkpt><trkpt lat="44.4298" lon="8.7671381"><ele>17.666666666666668</ele><time>2026-03-22T10:23:46.654Z</time></trkpt><trkpt lat="44.429803" lon="8.7674304"><ele>17.333333333333336</ele><time>2026-03-22T10:23:47.653Z</time></trkpt><trkpt lat="44.4298228" lon="8.7677214"><ele>17.0</ele><time>2026-03-22T10:23:48.653Z</time></trkpt><trkpt lat="44.4298568" lon="8.7680037"><ele>17.0</ele><time>2026-03-22T10:23:49.654Z</time></trkpt><trkpt lat="44.4298988" lon="8.7682781"><ele>17.0</ele><time>2026-03-22T10:23:50.654Z</time></trkpt><trkpt lat="44.4299487" lon="8.7685484"><ele>17.0</ele><time>2026-03-22T10:23:51.653Z</time></trkpt><trkpt lat="44.4300006" lon="8.76882"><ele>17.333333333333336</ele><time>2026-03-22T10:23:52.653Z</time></trkpt><trkpt lat="44.4300557" lon="8.7690925"><ele>17.666666666666668</ele><time>2026-03-22T10:23:53.653Z</time></trkpt><trkpt lat="44.4301135" lon="8.7693669"><ele>18.0</ele><time>2026-03-22T10:23:54.655Z</time></trkpt><trkpt lat="44.430173" lon="8.7696423"><ele>21.333333333333336</ele><time>2026-03-22T10:23:55.654Z</time></trkpt><trkpt lat="44.4302304" lon="8.76991"><ele>24.666666666666668</ele><time>2026-03-22T10:23:56.654Z</time></trkpt><trkpt lat="44.4302844" lon="8.7701786"><ele>28.0</ele><time>2026-03-22T10:23:57.655Z</time></trkpt><trkpt lat="44.430333" lon="8.770446"><ele>28.0</ele><time>2026-03-22T10:23:58.653Z</time></trkpt><trkpt lat="44.4303644" lon="8.7706957"><ele>28.0</ele><time>2026-03-22T10:23:59.654Z</time></trkpt><trkpt lat="44.4303806" lon="8.7709561"><ele>28.0</ele><time>2026-03-22T10:24:00.654Z</time></trkpt><trkpt lat="44.430383" lon="8.7711904"><ele>29.0</ele><time>2026-03-22T10:24:01.655Z</time></trkpt><trkpt lat="44.4303711" lon="8.7714547"><ele>30.0</ele><time>2026-03-22T10:24:02.654Z</time></trkpt><trkpt lat="44.4303464" lon="8.7717413"><ele>31.0</ele><time>2026-03-22T10:24:03.653Z</time></trkpt><trkpt lat="44.4303183" lon="8.7719989"><ele>31.0</ele><time>2026-03-22T10:24:04.653Z</time></trkpt><trkpt lat="44.430295" lon="8.7722839"><ele>31.0</ele><time>2026-03-22T10:24:05.654Z</time></trkpt><trkpt lat="44.4302771" lon="8.7725424"><ele>31.0</ele><time>2026-03-22T10:24:06.654Z</time></trkpt><trkpt lat="44.4302619" lon="8.7727854"><ele>30.333333333333336</ele><time>2026-03-22T10:24:07.654Z</time></trkpt><trkpt lat="44.4302436" lon="8.7730152"><ele>29.666666666666664</ele><time>2026-03-22T10:24:08.654Z</time></trkpt><trkpt lat="44.4302212" lon="8.773245"><ele>29.0</ele><time>2026-03-22T10:24:09.653Z</time></trkpt><trkpt lat="44.4302012" lon="8.7734724"><ele>28.333333333333332</ele><time>2026-03-22T10:24:10.653Z</time></trkpt><trkpt lat="44.4301838" lon="8.7737042"><ele>27.666666666666664</ele><time>2026-03-22T10:24:11.654Z</time></trkpt><trkpt lat="44.4301691" lon="8.7739389"><ele>27.0</ele><time>2026-03-22T10:24:12.654Z</time></trkpt><trkpt lat="44.4301547" lon="8.7741805"><ele>25.666666666666668</ele><time>2026-03-22T10:24:13.653Z</time></trkpt><trkpt lat="44.4301385" lon="8.7744217"><ele>24.333333333333336</ele><time>2026-03-22T10:24:14.653Z</time></trkpt><trkpt lat="44.4301166" lon="8.7746686"><ele>23.0</ele><time>2026-03-22T10:24:15.654Z</time></trkpt><trkpt lat="44.4300995" lon="8.7749262"><ele>20.0</ele><time>2026-03-22T10:24:16.654Z</time></trkpt><trkpt lat="44.430092" lon="8.7751896"><ele>17.0</ele><time>2026-03-22T10:24:17.654Z</time></trkpt><trkpt lat="44.4301001" lon="8.7754495"><ele>14.0</ele><time>2026-03-22T10:24:18.653Z</time></trkpt><trkpt lat="44.4301121" lon="8.7757058"><ele>14.0</ele><time>2026-03-22T10:24:19.653Z</time></trkpt><trkpt lat="44.4301293" lon="8.7759599"><ele>14.0</ele><time>2026-03-22T10:24:20.654Z</time></trkpt><trkpt lat="44.4301396" lon="8.7762165"><ele>14.0</ele><time>2026-03-22T10:24:21.653Z</time></trkpt><trkpt lat="44.4301479" lon="8.7764712"><ele>15.0</ele><time>2026-03-22T10:24:22.655Z</time></trkpt><trkpt lat="44.4301477" lon="8.7767205"><ele>16.0</ele><time>2026-03-22T10:24:23.654Z</time></trkpt><trkpt lat="44.430135" lon="8.7769651"><ele>17.0</ele><time>2026-03-22T10:24:24.654Z</time></trkpt><trkpt lat="44.4301023" lon="8.7772087"><ele>17.0</ele><time>2026-03-22T10:24:25.653Z</time></trkpt><trkpt lat="44.4300515" lon="8.7774514"><ele>17.0</ele><time>2026-03-22T10:24:26.654Z</time></trkpt><trkpt lat="44.4299843" lon="8.7776862"><ele>17.0</ele><time>2026-03-22T10:24:27.654Z</time></trkpt><trkpt lat="44.4298984" lon="8.7779111"><ele>20.0</ele><time>2026-03-22T10:24:28.654Z</time></trkpt><trkpt lat="44.4297994" lon="8.7781212"><ele>23.0</ele><time>2026-03-22T10:24:29.654Z</time></trkpt><trkpt lat="44.4296913" lon="8.7783218"><ele>26.0</ele><time>2026-03-22T10:24:30.654Z</time></trkpt><trkpt lat="44.4295844" lon="8.7785188"><ele>26.0</ele><time>2026-03-22T10:24:31.655Z</time></trkpt><trkpt lat="44.4294801" lon="8.7787151"><ele>26.0</ele><time>2026-03-22T10:24:32.654Z</time></trkpt><trkpt lat="44.4293759" lon="8.7789122"><ele>26.0</ele><time>2026-03-22T10:24:33.653Z</time></trkpt><trkpt lat="44.4292735" lon="8.7791242"><ele>28.0</ele><time>2026-03-22T10:24:34.654Z</time></trkpt><trkpt lat="44.4291855" lon="8.7793511"><ele>30.0</ele><time>2026-03-22T10:24:35.654Z</time></trkpt><trkpt lat="44.42911" lon="8.7795863"><ele>32.0</ele><time>2026-03-22T10:24:36.654Z</time></trkpt><trkpt lat="44.4290492" lon="8.7798585"><ele>32.0</ele><time>2026-03-22T10:24:37.654Z</time></trkpt><trkpt lat="44.4290121" lon="8.7801658"><ele>32.0</ele><time>2026-03-22T10:24:38.654Z</time></trkpt><trkpt lat="44.4289694" lon="8.7804928"><ele>33.5</ele><time>2026-03-22T10:24:39.655Z</time></trkpt><trkpt lat="44.4289275" lon="8.7808214"><ele>35.0</ele><time>2026-03-22T10:24:40.654Z</time></trkpt><trkpt lat="44.4288838" lon="8.7811411"><ele>37.5</ele><time>2026-03-22T10:24:41.653Z</time></trkpt><trkpt lat="44.4288398" lon="8.7814528"><ele>40.0</ele><time>2026-03-22T10:24:42.654Z</time></trkpt><trkpt lat="44.4287945" lon="8.7817629"><ele>34.0</ele><time>2026-03-22T10:24:43.654Z</time></trkpt><trkpt lat="44.4287456" lon="8.7820714"><ele>28.0</ele><time>2026-03-22T10:24:44.654Z</time></trkpt><trkpt lat="44.4286922" lon="8.7823694"><ele>22.0</ele><time>2026-03-22T10:24:45.653Z</time></trkpt><trkpt lat="44.4286438" lon="8.7826525"><ele>23.666666666666664</ele><time>2026-03-22T10:24:46.653Z</time></trkpt><trkpt lat="44.4286032" lon="8.78293"><ele>25.333333333333332</ele><time>2026-03-22T10:24:47.654Z</time></trkpt><trkpt lat="44.4285787" lon="8.7832065"><ele>27.0</ele><time>2026-03-22T10:24:48.654Z</time></trkpt><trkpt lat="44.428568" lon="8.7834827"><ele>27.333333333333336</ele><time>2026-03-22T10:24:49.653Z</time></trkpt><trkpt lat="44.4285696" lon="8.7837619"><ele>27.666666666666668</ele><time>2026-03-22T10:24:50.653Z</time></trkpt><trkpt lat="44.4286055" lon="8.7840872"><ele>28.0</ele><time>2026-03-22T10:24:51.654Z</time></trkpt><trkpt lat="44.4286671" lon="8.7843881"><ele>25.5</ele><time>2026-03-22T10:24:52.654Z</time></trkpt><trkpt lat="44.4287471" lon="8.784682"><ele>23.0</ele><time>2026-03-22T10:24:53.653Z</time></trkpt><trkpt lat="44.428843" lon="8.7849884"><ele>26.666666666666668</ele><time>2026-03-22T10:24:54.653Z</time></trkpt><trkpt lat="44.4289348" lon="8.7852754"><ele>30.333333333333336</ele><time>2026-03-22T10:24:55.654Z</time></trkpt><trkpt lat="44.4290282" lon="8.7855574"><ele>34.0</ele><time>2026-03-22T10:24:56.653Z</time></trkpt><trkpt lat="44.4291212" lon="8.7858541"><ele>31.333333333333336</ele><time>2026-03-22T10:24:57.655Z</time></trkpt><trkpt lat="44.4292168" lon="8.7861473"><ele>28.666666666666664</ele><time>2026-03-22T10:24:58.655Z</time></trkpt><trkpt lat="44.4292999" lon="8.7864152"><ele>26.0</ele><time>2026-03-22T10:24:59.654Z</time></trkpt><trkpt lat="44.4293955" lon="8.7866881"><ele>24.666666666666664</ele><time>2026-03-22T10:25:00.653Z</time></trkpt><trkpt lat="44.4294999" lon="8.7869535"><ele>23.333333333333332</ele><time>2026-03-22T10:25:01.653Z</time></trkpt><trkpt lat="44.4296415" lon="8.7872037"><ele>22.0</ele><time>2026-03-22T10:25:02.653Z</time></trkpt><trkpt lat="44.4297407" lon="8.7874459"><ele>20.666666666666664</ele><time>2026-03-22T10:25:03.654Z</time></trkpt><trkpt lat="44.4298417" lon="8.7876806"><ele>19.333333333333332</ele><time>2026-03-22T10:25:04.655Z</time></trkpt><trkpt lat="44.4299454" lon="8.7879169"><ele>18.0</ele><time>2026-03-22T10:25:05.653Z</time></trkpt><trkpt lat="44.4300501" lon="8.7881518"><ele>18.0</ele><time>2026-03-22T10:25:06.654Z</time></trkpt><trkpt lat="44.4301501" lon="8.7883795"><ele>18.0</ele><time>2026-03-22T10:25:07.653Z</time></trkpt><trkpt lat="44.4302464" lon="8.7886081"><ele>18.0</ele><time>2026-03-22T10:25:08.653Z</time></trkpt><trkpt lat="44.4303299" lon="8.7888422"><ele>17.666666666666668</ele><time>2026-03-22T10:25:09.654Z</time></trkpt><trkpt lat="44.4303973" lon="8.7890901"><ele>17.333333333333336</ele><time>2026-03-22T10:25:10.653Z</time></trkpt><trkpt lat="44.4304476" lon="8.789356"><ele>17.0</ele><time>2026-03-22T10:25:11.655Z</time></trkpt><trkpt lat="44.4304804" lon="8.789631"><ele>18.333333333333336</ele><time>2026-03-22T10:25:12.654Z</time></trkpt><trkpt lat="44.4304899" lon="8.7899129"><ele>19.666666666666668</ele><time>2026-03-22T10:25:13.653Z</time></trkpt><trkpt lat="44.4304784" lon="8.7901995"><ele>21.0</ele><time>2026-03-22T10:25:14.654Z</time></trkpt><trkpt lat="44.430439" lon="8.7905007"><ele>21.666666666666668</ele><time>2026-03-22T10:25:15.653Z</time></trkpt><trkpt lat="44.4303823" lon="8.7908122"><ele>22.333333333333336</ele><time>2026-03-22T10:25:16.654Z</time></trkpt><trkpt lat="44.4303242" lon="8.7911036"><ele>23.0</ele><time>2026-03-22T10:25:17.653Z</time></trkpt><trkpt lat="44.4302698" lon="8.7913776"><ele>29.333333333333336</ele><time>2026-03-22T10:25:18.654Z</time></trkpt><trkpt lat="44.4302126" lon="8.7916488"><ele>35.666666666666664</ele><time>2026-03-22T10:25:19.653Z</time></trkpt><trkpt lat="44.4301535" lon="8.7919171"><ele>42.0</ele><time>2026-03-22T10:25:20.653Z</time></trkpt><trkpt lat="44.4300954" lon="8.7921936"><ele>43.0</ele><time>2026-03-22T10:25:21.653Z</time></trkpt><trkpt lat="44.429511" lon="8.7953497"><ele>43.0</ele><time>2026-03-22T10:25:32.654Z</time></trkpt><trkpt lat="44.4294713" lon="8.7956407"><ele>43.0</ele><time>2026-03-22T10:25:33.654Z</time></trkpt><trkpt lat="44.4294412" lon="8.7959238"><ele>43.0</ele><time>2026-03-22T10:25:34.653Z</time></trkpt><trkpt lat="44.4294288" lon="8.7962179"><ele>46.66666666666667</ele><time>2026-03-22T10:25:35.654Z</time></trkpt><trkpt lat="44.4294396" lon="8.7965165"><ele>50.333333333333336</ele><time>2026-03-22T10:25:36.653Z</time></trkpt><trkpt lat="44.4294613" lon="8.7968297"><ele>54.0</ele><time>2026-03-22T10:25:37.653Z</time></trkpt><trkpt lat="44.4294982" lon="8.7971352"><ele>58.0</ele><time>2026-03-22T10:25:38.655Z</time></trkpt><trkpt lat="44.429543" lon="8.7974367"><ele>62.0</ele><time>2026-03-22T10:25:39.654Z</time></trkpt><trkpt lat="44.4311169" lon="8.808253"><ele>56.0</ele><time>2026-03-22T10:26:15.654Z</time></trkpt><trkpt lat="44.4311474" lon="8.80858"><ele>50.0</ele><time>2026-03-22T10:26:16.653Z</time></trkpt><trkpt lat="44.4311891" lon="8.8089166"><ele>50.0</ele><time>2026-03-22T10:26:17.654Z</time></trkpt><trkpt lat="44.4312317" lon="8.8092339"><ele>50.0</ele><time>2026-03-22T10:26:18.654Z</time></trkpt><trkpt lat="44.4312758" lon="8.8095411"><ele>63.0</ele><time>2026-03-22T10:26:19.654Z</time></trkpt><trkpt lat="44.4313187" lon="8.8098474"><ele>76.0</ele><time>2026-03-22T10:26:20.655Z</time></trkpt><trkpt lat="44.4314964" lon="8.8116508"><ele>82.33333333333333</ele><time>2026-03-22T10:26:26.655Z</time></trkpt><trkpt lat="44.431499" lon="8.811947"><ele>88.66666666666667</ele><time>2026-03-22T10:26:27.654Z</time></trkpt><trkpt lat="44.4314803" lon="8.8122252"><ele>95.0</ele><time>2026-03-22T10:26:28.654Z</time></trkpt><trkpt lat="44.4308606" lon="8.8181234"><ele>77.0</ele><time>2026-03-22T10:26:42.722Z</time></trkpt><trkpt lat="44.4306686" lon="8.8181845"><ele>59.0</ele><time>2026-03-22T10:26:47.654Z</time></trkpt><trkpt lat="44.4306022" lon="8.8184662"><ele>41.0</ele><time>2026-03-22T10:26:48.653Z</time></trkpt><trkpt lat="44.4305255" lon="8.8187498"><ele>35.0</ele><time>2026-03-22T10:26:49.654Z</time></trkpt><trkpt lat="44.4304437" lon="8.8190393"><ele>29.0</ele><time>2026-03-22T10:26:50.655Z</time></trkpt><trkpt lat="44.4303631" lon="8.8193298"><ele>23.0</ele><time>2026-03-22T10:26:51.653Z</time></trkpt><trkpt lat="44.4302836" lon="8.8196181"><ele>21.333333333333336</ele><time>2026-03-22T10:26:52.654Z</time></trkpt><trkpt lat="44.4302053" lon="8.8199053"><ele>19.666666666666668</ele><time>2026-03-22T10:26:53.653Z</time></trkpt><trkpt lat="44.4301255" lon="8.8201903"><ele>18.0</ele><time>2026-03-22T10:26:54.654Z</time></trkpt><trkpt lat="44.4300491" lon="8.8204757"><ele>17.333333333333332</ele><time>2026-03-22T10:26:55.654Z</time></trkpt><trkpt lat="44.4299739" lon="8.820761"><ele>16.666666666666664</ele><time>2026-03-22T10:26:56.653Z</time></trkpt><trkpt lat="44.4298962" lon="8.8210395"><ele>16.0</ele><time>2026-03-22T10:26:57.655Z</time></trkpt><trkpt lat="44.4298169" lon="8.8213124"><ele>17.333333333333332</ele><time>2026-03-22T10:26:58.654Z</time></trkpt><trkpt lat="44.429735" lon="8.8215799"><ele>18.666666666666668</ele><time>2026-03-22T10:26:59.653Z</time></trkpt><trkpt lat="44.4296502" lon="8.8218449"><ele>20.0</ele><time>2026-03-22T10:27:00.654Z</time></trkpt><trkpt lat="44.4295633" lon="8.8221114"><ele>20.333333333333336</ele><time>2026-03-22T10:27:01.653Z</time></trkpt><trkpt lat="44.4294812" lon="8.8223743"><ele>20.666666666666668</ele><time>2026-03-22T10:27:02.655Z</time></trkpt><trkpt lat="44.4294063" lon="8.8226312"><ele>21.0</ele><time>2026-03-22T10:27:03.654Z</time></trkpt><trkpt lat="44.4293377" lon="8.8228875"><ele>23.666666666666664</ele><time>2026-03-22T10:27:04.655Z</time></trkpt><trkpt lat="44.4292719" lon="8.8231414"><ele>26.333333333333332</ele><time>2026-03-22T10:27:05.654Z</time></trkpt><trkpt lat="44.4292114" lon="8.8233998"><ele>29.0</ele><time>2026-03-22T10:27:06.654Z</time></trkpt><trkpt lat="44.4291647" lon="8.823665"><ele>31.0</ele><time>2026-03-22T10:27:07.654Z</time></trkpt><trkpt lat="44.4291343" lon="8.8239422"><ele>33.0</ele><time>2026-03-22T10:27:08.653Z</time></trkpt><trkpt lat="44.4291258" lon="8.8242283"><ele>35.0</ele><time>2026-03-22T10:27:09.653Z</time></trkpt><trkpt lat="44.4291353" lon="8.8245184"><ele>35.33333333333333</ele><time>2026-03-22T10:27:10.654Z</time></trkpt><trkpt lat="44.4291627" lon="8.8248104"><ele>35.666666666666664</ele><time>2026-03-22T10:27:11.655Z</time></trkpt><trkpt lat="44.4292107" lon="8.8251014"><ele>36.0</ele><time>2026-03-22T10:27:12.653Z</time></trkpt><trkpt lat="44.429275" lon="8.8253885"><ele>37.0</ele><time>2026-03-22T10:27:13.654Z</time></trkpt><trkpt lat="44.4293566" lon="8.8256656"><ele>38.0</ele><time>2026-03-22T10:27:14.653Z</time></trkpt><trkpt lat="44.4294434" lon="8.8259348"><ele>39.0</ele><time>2026-03-22T10:27:15.654Z</time></trkpt><trkpt lat="44.4295296" lon="8.8262116"><ele>43.0</ele><time>2026-03-22T10:27:16.653Z</time></trkpt><trkpt lat="44.4296144" lon="8.8264938"><ele>47.0</ele><time>2026-03-22T10:27:17.655Z</time></trkpt><trkpt lat="44.4296887" lon="8.8267768"><ele>51.0</ele><time>2026-03-22T10:27:18.653Z</time></trkpt><trkpt lat="44.4297513" lon="8.8270744"><ele>52.66666666666667</ele><time>2026-03-22T10:27:19.654Z</time></trkpt><trkpt lat="44.4297394" lon="8.8273589"><ele>54.333333333333336</ele><time>2026-03-22T10:27:20.653Z</time></trkpt><trkpt lat="44.4297331" lon="8.8276552"><ele>56.0</ele><time>2026-03-22T10:27:21.653Z</time></trkpt><trkpt lat="44.4297194" lon="8.82796"><ele>59.333333333333336</ele><time>2026-03-22T10:27:22.653Z</time></trkpt><trkpt lat="44.4297033" lon="8.8282494"><ele>62.66666666666667</ele><time>2026-03-22T10:27:23.654Z</time></trkpt><trkpt lat="44.4296894" lon="8.8285407"><ele>66.0</ele><time>2026-03-22T10:27:24.654Z</time></trkpt><trkpt lat="44.4295102" lon="8.8327362"><ele>58.0</ele><time>2026-03-22T10:27:39.654Z</time></trkpt><trkpt lat="44.429523" lon="8.833038"><ele>50.0</ele><time>2026-03-22T10:27:40.654Z</time></trkpt><trkpt lat="44.4295536" lon="8.8333337"><ele>42.0</ele><time>2026-03-22T10:27:41.655Z</time></trkpt><trkpt lat="44.4295873" lon="8.8336247"><ele>40.333333333333336</ele><time>2026-03-22T10:27:42.653Z</time></trkpt><trkpt lat="44.4296285" lon="8.8339146"><ele>38.66666666666667</ele><time>2026-03-22T10:27:43.653Z</time></trkpt><trkpt lat="44.4296967" lon="8.8342045"><ele>37.0</ele><time>2026-03-22T10:27:44.655Z</time></trkpt><trkpt lat="44.4297757" lon="8.8345002"><ele>41.0</ele><time>2026-03-22T10:27:45.655Z</time></trkpt><trkpt lat="44.4298575" lon="8.8347969"><ele>45.0</ele><time>2026-03-22T10:27:46.654Z</time></trkpt><trkpt lat="44.4299346" lon="8.8350817"><ele>49.0</ele><time>2026-03-22T10:27:47.654Z</time></trkpt><trkpt lat="44.4300113" lon="8.8353544"><ele>49.0</ele><time>2026-03-22T10:27:48.653Z</time></trkpt><trkpt lat="44.4300719" lon="8.8356156"><ele>49.0</ele><time>2026-03-22T10:27:49.653Z</time></trkpt><trkpt lat="44.4301421" lon="8.8358762"><ele>49.0</ele><time>2026-03-22T10:27:50.654Z</time></trkpt><trkpt lat="44.4301987" lon="8.8361297"><ele>49.33333333333333</ele><time>2026-03-22T10:27:51.654Z</time></trkpt><trkpt lat="44.4302344" lon="8.836387"><ele>49.66666666666667</ele><time>2026-03-22T10:27:52.654Z</time></trkpt><trkpt lat="44.4302334" lon="8.836689"><ele>50.0</ele><time>2026-03-22T10:27:53.654Z</time></trkpt><trkpt lat="44.4302106" lon="8.8369627"><ele>49.0</ele><time>2026-03-22T10:27:54.654Z</time></trkpt><trkpt lat="44.4301845" lon="8.8372415"><ele>48.0</ele><time>2026-03-22T10:27:55.654Z</time></trkpt><trkpt lat="44.4301324" lon="8.8375052"><ele>47.0</ele><time>2026-03-22T10:27:56.653Z</time></trkpt><trkpt lat="44.4300743" lon="8.8377617"><ele>44.33333333333333</ele><time>2026-03-22T10:27:57.653Z</time></trkpt><trkpt lat="44.4300275" lon="8.8380238"><ele>41.666666666666664</ele><time>2026-03-22T10:27:58.654Z</time></trkpt><trkpt lat="44.4299923" lon="8.838289"><ele>39.0</ele><time>2026-03-22T10:27:59.654Z</time></trkpt><trkpt lat="44.4299757" lon="8.8385518"><ele>39.0</ele><time>2026-03-22T10:28:00.653Z</time></trkpt><trkpt lat="44.4299747" lon="8.8388138"><ele>39.0</ele><time>2026-03-22T10:28:01.655Z</time></trkpt><trkpt lat="44.4299879" lon="8.8390871"><ele>39.0</ele><time>2026-03-22T10:28:02.653Z</time></trkpt><trkpt lat="44.4300203" lon="8.8393611"><ele>39.0</ele><time>2026-03-22T10:28:03.655Z</time></trkpt><trkpt lat="44.4300701" lon="8.8396327"><ele>39.0</ele><time>2026-03-22T10:28:04.654Z</time></trkpt><trkpt lat="44.4301367" lon="8.8398917"><ele>39.0</ele><time>2026-03-22T10:28:05.655Z</time></trkpt><trkpt lat="44.4302067" lon="8.8401315"><ele>44.0</ele><time>2026-03-22T10:28:06.653Z</time></trkpt><trkpt lat="44.4302854" lon="8.8403648"><ele>49.0</ele><time>2026-03-22T10:28:07.654Z</time></trkpt><trkpt lat="44.430374" lon="8.8405902"><ele>54.0</ele><time>2026-03-22T10:28:08.654Z</time></trkpt><trkpt lat="44.4304673" lon="8.8408105"><ele>48.0</ele><time>2026-03-22T10:28:09.653Z</time></trkpt><trkpt lat="44.4306937" lon="8.8435901"><ele>48.0</ele><time>2026-03-22T10:28:20.654Z</time></trkpt><trkpt lat="44.4306375" lon="8.8438531"><ele>48.0</ele><time>2026-03-22T10:28:21.653Z</time></trkpt><trkpt lat="44.4305968" lon="8.8441423"><ele>48.0</ele><time>2026-03-22T10:28:22.654Z</time></trkpt><trkpt lat="44.4305573" lon="8.8444046"><ele>46.666666666666664</ele><time>2026-03-22T10:28:23.655Z</time></trkpt><trkpt lat="44.4305014" lon="8.8446585"><ele>45.33333333333333</ele><time>2026-03-22T10:28:24.654Z</time></trkpt><trkpt lat="44.430441" lon="8.8449211"><ele>44.0</ele><time>2026-03-22T10:28:25.654Z</time></trkpt><trkpt lat="44.4303967" lon="8.8451691"><ele>42.33333333333333</ele><time>2026-03-22T10:28:26.653Z</time></trkpt><trkpt lat="44.4303482" lon="8.8453938"><ele>40.666666666666664</ele><time>2026-03-22T10:28:27.654Z</time></trkpt><trkpt lat="44.4303094" lon="8.8456375"><ele>39.0</ele><time>2026-03-22T10:28:28.653Z</time></trkpt><trkpt lat="44.4302642" lon="8.845863"><ele>37.333333333333336</ele><time>2026-03-22T10:28:29.653Z</time></trkpt><trkpt lat="44.4302193" lon="8.8461078"><ele>35.66666666666667</ele><time>2026-03-22T10:28:30.655Z</time></trkpt><trkpt lat="44.4301959" lon="8.8463735"><ele>34.0</ele><time>2026-03-22T10:28:31.654Z</time></trkpt><trkpt lat="44.4301818" lon="8.8466191"><ele>35.66666666666667</ele><time>2026-03-22T10:28:32.653Z</time></trkpt><trkpt lat="44.4301888" lon="8.8468824"><ele>37.333333333333336</ele><time>2026-03-22T10:28:33.655Z</time></trkpt><trkpt lat="44.4301943" lon="8.8471448"><ele>39.0</ele><time>2026-03-22T10:28:34.654Z</time></trkpt><trkpt lat="44.4302176" lon="8.8474084"><ele>40.333333333333336</ele><time>2026-03-22T10:28:35.654Z</time></trkpt><trkpt lat="44.4302462" lon="8.8476629"><ele>41.66666666666667</ele><time>2026-03-22T10:28:36.654Z</time></trkpt><trkpt lat="44.4302726" lon="8.8479171"><ele>43.0</ele><time>2026-03-22T10:28:37.654Z</time></trkpt><trkpt lat="44.4303051" lon="8.8481686"><ele>22.0</ele><time>2026-03-22T10:28:38.654Z</time></trkpt><trkpt lat="44.4300473" lon="8.8535926"><ele>22.0</ele><time>2026-03-22T10:28:59.654Z</time></trkpt><trkpt lat="44.4300015" lon="8.8538939"><ele>22.0</ele><time>2026-03-22T10:29:00.653Z</time></trkpt><trkpt lat="44.4299547" lon="8.8542276"><ele>21.5</ele><time>2026-03-22T10:29:01.653Z</time></trkpt><trkpt lat="44.4299011" lon="8.8545863"><ele>21.0</ele><time>2026-03-22T10:29:02.654Z</time></trkpt><trkpt lat="44.4298416" lon="8.8549352"><ele>27.0</ele><time>2026-03-22T10:29:03.654Z</time></trkpt><trkpt lat="44.4297825" lon="8.8552698"><ele>33.0</ele><time>2026-03-22T10:29:04.654Z</time></trkpt><trkpt lat="44.4297298" lon="8.855593"><ele>33.0</ele><time>2026-03-22T10:29:05.654Z</time></trkpt><trkpt lat="44.4296766" lon="8.8559107"><ele>33.0</ele><time>2026-03-22T10:29:06.654Z</time></trkpt><trkpt lat="44.4296236" lon="8.8562263"><ele>32.0</ele><time>2026-03-22T10:29:07.654Z</time></trkpt><trkpt lat="44.4295725" lon="8.8565372"><ele>31.0</ele><time>2026-03-22T10:29:08.653Z</time></trkpt><trkpt lat="44.4295151" lon="8.8568407"><ele>28.0</ele><time>2026-03-22T10:29:09.653Z</time></trkpt><trkpt lat="44.429437" lon="8.8571391"><ele>25.0</ele><time>2026-03-22T10:29:10.654Z</time></trkpt><trkpt lat="44.4293362" lon="8.8574445"><ele>22.0</ele><time>2026-03-22T10:29:11.654Z</time></trkpt><trkpt lat="44.4292119" lon="8.8577436"><ele>19.0</ele><time>2026-03-22T10:29:12.654Z</time></trkpt><trkpt lat="44.4290739" lon="8.8580332"><ele>19.0</ele><time>2026-03-22T10:29:13.654Z</time></trkpt><trkpt lat="44.4289321" lon="8.8583108"><ele>19.0</ele><time>2026-03-22T10:29:14.653Z</time></trkpt><trkpt lat="44.4287919" lon="8.8585793"><ele>18.0</ele><time>2026-03-22T10:29:15.653Z</time></trkpt><trkpt lat="44.4286542" lon="8.8588432"><ele>17.0</ele><time>2026-03-22T10:29:16.654Z</time></trkpt><trkpt lat="44.4285175" lon="8.8591068"><ele>21.5</ele><time>2026-03-22T10:29:17.654Z</time></trkpt><trkpt lat="44.4283781" lon="8.8593724"><ele>26.0</ele><time>2026-03-22T10:29:18.653Z</time></trkpt><trkpt lat="44.4282375" lon="8.859639"><ele>26.0</ele><time>2026-03-22T10:29:19.654Z</time></trkpt><trkpt lat="44.4280965" lon="8.8599061"><ele>26.0</ele><time>2026-03-22T10:29:20.654Z</time></trkpt><trkpt lat="44.4279558" lon="8.8601736"><ele>41.0</ele><time>2026-03-22T10:29:21.654Z</time></trkpt><trkpt lat="44.4278165" lon="8.8604415"><ele>56.0</ele><time>2026-03-22T10:29:22.653Z</time></trkpt><trkpt lat="44.427681" lon="8.8607101"><ele>58.0</ele><time>2026-03-22T10:29:23.654Z</time></trkpt><trkpt lat="44.4275456" lon="8.8609823"><ele>60.0</ele><time>2026-03-22T10:29:24.654Z</time></trkpt><trkpt lat="44.4274147" lon="8.8612541"><ele>60.0</ele><time>2026-03-22T10:29:25.653Z</time></trkpt><trkpt lat="44.4272861" lon="8.8615177"><ele>60.0</ele><time>2026-03-22T10:29:26.654Z</time></trkpt><trkpt lat="44.427155" lon="8.8617787"><ele>76.5</ele><time>2026-03-22T10:29:27.654Z</time></trkpt><trkpt lat="44.4270188" lon="8.8620327"><ele>93.0</ele><time>2026-03-22T10:29:28.653Z</time></trkpt><trkpt lat="44.4268769" lon="8.8622863"><ele>93.0</ele><time>2026-03-22T10:29:29.653Z</time></trkpt><trkpt lat="44.426731" lon="8.8625468"><ele>93.0</ele><time>2026-03-22T10:29:30.653Z</time></trkpt><trkpt lat="44.426591" lon="8.8628111"><ele>68.0</ele><time>2026-03-22T10:29:31.654Z</time></trkpt><trkpt lat="44.4242576" lon="8.8678492"><ele>68.0</ele><time>2026-03-22T10:29:48.655Z</time></trkpt><trkpt lat="44.4241634" lon="8.8681491"><ele>68.0</ele><time>2026-03-22T10:29:49.654Z</time></trkpt><trkpt lat="44.424098" lon="8.8684499"><ele>71.0</ele><time>2026-03-22T10:29:50.653Z</time></trkpt><trkpt lat="44.4240577" lon="8.8687575"><ele>74.0</ele><time>2026-03-22T10:29:51.654Z</time></trkpt><trkpt lat="44.4240376" lon="8.8690745"><ele>76.33333333333334</ele><time>2026-03-22T10:29:52.654Z</time></trkpt><trkpt lat="44.4240395" lon="8.869391"><ele>78.66666666666667</ele><time>2026-03-22T10:29:53.654Z</time></trkpt><trkpt lat="44.4240663" lon="8.8697003"><ele>81.0</ele><time>2026-03-22T10:29:54.653Z</time></trkpt><trkpt lat="44.4241198" lon="8.8699988"><ele>86.0</ele><time>2026-03-22T10:29:55.653Z</time></trkpt><trkpt lat="44.4241899" lon="8.8703032"><ele>91.0</ele><time>2026-03-22T10:29:56.654Z</time></trkpt><trkpt lat="44.4242759" lon="8.8706001"><ele>91.0</ele><time>2026-03-22T10:29:57.653Z</time></trkpt><trkpt lat="44.4243716" lon="8.870889"><ele>91.0</ele><time>2026-03-22T10:29:58.653Z</time></trkpt><trkpt lat="44.4280274" lon="8.881204"><ele>66.0</ele><time>2026-03-22T10:30:24.858Z</time></trkpt><trkpt lat="44.427758" lon="8.8815798"><ele>41.0</ele><time>2026-03-22T10:30:30.653Z</time></trkpt><trkpt lat="44.4278215" lon="8.8818988"><ele>30.0</ele><time>2026-03-22T10:30:31.655Z</time></trkpt><trkpt lat="44.4278603" lon="8.8822173"><ele>19.0</ele><time>2026-03-22T10:30:32.654Z</time></trkpt><trkpt lat="44.4278746" lon="8.8825418"><ele>17.5</ele><time>2026-03-22T10:30:33.653Z</time></trkpt><trkpt lat="44.4278693" lon="8.8828654"><ele>16.0</ele><time>2026-03-22T10:30:34.653Z</time></trkpt><trkpt lat="44.4278399" lon="8.8831866"><ele>16.0</ele><time>2026-03-22T10:30:35.654Z</time></trkpt><trkpt lat="44.4277923" lon="8.8835041"><ele>16.0</ele><time>2026-03-22T10:30:36.653Z</time></trkpt><trkpt lat="44.427728" lon="8.8838156"><ele>16.0</ele><time>2026-03-22T10:30:37.653Z</time></trkpt><trkpt lat="44.4276436" lon="8.8841221"><ele>16.0</ele><time>2026-03-22T10:30:38.654Z</time></trkpt><trkpt lat="44.4275475" lon="8.8844255"><ele>16.5</ele><time>2026-03-22T10:30:39.654Z</time></trkpt><trkpt lat="44.4274372" lon="8.8847382"><ele>17.0</ele><time>2026-03-22T10:30:40.653Z</time></trkpt><trkpt lat="44.4273063" lon="8.8850747"><ele>19.0</ele><time>2026-03-22T10:30:41.654Z</time></trkpt><trkpt lat="44.4271603" lon="8.8854364"><ele>21.0</ele><time>2026-03-22T10:30:42.654Z</time></trkpt><trkpt lat="44.427012" lon="8.885796"><ele>18.0</ele><time>2026-03-22T10:30:43.654Z</time></trkpt><trkpt lat="44.4268734" lon="8.8861319"><ele>15.0</ele><time>2026-03-22T10:30:44.655Z</time></trkpt><trkpt lat="44.426736" lon="8.8864608"><ele>15.5</ele><time>2026-03-22T10:30:45.655Z</time></trkpt><trkpt lat="44.4266033" lon="8.8867783"><ele>16.0</ele><time>2026-03-22T10:30:46.654Z</time></trkpt><trkpt lat="44.4264736" lon="8.8870949"><ele>16.0</ele><time>2026-03-22T10:30:47.654Z</time></trkpt><trkpt lat="44.4263459" lon="8.8874029"><ele>16.0</ele><time>2026-03-22T10:30:48.654Z</time></trkpt><trkpt lat="44.4262197" lon="8.8876995"><ele>14.0</ele><time>2026-03-22T10:30:49.655Z</time></trkpt><trkpt lat="44.4260959" lon="8.8879829"><ele>12.0</ele><time>2026-03-22T10:30:50.654Z</time></trkpt><trkpt lat="44.4259731" lon="8.8882626"><ele>13.0</ele><time>2026-03-22T10:30:51.654Z</time></trkpt><trkpt lat="44.4258549" lon="8.8885432"><ele>14.0</ele><time>2026-03-22T10:30:52.653Z</time></trkpt><trkpt lat="44.425738" lon="8.8888253"><ele>14.0</ele><time>2026-03-22T10:30:53.653Z</time></trkpt><trkpt lat="44.4256247" lon="8.8891024"><ele>14.0</ele><time>2026-03-22T10:30:54.654Z</time></trkpt><trkpt lat="44.4255101" lon="8.8893808"><ele>15.0</ele><time>2026-03-22T10:30:55.654Z</time></trkpt><trkpt lat="44.4253982" lon="8.8896474"><ele>16.0</ele><time>2026-03-22T10:30:56.655Z</time></trkpt><trkpt lat="44.4252888" lon="8.8899134"><ele>17.0</ele><time>2026-03-22T10:30:57.655Z</time></trkpt><trkpt lat="44.4251777" lon="8.8901847"><ele>17.0</ele><time>2026-03-22T10:30:58.655Z</time></trkpt><trkpt lat="44.4250671" lon="8.8904547"><ele>17.0</ele><time>2026-03-22T10:30:59.654Z</time></trkpt><trkpt lat="44.4249596" lon="8.8907226"><ele>17.0</ele><time>2026-03-22T10:31:00.654Z</time></trkpt><trkpt lat="44.4248535" lon="8.8909865"><ele>17.0</ele><time>2026-03-22T10:31:01.653Z</time></trkpt><trkpt lat="44.4247509" lon="8.8912402"><ele>17.0</ele><time>2026-03-22T10:31:02.654Z</time></trkpt><trkpt lat="44.4246517" lon="8.8914818"><ele>17.0</ele><time>2026-03-22T10:31:03.654Z</time></trkpt><trkpt lat="44.4245572" lon="8.8917129"><ele>22.333333333333336</ele><time>2026-03-22T10:31:04.654Z</time></trkpt><trkpt lat="44.4244652" lon="8.8919357"><ele>27.666666666666668</ele><time>2026-03-22T10:31:05.655Z</time></trkpt><trkpt lat="44.4243732" lon="8.8921558"><ele>33.0</ele><time>2026-03-22T10:31:06.654Z</time></trkpt><trkpt lat="44.4242812" lon="8.8923736"><ele>33.0</ele><time>2026-03-22T10:31:07.653Z</time></trkpt><trkpt lat="44.4241939" lon="8.8925886"><ele>33.0</ele><time>2026-03-22T10:31:08.653Z</time></trkpt><trkpt lat="44.4241079" lon="8.8927975"><ele>33.0</ele><time>2026-03-22T10:31:09.653Z</time></trkpt><trkpt lat="44.4240281" lon="8.892996"><ele>39.75</ele><time>2026-03-22T10:31:10.654Z</time></trkpt><trkpt lat="44.4239516" lon="8.893184"><ele>46.5</ele><time>2026-03-22T10:31:11.653Z</time></trkpt><trkpt lat="44.4238757" lon="8.8933636"><ele>53.25</ele><time>2026-03-22T10:31:12.654Z</time></trkpt><trkpt lat="44.4237947" lon="8.8935249"><ele>60.0</ele><time>2026-03-22T10:31:13.654Z</time></trkpt><trkpt lat="44.4237025" lon="8.8936545"><ele>62.0</ele><time>2026-03-22T10:31:14.654Z</time></trkpt><trkpt lat="44.4235919" lon="8.8937574"><ele>64.0</ele><time>2026-03-22T10:31:15.653Z</time></trkpt><trkpt lat="44.4234623" lon="8.8938147"><ele>66.0</ele><time>2026-03-22T10:31:16.653Z</time></trkpt><trkpt lat="44.4233316" lon="8.8938519"><ele>68.0</ele><time>2026-03-22T10:31:17.654Z</time></trkpt><trkpt lat="44.4232031" lon="8.8938824"><ele>68.0</ele><time>2026-03-22T10:31:18.653Z</time></trkpt><trkpt lat="44.4230828" lon="8.8939055"><ele>68.0</ele><time>2026-03-22T10:31:19.654Z</time></trkpt><trkpt lat="44.4229723" lon="8.8938996"><ele>68.0</ele><time>2026-03-22T10:31:20.655Z</time></trkpt><trkpt lat="44.4228746" lon="8.8938595"><ele>68.0</ele><time>2026-03-22T10:31:21.653Z</time></trkpt><trkpt lat="44.4227896" lon="8.8937925"><ele>68.0</ele><time>2026-03-22T10:31:22.653Z</time></trkpt><trkpt lat="44.4227189" lon="8.8936941"><ele>65.8</ele><time>2026-03-22T10:31:23.654Z</time></trkpt><trkpt lat="44.422665" lon="8.8935749"><ele>63.599999999999994</ele><time>2026-03-22T10:31:24.653Z</time></trkpt><trkpt lat="44.4226376" lon="8.8934477"><ele>61.400000000000006</ele><time>2026-03-22T10:31:25.654Z</time></trkpt><trkpt lat="44.4226327" lon="8.8933094"><ele>59.2</ele><time>2026-03-22T10:31:26.655Z</time></trkpt><trkpt lat="44.4226531" lon="8.8931689"><ele>57.0</ele><time>2026-03-22T10:31:27.654Z</time></trkpt><trkpt lat="44.4226931" lon="8.8930422"><ele>55.400000000000006</ele><time>2026-03-22T10:31:28.653Z</time></trkpt><trkpt lat="44.4227594" lon="8.8929359"><ele>53.800000000000004</ele><time>2026-03-22T10:31:29.655Z</time></trkpt><trkpt lat="44.4228427" lon="8.8928561"><ele>52.2</ele><time>2026-03-22T10:31:30.655Z</time></trkpt><trkpt lat="44.4229375" lon="8.8928123"><ele>50.6</ele><time>2026-03-22T10:31:31.654Z</time></trkpt><trkpt lat="44.4230419" lon="8.8928007"><ele>49.0</ele><time>2026-03-22T10:31:32.654Z</time></trkpt><trkpt lat="44.4231416" lon="8.8928267"><ele>49.0</ele><time>2026-03-22T10:31:33.655Z</time></trkpt><trkpt lat="44.4232372" lon="8.8928912"><ele>49.0</ele><time>2026-03-22T10:31:34.653Z</time></trkpt><trkpt lat="44.4233179" lon="8.8929835"><ele>49.0</ele><time>2026-03-22T10:31:35.653Z</time></trkpt><trkpt lat="44.4233824" lon="8.8931027"><ele>49.0</ele><time>2026-03-22T10:31:36.655Z</time></trkpt><trkpt lat="44.4234378" lon="8.8932398"><ele>49.0</ele><time>2026-03-22T10:31:37.653Z</time></trkpt><trkpt lat="44.4234933" lon="8.8933814"><ele>53.75</ele><time>2026-03-22T10:31:38.653Z</time></trkpt><trkpt lat="44.4235478" lon="8.8935266"><ele>58.5</ele><time>2026-03-22T10:31:39.653Z</time></trkpt><trkpt lat="44.4236033" lon="8.8936732"><ele>63.25</ele><time>2026-03-22T10:31:40.653Z</time></trkpt><trkpt lat="44.4236581" lon="8.8938161"><ele>68.0</ele><time>2026-03-22T10:31:41.654Z</time></trkpt><trkpt lat="44.4237157" lon="8.8939504"><ele>68.0</ele><time>2026-03-22T10:31:42.653Z</time></trkpt><trkpt lat="44.4237795" lon="8.8940741"><ele>68.0</ele><time>2026-03-22T10:31:43.654Z</time></trkpt><trkpt lat="44.4238565" lon="8.8941753"><ele>68.0</ele><time>2026-03-22T10:31:44.654Z</time></trkpt><trkpt lat="44.4239519" lon="8.8942548"><ele>68.0</ele><time>2026-03-22T10:31:45.654Z</time></trkpt><trkpt lat="44.4240597" lon="8.8943028"><ele>68.0</ele><time>2026-03-22T10:31:46.655Z</time></trkpt><trkpt lat="44.4241742" lon="8.8943166"><ele>73.75</ele><time>2026-03-22T10:31:47.654Z</time></trkpt><trkpt lat="44.4242904" lon="8.8943051"><ele>79.5</ele><time>2026-03-22T10:31:48.653Z</time></trkpt><trkpt lat="44.4244135" lon="8.8942907"><ele>85.25</ele><time>2026-03-22T10:31:49.654Z</time></trkpt><trkpt lat="44.4245489" lon="8.894315"><ele>91.0</ele><time>2026-03-22T10:31:50.653Z</time></trkpt><trkpt lat="44.4246845" lon="8.8943716"><ele>91.0</ele><time>2026-03-22T10:31:51.654Z</time></trkpt><trkpt lat="44.4248227" lon="8.8944511"><ele>91.0</ele><time>2026-03-22T10:31:52.653Z</time></trkpt><trkpt lat="44.4249633" lon="8.8945471"><ele>91.0</ele><time>2026-03-22T10:31:53.654Z</time></trkpt><trkpt lat="44.4250967" lon="8.8946495"><ele>91.0</ele><time>2026-03-22T10:31:54.655Z</time></trkpt><trkpt lat="44.4252275" lon="8.8947514"><ele>91.0</ele><time>2026-03-22T10:31:55.653Z</time></trkpt><trkpt lat="44.4253595" lon="8.8948517"><ele>91.0</ele><time>2026-03-22T10:31:56.653Z</time></trkpt><trkpt lat="44.4254957" lon="8.8949445"><ele>89.0</ele><time>2026-03-22T10:31:57.653Z</time></trkpt><trkpt lat="44.4256338" lon="8.8950418"><ele>87.0</ele><time>2026-03-22T10:31:58.654Z</time></trkpt><trkpt lat="44.4257739" lon="8.8951482"><ele>85.0</ele><time>2026-03-22T10:31:59.654Z</time></trkpt><trkpt lat="44.4259172" lon="8.8952667"><ele>85.0</ele><time>2026-03-22T10:32:00.653Z</time></trkpt><trkpt lat="44.4260597" lon="8.895388"><ele>85.0</ele><time>2026-03-22T10:32:01.653Z</time></trkpt><trkpt lat="44.4261969" lon="8.8955203"><ele>85.0</ele><time>2026-03-22T10:32:02.654Z</time></trkpt><trkpt lat="44.4263261" lon="8.8956643"><ele>83.0</ele><time>2026-03-22T10:32:03.655Z</time></trkpt><trkpt lat="44.4264431" lon="8.895824"><ele>81.0</ele><time>2026-03-22T10:32:04.654Z</time></trkpt><trkpt lat="44.4265489" lon="8.8960022"><ele>79.0</ele><time>2026-03-22T10:32:05.654Z</time></trkpt><trkpt lat="44.4266433" lon="8.8962046"><ele>79.0</ele><time>2026-03-22T10:32:06.654Z</time></trkpt><trkpt lat="44.4267231" lon="8.8964245"><ele>79.0</ele><time>2026-03-22T10:32:07.654Z</time></trkpt><trkpt lat="44.4267879" lon="8.8966559"><ele>79.0</ele><time>2026-03-22T10:32:08.653Z</time></trkpt><trkpt lat="44.4268367" lon="8.8969017"><ele>80.33333333333333</ele><time>2026-03-22T10:32:09.653Z</time></trkpt><trkpt lat="44.4268797" lon="8.8971539"><ele>81.66666666666667</ele><time>2026-03-22T10:32:10.654Z</time></trkpt><trkpt lat="44.4269318" lon="8.8974121"><ele>83.0</ele><time>2026-03-22T10:32:11.653Z</time></trkpt><trkpt lat="44.4269937" lon="8.8976731"><ele>82.66666666666667</ele><time>2026-03-22T10:32:12.654Z</time></trkpt><trkpt lat="44.4270679" lon="8.8979212"><ele>82.33333333333333</ele><time>2026-03-22T10:32:13.653Z</time></trkpt><trkpt lat="44.4271544" lon="8.8981603"><ele>82.0</ele><time>2026-03-22T10:32:14.654Z</time></trkpt><trkpt lat="44.4272545" lon="8.8983874"><ele>89.33333333333333</ele><time>2026-03-22T10:32:15.653Z</time></trkpt><trkpt lat="44.4273684" lon="8.898604"><ele>96.66666666666666</ele><time>2026-03-22T10:32:16.653Z</time></trkpt><trkpt lat="44.4274932" lon="8.8988032"><ele>104.0</ele><time>2026-03-22T10:32:17.654Z</time></trkpt><trkpt lat="44.4276283" lon="8.8989938"><ele>104.0</ele><time>2026-03-22T10:32:18.654Z</time></trkpt><trkpt lat="44.4277728" lon="8.8991658"><ele>104.0</ele><time>2026-03-22T10:32:19.654Z</time></trkpt><trkpt lat="44.4307711" lon="8.8999874"><ele>101.33333333333333</ele><time>2026-03-22T10:32:34.654Z</time></trkpt><trkpt lat="44.430974" lon="8.900009"><ele>98.66666666666666</ele><time>2026-03-22T10:32:35.654Z</time></trkpt><trkpt lat="44.4311807" lon="8.9000237"><ele>96.0</ele><time>2026-03-22T10:32:36.654Z</time></trkpt><trkpt lat="44.4313861" lon="8.9000404"><ele>62.0</ele><time>2026-03-22T10:32:37.653Z</time></trkpt><trkpt lat="44.4327355" lon="8.9001163"><ele>63.5</ele><time>2026-03-22T10:32:42.653Z</time></trkpt><trkpt lat="44.4329803" lon="8.9001465"><ele>65.0</ele><time>2026-03-22T10:32:43.654Z</time></trkpt><trkpt lat="44.4332999" lon="8.9001846"><ele>65.0</ele><time>2026-03-22T10:32:44.653Z</time></trkpt><trkpt lat="44.4336443" lon="8.9002172"><ele>65.0</ele><time>2026-03-22T10:32:45.654Z</time></trkpt><trkpt lat="44.4339687" lon="8.900252"><ele>74.5</ele><time>2026-03-22T10:32:46.654Z</time></trkpt><trkpt lat="44.4342792" lon="8.9002854"><ele>84.0</ele><time>2026-03-22T10:32:47.654Z</time></trkpt><trkpt lat="44.4345916" lon="8.9003153"><ele>91.0</ele><time>2026-03-22T10:32:48.654Z</time></trkpt><trkpt lat="44.4349034" lon="8.9003454"><ele>98.0</ele><time>2026-03-22T10:32:49.655Z</time></trkpt><trkpt lat="44.4352162" lon="8.9003794"><ele>99.0</ele><time>2026-03-22T10:32:50.654Z</time></trkpt><trkpt lat="44.4355297" lon="8.9004227"><ele>100.0</ele><time>2026-03-22T10:32:51.654Z</time></trkpt><trkpt lat="44.4358389" lon="8.9004822"><ele>62.0</ele><time>2026-03-22T10:32:52.653Z</time></trkpt><trkpt lat="44.4373605" lon="8.90104"><ele>62.0</ele><time>2026-03-22T10:32:57.653Z</time></trkpt><trkpt lat="44.4376561" lon="8.9011914"><ele>62.0</ele><time>2026-03-22T10:32:58.654Z</time></trkpt><trkpt lat="44.437936" lon="8.9013504"><ele>67.0</ele><time>2026-03-22T10:32:59.654Z</time></trkpt><trkpt lat="44.4381969" lon="8.9015133"><ele>72.0</ele><time>2026-03-22T10:33:00.653Z</time></trkpt><trkpt lat="44.438445" lon="8.9016819"><ele>76.5</ele><time>2026-03-22T10:33:01.654Z</time></trkpt><trkpt lat="44.4386879" lon="8.9018603"><ele>81.0</ele><time>2026-03-22T10:33:02.653Z</time></trkpt><trkpt lat="44.4389292" lon="8.902051"><ele>81.0</ele><time>2026-03-22T10:33:03.655Z</time></trkpt><trkpt lat="44.4391692" lon="8.9022503"><ele>81.0</ele><time>2026-03-22T10:33:04.654Z</time></trkpt><trkpt lat="44.4394098" lon="8.9024581"><ele>81.5</ele><time>2026-03-22T10:33:05.653Z</time></trkpt><trkpt lat="44.4396444" lon="8.9026642"><ele>82.0</ele><time>2026-03-22T10:33:06.653Z</time></trkpt><trkpt lat="44.4398712" lon="8.902865"><ele>82.0</ele><time>2026-03-22T10:33:07.654Z</time></trkpt><trkpt lat="44.4400967" lon="8.9030546"><ele>82.0</ele><time>2026-03-22T10:33:08.653Z</time></trkpt><trkpt lat="44.4403289" lon="8.9032338"><ele>71.5</ele><time>2026-03-22T10:33:09.653Z</time></trkpt><trkpt lat="44.4405699" lon="8.9033932"><ele>61.0</ele><time>2026-03-22T10:33:10.654Z</time></trkpt><trkpt lat="44.4408203" lon="8.9035307"><ele>60.0</ele><time>2026-03-22T10:33:11.654Z</time></trkpt><trkpt lat="44.4410773" lon="8.9036497"><ele>59.0</ele><time>2026-03-22T10:33:12.654Z</time></trkpt><trkpt lat="44.4413408" lon="8.9037513"><ele>53.0</ele><time>2026-03-22T10:33:13.654Z</time></trkpt><trkpt lat="44.4416118" lon="8.9038309"><ele>47.0</ele><time>2026-03-22T10:33:14.653Z</time></trkpt><trkpt lat="44.4418834" lon="8.9038857"><ele>44.5</ele><time>2026-03-22T10:33:15.654Z</time></trkpt><trkpt lat="44.4421567" lon="8.903915"><ele>42.0</ele><time>2026-03-22T10:33:16.654Z</time></trkpt><trkpt lat="44.4424337" lon="8.9039238"><ele>42.0</ele><time>2026-03-22T10:33:17.653Z</time></trkpt><trkpt lat="44.4427245" lon="8.9039239"><ele>42.0</ele><time>2026-03-22T10:33:18.653Z</time></trkpt><trkpt lat="44.4430273" lon="8.9039168"><ele>42.5</ele><time>2026-03-22T10:33:19.655Z</time></trkpt><trkpt lat="44.4433369" lon="8.9039096"><ele>43.0</ele><time>2026-03-22T10:33:20.654Z</time></trkpt><trkpt lat="44.4436397" lon="8.9039026"><ele>55.5</ele><time>2026-03-22T10:33:21.654Z</time></trkpt><trkpt lat="44.4439446" lon="8.9038982"><ele>68.0</ele><time>2026-03-22T10:33:22.654Z</time></trkpt><trkpt lat="44.4442521" lon="8.9038945"><ele>68.0</ele><time>2026-03-22T10:33:23.653Z</time></trkpt><trkpt lat="44.4445629" lon="8.9038913"><ele>68.0</ele><time>2026-03-22T10:33:24.653Z</time></trkpt><trkpt lat="44.4448736" lon="8.9038869"><ele>73.0</ele><time>2026-03-22T10:33:25.653Z</time></trkpt><trkpt lat="44.4451791" lon="8.9038815"><ele>78.0</ele><time>2026-03-22T10:33:26.653Z</time></trkpt><trkpt lat="44.4454844" lon="8.9038776"><ele>83.0</ele><time>2026-03-22T10:33:27.654Z</time></trkpt><trkpt lat="44.445787" lon="8.9038676"><ele>88.0</ele><time>2026-03-22T10:33:28.654Z</time></trkpt><trkpt lat="44.4460811" lon="8.9038591"><ele>90.5</ele><time>2026-03-22T10:33:29.653Z</time></trkpt><trkpt lat="44.4463708" lon="8.9038518"><ele>93.0</ele><time>2026-03-22T10:33:30.653Z</time></trkpt><trkpt lat="44.4466587" lon="8.9038463"><ele>93.0</ele><time>2026-03-22T10:33:31.655Z</time></trkpt><trkpt lat="44.4469458" lon="8.9038447"><ele>93.0</ele><time>2026-03-22T10:33:32.654Z</time></trkpt><trkpt lat="44.4472327" lon="8.9038494"><ele>92.5</ele><time>2026-03-22T10:33:33.653Z</time></trkpt><trkpt lat="44.4475194" lon="8.9038548"><ele>92.0</ele><time>2026-03-22T10:33:34.654Z</time></trkpt><trkpt lat="44.452654" lon="8.9037927"><ele>92.0</ele><time>2026-03-22T10:33:52.654Z</time></trkpt><trkpt lat="44.4529006" lon="8.9037813"><ele>92.0</ele><time>2026-03-22T10:33:53.653Z</time></trkpt><trkpt lat="44.4531527" lon="8.9037778"><ele>106.5</ele><time>2026-03-22T10:33:54.653Z</time></trkpt><trkpt lat="44.4534047" lon="8.9037749"><ele>121.0</ele><time>2026-03-22T10:33:55.654Z</time></trkpt><trkpt lat="44.4555442" lon="8.903911"><ele>88.5</ele><time>2026-03-22T10:34:04.654Z</time></trkpt><trkpt lat="44.4557673" lon="8.9039638"><ele>56.0</ele><time>2026-03-22T10:34:05.653Z</time></trkpt><trkpt lat="44.4559894" lon="8.9040191"><ele>56.0</ele><time>2026-03-22T10:34:06.654Z</time></trkpt><trkpt lat="44.4562035" lon="8.9040725"><ele>56.0</ele><time>2026-03-22T10:34:07.654Z</time></trkpt><trkpt lat="44.4564214" lon="8.904126"><ele>56.0</ele><time>2026-03-22T10:34:08.653Z</time></trkpt><trkpt lat="44.4566383" lon="8.9041809"><ele>55.333333333333336</ele><time>2026-03-22T10:34:09.653Z</time></trkpt><trkpt lat="44.4568473" lon="8.9042341"><ele>54.66666666666667</ele><time>2026-03-22T10:34:10.654Z</time></trkpt><trkpt lat="44.4570393" lon="8.9042838"><ele>54.0</ele><time>2026-03-22T10:34:11.653Z</time></trkpt><trkpt lat="44.4572177" lon="8.9043323"><ele>63.33333333333333</ele><time>2026-03-22T10:34:12.653Z</time></trkpt><trkpt lat="44.457388" lon="8.9043828"><ele>72.66666666666666</ele><time>2026-03-22T10:34:13.654Z</time></trkpt><trkpt lat="44.4575532" lon="8.9044381"><ele>82.0</ele><time>2026-03-22T10:34:14.654Z</time></trkpt><trkpt lat="44.4577105" lon="8.9044943"><ele>82.0</ele><time>2026-03-22T10:34:15.654Z</time></trkpt><trkpt lat="44.4578652" lon="8.9045548"><ele>82.0</ele><time>2026-03-22T10:34:16.654Z</time></trkpt><trkpt lat="44.4580167" lon="8.9046202"><ele>82.0</ele><time>2026-03-22T10:34:17.653Z</time></trkpt><trkpt lat="44.4581691" lon="8.9046961"><ele>85.66666666666666</ele><time>2026-03-22T10:34:18.655Z</time></trkpt><trkpt lat="44.4583217" lon="8.9047758"><ele>89.33333333333333</ele><time>2026-03-22T10:34:19.654Z</time></trkpt><trkpt lat="44.4584732" lon="8.9048566"><ele>93.0</ele><time>2026-03-22T10:34:20.653Z</time></trkpt><trkpt lat="44.4586268" lon="8.9049319"><ele>92.0</ele><time>2026-03-22T10:34:21.654Z</time></trkpt><trkpt lat="44.4648377" lon="8.9059151"><ele>92.0</ele><time>2026-03-22T10:34:50.874Z</time></trkpt><trkpt lat="44.465379" lon="8.9065837"><ele>87.66666666666667</ele><time>2026-03-22T10:34:55.653Z</time></trkpt><trkpt lat="44.4655611" lon="8.9066292"><ele>83.33333333333333</ele><time>2026-03-22T10:34:56.654Z</time></trkpt><trkpt lat="44.4657377" lon="8.9066952"><ele>79.0</ele><time>2026-03-22T10:34:57.655Z</time></trkpt><trkpt lat="44.4659135" lon="8.9067706"><ele>84.66666666666666</ele><time>2026-03-22T10:34:58.655Z</time></trkpt><trkpt lat="44.4660893" lon="8.9068503"><ele>90.33333333333333</ele><time>2026-03-22T10:34:59.654Z</time></trkpt><trkpt lat="44.4662638" lon="8.9069299"><ele>96.0</ele><time>2026-03-22T10:35:00.653Z</time></trkpt><trkpt lat="44.4664246" lon="8.9069973"><ele>96.0</ele><time>2026-03-22T10:35:01.653Z</time></trkpt><trkpt lat="44.4665876" lon="8.9070672"><ele>96.0</ele><time>2026-03-22T10:35:02.654Z</time></trkpt><trkpt lat="44.4667479" lon="8.9071361"><ele>96.0</ele><time>2026-03-22T10:35:03.654Z</time></trkpt><trkpt lat="44.4669011" lon="8.9072163"><ele>96.0</ele><time>2026-03-22T10:35:04.654Z</time></trkpt><trkpt lat="44.4670442" lon="8.9073028"><ele>96.0</ele><time>2026-03-22T10:35:05.654Z</time></trkpt><trkpt lat="44.4671664" lon="8.9074026"><ele>96.0</ele><time>2026-03-22T10:35:06.653Z</time></trkpt><trkpt lat="44.4672679" lon="8.9075218"><ele>96.0</ele><time>2026-03-22T10:35:07.653Z</time></trkpt><trkpt lat="44.4673484" lon="8.9076469"><ele>98.19999999999999</ele><time>2026-03-22T10:35:08.655Z</time></trkpt><trkpt lat="44.4674104" lon="8.9077874"><ele>100.39999999999999</ele><time>2026-03-22T10:35:09.654Z</time></trkpt><trkpt lat="44.4674764" lon="8.9079235"><ele>102.6</ele><time>2026-03-22T10:35:10.653Z</time></trkpt><trkpt lat="44.4675232" lon="8.9080511"><ele>104.8</ele><time>2026-03-22T10:35:11.654Z</time></trkpt><trkpt lat="44.4676029" lon="8.9081454"><ele>107.0</ele><time>2026-03-22T10:35:12.654Z</time></trkpt><trkpt lat="44.4676943" lon="8.9081923"><ele>107.0</ele><time>2026-03-22T10:35:13.654Z</time></trkpt><trkpt lat="44.4677847" lon="8.9081948"><ele>106.99999999999999</ele><time>2026-03-22T10:35:14.653Z</time></trkpt><trkpt lat="44.4678699" lon="8.908159"><ele>106.99999999999999</ele><time>2026-03-22T10:35:15.654Z</time></trkpt><trkpt lat="44.4679418" lon="8.9080887"><ele>107.0</ele><time>2026-03-22T10:35:16.654Z</time></trkpt><trkpt lat="44.4680067" lon="8.9079906"><ele>107.0</ele><time>2026-03-22T10:35:17.654Z</time></trkpt><trkpt lat="44.4680623" lon="8.9078764"><ele>106.39999999999999</ele><time>2026-03-22T10:35:18.653Z</time></trkpt><trkpt lat="44.4681164" lon="8.9077603"><ele>105.79999999999998</ele><time>2026-03-22T10:35:19.655Z</time></trkpt><trkpt lat="44.4681681" lon="8.9076494"><ele>105.2</ele><time>2026-03-22T10:35:20.653Z</time></trkpt><trkpt lat="44.4682195" lon="8.9075345"><ele>104.6</ele><time>2026-03-22T10:35:21.654Z</time></trkpt><trkpt lat="44.4682705" lon="8.9074191"><ele>104.0</ele><time>2026-03-22T10:35:22.653Z</time></trkpt><trkpt lat="44.4683213" lon="8.9073076"><ele>97.8</ele><time>2026-03-22T10:35:23.653Z</time></trkpt><trkpt lat="44.468361" lon="8.9071927"><ele>91.60000000000001</ele><time>2026-03-22T10:35:24.653Z</time></trkpt><trkpt lat="44.4683801" lon="8.907065"><ele>85.4</ele><time>2026-03-22T10:35:25.654Z</time></trkpt><trkpt lat="44.4683743" lon="8.9069358"><ele>79.2</ele><time>2026-03-22T10:35:26.653Z</time></trkpt><trkpt lat="44.4683462" lon="8.9068163"><ele>73.0</ele><time>2026-03-22T10:35:27.653Z</time></trkpt><trkpt lat="44.4683009" lon="8.9067123"><ele>70.83333333333333</ele><time>2026-03-22T10:35:28.654Z</time></trkpt><trkpt lat="44.4682368" lon="8.9066316"><ele>68.66666666666666</ele><time>2026-03-22T10:35:29.653Z</time></trkpt><trkpt lat="44.4681622" lon="8.9065792"><ele>66.5</ele><time>2026-03-22T10:35:30.654Z</time></trkpt><trkpt lat="44.4680731" lon="8.9065565"><ele>64.33333333333333</ele><time>2026-03-22T10:35:31.654Z</time></trkpt><trkpt lat="44.46798" lon="8.9065634"><ele>62.166666666666664</ele><time>2026-03-22T10:35:32.654Z</time></trkpt><trkpt lat="44.4678883" lon="8.90659"><ele>60.0</ele><time>2026-03-22T10:35:33.655Z</time></trkpt><trkpt lat="44.4677963" lon="8.9066186"><ele>60.0</ele><time>2026-03-22T10:35:34.653Z</time></trkpt><trkpt lat="44.4677061" lon="8.9066418"><ele>60.0</ele><time>2026-03-22T10:35:35.654Z</time></trkpt><trkpt lat="44.4676136" lon="8.9066441"><ele>60.0</ele><time>2026-03-22T10:35:36.653Z</time></trkpt><trkpt lat="44.467519" lon="8.9066259"><ele>60.0</ele><time>2026-03-22T10:35:37.655Z</time></trkpt><trkpt lat="44.4674287" lon="8.9065973"><ele>60.0</ele><time>2026-03-22T10:35:38.653Z</time></trkpt><trkpt lat="44.4673424" lon="8.90656"><ele>60.0</ele><time>2026-03-22T10:35:39.653Z</time></trkpt><trkpt lat="44.4672645" lon="8.9065211"><ele>60.0</ele><time>2026-03-22T10:35:40.653Z</time></trkpt><trkpt lat="44.4671935" lon="8.9064863"><ele>60.0</ele><time>2026-03-22T10:35:41.654Z</time></trkpt><trkpt lat="44.4671336" lon="8.906457"><ele>60.0</ele><time>2026-03-22T10:35:42.653Z</time></trkpt><trkpt lat="44.4670185" lon="8.9063992"><ele>60.0</ele><time>2026-03-22T10:35:44.654Z</time></trkpt><trkpt lat="44.4669562" lon="8.9063716"><ele>60.0</ele><time>2026-03-22T10:35:45.653Z</time></trkpt><trkpt lat="44.4668757" lon="8.9063341"><ele>62.0</ele><time>2026-03-22T10:35:46.653Z</time></trkpt><trkpt lat="44.4667869" lon="8.9062912"><ele>64.0</ele><time>2026-03-22T10:35:47.654Z</time></trkpt><trkpt lat="44.4666738" lon="8.9062315"><ele>66.0</ele><time>2026-03-22T10:35:48.653Z</time></trkpt><trkpt lat="44.4665558" lon="8.9061671"><ele>68.0</ele><time>2026-03-22T10:35:49.653Z</time></trkpt><trkpt lat="44.4664378" lon="8.9061031"><ele>68.0</ele><time>2026-03-22T10:35:50.653Z</time></trkpt><trkpt lat="44.4663248" lon="8.9060481"><ele>68.0</ele><time>2026-03-22T10:35:51.654Z</time></trkpt><trkpt lat="44.4662067" lon="8.905997"><ele>68.0</ele><time>2026-03-22T10:35:52.655Z</time></trkpt><trkpt lat="44.4660733" lon="8.9059495"><ele>68.0</ele><time>2026-03-22T10:35:53.653Z</time></trkpt><trkpt lat="44.4659197" lon="8.9059085"><ele>67.75</ele><time>2026-03-22T10:35:54.654Z</time></trkpt><trkpt lat="44.465768" lon="8.9058765"><ele>67.5</ele><time>2026-03-22T10:35:55.654Z</time></trkpt><trkpt lat="44.465624" lon="8.9058452"><ele>67.25</ele><time>2026-03-22T10:35:56.653Z</time></trkpt><trkpt lat="44.4654875" lon="8.9057973"><ele>67.0</ele><time>2026-03-22T10:35:57.653Z</time></trkpt><trkpt lat="44.4653608" lon="8.9057282"><ele>67.0</ele><time>2026-03-22T10:35:58.654Z</time></trkpt><trkpt lat="44.4652465" lon="8.9056309"><ele>67.0</ele><time>2026-03-22T10:35:59.654Z</time></trkpt><trkpt lat="44.4651479" lon="8.9055195"><ele>67.0</ele><time>2026-03-22T10:36:00.655Z</time></trkpt><trkpt lat="44.4650661" lon="8.905406"><ele>67.0</ele><time>2026-03-22T10:36:01.654Z</time></trkpt><trkpt lat="44.4649945" lon="8.9052924"><ele>67.0</ele><time>2026-03-22T10:36:02.654Z</time></trkpt><trkpt lat="44.4649248" lon="8.9051768"><ele>67.0</ele><time>2026-03-22T10:36:03.654Z</time></trkpt><trkpt lat="44.464872" lon="8.9050558"><ele>67.0</ele><time>2026-03-22T10:36:04.653Z</time></trkpt><trkpt lat="44.4648364" lon="8.904933"><ele>67.0</ele><time>2026-03-22T10:36:05.653Z</time></trkpt><trkpt lat="44.4648265" lon="8.9048228"><ele>67.0</ele><time>2026-03-22T10:36:06.654Z</time></trkpt><trkpt lat="44.4648421" lon="8.9047267"><ele>65.33333333333333</ele><time>2026-03-22T10:36:07.653Z</time></trkpt><trkpt lat="44.4648841" lon="8.9046436"><ele>63.666666666666664</ele><time>2026-03-22T10:36:08.653Z</time></trkpt><trkpt lat="44.4649455" lon="8.9045817"><ele>62.0</ele><time>2026-03-22T10:36:09.653Z</time></trkpt><trkpt lat="44.4650177" lon="8.9045599"><ele>60.33333333333333</ele><time>2026-03-22T10:36:10.653Z</time></trkpt><trkpt lat="44.4650938" lon="8.9045826"><ele>58.666666666666664</ele><time>2026-03-22T10:36:11.653Z</time></trkpt><trkpt lat="44.4651666" lon="8.9046418"><ele>57.0</ele><time>2026-03-22T10:36:12.654Z</time></trkpt><trkpt lat="44.4652252" lon="8.9047201"><ele>57.0</ele><time>2026-03-22T10:36:13.654Z</time></trkpt><trkpt lat="44.465274" lon="8.9048041"><ele>57.0</ele><time>2026-03-22T10:36:14.653Z</time></trkpt><trkpt lat="44.465315" lon="8.9048838"><ele>57.0</ele><time>2026-03-22T10:36:15.654Z</time></trkpt><trkpt lat="44.4653406" lon="8.9050317"><ele>57.0</ele><time>2026-03-22T10:36:17.654Z</time></trkpt><trkpt lat="44.4653151" lon="8.9051524"><ele>57.0</ele><time>2026-03-22T10:36:19.653Z</time></trkpt><trkpt lat="44.4652905" lon="8.9052518"><ele>57.0</ele><time>2026-03-22T10:36:21.654Z</time></trkpt><trkpt lat="44.4652553" lon="8.9053273"><ele>57.333333333333336</ele><time>2026-03-22T10:36:24.653Z</time></trkpt><trkpt lat="44.4652885" lon="8.9052484"><ele>57.66666666666667</ele><time>2026-03-22T10:42:38.654Z</time></trkpt><trkpt lat="44.4653699" lon="8.9052442"><ele>58.0</ele><time>2026-03-22T10:42:41.653Z</time></trkpt><trkpt lat="44.4654324" lon="8.9052891"><ele>58.333333333333336</ele><time>2026-03-22T10:42:44.654Z</time></trkpt><trkpt lat="44.4655082" lon="8.9053132"><ele>58.66666666666667</ele><time>2026-03-22T10:42:46.655Z</time></trkpt><trkpt lat="44.4655962" lon="8.905313"><ele>59.0</ele><time>2026-03-22T10:42:48.654Z</time></trkpt><trkpt lat="44.4657006" lon="8.9053413"><ele>59.0</ele><time>2026-03-22T10:42:50.653Z</time></trkpt><trkpt lat="44.465786" lon="8.9053777"><ele>59.0</ele><time>2026-03-22T10:42:51.653Z</time></trkpt><trkpt lat="44.4658901" lon="8.9054449"><ele>59.0</ele><time>2026-03-22T10:42:52.654Z</time></trkpt><trkpt lat="44.466" lon="8.905525"><ele>59.0</ele><time>2026-03-22T10:42:53.654Z</time></trkpt><trkpt lat="44.466112" lon="8.9056091"><ele>59.0</ele><time>2026-03-22T10:42:54.655Z</time></trkpt><trkpt lat="44.4662181" lon="8.9056933"><ele>59.00000000000001</ele><time>2026-03-22T10:42:55.654Z</time></trkpt><trkpt lat="44.4663196" lon="8.905774"><ele>59.00000000000001</ele><time>2026-03-22T10:42:56.654Z</time></trkpt><trkpt lat="44.4664131" lon="8.9058451"><ele>59.0</ele><time>2026-03-22T10:42:57.654Z</time></trkpt><trkpt lat="44.4664971" lon="8.9059048"><ele>59.0</ele><time>2026-03-22T10:42:58.653Z</time></trkpt><trkpt lat="44.4665753" lon="8.9059587"><ele>60.50000000000001</ele><time>2026-03-22T10:42:59.653Z</time></trkpt><trkpt lat="44.466641" lon="8.9060009"><ele>62.0</ele><time>2026-03-22T10:43:00.653Z</time></trkpt><trkpt lat="44.4667232" lon="8.9060591"><ele>63.5</ele><time>2026-03-22T10:43:02.654Z</time></trkpt><trkpt lat="44.4667799" lon="8.9060977"><ele>65.0</ele><time>2026-03-22T10:43:04.654Z</time></trkpt><trkpt lat="44.4668686" lon="8.9061489"><ele>66.5</ele><time>2026-03-22T10:43:06.655Z</time></trkpt><trkpt lat="44.4669708" lon="8.9062007"><ele>68.0</ele><time>2026-03-22T10:43:08.653Z</time></trkpt><trkpt lat="44.4670736" lon="8.9062567"><ele>66.66666666666667</ele><time>2026-03-22T10:43:10.654Z</time></trkpt><trkpt lat="44.4671368" lon="8.9062847"><ele>65.33333333333334</ele><time>2026-03-22T10:43:11.654Z</time></trkpt><trkpt lat="44.467211" lon="8.9063208"><ele>64.0</ele><time>2026-03-22T10:43:12.653Z</time></trkpt><trkpt lat="44.467285" lon="8.90636"><ele>62.66666666666667</ele><time>2026-03-22T10:43:13.654Z</time></trkpt><trkpt lat="44.4673646" lon="8.9064001"><ele>61.333333333333336</ele><time>2026-03-22T10:43:14.654Z</time></trkpt><trkpt lat="44.4674483" lon="8.9064414"><ele>60.0</ele><time>2026-03-22T10:43:15.655Z</time></trkpt><trkpt lat="44.4675344" lon="8.9064785"><ele>60.0</ele><time>2026-03-22T10:43:16.654Z</time></trkpt><trkpt lat="44.4676212" lon="8.906505"><ele>60.0</ele><time>2026-03-22T10:43:17.654Z</time></trkpt><trkpt lat="44.4677111" lon="8.9065129"><ele>60.0</ele><time>2026-03-22T10:43:18.654Z</time></trkpt><trkpt lat="44.4678042" lon="8.9065118"><ele>60.0</ele><time>2026-03-22T10:43:19.654Z</time></trkpt><trkpt lat="44.4678989" lon="8.9064986"><ele>60.0</ele><time>2026-03-22T10:43:20.654Z</time></trkpt><trkpt lat="44.4679905" lon="8.9064853"><ele>59.8</ele><time>2026-03-22T10:43:21.654Z</time></trkpt><trkpt lat="44.4680861" lon="8.906484"><ele>59.6</ele><time>2026-03-22T10:43:22.653Z</time></trkpt><trkpt lat="44.4681875" lon="8.906505"><ele>59.400000000000006</ele><time>2026-03-22T10:43:23.655Z</time></trkpt><trkpt lat="44.4682875" lon="8.9065463"><ele>59.2</ele><time>2026-03-22T10:43:24.653Z</time></trkpt><trkpt lat="44.4683837" lon="8.9065872"><ele>59.0</ele><time>2026-03-22T10:43:25.654Z</time></trkpt><trkpt lat="44.4684779" lon="8.9066288"><ele>59.0</ele><time>2026-03-22T10:43:26.653Z</time></trkpt><trkpt lat="44.4685702" lon="8.9066865"><ele>59.00000000000001</ele><time>2026-03-22T10:43:27.653Z</time></trkpt><trkpt lat="44.4686592" lon="8.9067565"><ele>59.00000000000001</ele><time>2026-03-22T10:43:28.653Z</time></trkpt><trkpt lat="44.4687422" lon="8.9068434"><ele>59.0</ele><time>2026-03-22T10:43:29.653Z</time></trkpt><trkpt lat="44.4688244" lon="8.9069463"><ele>59.0</ele><time>2026-03-22T10:43:30.655Z</time></trkpt><trkpt lat="44.4689007" lon="8.9070528"><ele>59.0</ele><time>2026-03-22T10:43:31.654Z</time></trkpt><trkpt lat="44.4689712" lon="8.907148"><ele>59.00000000000001</ele><time>2026-03-22T10:43:32.653Z</time></trkpt><trkpt lat="44.4690434" lon="8.9072295"><ele>59.00000000000001</ele><time>2026-03-22T10:43:33.654Z</time></trkpt><trkpt lat="44.4691164" lon="8.9073103"><ele>59.0</ele><time>2026-03-22T10:43:34.654Z</time></trkpt><trkpt lat="44.4691825" lon="8.9074012"><ele>59.0</ele><time>2026-03-22T10:43:35.654Z</time></trkpt><trkpt lat="44.4692496" lon="8.9074912"><ele>59.00000000000001</ele><time>2026-03-22T10:43:36.654Z</time></trkpt><trkpt lat="44.4693149" lon="8.9075746"><ele>59.0</ele><time>2026-03-22T10:43:37.654Z</time></trkpt><trkpt lat="44.4693812" lon="8.9076421"><ele>59.0</ele><time>2026-03-22T10:43:38.653Z</time></trkpt><trkpt lat="44.469452" lon="8.9076812"><ele>59.0</ele><time>2026-03-22T10:43:39.655Z</time></trkpt><trkpt lat="44.4695253" lon="8.9076849"><ele>59.00000000000001</ele><time>2026-03-22T10:43:40.654Z</time></trkpt><trkpt lat="44.4695972" lon="8.9076559"><ele>59.0</ele><time>2026-03-22T10:43:41.654Z</time></trkpt><trkpt lat="44.469656" lon="8.9075913"><ele>59.00000000000001</ele><time>2026-03-22T10:43:42.654Z</time></trkpt><trkpt lat="44.4696983" lon="8.907503"><ele>59.0</ele><time>2026-03-22T10:43:43.653Z</time></trkpt><trkpt lat="44.4697112" lon="8.9073965"><ele>59.0</ele><time>2026-03-22T10:43:44.654Z</time></trkpt><trkpt lat="44.4696999" lon="8.9072871"><ele>59.0</ele><time>2026-03-22T10:43:45.653Z</time></trkpt><trkpt lat="44.4696629" lon="8.9071828"><ele>59.00000000000001</ele><time>2026-03-22T10:43:46.654Z</time></trkpt><trkpt lat="44.469608" lon="8.9070885"><ele>59.0</ele><time>2026-03-22T10:43:47.653Z</time></trkpt><trkpt lat="44.4695447" lon="8.9069813"><ele>59.0</ele><time>2026-03-22T10:43:48.653Z</time></trkpt><trkpt lat="44.469479" lon="8.9068528"><ele>59.0</ele><time>2026-03-22T10:43:49.654Z</time></trkpt><trkpt lat="44.4694075" lon="8.9067149"><ele>59.0</ele><time>2026-03-22T10:43:50.654Z</time></trkpt><trkpt lat="44.4693245" lon="8.9065754"><ele>59.0</ele><time>2026-03-22T10:43:51.654Z</time></trkpt><trkpt lat="44.4692307" lon="8.9064298"><ele>57.75</ele><time>2026-03-22T10:43:52.654Z</time></trkpt><trkpt lat="44.469133" lon="8.9062885"><ele>56.5</ele><time>2026-03-22T10:43:53.654Z</time></trkpt><trkpt lat="44.4690316" lon="8.9061494"><ele>55.25</ele><time>2026-03-22T10:43:54.653Z</time></trkpt><trkpt lat="44.4689279" lon="8.9060087"><ele>54.0</ele><time>2026-03-22T10:43:55.654Z</time></trkpt><trkpt lat="44.4688238" lon="8.9058697"><ele>54.5</ele><time>2026-03-22T10:43:56.654Z</time></trkpt><trkpt lat="44.4687247" lon="8.9057371"><ele>55.0</ele><time>2026-03-22T10:43:57.653Z</time></trkpt><trkpt lat="44.4686297" lon="8.9056053"><ele>55.5</ele><time>2026-03-22T10:43:58.654Z</time></trkpt><trkpt lat="44.4685369" lon="8.9054632"><ele>56.0</ele><time>2026-03-22T10:43:59.654Z</time></trkpt><trkpt lat="44.4684528" lon="8.9053013"><ele>56.0</ele><time>2026-03-22T10:44:00.654Z</time></trkpt><trkpt lat="44.4683735" lon="8.9051316"><ele>56.0</ele><time>2026-03-22T10:44:01.654Z</time></trkpt><trkpt lat="44.4682983" lon="8.9049523"><ele>56.0</ele><time>2026-03-22T10:44:02.654Z</time></trkpt><trkpt lat="44.4682189" lon="8.9047668"><ele>56.0</ele><time>2026-03-22T10:44:03.655Z</time></trkpt><trkpt lat="44.4681326" lon="8.904577"><ele>55.66666666666667</ele><time>2026-03-22T10:44:04.653Z</time></trkpt><trkpt lat="44.4680428" lon="8.9043871"><ele>55.33333333333333</ele><time>2026-03-22T10:44:05.653Z</time></trkpt><trkpt lat="44.4679492" lon="8.9042039"><ele>55.0</ele><time>2026-03-22T10:44:06.654Z</time></trkpt><trkpt lat="44.4678527" lon="8.9040187"><ele>54.0</ele><time>2026-03-22T10:44:07.654Z</time></trkpt><trkpt lat="44.4677544" lon="8.9038293"><ele>53.0</ele><time>2026-03-22T10:44:08.654Z</time></trkpt><trkpt lat="44.4676527" lon="8.9036392"><ele>52.0</ele><time>2026-03-22T10:44:09.653Z</time></trkpt><trkpt lat="44.4675499" lon="8.903448"><ele>52.0</ele><time>2026-03-22T10:44:10.654Z</time></trkpt><trkpt lat="44.4674408" lon="8.9032574"><ele>52.0</ele><time>2026-03-22T10:44:11.653Z</time></trkpt><trkpt lat="44.4673297" lon="8.9030673"><ele>52.0</ele><time>2026-03-22T10:44:12.653Z</time></trkpt><trkpt lat="44.4672164" lon="8.9028818"><ele>52.33333333333333</ele><time>2026-03-22T10:44:13.655Z</time></trkpt><trkpt lat="44.4671023" lon="8.9026898"><ele>52.66666666666667</ele><time>2026-03-22T10:44:14.653Z</time></trkpt><trkpt lat="44.4669853" lon="8.9024949"><ele>53.0</ele><time>2026-03-22T10:44:15.654Z</time></trkpt><trkpt lat="44.4668652" lon="8.902297"><ele>53.0</ele><time>2026-03-22T10:44:16.654Z</time></trkpt><trkpt lat="44.4667438" lon="8.9020971"><ele>53.0</ele><time>2026-03-22T10:44:17.653Z</time></trkpt><trkpt lat="44.4666248" lon="8.9019012"><ele>53.0</ele><time>2026-03-22T10:44:18.654Z</time></trkpt><trkpt lat="44.4665095" lon="8.9017122"><ele>53.0</ele><time>2026-03-22T10:44:19.655Z</time></trkpt><trkpt lat="44.4663883" lon="8.9015113"><ele>53.0</ele><time>2026-03-22T10:44:20.653Z</time></trkpt><trkpt lat="44.466269" lon="8.9013233"><ele>53.0</ele><time>2026-03-22T10:44:21.653Z</time></trkpt><trkpt lat="44.466154" lon="8.9011702"><ele>53.0</ele><time>2026-03-22T10:44:22.654Z</time></trkpt><trkpt lat="44.4660216" lon="8.9010147"><ele>53.0</ele><time>2026-03-22T10:44:23.654Z</time></trkpt><trkpt lat="44.4658792" lon="8.9008674"><ele>53.0</ele><time>2026-03-22T10:44:24.654Z</time></trkpt><trkpt lat="44.4657284" lon="8.9007225"><ele>53.0</ele><time>2026-03-22T10:44:25.655Z</time></trkpt><trkpt lat="44.4655727" lon="8.9005745"><ele>53.0</ele><time>2026-03-22T10:44:26.653Z</time></trkpt><trkpt lat="44.4654139" lon="8.9004276"><ele>53.0</ele><time>2026-03-22T10:44:27.654Z</time></trkpt><trkpt lat="44.4652674" lon="8.9002858"><ele>53.66666666666667</ele><time>2026-03-22T10:44:28.653Z</time></trkpt><trkpt lat="44.4651295" lon="8.900138"><ele>54.33333333333333</ele><time>2026-03-22T10:44:29.654Z</time></trkpt><trkpt lat="44.4649957" lon="8.8999879"><ele>55.0</ele><time>2026-03-22T10:44:30.654Z</time></trkpt><trkpt lat="44.4648597" lon="8.8998401"><ele>55.0</ele><time>2026-03-22T10:44:31.655Z</time></trkpt><trkpt lat="44.4647297" lon="8.8996928"><ele>55.0</ele><time>2026-03-22T10:44:32.654Z</time></trkpt><trkpt lat="44.4646162" lon="8.8995654"><ele>55.0</ele><time>2026-03-22T10:44:33.654Z</time></trkpt><trkpt lat="44.4645197" lon="8.8994634"><ele>55.0</ele><time>2026-03-22T10:44:34.655Z</time></trkpt><trkpt lat="44.4644432" lon="8.8993887"><ele>54.8</ele><time>2026-03-22T10:44:35.653Z</time></trkpt><trkpt lat="44.4643797" lon="8.8993352"><ele>54.6</ele><time>2026-03-22T10:44:36.654Z</time></trkpt><trkpt lat="44.4643083" lon="8.8992056"><ele>54.400000000000006</ele><time>2026-03-22T10:44:38.653Z</time></trkpt><trkpt lat="44.4643203" lon="8.8990157"><ele>54.2</ele><time>2026-03-22T10:44:40.653Z</time></trkpt><trkpt lat="44.4643543" lon="8.8988974"><ele>54.0</ele><time>2026-03-22T10:44:41.653Z</time></trkpt><trkpt lat="44.4644015" lon="8.8987685"><ele>53.2</ele><time>2026-03-22T10:44:42.653Z</time></trkpt><trkpt lat="44.4644572" lon="8.8986278"><ele>52.400000000000006</ele><time>2026-03-22T10:44:43.653Z</time></trkpt><trkpt lat="44.464511" lon="8.8984955"><ele>51.6</ele><time>2026-03-22T10:44:44.654Z</time></trkpt><trkpt lat="44.4645611" lon="8.8983764"><ele>50.8</ele><time>2026-03-22T10:44:45.653Z</time></trkpt><trkpt lat="44.4646049" lon="8.8982763"><ele>50.0</ele><time>2026-03-22T10:44:46.655Z</time></trkpt><trkpt lat="44.4646401" lon="8.8981947"><ele>49.6</ele><time>2026-03-22T10:44:47.653Z</time></trkpt><trkpt lat="44.4646852" lon="8.8980831"><ele>49.2</ele><time>2026-03-22T10:44:49.653Z</time></trkpt><trkpt lat="44.4647169" lon="8.897979"><ele>48.8</ele><time>2026-03-22T10:45:40.653Z</time></trkpt><trkpt lat="44.4647368" lon="8.8978365"><ele>48.4</ele><time>2026-03-22T10:45:42.654Z</time></trkpt><trkpt lat="44.4646785" lon="8.8976751"><ele>48.0</ele><time>2026-03-22T10:45:44.653Z</time></trkpt><trkpt lat="44.4646091" lon="8.8975961"><ele>47.75</ele><time>2026-03-22T10:45:45.653Z</time></trkpt><trkpt lat="44.4645114" lon="8.8975218"><ele>47.5</ele><time>2026-03-22T10:45:46.653Z</time></trkpt><trkpt lat="44.4643895" lon="8.8974386"><ele>47.25</ele><time>2026-03-22T10:45:47.655Z</time></trkpt><trkpt lat="44.4642662" lon="8.8973458"><ele>47.0</ele><time>2026-03-22T10:45:48.655Z</time></trkpt><trkpt lat="44.4641387" lon="8.8972527"><ele>47.0</ele><time>2026-03-22T10:45:49.653Z</time></trkpt><trkpt lat="44.4640106" lon="8.8971579"><ele>47.0</ele><time>2026-03-22T10:45:50.654Z</time></trkpt><trkpt lat="44.4638859" lon="8.8970683"><ele>47.0</ele><time>2026-03-22T10:45:51.653Z</time></trkpt><trkpt lat="44.4637569" lon="8.8969861"><ele>47.0</ele><time>2026-03-22T10:45:52.654Z</time></trkpt><trkpt lat="44.4636256" lon="8.896917"><ele>46.0</ele><time>2026-03-22T10:45:53.653Z</time></trkpt><trkpt lat="44.4635" lon="8.8968646"><ele>45.0</ele><time>2026-03-22T10:45:54.654Z</time></trkpt><trkpt lat="44.4633758" lon="8.8968238"><ele>44.0</ele><time>2026-03-22T10:45:55.653Z</time></trkpt><trkpt lat="44.4632514" lon="8.8967924"><ele>43.0</ele><time>2026-03-22T10:45:56.653Z</time></trkpt><trkpt lat="44.463128" lon="8.8967701"><ele>43.0</ele><time>2026-03-22T10:45:57.654Z</time></trkpt><trkpt lat="44.4629985" lon="8.8967568"><ele>43.0</ele><time>2026-03-22T10:45:58.654Z</time></trkpt><trkpt lat="44.4628611" lon="8.8967548"><ele>43.0</ele><time>2026-03-22T10:45:59.654Z</time></trkpt><trkpt lat="44.4627178" lon="8.8967671"><ele>43.0</ele><time>2026-03-22T10:46:00.654Z</time></trkpt><trkpt lat="44.4625688" lon="8.8967904"><ele>43.333333333333336</ele><time>2026-03-22T10:46:01.653Z</time></trkpt><trkpt lat="44.4624189" lon="8.8968293"><ele>43.666666666666664</ele><time>2026-03-22T10:46:02.653Z</time></trkpt><trkpt lat="44.4622646" lon="8.8968811"><ele>44.0</ele><time>2026-03-22T10:46:03.654Z</time></trkpt><trkpt lat="44.462108" lon="8.8969438"><ele>44.0</ele><time>2026-03-22T10:46:04.654Z</time></trkpt><trkpt lat="44.4619576" lon="8.8970111"><ele>44.0</ele><time>2026-03-22T10:46:05.653Z</time></trkpt><trkpt lat="44.4618064" lon="8.8970812"><ele>44.0</ele><time>2026-03-22T10:46:06.654Z</time></trkpt><trkpt lat="44.4616615" lon="8.8971477"><ele>44.0</ele><time>2026-03-22T10:46:07.653Z</time></trkpt><trkpt lat="44.4615296" lon="8.8972181"><ele>44.0</ele><time>2026-03-22T10:46:08.655Z</time></trkpt><trkpt lat="44.4614034" lon="8.8972903"><ele>44.0</ele><time>2026-03-22T10:46:09.654Z</time></trkpt><trkpt lat="44.4612821" lon="8.8973638"><ele>44.0</ele><time>2026-03-22T10:46:10.654Z</time></trkpt><trkpt lat="44.4611688" lon="8.8974506"><ele>45.0</ele><time>2026-03-22T10:46:11.654Z</time></trkpt><trkpt lat="44.461066" lon="8.8975466"><ele>46.0</ele><time>2026-03-22T10:46:12.655Z</time></trkpt><trkpt lat="44.4609677" lon="8.8976511"><ele>47.0</ele><time>2026-03-22T10:46:13.653Z</time></trkpt><trkpt lat="44.460871" lon="8.8977553"><ele>48.0</ele><time>2026-03-22T10:46:14.654Z</time></trkpt><trkpt lat="44.4607737" lon="8.8978669"><ele>48.0</ele><time>2026-03-22T10:46:15.654Z</time></trkpt><trkpt lat="44.4606759" lon="8.8979806"><ele>48.0</ele><time>2026-03-22T10:46:16.653Z</time></trkpt><trkpt lat="44.4605751" lon="8.8980945"><ele>48.0</ele><time>2026-03-22T10:46:17.654Z</time></trkpt><trkpt lat="44.4604697" lon="8.8982054"><ele>48.0</ele><time>2026-03-22T10:46:18.654Z</time></trkpt><trkpt lat="44.4603632" lon="8.8983056"><ele>47.25</ele><time>2026-03-22T10:46:19.654Z</time></trkpt><trkpt lat="44.4602579" lon="8.898397"><ele>46.5</ele><time>2026-03-22T10:46:20.653Z</time></trkpt><trkpt lat="44.460153" lon="8.898472"><ele>45.75</ele><time>2026-03-22T10:46:21.653Z</time></trkpt><trkpt lat="44.460051" lon="8.8985344"><ele>45.0</ele><time>2026-03-22T10:46:22.654Z</time></trkpt><trkpt lat="44.4599504" lon="8.8985864"><ele>45.0</ele><time>2026-03-22T10:46:23.654Z</time></trkpt><trkpt lat="44.4598595" lon="8.8986275"><ele>45.0</ele><time>2026-03-22T10:46:24.654Z</time></trkpt><trkpt lat="44.4597801" lon="8.8986654"><ele>45.0</ele><time>2026-03-22T10:46:25.654Z</time></trkpt><trkpt lat="44.4597088" lon="8.8986959"><ele>45.0</ele><time>2026-03-22T10:46:26.653Z</time></trkpt><trkpt lat="44.4596487" lon="8.8987224"><ele>45.0</ele><time>2026-03-22T10:46:27.654Z</time></trkpt><trkpt lat="44.4595562" lon="8.8987601"><ele>45.0</ele><time>2026-03-22T10:46:29.655Z</time></trkpt><trkpt lat="44.4594932" lon="8.8987775"><ele>44.833333333333336</ele><time>2026-03-22T10:46:31.655Z</time></trkpt><trkpt lat="44.4594126" lon="8.898792"><ele>44.666666666666664</ele><time>2026-03-22T10:46:34.653Z</time></trkpt><trkpt lat="44.4593245" lon="8.8988209"><ele>44.5</ele><time>2026-03-22T10:46:37.653Z</time></trkpt><trkpt lat="44.459208" lon="8.8988459"><ele>44.33333333333333</ele><time>2026-03-22T10:46:58.653Z</time></trkpt><trkpt lat="44.4591408" lon="8.8988553"><ele>44.166666666666664</ele><time>2026-03-22T10:46:59.653Z</time></trkpt><trkpt lat="44.4590553" lon="8.8988527"><ele>44.0</ele><time>2026-03-22T10:47:00.654Z</time></trkpt><trkpt lat="44.4589657" lon="8.8988414"><ele>44.0</ele><time>2026-03-22T10:47:01.654Z</time></trkpt><trkpt lat="44.4588784" lon="8.8988214"><ele>44.0</ele><time>2026-03-22T10:47:02.654Z</time></trkpt><trkpt lat="44.4587804" lon="8.8987944"><ele>44.0</ele><time>2026-03-22T10:47:03.653Z</time></trkpt><trkpt lat="44.458673" lon="8.8987645"><ele>44.0</ele><time>2026-03-22T10:47:04.655Z</time></trkpt><trkpt lat="44.4585617" lon="8.8987329"><ele>44.0</ele><time>2026-03-22T10:47:05.654Z</time></trkpt><trkpt lat="44.458447" lon="8.8987038"><ele>43.6</ele><time>2026-03-22T10:47:06.647Z</time></trkpt><trkpt lat="44.4583324" lon="8.8986684"><ele>43.2</ele><time>2026-03-22T10:47:07.636Z</time></trkpt><trkpt lat="44.4582258" lon="8.89863"><ele>42.800000000000004</ele><time>2026-03-22T10:47:08.634Z</time></trkpt><trkpt lat="44.4581272" lon="8.8985874"><ele>42.400000000000006</ele><time>2026-03-22T10:47:09.635Z</time></trkpt><trkpt lat="44.4580354" lon="8.898541"><ele>42.0</ele><time>2026-03-22T10:47:10.638Z</time></trkpt><trkpt lat="44.4579504" lon="8.8984932"><ele>42.0</ele><time>2026-03-22T10:47:11.643Z</time></trkpt><trkpt lat="44.4578788" lon="8.8984496"><ele>42.0</ele><time>2026-03-22T10:47:12.642Z</time></trkpt><trkpt lat="44.4577844" lon="8.8983824"><ele>42.0</ele><time>2026-03-22T10:47:14.642Z</time></trkpt><trkpt lat="44.457716" lon="8.8983295"><ele>42.0</ele><time>2026-03-22T10:47:17.642Z</time></trkpt><trkpt lat="44.4576495" lon="8.8982805"><ele>42.0</ele><time>2026-03-22T10:47:40.642Z</time></trkpt><trkpt lat="44.4575423" lon="8.8981903"><ele>42.166666666666664</ele><time>2026-03-22T10:47:42.642Z</time></trkpt><trkpt lat="44.4574776" lon="8.8981301"><ele>42.333333333333336</ele><time>2026-03-22T10:47:43.642Z</time></trkpt><trkpt lat="44.457406" lon="8.8980631"><ele>42.5</ele><time>2026-03-22T10:47:44.642Z</time></trkpt><trkpt lat="44.4573345" lon="8.8979927"><ele>42.66666666666667</ele><time>2026-03-22T10:47:45.642Z</time></trkpt><trkpt lat="44.4572675" lon="8.8979218"><ele>42.833333333333336</ele><time>2026-03-22T10:47:46.642Z</time></trkpt><trkpt lat="44.4572039" lon="8.8978502"><ele>43.0</ele><time>2026-03-22T10:47:47.642Z</time></trkpt><trkpt lat="44.4571408" lon="8.8977772"><ele>42.16666666666667</ele><time>2026-03-22T10:47:48.642Z</time></trkpt><trkpt lat="44.4570763" lon="8.8977019"><ele>41.333333333333336</ele><time>2026-03-22T10:47:49.643Z</time></trkpt><trkpt lat="44.4570093" lon="8.8976252"><ele>40.5</ele><time>2026-03-22T10:47:50.642Z</time></trkpt><trkpt lat="44.456941" lon="8.8975468"><ele>39.666666666666664</ele><time>2026-03-22T10:47:51.642Z</time></trkpt><trkpt lat="44.4568719" lon="8.8974652"><ele>38.83333333333333</ele><time>2026-03-22T10:47:52.642Z</time></trkpt><trkpt lat="44.456802" lon="8.8973801"><ele>38.0</ele><time>2026-03-22T10:47:53.642Z</time></trkpt><trkpt lat="44.456732" lon="8.8972943"><ele>38.0</ele><time>2026-03-22T10:47:54.642Z</time></trkpt><trkpt lat="44.456661" lon="8.8972082"><ele>38.0</ele><time>2026-03-22T10:47:55.642Z</time></trkpt><trkpt lat="44.4565877" lon="8.8971216"><ele>38.0</ele><time>2026-03-22T10:47:56.642Z</time></trkpt><trkpt lat="44.4565133" lon="8.8970337"><ele>38.0</ele><time>2026-03-22T10:47:57.642Z</time></trkpt><trkpt lat="44.456438" lon="8.8969435"><ele>38.0</ele><time>2026-03-22T10:47:58.643Z</time></trkpt><trkpt lat="44.4563627" lon="8.8968546"><ele>38.0</ele><time>2026-03-22T10:47:59.642Z</time></trkpt><trkpt lat="44.4562876" lon="8.8967646"><ele>38.0</ele><time>2026-03-22T10:48:00.642Z</time></trkpt><trkpt lat="44.4562131" lon="8.8966744"><ele>38.0</ele><time>2026-03-22T10:48:01.642Z</time></trkpt><trkpt lat="44.4561386" lon="8.8965846"><ele>38.0</ele><time>2026-03-22T10:48:02.643Z</time></trkpt><trkpt lat="44.4560629" lon="8.8964945"><ele>38.0</ele><time>2026-03-22T10:48:03.642Z</time></trkpt><trkpt lat="44.4559881" lon="8.8964064"><ele>38.0</ele><time>2026-03-22T10:48:04.642Z</time></trkpt><trkpt lat="44.4559115" lon="8.8963186"><ele>38.0</ele><time>2026-03-22T10:48:05.642Z</time></trkpt><trkpt lat="44.4558337" lon="8.8962279"><ele>38.0</ele><time>2026-03-22T10:48:06.643Z</time></trkpt><trkpt lat="44.4557568" lon="8.8961379"><ele>38.0</ele><time>2026-03-22T10:48:07.642Z</time></trkpt><trkpt lat="44.4556771" lon="8.8960444"><ele>38.0</ele><time>2026-03-22T10:48:08.642Z</time></trkpt><trkpt lat="44.4555951" lon="8.8959458"><ele>38.0</ele><time>2026-03-22T10:48:09.642Z</time></trkpt><trkpt lat="44.4555131" lon="8.8958473"><ele>38.0</ele><time>2026-03-22T10:48:10.642Z</time></trkpt><trkpt lat="44.4554326" lon="8.8957515"><ele>38.0</ele><time>2026-03-22T10:48:11.643Z</time></trkpt><trkpt lat="44.4553491" lon="8.8956529"><ele>38.0</ele><time>2026-03-22T10:48:12.642Z</time></trkpt><trkpt lat="44.4552673" lon="8.8955583"><ele>38.0</ele><time>2026-03-22T10:48:13.642Z</time></trkpt><trkpt lat="44.455192" lon="8.8954694"><ele>37.199999999999996</ele><time>2026-03-22T10:48:14.642Z</time></trkpt><trkpt lat="44.4551208" lon="8.8953847"><ele>36.4</ele><time>2026-03-22T10:48:15.643Z</time></trkpt><trkpt lat="44.4550497" lon="8.8952999"><ele>35.599999999999994</ele><time>2026-03-22T10:48:16.643Z</time></trkpt><trkpt lat="44.4549795" lon="8.8952165"><ele>34.8</ele><time>2026-03-22T10:48:17.642Z</time></trkpt><trkpt lat="44.4549092" lon="8.8951299"><ele>34.0</ele><time>2026-03-22T10:48:18.643Z</time></trkpt><trkpt lat="44.4548416" lon="8.8950397"><ele>34.0</ele><time>2026-03-22T10:48:19.643Z</time></trkpt><trkpt lat="44.4547788" lon="8.8949458"><ele>34.0</ele><time>2026-03-22T10:48:20.642Z</time></trkpt><trkpt lat="44.4547213" lon="8.8948491"><ele>34.0</ele><time>2026-03-22T10:48:21.642Z</time></trkpt><trkpt lat="44.4546699" lon="8.8947526"><ele>34.0</ele><time>2026-03-22T10:48:22.642Z</time></trkpt><trkpt lat="44.4546307" lon="8.8946761"><ele>34.0</ele><time>2026-03-22T10:48:23.643Z</time></trkpt><trkpt lat="44.454585" lon="8.8945772"><ele>34.0</ele><time>2026-03-22T10:48:25.642Z</time></trkpt><trkpt lat="44.4545446" lon="8.8944661"><ele>33.8</ele><time>2026-03-22T10:48:27.642Z</time></trkpt><trkpt lat="44.454465" lon="8.8943654"><ele>33.599999999999994</ele><time>2026-03-22T10:48:29.653Z</time></trkpt><trkpt lat="44.4543448" lon="8.8943549"><ele>33.4</ele><time>2026-03-22T10:48:31.652Z</time></trkpt><trkpt lat="44.4542687" lon="8.8943436"><ele>33.199999999999996</ele><time>2026-03-22T10:48:32.652Z</time></trkpt><trkpt lat="44.4541931" lon="8.8943006"><ele>33.0</ele><time>2026-03-22T10:48:33.652Z</time></trkpt><trkpt lat="44.4541233" lon="8.8942331"><ele>33.0</ele><time>2026-03-22T10:48:34.653Z</time></trkpt><trkpt lat="44.4540446" lon="8.8941505"><ele>33.0</ele><time>2026-03-22T10:48:35.653Z</time></trkpt><trkpt lat="44.4539548" lon="8.894048"><ele>33.0</ele><time>2026-03-22T10:48:36.652Z</time></trkpt><trkpt lat="44.4538583" lon="8.8939362"><ele>33.0</ele><time>2026-03-22T10:48:37.653Z</time></trkpt><trkpt lat="44.453762" lon="8.8938246"><ele>33.0</ele><time>2026-03-22T10:48:38.653Z</time></trkpt><trkpt lat="44.4536642" lon="8.8937131"><ele>33.0</ele><time>2026-03-22T10:48:39.652Z</time></trkpt><trkpt lat="44.4535607" lon="8.8935967"><ele>33.0</ele><time>2026-03-22T10:48:40.653Z</time></trkpt><trkpt lat="44.4534573" lon="8.8934802"><ele>33.0</ele><time>2026-03-22T10:48:41.652Z</time></trkpt><trkpt lat="44.453359" lon="8.8933698"><ele>33.25</ele><time>2026-03-22T10:48:42.652Z</time></trkpt><trkpt lat="44.4532636" lon="8.8932658"><ele>33.5</ele><time>2026-03-22T10:48:43.652Z</time></trkpt><trkpt lat="44.453172" lon="8.8931679"><ele>33.75</ele><time>2026-03-22T10:48:44.653Z</time></trkpt><trkpt lat="44.4530789" lon="8.8930684"><ele>34.0</ele><time>2026-03-22T10:48:45.652Z</time></trkpt><trkpt lat="44.4529876" lon="8.8929696"><ele>34.0</ele><time>2026-03-22T10:48:46.654Z</time></trkpt><trkpt lat="44.4529022" lon="8.8928772"><ele>34.0</ele><time>2026-03-22T10:48:47.653Z</time></trkpt><trkpt lat="44.4528203" lon="8.8927873"><ele>34.0</ele><time>2026-03-22T10:48:48.654Z</time></trkpt><trkpt lat="44.4527385" lon="8.8926996"><ele>34.0</ele><time>2026-03-22T10:48:49.652Z</time></trkpt><trkpt lat="44.452656" lon="8.8926128"><ele>34.0</ele><time>2026-03-22T10:48:50.653Z</time></trkpt><trkpt lat="44.452574" lon="8.8925266"><ele>34.0</ele><time>2026-03-22T10:48:51.654Z</time></trkpt><trkpt lat="44.4524886" lon="8.8924437"><ele>34.0</ele><time>2026-03-22T10:48:52.652Z</time></trkpt><trkpt lat="44.4524002" lon="8.892363"><ele>34.0</ele><time>2026-03-22T10:48:53.653Z</time></trkpt><trkpt lat="44.4523069" lon="8.892281"><ele>34.0</ele><time>2026-03-22T10:48:54.652Z</time></trkpt><trkpt lat="44.4522129" lon="8.8921982"><ele>34.0</ele><time>2026-03-22T10:48:55.652Z</time></trkpt><trkpt lat="44.4521217" lon="8.8921156"><ele>33.8</ele><time>2026-03-22T10:48:56.652Z</time></trkpt><trkpt lat="44.4520344" lon="8.8920354"><ele>33.599999999999994</ele><time>2026-03-22T10:48:57.652Z</time></trkpt><trkpt lat="44.4519447" lon="8.8919558"><ele>33.4</ele><time>2026-03-22T10:48:58.653Z</time></trkpt><trkpt lat="44.4518441" lon="8.8918704"><ele>33.199999999999996</ele><time>2026-03-22T10:48:59.653Z</time></trkpt><trkpt lat="44.4517458" lon="8.8917915"><ele>33.0</ele><time>2026-03-22T10:49:00.653Z</time></trkpt><trkpt lat="44.4516468" lon="8.8917224"><ele>33.0</ele><time>2026-03-22T10:49:01.652Z</time></trkpt><trkpt lat="44.4515469" lon="8.8916555"><ele>33.0</ele><time>2026-03-22T10:49:02.653Z</time></trkpt><trkpt lat="44.4514446" lon="8.8915902"><ele>33.0</ele><time>2026-03-22T10:49:03.654Z</time></trkpt><trkpt lat="44.4513443" lon="8.8915257"><ele>33.0</ele><time>2026-03-22T10:49:04.653Z</time></trkpt><trkpt lat="44.4512448" lon="8.8914624"><ele>33.0</ele><time>2026-03-22T10:49:05.653Z</time></trkpt><trkpt lat="44.4511451" lon="8.8913996"><ele>32.25</ele><time>2026-03-22T10:49:06.653Z</time></trkpt><trkpt lat="44.4510443" lon="8.8913364"><ele>31.5</ele><time>2026-03-22T10:49:07.653Z</time></trkpt><trkpt lat="44.4509305" lon="8.8912743"><ele>30.75</ele><time>2026-03-22T10:49:08.653Z</time></trkpt><trkpt lat="44.4508029" lon="8.8912138"><ele>30.0</ele><time>2026-03-22T10:49:09.653Z</time></trkpt><trkpt lat="44.4506633" lon="8.8911544"><ele>30.0</ele><time>2026-03-22T10:49:10.654Z</time></trkpt><trkpt lat="44.4505152" lon="8.8911005"><ele>30.0</ele><time>2026-03-22T10:49:11.653Z</time></trkpt><trkpt lat="44.4503674" lon="8.8910406"><ele>30.0</ele><time>2026-03-22T10:49:12.652Z</time></trkpt><trkpt lat="44.450217" lon="8.8909797"><ele>30.333333333333336</ele><time>2026-03-22T10:49:13.654Z</time></trkpt><trkpt lat="44.450064" lon="8.8909181"><ele>30.666666666666668</ele><time>2026-03-22T10:49:14.652Z</time></trkpt><trkpt lat="44.4499155" lon="8.8908621"><ele>31.0</ele><time>2026-03-22T10:49:15.653Z</time></trkpt><trkpt lat="44.4497734" lon="8.8908112"><ele>31.0</ele><time>2026-03-22T10:49:16.652Z</time></trkpt><trkpt lat="44.4496337" lon="8.890765"><ele>31.0</ele><time>2026-03-22T10:49:17.652Z</time></trkpt><trkpt lat="44.4494961" lon="8.8907214"><ele>31.0</ele><time>2026-03-22T10:49:18.654Z</time></trkpt><trkpt lat="44.4493632" lon="8.8906799"><ele>31.0</ele><time>2026-03-22T10:49:19.652Z</time></trkpt><trkpt lat="44.449235" lon="8.8906418"><ele>29.75</ele><time>2026-03-22T10:49:20.652Z</time></trkpt><trkpt lat="44.4491072" lon="8.8906075"><ele>28.5</ele><time>2026-03-22T10:49:21.653Z</time></trkpt><trkpt lat="44.4489786" lon="8.8905708"><ele>27.25</ele><time>2026-03-22T10:49:22.653Z</time></trkpt><trkpt lat="44.4488468" lon="8.8905332"><ele>26.0</ele><time>2026-03-22T10:49:23.653Z</time></trkpt><trkpt lat="44.4487141" lon="8.890489"><ele>26.0</ele><time>2026-03-22T10:49:24.654Z</time></trkpt><trkpt lat="44.4485832" lon="8.8904386"><ele>26.0</ele><time>2026-03-22T10:49:25.652Z</time></trkpt><trkpt lat="44.4484512" lon="8.890386"><ele>26.0</ele><time>2026-03-22T10:49:26.653Z</time></trkpt><trkpt lat="44.4483209" lon="8.8903353"><ele>26.0</ele><time>2026-03-22T10:49:27.652Z</time></trkpt><trkpt lat="44.4481888" lon="8.8902871"><ele>26.0</ele><time>2026-03-22T10:49:28.652Z</time></trkpt><trkpt lat="44.4480592" lon="8.8902369"><ele>26.0</ele><time>2026-03-22T10:49:29.652Z</time></trkpt><trkpt lat="44.4479293" lon="8.8901893"><ele>26.0</ele><time>2026-03-22T10:49:30.653Z</time></trkpt><trkpt lat="44.4477972" lon="8.8901412"><ele>26.0</ele><time>2026-03-22T10:49:31.652Z</time></trkpt><trkpt lat="44.4476631" lon="8.8900926"><ele>26.75</ele><time>2026-03-22T10:49:32.654Z</time></trkpt><trkpt lat="44.4475282" lon="8.8900423"><ele>27.5</ele><time>2026-03-22T10:49:33.653Z</time></trkpt><trkpt lat="44.4473951" lon="8.8899964"><ele>28.25</ele><time>2026-03-22T10:49:34.653Z</time></trkpt><trkpt lat="44.4472647" lon="8.8899491"><ele>29.0</ele><time>2026-03-22T10:49:35.653Z</time></trkpt><trkpt lat="44.4471417" lon="8.8898972"><ele>29.0</ele><time>2026-03-22T10:49:36.653Z</time></trkpt><trkpt lat="44.447034" lon="8.8898463"><ele>29.0</ele><time>2026-03-22T10:49:37.652Z</time></trkpt><trkpt lat="44.4469439" lon="8.8897943"><ele>29.0</ele><time>2026-03-22T10:49:38.654Z</time></trkpt><trkpt lat="44.4468702" lon="8.8897312"><ele>29.0</ele><time>2026-03-22T10:49:39.653Z</time></trkpt><trkpt lat="44.446813" lon="8.8896608"><ele>29.0</ele><time>2026-03-22T10:49:40.653Z</time></trkpt><trkpt lat="44.4467616" lon="8.8895812"><ele>29.0</ele><time>2026-03-22T10:49:41.653Z</time></trkpt><trkpt lat="44.4466951" lon="8.8895025"><ele>29.0</ele><time>2026-03-22T10:49:42.652Z</time></trkpt><trkpt lat="44.4466059" lon="8.8894314"><ele>29.0</ele><time>2026-03-22T10:49:43.652Z</time></trkpt><trkpt lat="44.4464968" lon="8.8893765"><ele>29.0</ele><time>2026-03-22T10:49:44.652Z</time></trkpt><trkpt lat="44.4463773" lon="8.8893465"><ele>29.0</ele><time>2026-03-22T10:49:45.653Z</time></trkpt><trkpt lat="44.4462441" lon="8.8893266"><ele>28.666666666666664</ele><time>2026-03-22T10:49:46.652Z</time></trkpt><trkpt lat="44.4460953" lon="8.889301"><ele>28.333333333333336</ele><time>2026-03-22T10:49:47.652Z</time></trkpt><trkpt lat="44.445938" lon="8.8892737"><ele>28.0</ele><time>2026-03-22T10:49:48.653Z</time></trkpt><trkpt lat="44.4457711" lon="8.8892436"><ele>28.0</ele><time>2026-03-22T10:49:49.654Z</time></trkpt><trkpt lat="44.4455998" lon="8.8892144"><ele>28.0</ele><time>2026-03-22T10:49:50.652Z</time></trkpt><trkpt lat="44.4454223" lon="8.8891847"><ele>28.0</ele><time>2026-03-22T10:49:51.653Z</time></trkpt><trkpt lat="44.4452418" lon="8.8891523"><ele>29.0</ele><time>2026-03-22T10:49:52.653Z</time></trkpt><trkpt lat="44.4450649" lon="8.8891193"><ele>30.0</ele><time>2026-03-22T10:49:53.653Z</time></trkpt><trkpt lat="44.444894" lon="8.8890882"><ele>31.0</ele><time>2026-03-22T10:49:54.654Z</time></trkpt><trkpt lat="44.4447328" lon="8.8890587"><ele>31.0</ele><time>2026-03-22T10:49:55.653Z</time></trkpt><trkpt lat="44.4445776" lon="8.8890214"><ele>31.0</ele><time>2026-03-22T10:49:56.653Z</time></trkpt><trkpt lat="44.4444315" lon="8.8889697"><ele>31.0</ele><time>2026-03-22T10:49:57.653Z</time></trkpt><trkpt lat="44.4442972" lon="8.8888896"><ele>31.0</ele><time>2026-03-22T10:49:58.652Z</time></trkpt><trkpt lat="44.4441817" lon="8.8887791"><ele>31.0</ele><time>2026-03-22T10:49:59.652Z</time></trkpt><trkpt lat="44.4440775" lon="8.8886567"><ele>31.0</ele><time>2026-03-22T10:50:00.653Z</time></trkpt><trkpt lat="44.4439762" lon="8.8885432"><ele>31.0</ele><time>2026-03-22T10:50:01.653Z</time></trkpt><trkpt lat="44.4438709" lon="8.888455"><ele>30.25</ele><time>2026-03-22T10:50:02.652Z</time></trkpt><trkpt lat="44.443762" lon="8.8884087"><ele>29.5</ele><time>2026-03-22T10:50:03.652Z</time></trkpt><trkpt lat="44.4436441" lon="8.8884062"><ele>28.75</ele><time>2026-03-22T10:50:04.654Z</time></trkpt><trkpt lat="44.4435239" lon="8.8884386"><ele>28.0</ele><time>2026-03-22T10:50:05.652Z</time></trkpt><trkpt lat="44.4433925" lon="8.8884767"><ele>28.0</ele><time>2026-03-22T10:50:06.652Z</time></trkpt><trkpt lat="44.4432468" lon="8.8884776"><ele>28.0</ele><time>2026-03-22T10:50:07.652Z</time></trkpt><trkpt lat="44.4431026" lon="8.8884304"><ele>28.0</ele><time>2026-03-22T10:50:08.652Z</time></trkpt><trkpt lat="44.4429687" lon="8.8883376"><ele>28.0</ele><time>2026-03-22T10:50:09.652Z</time></trkpt><trkpt lat="44.4428406" lon="8.8882203"><ele>28.25</ele><time>2026-03-22T10:50:10.652Z</time></trkpt><trkpt lat="44.4427179" lon="8.8881009"><ele>28.5</ele><time>2026-03-22T10:50:11.652Z</time></trkpt><trkpt lat="44.4426089" lon="8.8879747"><ele>28.75</ele><time>2026-03-22T10:50:12.653Z</time></trkpt><trkpt lat="44.4425073" lon="8.887848"><ele>29.0</ele><time>2026-03-22T10:50:13.652Z</time></trkpt><trkpt lat="44.4423948" lon="8.8877485"><ele>29.0</ele><time>2026-03-22T10:50:14.654Z</time></trkpt><trkpt lat="44.4422699" lon="8.8876732"><ele>29.0</ele><time>2026-03-22T10:50:15.653Z</time></trkpt><trkpt lat="44.4421316" lon="8.8876274"><ele>29.0</ele><time>2026-03-22T10:50:16.652Z</time></trkpt><trkpt lat="44.441985" lon="8.8876092"><ele>29.0</ele><time>2026-03-22T10:50:17.652Z</time></trkpt><trkpt lat="44.441835" lon="8.8876079"><ele>28.333333333333332</ele><time>2026-03-22T10:50:18.652Z</time></trkpt><trkpt lat="44.4416823" lon="8.8876243"><ele>27.666666666666664</ele><time>2026-03-22T10:50:19.652Z</time></trkpt><trkpt lat="44.4415262" lon="8.8876605"><ele>27.0</ele><time>2026-03-22T10:50:20.653Z</time></trkpt><trkpt lat="44.4413675" lon="8.887717"><ele>27.0</ele><time>2026-03-22T10:50:21.654Z</time></trkpt><trkpt lat="44.4412124" lon="8.8877893"><ele>27.0</ele><time>2026-03-22T10:50:22.653Z</time></trkpt><trkpt lat="44.4410675" lon="8.8878776"><ele>27.0</ele><time>2026-03-22T10:50:23.653Z</time></trkpt><trkpt lat="44.4409338" lon="8.8879802"><ele>27.0</ele><time>2026-03-22T10:50:24.652Z</time></trkpt><trkpt lat="44.4408073" lon="8.8880841"><ele>27.0</ele><time>2026-03-22T10:50:25.653Z</time></trkpt><trkpt lat="44.4406822" lon="8.8881787"><ele>27.0</ele><time>2026-03-22T10:50:26.653Z</time></trkpt><trkpt lat="44.4405538" lon="8.8882431"><ele>27.0</ele><time>2026-03-22T10:50:27.652Z</time></trkpt><trkpt lat="44.4404244" lon="8.8882748"><ele>27.333333333333336</ele><time>2026-03-22T10:50:28.652Z</time></trkpt><trkpt lat="44.4402864" lon="8.8882732"><ele>27.666666666666668</ele><time>2026-03-22T10:50:29.653Z</time></trkpt><trkpt lat="44.4401359" lon="8.8882458"><ele>28.0</ele><time>2026-03-22T10:50:30.653Z</time></trkpt><trkpt lat="44.4399757" lon="8.8882102"><ele>28.0</ele><time>2026-03-22T10:50:31.653Z</time></trkpt><trkpt lat="44.4398029" lon="8.8881634"><ele>28.0</ele><time>2026-03-22T10:50:32.653Z</time></trkpt><trkpt lat="44.4396229" lon="8.8881085"><ele>28.0</ele><time>2026-03-22T10:50:33.652Z</time></trkpt><trkpt lat="44.4394382" lon="8.8880542"><ele>27.333333333333336</ele><time>2026-03-22T10:50:34.652Z</time></trkpt><trkpt lat="44.4392528" lon="8.8880044"><ele>26.666666666666664</ele><time>2026-03-22T10:50:35.652Z</time></trkpt><trkpt lat="44.4390705" lon="8.8879561"><ele>26.0</ele><time>2026-03-22T10:50:36.653Z</time></trkpt><trkpt lat="44.438901" lon="8.8879088"><ele>25.5</ele><time>2026-03-22T10:50:37.653Z</time></trkpt><trkpt lat="44.4387449" lon="8.8878618"><ele>25.0</ele><time>2026-03-22T10:50:38.653Z</time></trkpt><trkpt lat="44.4386011" lon="8.8878301"><ele>24.5</ele><time>2026-03-22T10:50:39.654Z</time></trkpt><trkpt lat="44.4384767" lon="8.8877977"><ele>24.0</ele><time>2026-03-22T10:50:40.653Z</time></trkpt><trkpt lat="44.4383645" lon="8.8877844"><ele>24.0</ele><time>2026-03-22T10:50:41.652Z</time></trkpt><trkpt lat="44.4382714" lon="8.8877839"><ele>24.0</ele><time>2026-03-22T10:50:42.652Z</time></trkpt><trkpt lat="44.4382027" lon="8.8877998"><ele>24.0</ele><time>2026-03-22T10:50:43.653Z</time></trkpt><trkpt lat="44.438123" lon="8.8877838"><ele>24.0</ele><time>2026-03-22T10:50:45.652Z</time></trkpt><trkpt lat="44.4380616" lon="8.8876704"><ele>24.0</ele><time>2026-03-22T10:50:47.652Z</time></trkpt><trkpt lat="44.4379533" lon="8.8876341"><ele>24.0</ele><time>2026-03-22T10:50:49.653Z</time></trkpt><trkpt lat="44.4378907" lon="8.8877293"><ele>24.0</ele><time>2026-03-22T10:50:51.654Z</time></trkpt><trkpt lat="44.437933" lon="8.8879077"><ele>24.0</ele><time>2026-03-22T10:50:53.652Z</time></trkpt><trkpt lat="44.4379619" lon="8.8880206"><ele>24.0</ele><time>2026-03-22T10:50:54.653Z</time></trkpt><trkpt lat="44.4379736" lon="8.8881478"><ele>24.0</ele><time>2026-03-22T10:50:55.652Z</time></trkpt><trkpt lat="44.4379832" lon="8.8883097"><ele>25.0</ele><time>2026-03-22T10:50:56.653Z</time></trkpt><trkpt lat="44.4379888" lon="8.8885018"><ele>26.0</ele><time>2026-03-22T10:50:57.653Z</time></trkpt><trkpt lat="44.4379936" lon="8.8887271"><ele>27.0</ele><time>2026-03-22T10:50:58.652Z</time></trkpt><trkpt lat="44.4379993" lon="8.8889608"><ele>27.0</ele><time>2026-03-22T10:50:59.654Z</time></trkpt><trkpt lat="44.4380029" lon="8.889165"><ele>27.0</ele><time>2026-03-22T10:51:00.652Z</time></trkpt><trkpt lat="44.4379921" lon="8.8893771"><ele>27.0</ele><time>2026-03-22T10:51:01.652Z</time></trkpt><trkpt lat="44.4379656" lon="8.8895874"><ele>27.0</ele><time>2026-03-22T10:51:02.652Z</time></trkpt><trkpt lat="44.4379219" lon="8.889793"><ele>27.0</ele><time>2026-03-22T10:51:03.654Z</time></trkpt><trkpt lat="44.4378737" lon="8.8899927"><ele>27.0</ele><time>2026-03-22T10:51:04.653Z</time></trkpt><trkpt lat="44.4378221" lon="8.8901958"><ele>27.0</ele><time>2026-03-22T10:51:05.652Z</time></trkpt><trkpt lat="44.437774" lon="8.8903839"><ele>27.0</ele><time>2026-03-22T10:51:06.652Z</time></trkpt><trkpt lat="44.4377285" lon="8.8905507"><ele>27.0</ele><time>2026-03-22T10:51:07.652Z</time></trkpt><trkpt lat="44.4376878" lon="8.8907013"><ele>27.0</ele><time>2026-03-22T10:51:08.653Z</time></trkpt><trkpt lat="44.4376503" lon="8.8908426"><ele>27.0</ele><time>2026-03-22T10:51:09.652Z</time></trkpt><trkpt lat="44.4376149" lon="8.8909722"><ele>27.000000000000004</ele><time>2026-03-22T10:51:10.653Z</time></trkpt><trkpt lat="44.4375848" lon="8.8910977"><ele>27.000000000000004</ele><time>2026-03-22T10:51:11.652Z</time></trkpt><trkpt lat="44.4375483" lon="8.8912195"><ele>27.0</ele><time>2026-03-22T10:51:12.652Z</time></trkpt><trkpt lat="44.4375036" lon="8.8913339"><ele>27.0</ele><time>2026-03-22T10:51:13.652Z</time></trkpt><trkpt lat="44.4374514" lon="8.8914388"><ele>27.0</ele><time>2026-03-22T10:51:14.652Z</time></trkpt><trkpt lat="44.4373935" lon="8.8915318"><ele>27.0</ele><time>2026-03-22T10:51:15.652Z</time></trkpt><trkpt lat="44.4373283" lon="8.8916099"><ele>27.0</ele><time>2026-03-22T10:51:16.654Z</time></trkpt><trkpt lat="44.4372618" lon="8.8916745"><ele>27.0</ele><time>2026-03-22T10:51:17.653Z</time></trkpt><trkpt lat="44.4371969" lon="8.8917282"><ele>27.0</ele><time>2026-03-22T10:51:18.652Z</time></trkpt><trkpt lat="44.43713" lon="8.8917728"><ele>27.0</ele><time>2026-03-22T10:51:19.653Z</time></trkpt><trkpt lat="44.43706" lon="8.8918052"><ele>26.666666666666668</ele><time>2026-03-22T10:51:20.652Z</time></trkpt><trkpt lat="44.4369807" lon="8.8918316"><ele>26.333333333333336</ele><time>2026-03-22T10:51:21.653Z</time></trkpt><trkpt lat="44.436897" lon="8.8918487"><ele>26.0</ele><time>2026-03-22T10:51:22.653Z</time></trkpt><trkpt lat="44.4368089" lon="8.8918637"><ele>25.666666666666668</ele><time>2026-03-22T10:51:23.652Z</time></trkpt><trkpt lat="44.4367247" lon="8.891884"><ele>25.333333333333336</ele><time>2026-03-22T10:51:24.652Z</time></trkpt><trkpt lat="44.4366536" lon="8.8919218"><ele>25.0</ele><time>2026-03-22T10:51:25.652Z</time></trkpt><trkpt lat="44.4366058" lon="8.8919834"><ele>25.000000000000004</ele><time>2026-03-22T10:51:26.653Z</time></trkpt><trkpt lat="44.4365728" lon="8.8921114"><ele>25.0</ele><time>2026-03-22T10:51:28.652Z</time></trkpt><trkpt lat="44.4365729" lon="8.8922036"><ele>25.0</ele><time>2026-03-22T10:51:30.653Z</time></trkpt><trkpt lat="44.4365679" lon="8.8923148"><ele>25.0</ele><time>2026-03-22T10:51:34.653Z</time></trkpt><trkpt lat="44.436484" lon="8.8923913"><ele>25.000000000000004</ele><time>2026-03-22T10:51:37.653Z</time></trkpt><trkpt lat="44.4363969" lon="8.8923303"><ele>25.0</ele><time>2026-03-22T10:51:39.653Z</time></trkpt><trkpt lat="44.4363586" lon="8.8922498"><ele>25.000000000000004</ele><time>2026-03-22T10:51:40.652Z</time></trkpt><trkpt lat="44.436332" lon="8.8921518"><ele>25.0</ele><time>2026-03-22T10:51:41.652Z</time></trkpt><trkpt lat="44.4363122" lon="8.892057"><ele>25.0</ele><time>2026-03-22T10:51:42.652Z</time></trkpt><trkpt lat="44.4362848" lon="8.8919711"><ele>25.0</ele><time>2026-03-22T10:51:43.653Z</time></trkpt><trkpt lat="44.4362037" lon="8.8918888"><ele>25.000000000000004</ele><time>2026-03-22T10:51:45.652Z</time></trkpt><trkpt lat="44.4361306" lon="8.891925"><ele>25.0</ele><time>2026-03-22T10:51:46.654Z</time></trkpt><trkpt lat="44.4360676" lon="8.8919342"><ele>25.6</ele><time>2026-03-22T10:51:47.654Z</time></trkpt><trkpt lat="44.4359435" lon="8.8919421"><ele>26.2</ele><time>2026-03-22T10:51:49.652Z</time></trkpt><trkpt lat="44.4358185" lon="8.8919766"><ele>26.799999999999997</ele><time>2026-03-22T10:51:51.653Z</time></trkpt><trkpt lat="44.4357471" lon="8.8919844"><ele>27.4</ele><time>2026-03-22T10:51:52.653Z</time></trkpt><trkpt lat="44.435677" lon="8.892006"><ele>28.0</ele><time>2026-03-22T10:51:53.653Z</time></trkpt><trkpt lat="44.4356004" lon="8.8920188"><ele>28.0</ele><time>2026-03-22T10:51:54.652Z</time></trkpt><trkpt lat="44.435522" lon="8.892026"><ele>28.0</ele><time>2026-03-22T10:51:55.653Z</time></trkpt><trkpt lat="44.4354448" lon="8.8920304"><ele>28.0</ele><time>2026-03-22T10:51:56.652Z</time></trkpt><trkpt lat="44.4353828" lon="8.8920466"><ele>28.0</ele><time>2026-03-22T10:51:57.653Z</time></trkpt><trkpt lat="44.4352669" lon="8.8920598"><ele>28.0</ele><time>2026-03-22T10:51:59.653Z</time></trkpt><trkpt lat="44.4351848" lon="8.8920518"><ele>28.0</ele><time>2026-03-22T10:52:01.652Z</time></trkpt></trkseg></trk></gpx>